GFSWCAN_prec_snow_027.txt.gz
Snowfall_Accumulation
0.0 0.0 0.0 0.0 0.0 0.0 0.0 0.0 0.0 0.0 0.0 0.0 0.0 0.0 0.0 0.0 0.0 0.0 0.0 0.0 0.0 0.0 0.0 0.0 0.0 0.0 0.0 0.0 0.0 0.0 0.0 0.0 0.0 0.7 0.0 0.0 0.1 0.0 0.0 0.0 0.0 0.0 0.1 0.1 0.4 0.3 0.0 0.0 0.0 0.0 0.0 0.0 0.0 0.0
0.0 0.0 0.0 0.0 0.0 0.0 0.0 0.0 0.0 0.0 0.0 0.0 0.0 0.0 0.0 0.0 0.0 0.0 0.0 0.0 0.0 0.0 0.0 0.0 0.0 0.0 0.0 0.0 0.0 0.0 0.0 0.0 0.0 0.0 0.0 0.0 0.1 0.0 0.0 0.0 0.0 0.0 0.0 0.0 0.0 0.0 0.0 0.0 0.0 0.0 0.0 0.0 0.0 0.0
0.0 0.0 0.0 0.0 0.0 0.0 0.0 0.0 0.0 0.0 0.0 0.0 0.0 0.0 0.0 0.0 0.0 0.0 0.0 0.0 0.0 0.1 0.0 0.0 0.0 0.0 0.0 0.0 0.0 0.0 0.0 0.0 0.0 0.0 0.0 0.0 0.0 0.0 0.1 0.0 0.0 0.0 0.0 0.0 0.0 0.0 0.0 0.0 0.0 0.0 0.0 0.0 0.0 0.0
0.0 0.0 0.0 0.0 0.0 0.0 0.0 0.0 0.0 0.0 0.0 0.0 0.0 0.0 0.0 0.0 0.0 0.0 0.0 0.0 0.0 0.1 0.6 0.0 0.0 0.0 0.0 0.0 0.0 0.0 0.0 0.0 0.0 0.0 0.0 0.0 0.0 0.0 0.0 0.0 0.0 0.0 0.0 0.0 0.0 0.0 0.0 0.0 0.0 0.0 0.0 0.0 0.0 0.0
0.0 0.0 0.0 0.0 0.0 0.0 0.0 0.0 0.0 0.0 0.0 0.0 0.0 0.0 0.0 0.0 0.0 0.0 0.0 0.0 0.0 0.2 1.6 0.3 0.0 0.0 0.0 0.0 0.0 0.0 0.0 0.0 0.5 0.3 0.0 0.0 0.0 0.0 0.0 0.0 0.0 0.0 0.0 0.0 0.0 0.0 0.0 0.0 0.0 0.0 0.0 0.0 0.0 0.0
0.0 0.0 0.0 0.0 0.0 0.0 0.0 0.0 0.0 0.0 0.0 0.0 0.0 0.0 0.0 0.0 0.0 0.0 0.0 0.0 0.0 0.0 2.7 1.6 0.0 0.0 0.0 0.0 0.0 0.0 0.0 0.0 0.0 1.1 0.0 0.0 0.0 0.0 0.0 0.0 0.0 0.0 0.0 0.0 0.0 0.0 0.0 0.0 0.0 0.0 0.0 0.0 0.0 0.0
0.0 0.0 0.0 0.0 0.0 0.0 0.0 0.0 0.0 0.0 0.0 0.0 0.0 0.0 0.0 0.0 0.0 0.2 0.0 0.0 0.0 0.0 1.4 3.7 4.0 0.0 0.0 0.0 0.0 0.0 0.0 0.0 2.0 2.2 0.0 0.0 0.0 0.0 0.0 0.0 0.0 0.0 0.0 0.0 0.0 0.0 0.0 0.0 0.0 0.0 0.0 0.0 0.0 0.0
0.0 0.0 0.0 0.0 0.0 0.0 0.0 0.0 0.0 0.0 0.0 0.0 0.0 0.0 0.0 0.0 0.0 0.0 0.0 0.0 0.0 0.0 4.3 8.5 7.1 2.9 0.0 0.0 0.0 0.0 0.0 0.0 0.0 0.0 0.0 0.0 0.0 0.0 0.0 0.0 0.0 0.0 0.0 0.0 0.0 0.0 0.0 0.0 0.0 0.0 0.0 0.0 0.0 0.0
0.0 0.0 0.0 0.0 0.0 0.0 0.0 0.0 0.0 0.0 0.0 0.0 0.0 0.0 0.0 0.0 0.0 0.0 0.0 0.0 0.0 0.0 7.1 6.5 6.4 4.8 0.0 0.0 0.0 0.0 0.0 4.5 0.0 0.0 0.0 0.0 0.0 0.0 0.0 0.0 0.0 0.0 0.0 0.0 0.0 0.0 0.0 0.0 0.0 0.0 0.0 0.0 0.0 0.0
0.0 0.0 0.0 0.0 0.0 0.0 0.0 0.0 0.0 0.0 0.0 0.0 0.0 0.0 0.8 0.0 0.0 0.0 0.0 0.3 4.0 3.1 3.4 4.6 4.0 5.2 2.1 2.9 0.0 0.0 0.0 1.7 3.5 0.0 0.0 0.0 0.0 0.0 0.0 0.0 0.0 0.0 0.0 0.0 0.0 0.0 0.0 0.0 0.0 0.0 0.0 0.0 0.0 0.0
0.0 0.0 0.0 0.0 0.0 0.0 0.0 0.0 0.0 0.0 0.0 0.0 0.0 0.0 0.0 0.0 0.0 0.0 5.5 6.2 3.3 2.0 2.0 3.0 3.7 2.4 0.0 1.5 0.0 0.0 0.0 0.0 0.8 0.4 0.0 0.1 0.0 0.0 0.0 0.0 0.0 0.0 0.0 0.0 0.0 0.0 0.0 0.0 0.0 0.0 0.0 0.0 0.0 0.0
0.0 0.0 0.0 0.0 0.0 0.0 0.0 0.0 0.0 0.0 0.0 0.0 0.0 0.0 0.0 0.8 3.8 4.8 5.6 3.7 1.0 0.6 0.9 2.2 1.0 0.0 0.0 0.0 0.0 0.0 0.0 0.3 0.1 0.0 0.0 0.0 0.0 0.0 0.0 0.0 0.0 0.0 0.0 0.0 0.0 0.0 0.0 0.0 0.0 0.0 0.0 0.0 0.0 0.0
0.0 0.0 0.0 0.0 0.0 0.0 0.0 0.0 0.0 0.0 0.0 0.0 0.0 0.0 0.4 1.0 2.1 2.9 2.9 2.5 0.4 0.4 0.6 0.9 1.1 0.0 0.0 0.0 0.0 0.0 0.0 0.0 0.0 0.0 0.0 0.0 0.0 0.0 0.0 0.0 0.0 0.0 0.0 0.0 0.0 0.0 0.0 0.0 0.0 0.0 0.0 0.0 0.0 0.0
0.0 0.0 0.0 0.0 0.0 0.0 0.0 0.0 0.0 0.0 0.0 0.0 0.0 0.0 0.5 0.8 1.2 1.2 1.1 1.1 0.2 0.1 0.0 0.0 0.6 0.9 0.0 0.3 0.0 0.0 0.0 0.0 0.0 0.0 0.0 0.0 0.0 0.0 0.0 0.0 0.0 0.0 0.0 0.0 0.0 0.0 0.0 0.0 0.0 0.0 0.0 0.0 0.0 0.0
0.0 0.0 0.0 0.0 0.0 0.0 0.0 0.0 0.0 0.0 0.0 0.0 0.0 0.0 0.0 0.0 0.2 0.1 0.0 0.2 0.0 0.0 0.1 0.0 0.0 0.1 0.8 0.7 0.0 0.1 0.0 0.0 0.0 0.0 0.0 0.0 0.0 0.0 0.0 0.0 0.0 0.0 0.0 0.0 0.0 0.0 0.0 0.0 0.0 0.0 0.0 0.0 0.0 0.0
0.0 0.0 0.0 0.0 0.0 0.0 0.0 0.0 0.0 0.0 0.0 0.0 0.0 0.0 0.0 0.0 0.0 0.0 0.0 0.0 0.0 0.0 0.3 0.3 0.5 0.6 0.3 0.3 0.0 0.0 0.0 0.0 0.0 0.0 0.0 0.0 0.0 0.0 0.0 0.0 0.0 0.0 0.0 0.0 0.0 0.0 0.0 0.0 0.0 0.0 0.0 0.0 0.0 0.0
0.0 0.0 0.0 0.0 0.0 0.0 0.0 0.0 0.0 0.0 0.0 0.0 0.0 0.0 0.0 0.0 0.0 0.0 0.0 0.0 0.0 0.2 1.6 2.1 2.1 0.1 0.4 0.2 0.0 0.0 0.0 0.0 0.0 0.0 0.0 0.0 0.0 0.0 0.0 0.0 0.0 0.0 0.0 0.0 0.0 0.0 0.0 0.0 0.0 0.0 0.0 0.0 0.0 0.0
0.0 0.0 0.0 0.0 0.0 0.0 0.0 0.0 0.0 0.0 0.0 0.0 0.0 0.0 0.0 0.0 0.0 0.0 0.0 0.0 0.0 0.1 2.1 5.1 2.8 1.7 0.2 0.0 0.0 0.0 0.0 0.0 0.0 0.0 0.0 0.0 0.0 0.0 0.0 0.0 0.0 0.0 0.0 0.0 0.0 0.0 0.0 0.0 0.0 0.0 0.0 0.0 0.0 0.0
0.0 0.0 0.0 0.0 0.0 0.0 0.6 0.2 0.0 0.0 0.0 0.0 0.0 0.0 0.0 0.0 0.0 0.0 0.0 0.0 0.0 0.1 1.0 2.4 2.6 0.6 0.0 0.0 0.0 0.0 0.0 0.0 0.0 0.0 0.0 0.0 0.0 0.0 0.0 0.0 0.0 0.0 0.0 0.0 0.0 0.0 0.0 0.0 0.0 0.0 0.0 0.0 0.0 0.0
0.0 0.0 0.0 0.0 0.0 0.3 0.6 0.1 0.0 0.0 0.0 0.0 0.0 0.0 0.0 0.0 0.0 0.0 0.1 0.0 0.1 0.1 0.1 1.0 0.0 0.1 0.1 0.3 0.5 0.4 0.0 0.0 0.0 0.0 0.0 0.0 0.0 0.0 0.0 0.0 0.0 0.0 0.0 0.0 0.0 0.0 0.0 0.0 0.0 0.0 0.0 0.0 0.0 0.0
0.0 0.0 0.0 0.0 1.4 0.8 0.5 0.0 0.0 0.0 0.0 0.0 0.0 0.0 0.0 0.0 0.0 0.0 0.1 0.1 0.3 0.4 0.0 0.2 0.0 0.0 0.4 0.4 0.2 0.4 0.2 0.1 0.0 0.0 0.0 0.0 0.0 0.0 0.0 0.0 0.0 0.0 0.0 0.0 0.0 0.0 0.0 0.0 0.0 0.0 0.0 0.0 0.0 0.0
0.4 0.0 1.4 2.8 1.8 1.0 0.5 0.0 0.0 0.0 0.0 0.0 0.0 0.0 0.0 0.0 0.0 0.0 0.0 0.2 0.0 0.0 0.1 0.2 0.0 0.0 0.0 0.0 0.6 0.4 0.5 0.0 0.1 0.0 0.0 0.0 0.0 0.0 0.0 0.0 0.0 0.0 0.0 0.0 0.0 0.0 0.0 0.0 0.0 0.0 0.0 0.0 0.0 0.0
0.0 2.7 3.5 2.6 1.8 1.1 0.3 0.0 0.0 0.0 0.0 0.0 0.0 0.0 0.0 0.0 0.0 0.0 0.0 0.0 0.0 0.0 0.0 0.0 0.0 0.7 0.9 0.9 1.3 1.1 0.7 0.1 0.0 0.0 0.1 0.0 0.0 0.0 0.0 0.0 0.0 0.0 0.0 0.0 0.0 0.0 0.0 0.0 0.0 0.0 0.0 0.0 0.0 0.0
0.0 3.4 3.2 2.1 1.1 0.4 0.2 0.0 0.1 0.0 0.0 0.0 0.0 0.0 0.0 0.0 0.0 0.0 0.0 0.0 0.0 0.0 0.0 0.0 0.0 0.0 0.0 0.6 0.9 1.5 2.0 1.4 0.4 0.0 0.6 0.3 0.0 0.0 0.0 0.0 0.0 0.0 0.0 0.0 0.0 0.0 0.0 0.0 0.0 0.0 0.0 0.0 0.0 0.0
5.7 4.1 2.3 1.6 0.6 0.2 0.1 0.1 0.1 0.0 0.0 0.0 0.0 0.0 0.0 0.0 0.0 0.0 0.0 0.0 0.0 0.0 0.0 0.0 0.0 0.0 0.0 0.0 0.5 0.6 0.9 1.3 1.9 1.8 0.2 1.5 0.7 0.2 0.0 0.0 0.2 0.1 0.0 0.0 0.0 0.0 0.0 0.0 0.0 0.0 0.0 0.0 0.0 0.0
4.7 1.9 0.6 0.0 0.0 0.0 0.0 0.0 0.0 0.0 0.0 0.0 0.0 0.0 0.0 0.0 0.0 0.0 0.0 0.0 0.0 0.0 0.0 0.0 0.0 0.0 0.0 0.0 0.0 0.5 0.7 0.9 0.8 1.1 0.2 1.7 1.5 1.9 1.5 1.2 0.7 0.3 0.0 0.0 0.2 0.2 0.1 0.0 0.0 0.0 0.0 0.0 0.0 0.0
1.9 0.9 0.0 0.1 0.0 0.0 0.0 0.0 0.0 0.0 0.0 0.0 0.0 0.0 0.0 0.0 0.0 0.0 0.0 0.0 0.0 0.0 0.0 0.0 0.0 0.0 0.0 0.0 0.0 0.0 0.7 0.9 0.8 0.4 0.2 1.2 1.1 0.9 0.5 1.3 1.1 0.8 0.6 1.1 0.9 0.6 0.5 0.3 0.2 0.1 0.3 0.2 0.2 0.2
0.0 0.0 0.0 0.0 0.0 0.0 0.0 0.0 0.0 0.0 0.0 0.0 0.0 0.0 0.0 0.0 0.0 0.0 0.0 0.0 0.0 0.0 0.0 0.0 0.0 0.0 0.0 0.0 0.0 0.4 0.6 0.8 0.8 0.5 1.2 1.3 1.1 1.0 0.9 1.1 2.2 2.5 1.9 1.5 1.1 1.3 1.4 1.0 0.7 0.9 0.7 0.4 0.5 0.5
0.1 0.0 0.0 0.0 0.0 0.0 0.0 0.0 0.0 0.0 0.0 0.0 0.0 0.0 0.0 0.0 0.0 0.0 0.0 0.0 0.0 0.0 0.0 0.0 0.0 0.0 0.0 0.0 0.0 0.4 0.5 0.8 1.1 1.0 0.8 0.8 1.0 1.2 1.4 2.6 3.3 4.1 4.0 3.6 3.1 2.3 1.6 1.5 2.0 1.9 1.9 1.8 1.6 1.6
0.0 0.0 0.0 0.0 0.0 0.0 0.0 0.0 0.0 0.0 0.0 0.0 0.0 0.0 0.0 0.0 0.0 0.0 0.0 0.0 0.0 0.0 0.0 0.0 0.0 0.0 0.0 0.0 0.0 0.4 0.4 0.4 0.9 0.9 0.9 0.8 0.9 1.1 2.3 2.8 3.6 4.1 4.5 4.0 4.8 5.6 5.2 4.9 5.4 5.1 4.3 3.8 3.4 2.9
0.0 0.0 0.0 0.0 0.0 0.0 0.0 0.0 0.0 0.0 0.0 0.0 0.0 0.0 0.0 0.0 0.0 0.0 0.0 0.0 0.0 0.0 0.0 0.0 0.0 0.1 0.2 0.3 0.5 0.7 0.6 0.7 0.7 1.2 1.4 1.6 1.5 2.1 2.0 3.3 3.4 4.2 4.6 4.7 4.2 4.0 3.7 3.2 2.8 2.6 2.9 2.6 2.6 2.2
0.0 0.0 0.0 0.0 0.0 0.0 0.0 0.0 0.0 0.0 0.0 0.0 0.0 0.0 0.0 0.0 0.0 0.0 0.0 0.0 0.0 0.0 0.0 0.0 0.2 0.4 0.5 0.7 0.9 1.1 1.6 1.7 1.0 1.6 1.7 1.6 2.0 1.8 2.9 3.3 4.0 4.2 4.6 4.5 4.0 3.6 3.3 3.1 3.6 3.4 3.6 3.7 3.5 3.0
0.2 0.0 0.0 0.0 0.0 0.0 0.0 0.0 0.0 0.0 0.0 0.0 0.0 0.0 0.0 0.0 0.0 0.0 0.0 0.0 0.0 0.0 0.0 0.4 0.5 0.7 1.2 1.5 1.4 2.1 2.3 1.9 2.8 3.0 3.4 3.4 3.1 3.2 3.9 3.9 4.2 4.1 3.9 4.1 4.4 4.6 4.6 4.3 4.0 3.8 3.5 3.4 3.3 3.1

GFSWCAN_prec_snow_030.txt.gz
Snowfall_Accumulation
0.0 0.0 0.0 0.0 0.0 0.0 0.0 0.0 0.0 0.0 0.0 0.0 0.0 0.0 0.0 0.0 0.0 0.0 0.0 0.0 0.0 0.0 0.0 0.0 0.0 0.0 0.0 0.0 0.0 0.0 0.0 0.0 0.0 0.7 0.0 0.0 0.1 0.0 0.0 0.0 0.0 0.0 0.2 0.2 0.5 0.3 0.0 0.0 0.0 0.0 0.0 0.0 0.0 0.0
0.0 0.0 0.0 0.0 0.0 0.0 0.0 0.0 0.0 0.0 0.0 0.0 0.0 0.0 0.0 0.0 0.0 0.0 0.0 0.0 0.0 0.0 0.0 0.0 0.0 0.0 0.0 0.0 0.0 0.0 0.0 0.0 0.0 0.0 0.0 0.0 0.1 0.0 0.0 0.0 0.0 0.0 0.0 0.0 0.0 0.0 0.0 0.0 0.0 0.0 0.0 0.0 0.0 0.0
0.0 0.0 0.0 0.0 0.0 0.0 0.0 0.0 0.0 0.0 0.0 0.0 0.0 0.0 0.0 0.0 0.0 0.0 0.0 0.0 0.0 0.1 0.0 0.0 0.0 0.0 0.0 0.0 0.0 0.0 0.0 0.0 0.0 0.0 0.0 0.0 0.0 0.0 0.1 0.0 0.0 0.0 0.0 0.0 0.0 0.0 0.0 0.0 0.0 0.0 0.0 0.0 0.0 0.0
0.0 0.0 0.0 0.0 0.0 0.0 0.0 0.0 0.0 0.0 0.0 0.0 0.0 0.0 0.0 0.0 0.0 0.0 0.0 0.0 0.0 0.1 0.7 0.1 0.0 0.0 0.0 0.0 0.0 0.0 0.0 0.0 0.0 0.0 0.0 0.0 0.0 0.0 0.0 0.0 0.0 0.0 0.0 0.0 0.0 0.0 0.0 0.0 0.0 0.0 0.0 0.0 0.0 0.0
0.0 0.0 0.0 0.0 0.0 0.0 0.0 0.0 0.0 0.0 0.0 0.0 0.0 0.0 0.0 0.0 0.0 0.0 0.0 0.0 0.0 0.2 1.7 0.3 0.0 0.0 0.0 0.0 0.0 0.0 0.0 0.0 0.5 0.3 1.1 0.0 0.0 0.0 0.0 0.0 0.0 0.0 0.0 0.0 0.0 0.0 0.0 0.0 0.0 0.0 0.0 0.0 0.0 0.0
0.0 0.0 0.0 0.0 0.0 0.0 0.0 0.0 0.0 0.0 0.0 0.0 0.0 0.0 0.0 0.0 0.0 0.0 0.0 0.0 0.0 0.0 2.8 1.6 0.0 0.0 0.0 0.0 0.0 0.0 0.0 0.0 0.1 1.1 1.6 0.0 0.0 0.0 0.0 0.0 0.0 0.0 0.0 0.0 0.0 0.0 0.0 0.0 0.0 0.0 0.0 0.0 0.0 0.0
0.0 0.0 0.0 0.0 0.0 0.0 0.0 0.0 0.0 0.0 0.0 0.0 0.0 0.0 0.0 0.0 0.0 0.2 0.0 0.0 0.0 0.0 1.5 3.7 4.0 0.0 0.0 0.0 0.0 0.0 0.0 0.0 2.0 3.2 1.4 0.0 0.0 0.0 0.0 0.0 0.0 0.0 0.0 0.0 0.0 0.0 0.0 0.0 0.0 0.0 0.0 0.0 0.0 0.0
0.0 0.0 0.0 0.0 0.0 0.0 0.0 0.0 0.0 0.0 0.0 0.0 0.0 0.0 0.0 0.0 0.0 0.0 0.0 0.0 0.0 0.0 4.3 8.5 7.1 2.9 0.0 0.3 0.0 0.0 0.0 0.0 0.5 1.4 0.0 0.0 0.0 0.0 0.0 0.0 0.0 0.0 0.0 0.0 0.0 0.0 0.0 0.0 0.0 0.0 0.0 0.0 0.0 0.0
0.0 0.0 0.0 0.0 0.0 0.0 0.0 0.0 0.0 0.0 0.0 0.0 0.0 0.0 0.0 0.0 0.0 0.0 0.0 0.0 0.0 0.0 7.1 6.5 6.4 4.8 0.0 0.0 0.0 0.0 0.0 4.5 0.0 1.4 0.0 0.0 0.0 0.1 0.0 0.0 0.0 0.0 0.0 0.0 0.0 0.0 0.0 0.0 0.0 0.0 0.0 0.0 0.0 0.0
0.0 0.0 0.0 0.0 0.0 0.0 0.0 0.0 0.0 0.0 0.0 0.0 0.0 0.0 0.8 0.0 0.0 0.0 0.0 0.5 4.2 3.2 3.5 4.8 4.4 5.7 2.7 3.6 0.9 0.8 1.4 2.7 3.5 0.0 0.0 1.0 0.0 0.0 0.0 0.0 0.0 0.0 0.0 0.0 0.0 0.0 0.0 0.0 0.0 0.0 0.0 0.0 0.0 0.0
0.0 0.0 0.0 0.0 0.0 0.0 0.0 0.0 0.0 0.0 0.0 0.0 0.0 0.0 0.0 0.0 0.0 0.0 5.5 6.3 3.4 2.1 2.1 3.2 4.3 3.4 0.0 3.5 1.7 0.0 2.8 1.2 2.2 1.8 0.0 0.3 0.0 0.0 0.0 0.0 0.0 0.0 0.0 0.0 0.0 0.0 0.0 0.0 0.0 0.0 0.0 0.0 0.0 0.0
0.0 0.0 0.0 0.0 0.0 0.0 0.0 0.0 0.0 0.0 0.0 0.0 0.0 0.0 0.0 0.8 3.8 4.8 5.6 3.7 1.1 0.8 1.4 2.7 1.5 0.8 0.6 0.0 0.0 0.0 0.5 0.6 0.6 0.0 0.0 0.0 0.0 0.0 0.0 0.0 0.0 0.0 0.0 0.0 0.0 0.0 0.0 0.0 0.0 0.0 0.0 0.0 0.0 0.0
0.0 0.0 0.0 0.0 0.0 0.0 0.0 0.0 0.0 0.0 0.0 0.0 0.0 0.0 0.4 1.0 2.1 3.0 2.9 2.5 0.5 0.7 0.9 0.9 1.1 0.0 0.0 0.0 0.0 0.0 0.0 0.0 0.0 0.0 0.0 0.0 0.0 0.0 0.0 0.0 0.0 0.0 0.0 0.0 0.0 0.0 0.0 0.0 0.0 0.0 0.0 0.0 0.0 0.0
0.0 0.0 0.0 0.0 0.0 0.0 0.0 0.0 0.0 0.0 0.0 0.0 0.0 0.0 0.5 0.8 1.2 1.2 1.1 1.1 0.2 0.1 0.0 0.0 0.6 1.2 0.0 0.6 0.0 0.1 0.0 0.0 0.0 0.0 0.0 0.0 0.0 0.0 0.0 0.0 0.0 0.0 0.0 0.0 0.0 0.0 0.0 0.0 0.0 0.0 0.0 0.0 0.0 0.0
0.0 0.0 0.0 0.0 0.0 0.0 0.0 0.0 0.0 0.0 0.0 0.0 0.0 0.0 0.0 0.0 0.2 0.1 0.0 0.2 0.0 0.0 0.1 0.0 0.0 0.1 1.0 1.1 0.0 0.1 0.0 0.0 0.0 0.0 0.0 0.0 0.0 0.0 0.0 0.0 0.0 0.0 0.0 0.0 0.0 0.0 0.0 0.0 0.0 0.0 0.0 0.0 0.0 0.0
0.0 0.0 0.0 0.0 0.0 0.0 0.0 0.0 0.0 0.0 0.0 0.0 0.0 0.0 0.0 0.0 0.0 0.0 0.0 0.0 0.0 0.0 0.3 0.4 0.5 0.8 0.5 0.8 0.2 0.0 0.0 0.0 0.0 0.0 0.0 0.0 0.0 0.0 0.0 0.0 0.0 0.0 0.0 0.0 0.0 0.0 0.0 0.0 0.0 0.0 0.0 0.0 0.0 0.0
0.0 0.0 0.0 0.0 0.0 0.0 0.0 0.0 0.0 0.0 0.0 0.0 0.0 0.0 0.0 0.0 0.0 0.0 0.0 0.0 0.0 0.2 1.6 2.1 2.4 0.1 0.4 0.5 0.0 0.0 0.0 0.0 0.0 0.0 0.0 0.0 0.0 0.0 0.0 0.0 0.0 0.0 0.0 0.0 0.0 0.0 0.0 0.0 0.0 0.0 0.0 0.0 0.0 0.0
0.0 0.0 0.0 0.0 0.0 0.0 0.0 0.0 0.0 0.0 0.0 0.0 0.0 0.0 0.0 0.0 0.0 0.0 0.0 0.0 0.0 0.1 2.1 5.1 2.8 1.7 0.4 0.1 0.0 0.0 0.0 0.0 0.0 0.0 0.0 0.0 0.0 0.0 0.0 0.0 0.0 0.0 0.0 0.0 0.0 0.0 0.0 0.0 0.0 0.0 0.0 0.0 0.0 0.0
0.0 0.0 0.0 0.0 0.0 0.0 0.6 0.3 0.0 0.0 0.0 0.0 0.0 0.0 0.0 0.0 0.0 0.0 0.0 0.0 0.0 0.1 1.1 2.4 2.6 0.6 0.0 0.0 0.0 0.0 0.0 0.0 0.0 0.0 0.0 0.0 0.0 0.0 0.0 0.0 0.0 0.0 0.0 0.0 0.0 0.0 0.0 0.0 0.0 0.0 0.0 0.0 0.0 0.0
0.0 0.0 0.0 0.0 0.0 0.3 1.2 0.1 0.1 0.0 0.0 0.0 0.0 0.0 0.0 0.0 0.0 0.0 0.1 0.0 0.1 0.1 0.1 1.0 0.0 0.1 0.1 0.3 0.5 0.4 0.0 0.0 0.0 0.0 0.0 0.0 0.0 0.0 0.0 0.0 0.0 0.0 0.0 0.0 0.0 0.0 0.0 0.0 0.0 0.0 0.0 0.0 0.0 0.0
0.0 0.0 0.0 0.0 1.4 0.8 0.9 0.0 0.0 0.0 0.0 0.0 0.0 0.0 0.0 0.0 0.0 0.0 0.1 0.1 0.4 0.4 0.0 0.2 0.0 0.0 0.4 0.4 0.2 0.4 0.2 0.1 0.0 0.0 0.0 0.0 0.0 0.0 0.0 0.0 0.0 0.0 0.0 0.0 0.0 0.0 0.0 0.0 0.0 0.0 0.0 0.0 0.0 0.0
0.4 0.0 1.4 2.8 1.8 1.5 0.7 0.0 0.0 0.0 0.0 0.0 0.0 0.0 0.0 0.0 0.0 0.0 0.0 0.2 0.0 0.0 0.1 0.2 0.0 0.0 0.0 0.0 0.6 0.4 0.5 0.0 0.1 0.0 0.0 0.0 0.0 0.0 0.0 0.0 0.0 0.0 0.0 0.0 0.0 0.0 0.0 0.0 0.0 0.0 0.0 0.0 0.0 0.0
0.0 2.7 3.5 2.6 1.8 1.3 0.3 0.0 0.1 0.0 0.0 0.0 0.0 0.0 0.0 0.0 0.0 0.0 0.0 0.0 0.0 0.0 0.0 0.0 0.0 0.7 0.9 0.9 1.3 1.1 0.7 0.1 0.0 0.0 0.1 0.0 0.0 0.0 0.0 0.0 0.0 0.0 0.0 0.0 0.0 0.0 0.0 0.0 0.0 0.0 0.0 0.0 0.0 0.0
0.0 3.4 3.5 2.3 1.3 0.4 0.2 0.0 0.2 0.0 0.0 0.0 0.0 0.0 0.0 0.0 0.0 0.0 0.0 0.0 0.0 0.0 0.0 0.0 0.0 0.0 0.0 0.6 0.9 1.5 2.0 1.4 0.4 0.0 0.6 0.3 0.0 0.0 0.0 0.0 0.0 0.0 0.0 0.0 0.0 0.0 0.0 0.0 0.0 0.0 0.0 0.0 0.0 0.0
7.0 5.7 2.8 1.8 0.6 0.4 0.1 0.2 0.1 0.0 0.0 0.0 0.0 0.0 0.0 0.0 0.0 0.0 0.0 0.0 0.0 0.0 0.0 0.0 0.0 0.0 0.0 0.0 0.5 0.6 0.9 1.3 1.9 1.8 0.2 1.5 0.7 0.2 0.0 0.0 0.2 0.1 0.0 0.0 0.0 0.0 0.0 0.0 0.0 0.0 0.0 0.0 0.0 0.0
5.9 2.2 0.7 0.0 0.0 0.0 0.0 0.0 0.0 0.0 0.0 0.0 0.0 0.0 0.0 0.0 0.0 0.0 0.0 0.0 0.0 0.0 0.0 0.0 0.0 0.0 0.0 0.0 0.0 0.5 0.7 0.9 0.8 1.1 0.2 1.7 1.5 1.9 1.5 1.2 0.7 0.3 0.0 0.0 0.2 0.2 0.1 0.0 0.0 0.0 0.0 0.0 0.0 0.0
2.4 0.9 0.0 0.1 0.1 0.1 0.0 0.0 0.0 0.0 0.0 0.0 0.0 0.0 0.0 0.0 0.0 0.0 0.0 0.0 0.0 0.0 0.0 0.0 0.0 0.0 0.0 0.0 0.0 0.0 0.7 0.9 0.8 0.4 0.2 1.2 1.1 0.9 0.5 1.3 1.1 0.8 0.6 1.1 0.9 0.6 0.5 0.3 0.2 0.1 0.3 0.2 0.2 0.2
0.0 0.0 0.0 0.0 0.0 0.0 0.0 0.0 0.0 0.0 0.0 0.0 0.0 0.0 0.0 0.0 0.0 0.0 0.0 0.0 0.0 0.0 0.0 0.0 0.0 0.0 0.0 0.0 0.0 0.4 0.6 0.8 0.8 0.5 1.2 1.3 1.1 1.0 0.9 1.1 2.2 2.5 1.9 1.5 1.1 1.3 1.4 1.0 0.7 0.9 0.7 0.4 0.5 0.5
0.1 0.0 0.0 0.0 0.0 0.0 0.0 0.0 0.1 0.0 0.0 0.0 0.0 0.0 0.0 0.0 0.0 0.0 0.0 0.0 0.0 0.0 0.0 0.0 0.0 0.0 0.0 0.0 0.0 0.4 0.5 0.8 1.1 1.0 0.8 0.8 1.0 1.2 1.4 2.6 3.3 4.1 4.0 3.6 3.1 2.3 1.6 1.5 2.0 1.9 1.9 1.8 1.6 1.6
0.0 0.0 0.0 0.0 0.0 0.0 0.0 0.0 0.0 0.0 0.0 0.0 0.0 0.0 0.0 0.0 0.0 0.0 0.0 0.0 0.0 0.0 0.0 0.0 0.0 0.0 0.0 0.0 0.0 0.4 0.4 0.4 0.9 0.9 0.9 0.8 0.9 1.1 2.3 2.8 3.6 4.1 4.5 4.0 4.8 5.6 5.2 4.9 5.4 5.1 4.3 3.8 3.4 2.9
0.0 0.0 0.0 0.0 0.0 0.0 0.0 0.0 0.0 0.0 0.0 0.0 0.0 0.0 0.0 0.0 0.0 0.0 0.0 0.0 0.0 0.0 0.0 0.0 0.0 0.1 0.2 0.3 0.5 0.7 0.6 0.7 0.7 1.2 1.4 1.6 1.5 2.1 2.0 3.3 3.4 4.2 4.6 4.7 4.2 4.0 3.7 3.2 2.8 2.6 2.9 2.6 2.6 2.2
0.0 0.0 0.0 0.0 0.0 0.0 0.0 0.0 0.0 0.0 0.0 0.0 0.0 0.0 0.0 0.0 0.0 0.0 0.0 0.0 0.0 0.0 0.0 0.0 0.2 0.4 0.5 0.7 0.9 1.1 1.6 1.7 1.0 1.6 1.7 1.6 2.0 1.8 2.9 3.3 4.0 4.2 4.6 4.5 4.0 3.6 3.4 3.2 3.6 3.4 3.6 3.7 3.5 3.0
0.2 0.0 0.0 0.0 0.0 0.0 0.0 0.0 0.0 0.0 0.0 0.0 0.0 0.0 0.0 0.0 0.0 0.0 0.0 0.0 0.0 0.0 0.0 0.4 0.5 0.7 1.2 1.5 1.4 2.1 2.3 1.9 2.8 3.0 3.4 3.4 3.1 3.2 3.9 3.9 4.2 4.1 3.9 4.1 4.4 4.6 4.6 4.3 4.0 3.8 3.5 3.4 3.3 3.1

GFSWCAN_prec_snow_033.txt.gz
Snowfall_Accumulation
0.0 0.0 0.0 0.0 0.0 0.0 0.0 0.0 0.0 0.0 0.0 0.0 0.0 0.0 0.0 0.0 0.0 0.0 0.0 0.0 0.0 0.0 0.0 0.0 0.0 0.0 0.0 0.0 0.0 0.0 0.0 0.0 0.0 0.7 0.0 0.0 0.1 0.0 0.0 0.0 0.0 0.0 0.2 0.2 0.5 0.3 0.0 0.0 0.0 0.0 0.0 0.0 0.0 0.0
0.0 0.0 0.0 0.0 0.0 0.0 0.0 0.0 0.0 0.0 0.0 0.0 0.0 0.0 0.0 0.0 0.0 0.0 0.0 0.0 0.0 0.0 0.0 0.0 0.0 0.0 0.0 0.0 0.0 0.0 0.0 0.0 0.0 0.0 0.0 0.0 0.1 0.0 0.0 0.0 0.0 0.0 0.0 0.0 0.0 0.0 0.0 0.0 0.0 0.0 0.0 0.0 0.0 0.0
0.0 0.0 0.0 0.0 0.0 0.0 0.0 0.0 0.0 0.0 0.0 0.0 0.0 0.0 0.0 0.0 0.0 0.0 0.0 0.0 0.0 0.1 0.0 0.0 0.0 0.0 0.0 0.0 0.0 0.0 0.0 0.0 0.0 0.0 0.0 0.0 0.0 0.0 0.1 0.0 0.0 0.0 0.0 0.0 0.0 0.0 0.0 0.0 0.0 0.0 0.0 0.0 0.0 0.0
0.0 0.0 0.0 0.0 0.0 0.0 0.0 0.0 0.0 0.0 0.0 0.0 0.0 0.0 0.0 0.0 0.0 0.0 0.0 0.0 0.0 0.1 0.8 0.1 0.0 0.0 0.0 0.0 0.0 0.0 0.0 0.0 0.0 0.0 0.0 0.0 0.0 0.0 0.0 0.0 0.0 0.0 0.0 0.0 0.0 0.0 0.0 0.0 0.0 0.0 0.0 0.0 0.0 0.0
0.0 0.0 0.0 0.0 0.0 0.0 0.0 0.0 0.0 0.0 0.0 0.0 0.0 0.0 0.0 0.0 0.0 0.0 0.0 0.0 0.0 0.2 1.9 0.3 0.0 0.0 0.0 0.0 0.0 0.0 0.0 0.0 0.5 0.3 1.1 0.7 0.0 0.0 0.0 0.0 0.0 0.0 0.0 0.0 0.0 0.0 0.0 0.0 0.0 0.0 0.0 0.0 0.0 0.0
0.0 0.0 0.0 0.0 0.0 0.0 0.0 0.0 0.0 0.0 0.0 0.0 0.0 0.0 0.0 0.0 0.0 0.0 0.0 0.0 0.0 0.0 2.9 1.6 0.0 0.0 0.0 0.0 0.0 0.0 0.0 0.0 0.1 1.1 1.6 0.0 0.0 0.0 0.0 0.0 0.0 0.0 0.0 0.0 0.0 0.0 0.0 0.0 0.0 0.0 0.0 0.0 0.0 0.0
0.0 0.0 0.0 0.0 0.0 0.0 0.0 0.0 0.0 0.0 0.0 0.0 0.0 0.0 0.0 0.0 0.0 0.2 0.0 0.0 0.0 0.0 1.5 3.8 4.0 0.0 0.0 0.0 0.0 0.0 0.0 0.0 2.0 3.2 1.5 0.0 0.0 1.6 0.0 0.0 0.0 0.0 0.0 0.0 0.0 0.0 0.0 0.0 0.0 0.0 0.0 0.0 0.0 0.0
0.0 0.0 0.0 0.0 0.0 0.0 0.0 0.0 0.0 0.0 0.0 0.0 0.0 0.0 0.0 0.0 0.0 0.0 0.0 0.0 0.0 0.0 4.3 8.6 7.1 2.9 0.0 0.4 0.0 0.0 0.0 0.0 0.5 1.4 0.0 0.0 0.0 2.2 0.8 0.0 0.0 0.0 0.0 0.0 0.0 0.0 0.0 0.0 0.0 0.0 0.0 0.0 0.0 0.0
0.0 0.0 0.0 0.0 0.0 0.0 0.0 0.0 0.0 0.0 0.0 0.0 0.0 0.0 0.0 0.0 0.0 0.0 0.0 0.0 0.0 0.0 7.3 6.7 6.5 4.9 0.0 0.0 0.0 0.0 0.0 4.5 0.0 1.6 0.0 0.4 1.2 2.1 0.0 0.0 0.0 0.0 0.0 0.0 0.0 0.0 0.0 0.0 0.0 0.0 0.0 0.0 0.0 0.0
0.0 0.0 0.0 0.0 0.0 0.0 0.0 0.0 0.0 0.0 0.0 0.0 0.0 0.0 0.9 0.0 0.0 0.0 0.0 0.7 4.5 3.5 3.8 5.1 4.6 5.9 3.0 4.2 1.4 1.3 1.6 3.0 3.5 0.0 0.0 1.0 0.0 0.0 0.0 0.0 0.0 0.0 0.0 0.0 0.0 0.0 0.0 0.0 0.0 0.0 0.0 0.0 0.0 0.0
0.0 0.0 0.0 0.0 0.0 0.0 0.0 0.0 0.0 0.0 0.0 0.0 0.0 0.0 0.0 0.0 0.0 0.0 5.5 6.4 3.6 2.4 2.3 3.3 4.5 3.7 0.0 4.6 2.9 0.0 5.0 1.7 3.2 3.3 0.6 1.0 0.1 0.0 0.0 0.0 0.0 0.0 0.0 0.0 0.0 0.0 0.0 0.0 0.0 0.0 0.0 0.0 0.0 0.0
0.0 0.0 0.0 0.0 0.0 0.0 0.0 0.0 0.0 0.0 0.0 0.0 0.0 0.0 0.0 0.8 3.8 4.9 5.7 3.8 1.3 1.0 1.6 2.9 1.5 1.0 0.9 0.0 0.9 1.0 2.2 1.6 2.1 1.9 1.4 0.3 0.0 0.0 0.0 0.0 0.0 0.0 0.0 0.0 0.0 0.0 0.0 0.0 0.0 0.0 0.0 0.0 0.0 0.0
0.0 0.0 0.0 0.0 0.0 0.0 0.0 0.0 0.0 0.0 0.0 0.0 0.0 0.0 0.4 1.0 2.1 3.0 2.9 2.5 0.5 0.7 0.9 0.9 1.1 0.0 0.0 0.0 0.0 0.2 0.1 0.1 0.0 0.2 0.0 0.0 0.0 0.0 0.0 0.0 0.0 0.0 0.0 0.0 0.0 0.0 0.0 0.0 0.0 0.0 0.0 0.0 0.0 0.0
0.0 0.0 0.0 0.0 0.0 0.0 0.0 0.0 0.0 0.0 0.0 0.0 0.0 0.0 0.5 0.8 1.2 1.2 1.1 1.1 0.2 0.1 0.0 0.0 0.6 1.3 0.2 1.1 0.5 0.3 0.0 0.0 0.0 0.0 0.0 0.0 0.0 0.0 0.0 0.0 0.0 0.0 0.0 0.0 0.0 0.0 0.0 0.0 0.0 0.0 0.0 0.0 0.0 0.0
0.0 0.0 0.0 0.0 0.0 0.0 0.0 0.0 0.0 0.0 0.0 0.0 0.0 0.0 0.0 0.0 0.2 0.1 0.0 0.2 0.0 0.0 0.1 0.0 0.0 0.1 1.0 1.1 0.3 0.2 0.1 0.0 0.0 0.0 0.0 0.0 0.0 0.0 0.0 0.0 0.0 0.0 0.0 0.0 0.0 0.0 0.0 0.0 0.0 0.0 0.0 0.0 0.0 0.0
0.0 0.0 0.0 0.0 0.0 0.0 0.0 0.0 0.0 0.0 0.0 0.0 0.0 0.0 0.0 0.0 0.0 0.0 0.0 0.0 0.0 0.0 0.3 0.4 0.6 0.9 0.5 1.2 0.6 0.1 0.0 0.0 0.0 0.0 0.0 0.0 0.0 0.0 0.0 0.0 0.0 0.0 0.0 0.0 0.0 0.0 0.0 0.0 0.0 0.0 0.0 0.0 0.0 0.0
0.0 0.0 0.0 0.0 0.0 0.0 0.0 0.0 0.0 0.0 0.0 0.0 0.0 0.0 0.0 0.0 0.0 0.0 0.0 0.0 0.0 0.2 1.6 2.1 2.5 0.1 0.4 0.8 0.1 0.0 0.0 0.0 0.0 0.0 0.0 0.0 0.0 0.0 0.0 0.0 0.0 0.0 0.0 0.0 0.0 0.0 0.0 0.0 0.0 0.0 0.0 0.0 0.0 0.0
0.0 0.0 0.0 0.0 0.0 0.0 0.0 0.0 0.0 0.0 0.0 0.0 0.0 0.0 0.0 0.0 0.0 0.0 0.0 0.0 0.0 0.1 2.1 5.1 2.8 1.7 0.4 0.2 0.0 0.0 0.0 0.0 0.0 0.0 0.0 0.0 0.0 0.0 0.0 0.0 0.0 0.0 0.0 0.0 0.0 0.0 0.0 0.0 0.0 0.0 0.0 0.0 0.0 0.0
0.0 0.0 0.0 0.0 0.0 0.0 0.6 0.3 0.0 0.0 0.0 0.0 0.0 0.0 0.0 0.0 0.0 0.0 0.0 0.0 0.0 0.1 1.1 2.4 2.6 0.6 0.0 0.0 0.0 0.0 0.0 0.0 0.0 0.0 0.0 0.0 0.0 0.0 0.0 0.0 0.0 0.0 0.0 0.0 0.0 0.0 0.0 0.0 0.0 0.0 0.0 0.0 0.0 0.0
0.0 0.0 0.0 0.0 0.0 0.3 1.2 0.1 0.1 0.0 0.0 0.0 0.0 0.0 0.0 0.0 0.0 0.0 0.1 0.0 0.1 0.1 0.2 1.0 0.0 0.1 0.1 0.3 0.5 0.4 0.0 0.0 0.0 0.0 0.0 0.0 0.0 0.0 0.0 0.0 0.0 0.0 0.0 0.0 0.0 0.0 0.0 0.0 0.0 0.0 0.0 0.0 0.0 0.0
0.0 0.0 0.0 0.0 1.4 0.8 0.9 0.0 0.0 0.0 0.0 0.0 0.0 0.0 0.0 0.0 0.0 0.0 0.1 0.1 0.4 0.4 0.0 0.2 0.0 0.0 0.4 0.4 0.2 0.4 0.2 0.1 0.0 0.0 0.0 0.0 0.0 0.0 0.0 0.0 0.0 0.0 0.0 0.0 0.0 0.0 0.0 0.0 0.0 0.0 0.0 0.0 0.0 0.0
0.4 0.0 1.4 2.8 1.8 1.8 1.1 0.0 0.0 0.0 0.0 0.0 0.0 0.0 0.0 0.0 0.0 0.0 0.0 0.2 0.0 0.0 0.1 0.2 0.0 0.0 0.0 0.0 0.6 0.4 0.5 0.0 0.1 0.0 0.0 0.0 0.0 0.0 0.0 0.0 0.0 0.0 0.0 0.0 0.0 0.0 0.0 0.0 0.0 0.0 0.0 0.0 0.0 0.0
0.0 2.7 3.7 2.8 2.3 1.9 0.5 0.0 0.1 0.1 0.0 0.0 0.0 0.0 0.0 0.0 0.0 0.0 0.0 0.0 0.0 0.0 0.0 0.0 0.0 0.7 0.9 0.9 1.3 1.1 0.7 0.1 0.0 0.0 0.1 0.0 0.0 0.0 0.0 0.0 0.0 0.0 0.0 0.0 0.0 0.0 0.0 0.0 0.0 0.0 0.0 0.0 0.0 0.0
0.0 3.7 3.9 2.8 1.5 0.6 0.3 0.0 0.2 0.0 0.0 0.0 0.0 0.0 0.0 0.0 0.0 0.0 0.0 0.0 0.0 0.0 0.0 0.0 0.0 0.0 0.0 0.6 0.9 1.5 2.0 1.4 0.4 0.0 0.6 0.3 0.0 0.0 0.0 0.0 0.0 0.0 0.0 0.0 0.0 0.0 0.0 0.0 0.0 0.0 0.0 0.0 0.0 0.0
7.5 6.6 3.2 2.3 0.8 0.5 0.1 0.2 0.1 0.1 0.0 0.0 0.0 0.0 0.0 0.0 0.0 0.0 0.0 0.0 0.0 0.0 0.0 0.0 0.0 0.0 0.0 0.0 0.5 0.6 0.9 1.3 1.9 1.8 0.2 1.5 0.7 0.2 0.0 0.0 0.2 0.1 0.0 0.0 0.0 0.0 0.0 0.0 0.0 0.0 0.0 0.0 0.0 0.0
6.5 2.7 1.0 0.0 0.0 0.0 0.0 0.0 0.0 0.0 0.0 0.0 0.0 0.0 0.0 0.0 0.0 0.0 0.0 0.0 0.0 0.0 0.0 0.0 0.0 0.0 0.0 0.0 0.0 0.5 0.7 0.9 0.8 1.1 0.2 1.7 1.5 1.9 1.5 1.2 0.7 0.3 0.0 0.0 0.2 0.2 0.1 0.0 0.0 0.0 0.0 0.0 0.0 0.0
2.9 0.9 0.1 0.1 0.1 0.1 0.0 0.0 0.0 0.0 0.0 0.0 0.0 0.0 0.0 0.1 0.0 0.0 0.0 0.0 0.0 0.0 0.0 0.0 0.0 0.0 0.0 0.0 0.0 0.0 0.7 0.9 0.8 0.4 0.2 1.2 1.1 0.9 0.5 1.3 1.1 0.8 0.6 1.1 0.9 0.6 0.5 0.3 0.2 0.1 0.3 0.2 0.2 0.2
0.0 0.0 0.0 0.0 0.0 0.0 0.0 0.0 0.0 0.0 0.0 0.0 0.1 0.1 0.2 0.0 0.0 0.0 0.0 0.0 0.0 0.0 0.0 0.0 0.0 0.0 0.0 0.0 0.0 0.4 0.6 0.8 0.8 0.5 1.2 1.3 1.1 1.0 0.9 1.1 2.2 2.5 1.9 1.5 1.1 1.3 1.4 1.0 0.7 0.9 0.7 0.4 0.5 0.5
0.1 0.0 0.0 0.0 0.0 0.0 0.0 0.0 0.1 0.0 0.0 0.0 0.0 0.0 0.0 0.0 0.0 0.0 0.0 0.0 0.0 0.0 0.0 0.0 0.0 0.0 0.0 0.0 0.0 0.4 0.5 0.8 1.1 1.0 0.8 0.8 1.0 1.2 1.4 2.6 3.3 4.1 4.0 3.6 3.1 2.3 1.6 1.5 2.0 1.9 1.9 1.8 1.6 1.6
0.1 0.0 0.0 0.0 0.0 0.0 0.0 0.0 0.0 0.0 0.0 0.0 0.0 0.0 0.0 0.0 0.0 0.0 0.0 0.0 0.0 0.0 0.0 0.0 0.0 0.0 0.0 0.0 0.0 0.4 0.4 0.4 0.9 0.9 0.9 0.8 0.9 1.1 2.3 2.8 3.6 4.1 4.5 4.0 4.8 5.6 5.2 4.9 5.4 5.1 4.3 3.8 3.5 2.9
0.0 0.0 0.0 0.0 0.0 0.0 0.0 0.0 0.0 0.0 0.0 0.0 0.0 0.0 0.0 0.0 0.0 0.0 0.0 0.0 0.0 0.0 0.0 0.0 0.0 0.1 0.2 0.3 0.5 0.7 0.6 0.7 0.7 1.2 1.4 1.6 1.5 2.1 2.0 3.3 3.4 4.2 4.6 4.7 4.2 4.0 3.7 3.2 2.8 2.6 2.9 2.6 2.6 2.2
0.0 0.0 0.0 0.0 0.0 0.0 0.0 0.0 0.0 0.0 0.0 0.0 0.0 0.0 0.0 0.0 0.0 0.0 0.0 0.0 0.0 0.0 0.0 0.0 0.2 0.4 0.5 0.7 0.9 1.1 1.6 1.7 1.0 1.6 1.7 1.6 2.0 1.8 2.9 3.3 4.0 4.2 4.6 4.5 4.0 3.6 3.4 3.2 3.6 3.4 3.6 3.7 3.5 3.0
0.2 0.0 0.0 0.0 0.0 0.0 0.0 0.0 0.0 0.0 0.0 0.0 0.0 0.0 0.0 0.0 0.0 0.0 0.0 0.0 0.0 0.0 0.0 0.4 0.5 0.7 1.2 1.5 1.4 2.1 2.3 1.9 2.8 3.0 3.4 3.4 3.1 3.2 3.9 3.9 4.2 4.1 3.9 4.1 4.4 4.6 4.7 4.4 4.1 3.8 3.5 3.4 3.3 3.1

GFSWCAN_prec_snow_036.txt.gz
Snowfall_Accumulation
0.0 0.0 0.0 0.0 0.0 0.0 0.0 0.0 0.0 0.0 0.0 0.0 0.0 0.0 0.0 0.0 0.0 0.0 0.0 0.0 0.0 0.0 0.0 0.0 0.0 0.0 0.0 0.0 0.0 0.0 0.0 0.0 0.0 0.7 0.0 0.0 0.1 0.0 0.0 0.0 0.0 0.0 0.2 0.2 0.5 0.3 0.0 0.0 0.0 0.0 0.0 0.0 0.0 0.0
0.0 0.0 0.0 0.0 0.0 0.0 0.0 0.0 0.0 0.0 0.0 0.0 0.0 0.0 0.0 0.0 0.0 0.0 0.0 0.0 0.0 0.0 0.0 0.0 0.0 0.0 0.0 0.0 0.0 0.0 0.0 0.0 0.0 0.0 0.0 0.0 0.1 0.0 0.0 0.0 0.0 0.0 0.0 0.0 0.0 0.0 0.0 0.0 0.0 0.0 0.0 0.0 0.0 0.0
0.0 0.0 0.0 0.0 0.0 0.0 0.0 0.0 0.0 0.0 0.0 0.0 0.0 0.0 0.0 0.0 0.0 0.0 0.0 0.0 0.0 0.1 0.0 0.0 0.0 0.0 0.0 0.0 0.0 0.0 0.0 0.0 0.0 0.0 0.0 0.0 0.0 0.0 0.1 0.0 0.0 0.0 0.0 0.0 0.0 0.0 0.0 0.0 0.0 0.0 0.0 0.0 0.0 0.0
0.0 0.0 0.0 0.0 0.0 0.0 0.0 0.0 0.0 0.0 0.0 0.0 0.0 0.0 0.0 0.0 0.0 0.0 0.0 0.0 0.0 0.1 0.8 0.1 0.0 0.0 0.0 0.0 0.0 0.0 0.0 0.0 0.0 0.0 0.0 0.0 0.0 0.0 0.0 0.0 0.0 0.0 0.0 0.0 0.0 0.0 0.0 0.0 0.0 0.0 0.0 0.0 0.0 0.0
0.0 0.0 0.0 0.0 0.0 0.0 0.0 0.0 0.0 0.0 0.0 0.0 0.0 0.0 0.0 0.0 0.0 0.0 0.0 0.0 0.0 0.2 1.9 0.3 0.0 0.0 0.0 0.0 0.0 0.0 0.0 0.0 0.5 0.3 1.1 0.7 0.0 0.0 0.0 0.0 0.0 0.0 0.0 0.0 0.0 0.0 0.0 0.0 0.0 0.0 0.0 0.0 0.0 0.0
0.0 0.0 0.0 0.0 0.0 0.0 0.0 0.0 0.0 0.0 0.0 0.0 0.0 0.0 0.0 0.0 0.0 0.0 0.0 0.0 0.0 0.0 3.0 1.6 0.0 0.0 0.0 0.0 0.0 0.0 0.0 0.0 0.1 1.1 1.6 0.0 0.0 0.0 0.6 0.0 0.0 0.0 0.0 0.0 0.0 0.0 0.0 0.0 0.0 0.0 0.0 0.0 0.0 0.0
0.0 0.0 0.0 0.0 0.0 0.0 0.0 0.0 0.0 0.0 0.0 0.0 0.0 0.0 0.0 0.0 0.0 0.2 0.0 0.0 0.0 0.0 1.5 3.8 4.0 0.0 0.0 0.0 0.0 0.0 0.0 0.0 2.0 3.2 1.5 0.0 0.0 1.6 1.3 0.3 0.0 0.0 0.0 0.0 0.0 0.0 0.0 0.0 0.0 0.0 0.0 0.0 0.0 0.0
0.0 0.0 0.0 0.0 0.0 0.0 0.0 0.0 0.0 0.0 0.0 0.0 0.0 0.0 0.0 0.0 0.0 0.0 0.0 0.0 0.0 0.0 4.3 8.6 7.1 2.9 0.0 0.4 0.0 0.0 0.0 0.0 0.5 1.4 0.0 0.0 0.0 2.2 1.4 0.0 0.0 0.0 0.0 0.0 0.0 0.0 0.0 0.0 0.0 0.0 0.0 0.0 0.0 0.0
0.0 0.0 0.0 0.0 0.0 0.0 0.0 0.0 0.0 0.0 0.0 0.0 0.0 0.0 0.0 0.0 0.0 0.0 0.0 0.0 0.0 0.0 7.3 6.7 6.7 5.1 0.0 0.0 0.0 0.0 0.0 4.5 0.0 1.6 0.0 0.4 1.2 2.6 0.0 0.0 0.0 0.0 0.0 0.0 0.0 0.0 0.0 0.0 0.0 0.0 0.0 0.0 0.0 0.0
0.0 0.0 0.0 0.0 0.0 0.0 0.0 0.0 0.0 0.0 0.0 0.0 0.0 0.0 0.9 0.0 0.0 0.0 0.0 0.7 4.5 3.5 3.8 5.1 4.8 5.9 3.0 4.6 1.6 1.5 1.7 3.0 3.6 0.0 0.0 1.0 0.0 0.0 0.0 0.0 0.0 0.0 0.0 0.0 0.0 0.0 0.0 0.0 0.0 0.0 0.0 0.0 0.0 0.0
0.0 0.0 0.0 0.0 0.0 0.0 0.0 0.0 0.0 0.0 0.0 0.0 0.0 0.0 0.0 0.0 0.0 0.0 5.6 6.7 3.8 2.4 2.3 3.3 4.5 3.7 0.0 4.9 3.3 0.3 5.4 2.1 3.8 4.6 0.6 1.4 0.3 0.0 0.0 0.0 0.0 0.0 0.0 0.0 0.0 0.0 0.0 0.0 0.0 0.0 0.0 0.0 0.0 0.0
0.0 0.0 0.0 0.0 0.0 0.0 0.0 0.0 0.0 0.0 0.0 0.0 0.0 0.0 0.0 0.8 3.8 4.9 5.7 3.8 1.3 1.0 1.6 2.9 1.5 1.0 1.0 0.0 1.5 1.7 2.9 2.3 3.2 3.6 2.1 0.6 0.5 0.2 0.0 0.0 0.0 0.0 0.0 0.0 0.0 0.0 0.0 0.0 0.0 0.0 0.0 0.0 0.0 0.0
0.0 0.0 0.0 0.0 0.0 0.0 0.0 0.0 0.0 0.0 0.0 0.0 0.0 0.0 0.4 1.0 2.1 3.0 2.9 2.5 0.5 0.7 0.9 0.9 1.1 0.0 0.0 0.0 0.5 0.8 0.5 0.1 0.0 0.7 0.5 0.1 0.0 0.0 0.0 0.0 0.0 0.0 0.0 0.0 0.0 0.0 0.0 0.0 0.0 0.0 0.0 0.0 0.0 0.0
0.0 0.0 0.0 0.0 0.0 0.0 0.0 0.0 0.0 0.0 0.0 0.0 0.0 0.0 0.5 0.8 1.2 1.2 1.1 1.1 0.2 0.1 0.0 0.0 0.6 1.3 0.2 1.2 1.0 0.8 0.0 0.0 0.1 0.1 0.0 0.0 0.0 0.0 0.0 0.0 0.0 0.0 0.0 0.0 0.0 0.0 0.0 0.0 0.0 0.0 0.0 0.0 0.0 0.0
0.0 0.0 0.0 0.0 0.0 0.0 0.0 0.0 0.0 0.0 0.0 0.0 0.0 0.0 0.0 0.0 0.2 0.1 0.0 0.2 0.0 0.0 0.1 0.0 0.0 0.1 1.0 1.2 0.3 0.7 0.2 0.0 0.1 0.0 0.0 0.0 0.0 0.0 0.0 0.0 0.0 0.0 0.0 0.0 0.0 0.0 0.0 0.0 0.0 0.0 0.0 0.0 0.0 0.0
0.0 0.0 0.0 0.0 0.0 0.0 0.0 0.0 0.0 0.0 0.0 0.0 0.0 0.0 0.0 0.0 0.0 0.0 0.0 0.0 0.0 0.0 0.3 0.4 0.6 1.0 0.5 1.5 1.0 0.3 0.3 0.3 0.3 0.2 0.0 0.0 0.0 0.0 0.0 0.0 0.0 0.0 0.0 0.0 0.0 0.0 0.0 0.0 0.0 0.0 0.0 0.0 0.0 0.0
0.0 0.0 0.0 0.0 0.0 0.0 0.0 0.0 0.0 0.0 0.0 0.0 0.0 0.0 0.0 0.0 0.0 0.0 0.0 0.0 0.0 0.2 1.6 2.1 2.5 0.1 0.4 0.8 0.3 0.1 0.2 0.3 0.3 0.0 0.0 0.0 0.0 0.0 0.0 0.0 0.0 0.0 0.0 0.0 0.0 0.0 0.0 0.0 0.0 0.0 0.0 0.0 0.0 0.0
0.0 0.0 0.0 0.0 0.0 0.0 0.0 0.0 0.0 0.0 0.0 0.0 0.0 0.0 0.0 0.0 0.0 0.0 0.0 0.0 0.0 0.1 2.1 5.1 2.8 1.7 0.4 0.2 0.0 0.1 0.0 0.0 0.0 0.0 0.0 0.0 0.0 0.0 0.0 0.0 0.0 0.0 0.0 0.0 0.1 0.1 0.0 0.0 0.0 0.0 0.0 0.0 0.0 0.0
0.0 0.0 0.0 0.0 0.0 0.0 0.6 0.3 0.0 0.0 0.0 0.0 0.0 0.0 0.0 0.0 0.0 0.0 0.0 0.0 0.0 0.1 1.1 2.4 2.6 0.6 0.0 0.0 0.0 0.0 0.0 0.0 0.0 0.0 0.0 0.0 0.0 0.1 0.1 0.0 0.1 0.0 0.0 0.0 0.0 0.0 0.0 0.0 0.0 0.0 0.0 0.0 0.0 0.0
0.0 0.0 0.0 0.0 0.0 0.3 1.2 0.1 0.1 0.0 0.0 0.0 0.0 0.0 0.0 0.0 0.0 0.0 0.1 0.0 0.1 0.1 0.2 1.0 0.0 0.1 0.1 0.3 0.5 0.4 0.0 0.0 0.0 0.0 0.0 0.0 0.0 0.0 0.0 0.0 0.0 0.0 0.0 0.0 0.0 0.0 0.0 0.0 0.0 0.0 0.0 0.0 0.0 0.0
0.0 0.0 0.0 0.0 1.4 0.8 0.9 0.0 0.0 0.0 0.0 0.0 0.0 0.0 0.0 0.0 0.0 0.0 0.1 0.1 0.4 0.4 0.0 0.2 0.0 0.0 0.4 0.4 0.2 0.4 0.2 0.1 0.0 0.0 0.0 0.0 0.0 0.0 0.0 0.0 0.0 0.0 0.0 0.0 0.0 0.0 0.0 0.0 0.0 0.0 0.0 0.0 0.0 0.0
0.4 0.0 1.4 2.8 1.8 1.8 1.1 0.0 0.0 0.0 0.0 0.0 0.0 0.0 0.0 0.0 0.0 0.0 0.0 0.2 0.0 0.0 0.1 0.2 0.0 0.0 0.0 0.0 0.6 0.4 0.5 0.0 0.1 0.0 0.0 0.0 0.0 0.0 0.0 0.0 0.0 0.0 0.0 0.0 0.0 0.0 0.0 0.0 0.0 0.0 0.0 0.0 0.0 0.0
0.0 2.7 3.7 2.8 2.3 3.0 1.1 0.1 0.2 0.1 0.0 0.0 0.0 0.0 0.0 0.0 0.0 0.0 0.0 0.0 0.0 0.0 0.0 0.0 0.0 0.7 0.9 0.9 1.3 1.1 0.7 0.1 0.0 0.0 0.1 0.0 0.0 0.0 0.0 0.0 0.0 0.0 0.0 0.0 0.0 0.0 0.0 0.0 0.0 0.0 0.0 0.0 0.0 0.0
0.0 3.7 4.3 2.8 1.8 0.9 0.6 0.1 0.2 0.0 0.0 0.0 0.0 0.0 0.0 0.0 0.0 0.0 0.0 0.0 0.0 0.0 0.0 0.0 0.0 0.0 0.0 0.6 0.9 1.5 2.0 1.4 0.4 0.0 0.6 0.3 0.0 0.0 0.0 0.0 0.0 0.0 0.0 0.0 0.0 0.0 0.0 0.0 0.0 0.0 0.0 0.0 0.0 0.0
8.1 7.3 3.7 2.9 1.3 0.6 0.1 0.2 0.1 0.1 0.0 0.0 0.0 0.0 0.0 0.0 0.0 0.0 0.0 0.0 0.0 0.0 0.0 0.0 0.0 0.0 0.0 0.0 0.5 0.6 0.9 1.3 1.9 1.8 0.2 1.5 0.7 0.2 0.0 0.0 0.2 0.1 0.0 0.0 0.0 0.0 0.0 0.0 0.0 0.0 0.0 0.0 0.0 0.0
6.7 3.0 1.5 0.0 0.0 0.0 0.0 0.0 0.0 0.0 0.0 0.0 0.0 0.0 0.0 0.0 0.0 0.0 0.0 0.0 0.0 0.0 0.0 0.0 0.0 0.0 0.0 0.0 0.0 0.5 0.7 0.9 0.8 1.1 0.2 1.7 1.5 1.9 1.5 1.2 0.7 0.3 0.0 0.0 0.2 0.2 0.1 0.0 0.0 0.0 0.0 0.0 0.0 0.0
3.1 0.9 0.1 0.1 0.1 0.1 0.0 0.0 0.0 0.0 0.0 0.0 0.0 0.0 0.0 0.1 0.0 0.0 0.0 0.0 0.0 0.0 0.0 0.0 0.0 0.0 0.0 0.0 0.0 0.0 0.7 0.9 0.8 0.4 0.2 1.2 1.1 0.9 0.5 1.3 1.1 0.8 0.6 1.1 0.9 0.6 0.5 0.3 0.2 0.1 0.3 0.2 0.2 0.2
0.0 0.0 0.0 0.0 0.0 0.0 0.0 0.0 0.0 0.0 0.0 0.0 0.1 0.1 0.2 0.0 0.0 0.0 0.0 0.0 0.0 0.0 0.0 0.0 0.0 0.0 0.0 0.0 0.0 0.4 0.6 0.8 0.8 0.5 1.2 1.3 1.1 1.0 0.9 1.1 2.2 2.5 1.9 1.5 1.1 1.3 1.4 1.0 0.7 0.9 0.7 0.4 0.5 0.5
0.1 0.0 0.0 0.0 0.0 0.0 0.0 0.0 0.1 0.0 0.0 0.0 0.0 0.0 0.0 0.0 0.0 0.0 0.0 0.0 0.0 0.0 0.0 0.0 0.0 0.0 0.0 0.0 0.0 0.4 0.5 0.8 1.1 1.0 0.8 0.8 1.0 1.2 1.4 2.6 3.3 4.1 4.0 3.6 3.1 2.3 1.6 1.5 2.0 1.9 1.9 1.8 1.6 1.6
0.1 0.0 0.0 0.0 0.0 0.0 0.0 0.0 0.0 0.0 0.0 0.0 0.0 0.0 0.0 0.0 0.0 0.0 0.0 0.0 0.0 0.0 0.0 0.0 0.0 0.0 0.0 0.0 0.0 0.4 0.4 0.4 0.9 0.9 0.9 0.8 0.9 1.1 2.3 2.8 3.6 4.1 4.5 4.0 4.8 5.6 5.2 4.9 5.4 5.1 4.3 3.8 3.5 2.9
0.0 0.0 0.0 0.0 0.0 0.0 0.0 0.0 0.0 0.0 0.0 0.0 0.0 0.0 0.0 0.0 0.0 0.0 0.0 0.0 0.0 0.0 0.0 0.0 0.0 0.1 0.2 0.3 0.5 0.7 0.6 0.7 0.7 1.2 1.4 1.6 1.5 2.1 2.0 3.3 3.4 4.2 4.6 4.7 4.2 4.0 3.7 3.2 2.8 2.6 2.9 2.6 2.6 2.2
0.0 0.0 0.0 0.0 0.0 0.0 0.0 0.0 0.0 0.0 0.0 0.0 0.0 0.0 0.0 0.0 0.0 0.0 0.0 0.0 0.0 0.0 0.0 0.0 0.2 0.4 0.5 0.7 0.9 1.1 1.6 1.7 1.0 1.6 1.7 1.6 2.0 1.8 2.9 3.3 4.0 4.2 4.6 4.5 4.0 3.6 3.4 3.2 3.6 3.4 3.6 3.7 3.5 3.0
0.2 0.0 0.0 0.0 0.0 0.0 0.0 0.0 0.0 0.0 0.0 0.0 0.0 0.0 0.0 0.0 0.0 0.0 0.0 0.0 0.0 0.0 0.0 0.4 0.5 0.7 1.2 1.5 1.4 2.1 2.3 1.9 2.8 3.0 3.4 3.4 3.1 3.2 3.9 3.9 4.2 4.1 3.9 4.1 4.4 4.6 4.7 4.4 4.1 3.8 3.5 3.4 3.3 3.1

GFSWCAN_prec_snow_039.txt.gz
Snowfall_Accumulation
0.0 0.0 0.0 0.0 0.0 0.0 0.0 0.0 0.0 0.0 0.0 0.0 0.0 0.0 0.0 0.0 0.0 0.0 0.0 0.0 0.0 0.0 0.0 0.0 0.0 0.0 0.0 0.0 0.0 0.0 0.0 0.0 0.0 0.7 0.0 0.0 0.1 0.0 0.0 0.0 0.0 0.0 0.2 0.2 0.5 0.3 0.0 0.0 0.0 0.0 0.0 0.0 0.0 0.0
0.0 0.0 0.0 0.0 0.0 0.0 0.0 0.0 0.0 0.0 0.0 0.0 0.0 0.0 0.0 0.0 0.0 0.0 0.0 0.0 0.0 0.0 0.0 0.0 0.0 0.0 0.0 0.0 0.0 0.0 0.0 0.0 0.0 0.0 0.0 0.0 0.1 0.0 0.0 0.0 0.0 0.0 0.0 0.0 0.0 0.0 0.0 0.0 0.0 0.0 0.0 0.0 0.0 0.0
0.0 0.0 0.0 0.0 0.0 0.0 0.0 0.0 0.0 0.0 0.0 0.0 0.0 0.0 0.0 0.0 0.0 0.0 0.0 0.0 0.0 0.1 0.0 0.0 0.0 0.0 0.0 0.0 0.0 0.0 0.0 0.0 0.0 0.0 0.0 0.0 0.0 0.0 0.1 0.0 0.0 0.0 0.0 0.0 0.0 0.0 0.0 0.0 0.0 0.0 0.0 0.0 0.0 0.0
0.0 0.0 0.0 0.0 0.0 0.0 0.0 0.0 0.0 0.0 0.0 0.0 0.0 0.0 0.0 0.0 0.0 0.0 0.0 0.0 0.0 0.1 0.8 0.1 0.0 0.0 0.0 0.0 0.0 0.0 0.0 0.0 0.0 0.0 0.0 0.0 0.0 0.0 0.0 0.0 0.0 0.0 0.0 0.0 0.0 0.0 0.0 0.0 0.0 0.0 0.0 0.0 0.0 0.0
0.0 0.0 0.0 0.0 0.0 0.0 0.0 0.0 0.0 0.0 0.0 0.0 0.0 0.0 0.0 0.0 0.0 0.0 0.0 0.0 0.0 0.2 1.9 0.3 0.0 0.0 0.0 0.0 0.0 0.0 0.0 0.0 0.5 0.3 1.1 0.7 0.0 0.0 0.0 0.0 0.0 0.0 0.0 0.0 0.0 0.0 0.0 0.0 0.0 0.0 0.0 0.0 0.0 0.0
0.0 0.0 0.0 0.0 0.0 0.0 0.0 0.0 0.0 0.0 0.0 0.0 0.0 0.0 0.0 0.0 0.0 0.0 0.0 0.0 0.0 0.0 3.0 1.6 0.0 0.0 0.0 0.0 0.0 0.0 0.0 0.0 0.1 1.1 1.6 0.0 0.0 0.0 0.6 0.0 0.0 0.0 0.0 0.0 0.0 0.0 0.0 0.0 0.0 0.0 0.0 0.0 0.0 0.0
0.0 0.0 0.0 0.0 0.0 0.0 0.0 0.0 0.0 0.0 0.0 0.0 0.0 0.0 0.0 0.0 0.0 0.2 0.0 0.0 0.0 0.0 1.5 3.8 4.0 0.0 0.0 0.0 0.0 0.0 0.0 0.0 2.0 3.2 1.5 0.0 0.0 1.6 1.3 0.3 0.0 0.0 0.0 0.0 0.0 0.0 0.0 0.0 0.0 0.0 0.0 0.0 0.0 0.0
0.0 0.0 0.0 0.0 0.0 0.0 0.0 0.0 0.0 0.0 0.0 0.0 0.0 0.0 0.0 0.0 0.0 0.0 0.0 0.0 0.0 0.0 4.3 8.6 7.1 2.9 0.0 0.4 0.0 0.0 0.0 0.0 0.5 1.4 0.0 0.0 0.0 2.2 1.4 0.0 0.0 0.0 0.0 0.0 0.0 0.0 0.0 0.0 0.0 0.0 0.0 0.0 0.0 0.0
0.0 0.0 0.0 0.0 0.0 0.0 0.0 0.0 0.0 0.0 0.0 0.0 0.0 0.0 0.0 0.0 0.0 0.0 0.0 0.0 0.0 0.0 7.3 6.7 6.7 5.1 0.0 0.0 0.0 0.0 0.0 4.5 0.0 1.6 0.0 0.4 1.2 2.6 0.0 0.0 0.0 0.0 0.0 0.0 0.0 0.0 0.0 0.0 0.0 0.0 0.0 0.0 0.0 0.0
0.0 0.0 0.0 0.0 0.0 0.0 0.0 0.0 0.0 0.0 0.0 0.0 0.0 0.0 0.9 0.0 0.0 0.0 0.0 0.7 4.5 3.5 3.8 5.1 4.8 5.9 3.0 4.7 1.7 1.5 1.8 3.0 3.7 0.0 0.0 1.0 0.0 0.0 0.0 0.0 0.0 0.0 0.0 0.0 0.0 0.0 0.0 0.0 0.0 0.0 0.0 0.0 0.0 0.0
0.0 0.0 0.0 0.0 0.0 0.0 0.0 0.0 0.0 0.0 0.0 0.0 0.0 0.0 0.0 0.0 0.0 0.0 5.6 6.7 3.8 2.4 2.3 3.3 4.5 3.7 0.0 5.0 3.4 0.3 5.4 2.1 4.0 4.6 0.7 1.5 1.1 1.1 0.0 0.0 0.0 0.0 0.0 0.0 0.0 0.0 0.0 0.0 0.0 0.0 0.0 0.0 0.0 0.0
0.0 0.0 0.0 0.0 0.0 0.0 0.0 0.0 0.0 0.0 0.0 0.0 0.0 0.0 0.0 0.8 3.8 4.9 5.7 3.8 1.3 1.0 1.6 2.9 1.5 1.0 1.0 0.0 1.8 1.7 3.3 2.7 3.2 4.1 2.5 1.5 0.5 0.2 1.0 1.0 0.4 0.0 0.0 0.0 0.0 0.0 0.0 0.0 0.0 0.0 0.0 0.0 0.0 0.0
0.0 0.0 0.0 0.0 0.0 0.0 0.0 0.0 0.0 0.0 0.0 0.0 0.0 0.0 0.4 1.0 2.1 3.0 2.9 2.5 0.5 0.7 0.9 0.9 1.1 0.0 0.0 0.1 0.6 1.3 1.0 0.2 0.1 1.2 1.1 0.6 0.0 0.0 0.0 0.2 0.5 1.0 0.9 0.0 0.0 0.0 0.0 0.0 0.0 0.0 0.0 0.0 0.0 0.0
0.0 0.0 0.0 0.0 0.0 0.0 0.0 0.0 0.0 0.0 0.0 0.0 0.0 0.0 0.5 0.8 1.2 1.2 1.1 1.1 0.2 0.1 0.0 0.0 0.6 1.3 0.2 1.2 1.2 1.3 0.1 0.0 0.2 0.3 0.2 0.2 0.2 0.0 0.0 0.0 0.0 0.0 0.1 0.1 0.1 0.0 0.0 0.0 0.0 0.0 0.0 0.0 0.0 0.0
0.0 0.0 0.0 0.0 0.0 0.0 0.0 0.0 0.0 0.0 0.0 0.0 0.0 0.0 0.0 0.0 0.2 0.1 0.0 0.2 0.0 0.0 0.1 0.0 0.0 0.1 1.0 1.3 0.3 1.0 0.5 0.4 0.7 1.0 1.1 0.7 0.2 0.0 0.0 0.0 0.0 0.0 0.0 0.0 0.0 0.0 0.0 0.0 0.0 0.0 0.0 0.0 0.0 0.0
0.0 0.0 0.0 0.0 0.0 0.0 0.0 0.0 0.0 0.0 0.0 0.0 0.0 0.0 0.0 0.0 0.0 0.0 0.0 0.0 0.0 0.0 0.3 0.4 0.6 1.0 0.5 1.7 1.0 0.3 1.1 2.0 2.5 1.3 0.0 0.0 0.0 0.0 0.1 0.0 0.0 0.0 0.0 0.0 0.0 0.0 0.0 0.0 0.0 0.0 0.0 0.0 0.0 0.0
0.0 0.0 0.0 0.0 0.0 0.0 0.0 0.0 0.0 0.0 0.0 0.0 0.0 0.0 0.0 0.0 0.0 0.0 0.0 0.0 0.0 0.2 1.6 2.1 2.5 0.1 0.4 0.8 0.3 0.1 0.2 0.3 0.3 0.0 0.0 0.0 0.0 0.0 0.4 0.0 0.0 0.1 0.0 0.0 0.0 0.0 0.0 0.0 0.0 0.0 0.0 0.0 0.0 0.0
0.0 0.0 0.0 0.0 0.0 0.0 0.0 0.0 0.0 0.0 0.0 0.0 0.0 0.0 0.0 0.0 0.0 0.0 0.0 0.0 0.0 0.1 2.1 5.1 2.8 1.7 0.4 0.2 0.0 0.1 0.0 0.0 0.0 0.0 0.0 0.0 0.0 0.0 0.4 0.0 0.0 0.2 0.2 0.4 0.4 0.3 0.4 0.4 0.3 0.0 0.0 0.0 0.0 0.0
0.0 0.0 0.0 0.0 0.0 0.0 0.6 0.3 0.0 0.0 0.0 0.0 0.0 0.0 0.0 0.0 0.0 0.0 0.0 0.0 0.0 0.1 1.1 2.4 2.6 0.6 0.0 0.0 0.0 0.0 0.0 0.0 0.0 0.0 0.0 0.0 0.0 0.1 0.1 0.7 0.6 0.0 0.4 0.3 0.1 0.0 0.0 0.0 0.0 0.0 0.0 0.0 0.0 0.0
0.0 0.0 0.0 0.0 0.0 0.3 1.2 0.1 0.1 0.0 0.0 0.0 0.0 0.0 0.0 0.0 0.0 0.0 0.1 0.0 0.1 0.1 0.2 1.0 0.0 0.1 0.1 0.3 0.5 0.4 0.0 0.0 0.0 0.0 0.0 0.0 0.0 0.0 0.0 0.0 0.0 0.2 0.0 0.0 0.0 0.0 0.0 0.0 0.0 0.0 0.0 0.0 0.0 0.0
0.0 0.0 0.0 0.0 1.4 0.8 0.9 0.0 0.0 0.0 0.0 0.0 0.0 0.0 0.0 0.0 0.0 0.0 0.1 0.1 0.4 0.4 0.0 0.2 0.0 0.0 0.4 0.4 0.2 0.4 0.2 0.1 0.0 0.0 0.0 0.0 0.0 0.0 0.0 0.0 0.0 0.1 0.0 0.0 0.0 0.0 0.0 0.0 0.0 0.0 0.0 0.0 0.0 0.0
0.4 0.0 1.4 2.8 1.8 1.8 1.1 0.1 0.0 0.0 0.0 0.0 0.0 0.0 0.0 0.0 0.0 0.0 0.0 0.2 0.0 0.0 0.1 0.2 0.0 0.0 0.0 0.0 0.6 0.4 0.5 0.0 0.1 0.0 0.0 0.0 0.0 0.0 0.0 0.0 0.0 0.0 0.0 0.0 0.0 0.0 0.0 0.0 0.0 0.0 0.0 0.0 0.0 0.0
0.0 2.7 3.7 2.8 2.3 3.0 1.2 0.1 0.2 0.1 0.0 0.0 0.0 0.0 0.0 0.0 0.0 0.0 0.0 0.0 0.0 0.0 0.0 0.0 0.0 0.7 0.9 0.9 1.3 1.1 0.7 0.1 0.0 0.0 0.1 0.0 0.0 0.0 0.0 0.0 0.0 0.0 0.0 0.0 0.0 0.0 0.0 0.0 0.0 0.0 0.0 0.0 0.0 0.0
0.0 3.7 4.3 2.8 1.8 1.0 0.7 0.2 0.3 0.0 0.0 0.0 0.0 0.0 0.0 0.0 0.0 0.0 0.0 0.0 0.0 0.0 0.0 0.0 0.0 0.0 0.0 0.6 0.9 1.5 2.0 1.4 0.4 0.0 0.6 0.3 0.0 0.0 0.0 0.0 0.0 0.0 0.0 0.0 0.0 0.0 0.0 0.0 0.0 0.0 0.0 0.0 0.0 0.0
8.1 7.8 3.9 3.3 1.6 0.7 0.2 0.2 0.1 0.1 0.0 0.0 0.0 0.0 0.0 0.0 0.0 0.0 0.0 0.0 0.0 0.0 0.0 0.0 0.0 0.0 0.0 0.0 0.5 0.6 0.9 1.3 1.9 1.8 0.2 1.5 0.7 0.2 0.0 0.0 0.2 0.1 0.0 0.0 0.0 0.0 0.0 0.0 0.0 0.0 0.0 0.0 0.0 0.0
7.0 3.0 1.6 0.0 0.2 0.0 0.0 0.0 0.0 0.0 0.0 0.0 0.0 0.0 0.0 0.0 0.0 0.0 0.0 0.0 0.0 0.0 0.0 0.0 0.0 0.0 0.0 0.0 0.0 0.5 0.7 0.9 0.8 1.1 0.2 1.7 1.5 1.9 1.5 1.2 0.7 0.3 0.0 0.0 0.2 0.2 0.1 0.0 0.0 0.0 0.0 0.0 0.0 0.0
3.1 0.9 0.1 0.1 0.1 0.1 0.0 0.0 0.0 0.0 0.0 0.0 0.0 0.0 0.0 0.1 0.0 0.0 0.0 0.0 0.0 0.0 0.0 0.0 0.0 0.0 0.0 0.0 0.0 0.0 0.7 0.9 0.8 0.4 0.2 1.2 1.1 0.9 0.5 1.3 1.1 0.8 0.6 1.1 0.9 0.6 0.5 0.3 0.2 0.1 0.3 0.2 0.2 0.2
0.0 0.0 0.0 0.0 0.0 0.0 0.0 0.0 0.0 0.0 0.0 0.0 0.1 0.1 0.2 0.0 0.0 0.0 0.0 0.0 0.0 0.0 0.0 0.0 0.0 0.0 0.0 0.0 0.0 0.4 0.6 0.8 0.8 0.5 1.2 1.3 1.1 1.0 0.9 1.1 2.2 2.5 1.9 1.5 1.1 1.3 1.4 1.0 0.7 0.9 0.7 0.4 0.5 0.5
0.1 0.0 0.0 0.0 0.0 0.0 0.0 0.0 0.1 0.0 0.0 0.0 0.0 0.0 0.0 0.0 0.0 0.0 0.0 0.0 0.0 0.0 0.0 0.0 0.0 0.0 0.0 0.0 0.0 0.4 0.5 0.8 1.1 1.0 0.8 0.8 1.0 1.2 1.4 2.6 3.3 4.1 4.0 3.6 3.1 2.3 1.6 1.5 2.0 1.9 1.9 1.8 1.6 1.6
0.1 0.0 0.0 0.0 0.0 0.0 0.0 0.0 0.0 0.0 0.0 0.0 0.0 0.0 0.0 0.0 0.0 0.0 0.0 0.0 0.0 0.0 0.0 0.0 0.0 0.0 0.0 0.0 0.0 0.4 0.4 0.4 0.9 0.9 0.9 0.8 0.9 1.1 2.3 2.8 3.6 4.1 4.5 4.0 4.8 5.6 5.2 4.9 5.4 5.1 4.3 3.8 3.5 2.9
0.0 0.0 0.0 0.0 0.0 0.0 0.0 0.0 0.0 0.0 0.0 0.0 0.0 0.0 0.0 0.0 0.0 0.0 0.0 0.0 0.0 0.0 0.0 0.0 0.0 0.1 0.2 0.3 0.5 0.7 0.6 0.7 0.7 1.2 1.4 1.6 1.5 2.1 2.0 3.3 3.4 4.2 4.6 4.7 4.2 4.0 3.7 3.2 2.8 2.6 2.9 2.6 2.6 2.2
0.0 0.0 0.0 0.0 0.0 0.0 0.0 0.0 0.0 0.0 0.0 0.0 0.0 0.0 0.0 0.0 0.0 0.0 0.0 0.0 0.0 0.0 0.0 0.0 0.2 0.4 0.5 0.7 0.9 1.1 1.6 1.7 1.0 1.6 1.7 1.6 2.0 1.8 2.9 3.3 4.0 4.2 4.6 4.5 4.0 3.6 3.4 3.2 3.6 3.4 3.6 3.7 3.5 3.0
0.3 0.1 0.1 0.0 0.0 0.0 0.0 0.0 0.0 0.0 0.0 0.0 0.0 0.0 0.0 0.0 0.0 0.0 0.0 0.0 0.0 0.0 0.0 0.4 0.5 0.7 1.2 1.5 1.4 2.1 2.3 1.9 2.8 3.0 3.4 3.4 3.1 3.2 3.9 3.9 4.2 4.1 3.9 4.1 4.4 4.6 4.7 4.4 4.1 3.8 3.5 3.4 3.3 3.1

GFSWCAN_prec_snow_042.txt.gz
Snowfall_Accumulation
0.0 0.0 0.0 0.0 0.0 0.0 0.0 0.0 0.0 0.0 0.0 0.0 0.0 0.0 0.0 0.0 0.0 0.0 0.0 0.0 0.0 0.0 0.0 0.0 0.0 0.0 0.0 0.0 0.0 0.0 0.0 0.0 0.0 0.7 0.0 0.0 0.1 0.0 0.0 0.0 0.0 0.0 0.2 0.2 0.5 0.4 0.0 0.0 0.0 0.0 0.0 0.0 0.0 0.0
0.0 0.0 0.0 0.0 0.0 0.0 0.0 0.0 0.0 0.0 0.0 0.0 0.0 0.0 0.0 0.0 0.0 0.0 0.0 0.0 0.0 0.0 0.0 0.0 0.0 0.0 0.0 0.0 0.0 0.0 0.0 0.0 0.0 0.0 0.0 0.0 0.1 0.0 0.0 0.0 0.0 0.0 0.0 0.0 0.0 0.0 0.0 0.0 0.0 0.0 0.0 0.0 0.0 0.0
0.0 0.0 0.0 0.0 0.0 0.0 0.0 0.0 0.0 0.0 0.0 0.0 0.0 0.0 0.0 0.0 0.0 0.0 0.0 0.0 0.0 0.1 0.0 0.0 0.0 0.0 0.0 0.0 0.0 0.0 0.0 0.0 0.0 0.0 0.0 0.0 0.0 0.0 0.1 0.0 0.0 0.0 0.0 0.0 0.0 0.0 0.0 0.0 0.0 0.0 0.0 0.0 0.0 0.0
0.0 0.0 0.0 0.0 0.0 0.0 0.0 0.0 0.0 0.0 0.0 0.0 0.0 0.0 0.0 0.0 0.0 0.0 0.0 0.0 0.0 0.1 0.8 0.1 0.0 0.0 0.0 0.0 0.0 0.0 0.0 0.0 0.0 0.0 0.0 0.0 0.0 0.0 0.0 0.0 0.0 0.0 0.0 0.0 0.0 0.0 0.0 0.0 0.0 0.0 0.0 0.0 0.0 0.0
0.0 0.0 0.0 0.0 0.0 0.0 0.0 0.0 0.0 0.0 0.0 0.0 0.0 0.0 0.0 0.0 0.0 0.0 0.0 0.0 0.0 0.2 1.9 0.3 0.0 0.0 0.0 0.0 0.0 0.0 0.0 0.0 0.5 0.3 1.1 0.7 0.0 0.0 0.0 0.0 0.0 0.0 0.0 0.0 0.0 0.0 0.0 0.0 0.0 0.0 0.0 0.0 0.0 0.0
0.0 0.0 0.0 0.0 0.0 0.0 0.0 0.0 0.0 0.0 0.0 0.0 0.0 0.0 0.0 0.0 0.0 0.0 0.0 0.0 0.0 0.0 3.0 1.6 0.0 0.0 0.0 0.0 0.0 0.0 0.0 0.0 0.1 1.1 1.6 0.0 0.0 0.0 0.6 0.0 0.0 0.0 0.0 0.0 0.0 0.0 0.0 0.0 0.0 0.0 0.0 0.0 0.0 0.0
0.0 0.0 0.0 0.0 0.0 0.0 0.0 0.0 0.0 0.0 0.0 0.0 0.0 0.0 0.0 0.0 0.0 0.2 0.0 0.0 0.0 0.0 1.5 3.8 4.0 0.0 0.0 0.0 0.0 0.0 0.0 0.0 2.0 3.2 1.5 0.0 0.0 1.6 1.3 0.3 0.0 0.0 0.0 0.0 0.0 0.0 0.0 0.0 0.0 0.0 0.0 0.0 0.0 0.0
0.0 0.0 0.0 0.0 0.0 0.0 0.0 0.0 0.0 0.0 0.0 0.0 0.0 0.0 0.0 0.0 0.0 0.0 0.0 0.0 0.0 0.0 4.3 8.6 7.1 2.9 0.0 0.4 0.0 0.0 0.0 0.0 0.5 1.4 0.0 0.0 0.0 2.2 1.4 0.0 0.0 0.0 0.0 0.0 0.0 0.0 0.0 0.0 0.0 0.0 0.0 0.0 0.0 0.0
0.0 0.0 0.0 0.0 0.0 0.0 0.0 0.0 0.0 0.0 0.0 0.0 0.0 0.0 0.0 0.0 0.0 0.0 0.0 0.0 0.0 0.0 7.3 6.7 6.7 5.1 0.0 0.0 0.0 0.1 0.0 4.5 0.0 1.6 0.0 0.4 1.2 2.6 0.0 0.0 0.0 0.0 0.0 0.0 0.0 0.0 0.0 0.0 0.0 0.0 0.0 0.0 0.0 0.0
0.0 0.0 0.0 0.0 0.0 0.0 0.0 0.0 0.0 0.0 0.0 0.0 0.0 0.0 0.9 0.0 0.0 0.0 0.0 0.7 4.5 3.5 3.8 5.1 4.8 5.9 3.0 4.7 1.7 1.6 1.9 3.0 3.7 0.0 0.0 1.0 0.0 0.0 0.0 0.0 0.0 0.0 0.0 0.0 0.0 3.0 1.6 0.0 0.0 0.0 0.0 0.0 0.0 0.0
0.0 0.0 0.0 0.0 0.0 0.0 0.0 0.0 0.0 0.0 0.0 0.0 0.0 0.0 0.0 0.0 0.0 0.0 5.6 6.7 3.8 2.4 2.3 3.3 4.5 3.7 0.0 5.0 3.5 0.3 5.6 2.2 4.1 4.6 0.7 1.5 1.1 1.2 0.0 0.0 0.0 0.0 0.0 0.0 0.0 0.0 0.0 0.0 0.0 0.0 0.0 0.0 0.0 0.0
0.0 0.0 0.0 0.0 0.0 0.0 0.0 0.0 0.0 0.0 0.0 0.0 0.0 0.0 0.0 0.8 3.8 4.9 5.7 3.8 1.3 1.0 1.6 2.9 1.5 1.0 1.0 0.0 2.0 1.8 3.5 3.0 3.3 4.5 2.8 2.0 1.0 0.2 1.1 1.0 0.7 0.1 0.0 0.0 0.0 0.0 0.0 0.0 0.0 0.0 0.0 0.0 0.0 0.0
0.0 0.0 0.0 0.0 0.0 0.0 0.0 0.0 0.0 0.0 0.0 0.0 0.0 0.0 0.4 1.0 2.1 3.0 2.9 2.5 0.5 0.7 0.9 0.9 1.1 0.0 0.0 0.1 0.6 1.5 1.3 0.3 0.5 1.7 2.0 1.7 0.3 0.2 0.0 0.2 0.5 2.2 2.7 1.5 0.7 0.8 0.0 0.0 0.0 0.0 0.0 0.0 0.0 0.0
0.0 0.0 0.0 0.0 0.0 0.0 0.0 0.0 0.0 0.0 0.0 0.0 0.0 0.0 0.5 0.8 1.2 1.2 1.1 1.1 0.2 0.1 0.0 0.0 0.6 1.3 0.2 1.2 1.2 1.5 0.1 0.2 0.8 1.5 1.5 0.2 0.2 0.0 0.0 0.0 0.0 0.0 1.1 1.8 1.5 1.3 0.9 0.3 0.0 0.0 0.0 0.0 0.0 0.0
0.0 0.0 0.0 0.0 0.0 0.0 0.0 0.0 0.0 0.0 0.0 0.0 0.0 0.0 0.0 0.0 0.2 0.1 0.0 0.2 0.0 0.0 0.1 0.0 0.0 0.1 1.0 1.3 0.3 1.0 0.9 2.0 3.2 2.0 1.4 0.7 0.2 0.0 0.1 0.1 0.0 0.0 0.0 0.0 0.3 0.7 0.4 0.1 0.1 0.0 0.0 0.0 0.0 0.0
0.0 0.0 0.0 0.0 0.0 0.0 0.0 0.0 0.0 0.0 0.0 0.0 0.0 0.0 0.0 0.0 0.0 0.0 0.0 0.0 0.0 0.0 0.3 0.4 0.6 1.0 0.5 1.7 1.0 0.3 1.1 2.0 2.5 1.3 0.0 0.0 0.0 0.0 0.1 0.0 0.1 0.0 0.0 0.0 0.0 0.0 0.1 0.0 0.0 0.0 0.0 0.0 0.0 0.0
0.0 0.0 0.0 0.0 0.0 0.0 0.0 0.0 0.0 0.0 0.0 0.0 0.0 0.0 0.0 0.0 0.0 0.0 0.0 0.0 0.0 0.2 1.6 2.1 2.5 0.1 0.4 0.8 0.3 0.1 0.2 0.3 0.3 0.0 0.0 0.0 0.0 0.0 0.4 0.0 0.0 0.1 0.0 0.0 0.2 0.2 0.4 0.0 0.4 0.3 0.0 0.0 0.0 0.0
0.0 0.0 0.0 0.0 0.0 0.0 0.0 0.0 0.0 0.0 0.0 0.0 0.0 0.0 0.0 0.0 0.0 0.0 0.0 0.0 0.0 0.1 2.1 5.1 2.8 1.7 0.4 0.2 0.0 0.1 0.0 0.0 0.0 0.0 0.0 0.0 0.0 0.0 0.4 0.0 0.0 0.2 0.8 1.6 1.7 1.2 0.9 0.9 0.8 0.5 0.0 0.0 0.0 0.0
0.0 0.0 0.0 0.0 0.0 0.0 0.6 0.3 0.0 0.0 0.0 0.0 0.0 0.0 0.0 0.0 0.0 0.0 0.0 0.0 0.0 0.1 1.1 2.4 2.6 0.6 0.0 0.0 0.0 0.0 0.0 0.0 0.0 0.0 0.0 0.0 0.0 0.1 0.1 0.7 0.6 0.0 0.4 1.1 0.8 0.2 0.0 0.0 0.0 0.0 0.0 0.0 0.0 0.0
0.0 0.0 0.0 0.0 0.0 0.3 1.2 0.1 0.1 0.0 0.0 0.0 0.0 0.0 0.0 0.0 0.0 0.0 0.1 0.0 0.1 0.1 0.2 1.0 0.0 0.1 0.1 0.3 0.5 0.4 0.0 0.0 0.0 0.0 0.0 0.0 0.0 0.0 0.0 0.0 0.0 0.2 0.0 0.4 0.3 0.1 0.0 0.0 0.0 0.0 0.0 0.0 0.0 0.0
0.0 0.0 0.0 0.0 1.4 0.8 0.9 0.0 0.0 0.0 0.0 0.0 0.0 0.0 0.0 0.0 0.0 0.0 0.1 0.1 0.4 0.4 0.0 0.2 0.0 0.0 0.4 0.4 0.2 0.4 0.2 0.1 0.0 0.0 0.0 0.0 0.0 0.0 0.0 0.0 0.0 0.1 0.0 0.0 0.1 0.0 0.0 0.0 0.0 0.0 0.0 0.0 0.0 0.0
0.4 0.0 1.4 2.8 1.8 1.8 1.1 0.1 0.0 0.0 0.0 0.0 0.0 0.0 0.0 0.0 0.0 0.0 0.0 0.2 0.0 0.0 0.1 0.2 0.0 0.0 0.0 0.0 0.6 0.4 0.5 0.0 0.1 0.0 0.0 0.0 0.0 0.0 0.0 0.0 0.0 0.0 0.0 0.0 0.0 0.0 0.0 0.0 0.0 0.0 0.0 0.0 0.0 0.0
0.0 2.7 3.7 2.8 2.3 3.0 1.4 0.1 0.2 0.1 0.0 0.0 0.0 0.0 0.0 0.0 0.0 0.0 0.0 0.0 0.0 0.0 0.0 0.0 0.0 0.7 0.9 0.9 1.3 1.1 0.7 0.1 0.0 0.0 0.1 0.0 0.0 0.0 0.0 0.0 0.0 0.0 0.0 0.0 0.0 0.0 0.0 0.0 0.0 0.0 0.0 0.0 0.0 0.0
0.0 3.7 4.3 2.8 1.8 1.1 0.8 0.3 0.3 0.0 0.0 0.0 0.0 0.0 0.0 0.0 0.0 0.0 0.0 0.0 0.0 0.0 0.0 0.0 0.0 0.0 0.0 0.6 0.9 1.5 2.0 1.4 0.4 0.0 0.6 0.3 0.0 0.0 0.0 0.0 0.0 0.0 0.0 0.0 0.0 0.0 0.0 0.0 0.0 0.0 0.0 0.0 0.0 0.0
8.1 7.8 3.9 3.3 1.6 0.7 0.2 0.3 0.1 0.1 0.0 0.0 0.0 0.0 0.0 0.0 0.0 0.0 0.0 0.0 0.0 0.0 0.0 0.0 0.0 0.0 0.0 0.0 0.5 0.6 0.9 1.3 1.9 1.8 0.2 1.5 0.7 0.2 0.0 0.0 0.2 0.1 0.0 0.0 0.0 0.0 0.0 0.0 0.0 0.0 0.0 0.0 0.0 0.0
7.0 3.0 1.6 0.0 0.2 0.0 0.0 0.0 0.0 0.0 0.0 0.0 0.0 0.0 0.0 0.0 0.0 0.0 0.0 0.0 0.0 0.0 0.0 0.0 0.0 0.0 0.0 0.0 0.0 0.6 0.8 0.9 0.8 1.1 0.2 1.7 1.5 1.9 1.5 1.2 0.7 0.3 0.0 0.0 0.2 0.2 0.1 0.0 0.0 0.0 0.0 0.0 0.0 0.0
3.2 0.9 0.1 0.1 0.1 0.1 0.0 0.0 0.0 0.0 0.0 0.0 0.0 0.0 0.0 0.1 0.0 0.0 0.0 0.0 0.0 0.0 0.0 0.0 0.0 0.0 0.0 0.0 0.0 0.0 0.7 0.9 0.8 0.4 0.2 1.2 1.1 0.9 0.5 1.3 1.1 0.8 0.6 1.1 0.9 0.6 0.5 0.3 0.2 0.1 0.3 0.2 0.2 0.2
0.0 0.0 0.0 0.0 0.0 0.0 0.0 0.0 0.0 0.0 0.0 0.0 0.1 0.1 0.2 0.0 0.0 0.0 0.0 0.0 0.0 0.0 0.0 0.0 0.0 0.0 0.0 0.0 0.0 0.4 0.6 0.8 0.8 0.5 1.2 1.3 1.1 1.0 0.9 1.1 2.2 2.5 1.9 1.5 1.1 1.3 1.4 1.0 0.7 0.9 0.7 0.4 0.5 0.5
0.1 0.0 0.0 0.0 0.0 0.0 0.0 0.0 0.1 0.0 0.0 0.0 0.0 0.0 0.0 0.0 0.0 0.0 0.0 0.0 0.0 0.0 0.0 0.0 0.0 0.0 0.0 0.0 0.0 0.4 0.5 0.8 1.1 1.0 0.8 0.8 1.0 1.2 1.4 2.6 3.3 4.1 4.0 3.6 3.1 2.3 1.6 1.5 2.0 1.9 1.9 1.8 1.6 1.6
0.1 0.0 0.0 0.0 0.0 0.0 0.0 0.0 0.0 0.0 0.0 0.0 0.0 0.0 0.0 0.0 0.0 0.0 0.0 0.0 0.0 0.0 0.0 0.0 0.0 0.0 0.0 0.0 0.0 0.4 0.4 0.4 0.9 0.9 0.9 0.8 0.9 1.1 2.3 2.8 3.6 4.1 4.5 4.0 4.8 5.6 5.2 4.9 5.4 5.1 4.3 3.8 3.5 2.9
0.0 0.0 0.0 0.0 0.0 0.0 0.0 0.0 0.0 0.0 0.0 0.0 0.0 0.0 0.0 0.0 0.0 0.0 0.0 0.0 0.0 0.0 0.0 0.0 0.0 0.1 0.2 0.3 0.5 0.7 0.6 0.7 0.7 1.2 1.4 1.6 1.5 2.1 2.0 3.3 3.4 4.2 4.6 4.7 4.2 4.0 3.7 3.2 2.8 2.6 2.9 2.6 2.6 2.2
0.0 0.0 0.0 0.0 0.0 0.0 0.0 0.0 0.0 0.0 0.0 0.0 0.0 0.0 0.0 0.0 0.0 0.0 0.0 0.0 0.0 0.0 0.0 0.0 0.2 0.4 0.5 0.7 0.9 1.1 1.6 1.7 1.0 1.6 1.7 1.6 2.0 1.8 2.9 3.3 4.0 4.2 4.6 4.5 4.0 3.6 3.4 3.2 3.6 3.4 3.6 3.7 3.5 3.0
0.3 0.1 0.1 0.0 0.0 0.0 0.0 0.0 0.0 0.0 0.0 0.0 0.0 0.0 0.0 0.0 0.0 0.0 0.0 0.0 0.0 0.0 0.0 0.4 0.5 0.7 1.2 1.5 1.4 2.1 2.3 1.9 2.8 3.0 3.4 3.4 3.1 3.2 3.9 3.9 4.2 4.1 3.9 4.1 4.4 4.6 4.7 4.4 4.1 3.8 3.5 3.4 3.3 3.1

GFSWCAN_prec_snow_045.txt.gz
Snowfall_Accumulation
0.0 0.0 0.0 0.0 0.0 0.0 0.0 0.0 0.0 0.0 0.0 0.0 0.0 0.0 0.0 0.0 0.0 0.0 0.0 0.0 0.0 0.0 0.0 0.0 0.0 0.0 0.0 0.0 0.0 0.0 0.0 0.0 0.0 0.7 0.0 0.0 0.1 0.0 0.0 0.0 0.0 0.0 0.2 0.2 0.5 0.4 0.0 0.0 0.0 0.0 0.0 0.0 0.0 0.0
0.0 0.0 0.0 0.0 0.0 0.0 0.0 0.0 0.0 0.0 0.0 0.0 0.0 0.0 0.0 0.0 0.0 0.0 0.0 0.0 0.0 0.0 0.0 0.0 0.0 0.0 0.0 0.0 0.0 0.0 0.0 0.0 0.0 0.0 0.0 0.0 0.1 0.0 0.0 0.0 0.0 0.0 0.0 0.0 0.0 0.0 0.0 0.0 0.0 0.0 0.0 0.0 0.0 0.0
0.0 0.0 0.0 0.0 0.0 0.0 0.0 0.0 0.0 0.0 0.0 0.0 0.0 0.0 0.0 0.0 0.0 0.0 0.0 0.0 0.0 0.1 0.0 0.0 0.0 0.0 0.0 0.0 0.0 0.0 0.0 0.0 0.0 0.0 0.0 0.0 0.0 0.0 0.1 0.0 0.0 0.0 0.0 0.0 0.0 0.0 0.0 0.0 0.0 0.0 0.0 0.0 0.0 0.0
0.0 0.0 0.0 0.0 0.0 0.0 0.0 0.0 0.0 0.0 0.0 0.0 0.0 0.0 0.0 0.0 0.0 0.0 0.0 0.0 0.0 0.1 0.8 0.1 0.0 0.0 0.0 0.0 0.0 0.0 0.0 0.0 0.0 0.0 0.0 0.0 0.0 0.0 0.0 0.0 0.0 0.0 0.0 0.0 0.0 0.0 0.0 0.0 0.0 0.0 0.0 0.0 0.0 0.0
0.0 0.0 0.0 0.0 0.0 0.0 0.0 0.0 0.0 0.0 0.0 0.0 0.0 0.0 0.0 0.0 0.0 0.0 0.0 0.0 0.0 0.2 1.9 0.3 0.0 0.0 0.0 0.0 0.0 0.0 0.0 0.0 0.5 0.3 1.1 0.7 0.0 0.0 0.0 0.0 0.0 0.0 0.0 0.0 0.0 0.0 0.0 0.0 0.0 0.0 0.0 0.0 0.0 0.0
0.0 0.0 0.0 0.0 0.0 0.0 0.0 0.0 0.0 0.0 0.0 0.0 0.0 0.0 0.0 0.0 0.0 0.0 0.0 0.0 0.0 0.0 3.0 1.6 0.0 0.0 0.0 0.0 0.0 0.0 0.0 0.0 0.1 1.1 1.6 0.0 0.0 0.0 0.6 0.0 0.0 0.0 0.0 0.0 0.0 0.0 0.0 0.0 0.0 0.0 0.0 0.0 0.0 0.0
0.0 0.0 0.0 0.0 0.0 0.0 0.0 0.0 0.0 0.0 0.0 0.0 0.0 0.0 0.0 0.0 0.0 0.2 0.0 0.0 0.0 0.0 1.5 3.8 4.0 0.0 0.0 0.0 0.0 0.0 0.0 0.0 2.0 3.2 1.5 0.0 0.0 1.6 1.3 0.3 0.0 0.0 0.0 0.0 0.0 0.0 0.0 0.0 0.0 0.0 0.0 0.0 0.0 0.0
0.0 0.0 0.0 0.0 0.0 0.0 0.0 0.0 0.0 0.0 0.0 0.0 0.0 0.0 0.0 0.0 0.0 0.0 0.0 0.0 0.0 0.0 4.3 8.6 7.1 2.9 0.0 0.4 0.0 0.0 0.0 0.0 0.5 1.4 0.0 0.0 0.0 2.2 1.4 0.0 0.0 0.0 0.0 0.0 0.0 0.0 0.0 0.0 0.0 0.0 0.0 0.0 0.0 0.0
0.0 0.0 0.0 0.0 0.0 0.0 0.0 0.0 0.0 0.0 0.0 0.0 0.0 0.0 0.0 0.0 0.0 0.0 0.0 0.0 0.0 0.0 7.3 6.7 6.7 5.1 0.0 0.0 0.0 0.1 0.0 4.5 0.0 1.6 0.0 0.4 1.2 2.6 0.0 0.1 0.1 0.0 0.0 0.0 0.0 0.0 0.0 0.0 0.0 0.0 0.0 0.0 0.0 0.0
0.0 0.0 0.0 0.0 0.0 0.0 0.0 0.0 0.0 0.0 0.0 0.0 0.0 0.0 0.9 0.0 0.0 0.0 0.0 0.7 4.5 3.5 3.8 5.1 4.8 5.9 3.0 4.7 1.7 1.7 1.9 3.0 3.7 0.0 0.0 1.0 0.0 0.0 0.0 0.0 0.1 0.0 0.0 0.0 0.0 3.0 1.6 1.0 0.0 0.0 0.0 0.0 0.0 0.0
0.0 0.0 0.0 0.0 0.0 0.0 0.0 0.0 0.0 0.0 0.0 0.0 0.0 0.0 0.0 0.0 0.0 0.0 5.6 6.7 3.8 2.4 2.3 3.3 4.5 3.7 0.0 5.0 3.5 0.3 5.7 2.4 4.1 4.6 0.7 1.7 1.6 1.2 0.0 0.1 0.0 0.0 0.1 0.0 0.0 0.0 0.0 1.4 1.2 0.0 0.0 0.0 0.0 0.0
0.0 0.0 0.0 0.0 0.0 0.0 0.0 0.0 0.0 0.0 0.0 0.0 0.0 0.0 0.0 0.8 3.8 4.9 5.7 3.8 1.3 1.0 1.6 2.9 1.5 1.0 1.0 0.0 2.1 1.9 3.7 3.1 3.5 4.7 3.2 2.7 1.0 0.2 1.1 1.0 0.7 0.1 0.0 0.1 0.0 0.0 0.0 0.0 0.0 0.0 0.0 0.0 0.0 0.0
0.0 0.0 0.0 0.0 0.0 0.0 0.0 0.0 0.0 0.0 0.0 0.0 0.0 0.0 0.4 1.0 2.1 3.0 2.9 2.5 0.5 0.7 0.9 0.9 1.1 0.0 0.0 0.1 0.6 1.6 1.6 0.6 1.2 2.7 3.9 1.7 0.3 0.2 0.0 0.2 0.5 2.2 2.7 1.5 1.0 0.8 0.8 0.8 0.5 0.1 0.0 0.0 0.0 0.0
0.0 0.0 0.0 0.0 0.0 0.0 0.0 0.0 0.0 0.0 0.0 0.0 0.0 0.0 0.5 0.8 1.2 1.2 1.1 1.1 0.2 0.1 0.0 0.0 0.6 1.3 0.2 1.2 1.2 1.5 0.1 0.5 1.9 1.5 1.5 0.2 0.2 0.0 0.0 0.0 0.0 0.0 1.1 1.8 2.8 2.3 1.8 2.1 1.3 0.7 0.1 0.0 0.0 0.0
0.0 0.0 0.0 0.0 0.0 0.0 0.0 0.0 0.0 0.0 0.0 0.0 0.0 0.0 0.0 0.0 0.2 0.1 0.0 0.2 0.0 0.0 0.1 0.0 0.0 0.1 1.0 1.3 0.3 1.0 0.9 2.7 3.2 2.0 1.4 0.7 0.2 0.0 0.1 0.1 0.0 0.0 0.0 0.0 0.3 0.7 2.1 1.9 1.3 0.4 0.0 0.0 0.0 0.0
0.0 0.0 0.0 0.0 0.0 0.0 0.0 0.0 0.0 0.0 0.0 0.0 0.0 0.0 0.0 0.0 0.0 0.0 0.0 0.0 0.0 0.0 0.3 0.4 0.6 1.0 0.5 1.7 1.0 0.3 1.1 2.0 2.5 1.3 0.0 0.0 0.0 0.0 0.1 0.0 0.1 0.0 0.0 0.0 0.0 0.0 0.5 0.5 0.5 0.3 0.2 0.2 0.0 0.0
0.0 0.0 0.0 0.0 0.0 0.0 0.0 0.0 0.0 0.0 0.0 0.0 0.0 0.0 0.0 0.0 0.0 0.0 0.0 0.0 0.0 0.2 1.6 2.1 2.5 0.1 0.4 0.8 0.3 0.1 0.2 0.3 0.3 0.0 0.0 0.0 0.0 0.0 0.4 0.0 0.0 0.1 0.0 0.0 0.2 0.2 0.8 0.4 1.1 1.2 0.4 0.1 0.0 0.0
0.0 0.0 0.0 0.0 0.0 0.0 0.0 0.0 0.0 0.0 0.0 0.0 0.0 0.0 0.0 0.0 0.0 0.0 0.0 0.0 0.0 0.1 2.1 5.1 2.8 1.7 0.4 0.2 0.0 0.1 0.0 0.0 0.0 0.0 0.0 0.0 0.0 0.0 0.4 0.0 0.0 0.2 0.8 1.6 1.7 1.7 1.3 1.3 1.3 1.0 0.0 0.2 0.0 0.0
0.0 0.0 0.0 0.0 0.0 0.0 0.6 0.3 0.0 0.0 0.0 0.0 0.0 0.0 0.0 0.0 0.0 0.0 0.0 0.0 0.0 0.1 1.1 2.4 2.6 0.6 0.0 0.0 0.0 0.0 0.0 0.0 0.0 0.0 0.0 0.0 0.0 0.1 0.1 0.7 0.6 0.0 0.4 1.1 0.8 0.9 0.6 0.2 0.0 0.2 0.3 0.2 0.1 0.0
0.0 0.0 0.0 0.0 0.0 0.3 1.2 0.1 0.1 0.0 0.0 0.0 0.0 0.0 0.0 0.0 0.0 0.0 0.1 0.0 0.1 0.1 0.2 1.0 0.0 0.1 0.1 0.3 0.5 0.4 0.0 0.0 0.0 0.0 0.0 0.0 0.0 0.0 0.0 0.0 0.0 0.2 0.0 0.4 0.3 0.1 0.6 0.3 0.0 0.0 0.0 0.0 0.0 0.0
0.0 0.0 0.0 0.0 1.4 0.8 0.9 0.0 0.0 0.0 0.0 0.0 0.0 0.0 0.0 0.0 0.0 0.0 0.1 0.1 0.4 0.4 0.0 0.2 0.0 0.0 0.4 0.4 0.2 0.4 0.2 0.1 0.0 0.0 0.0 0.0 0.0 0.0 0.0 0.0 0.0 0.1 0.0 0.0 0.1 0.0 0.4 0.2 0.1 0.0 0.0 0.0 0.0 0.0
0.4 0.0 1.4 2.8 1.8 1.8 1.1 0.1 0.0 0.0 0.0 0.0 0.0 0.0 0.0 0.0 0.0 0.0 0.0 0.2 0.0 0.0 0.1 0.2 0.0 0.0 0.0 0.0 0.6 0.4 0.5 0.0 0.1 0.0 0.0 0.0 0.0 0.0 0.0 0.0 0.0 0.0 0.0 0.0 0.0 0.0 0.0 0.0 0.1 0.0 0.0 0.0 0.0 0.0
0.0 2.7 3.7 2.8 2.3 3.0 1.4 0.1 0.2 0.1 0.0 0.0 0.0 0.0 0.0 0.0 0.0 0.0 0.0 0.0 0.0 0.0 0.0 0.0 0.0 0.7 0.9 0.9 1.3 1.1 0.7 0.1 0.0 0.0 0.1 0.0 0.0 0.0 0.0 0.0 0.0 0.0 0.0 0.0 0.0 0.0 0.0 0.0 0.0 0.0 0.0 0.0 0.0 0.0
0.0 3.7 4.3 2.8 1.8 1.1 0.8 0.3 0.3 0.0 0.0 0.0 0.0 0.0 0.0 0.0 0.1 0.0 0.0 0.0 0.0 0.0 0.0 0.0 0.0 0.0 0.0 0.6 0.9 1.5 2.0 1.4 0.4 0.0 0.6 0.3 0.0 0.0 0.0 0.0 0.0 0.0 0.0 0.0 0.0 0.0 0.0 0.0 0.0 0.0 0.0 0.0 0.0 0.0
8.1 7.8 3.9 3.3 1.6 0.7 0.2 0.3 0.1 0.2 0.0 0.0 0.0 0.0 0.0 0.0 0.0 0.0 0.0 0.0 0.0 0.0 0.0 0.0 0.0 0.0 0.0 0.0 0.5 0.6 0.9 1.3 1.9 1.8 0.2 1.5 0.7 0.2 0.0 0.0 0.2 0.1 0.0 0.0 0.0 0.0 0.0 0.0 0.0 0.0 0.0 0.0 0.0 0.0
7.0 3.0 1.6 0.0 0.2 0.0 0.0 0.0 0.0 0.0 0.0 0.0 0.0 0.0 0.0 0.0 0.0 0.0 0.0 0.0 0.0 0.0 0.0 0.0 0.0 0.0 0.0 0.0 0.0 0.6 0.8 0.9 0.8 1.1 0.2 1.7 1.5 1.9 1.5 1.2 0.7 0.3 0.0 0.0 0.2 0.2 0.1 0.0 0.0 0.0 0.0 0.0 0.0 0.0
3.2 0.9 0.1 0.1 0.1 0.1 0.0 0.0 0.0 0.0 0.0 0.0 0.0 0.0 0.0 0.1 0.0 0.0 0.0 0.0 0.0 0.0 0.0 0.0 0.0 0.0 0.0 0.0 0.0 0.0 0.7 0.9 0.8 0.4 0.2 1.2 1.1 0.9 0.5 1.3 1.1 0.8 0.6 1.1 0.9 0.6 0.5 0.3 0.2 0.1 0.3 0.2 0.2 0.2
0.0 0.0 0.0 0.0 0.0 0.0 0.0 0.0 0.0 0.0 0.0 0.0 0.1 0.1 0.2 0.0 0.0 0.0 0.0 0.0 0.0 0.0 0.0 0.0 0.0 0.0 0.0 0.0 0.0 0.4 0.6 0.8 0.8 0.5 1.2 1.3 1.1 1.0 0.9 1.1 2.2 2.5 1.9 1.5 1.1 1.3 1.4 1.0 0.7 0.9 0.7 0.4 0.5 0.5
0.1 0.0 0.0 0.0 0.0 0.0 0.0 0.0 0.1 0.0 0.0 0.0 0.0 0.0 0.0 0.0 0.0 0.0 0.0 0.0 0.0 0.0 0.0 0.0 0.0 0.0 0.0 0.0 0.0 0.4 0.5 0.8 1.1 1.0 0.8 0.8 1.0 1.2 1.4 2.6 3.3 4.1 4.0 3.6 3.1 2.3 1.6 1.5 2.0 1.9 1.9 1.8 1.6 1.6
0.1 0.0 0.0 0.0 0.0 0.0 0.0 0.0 0.0 0.0 0.0 0.0 0.0 0.0 0.0 0.0 0.0 0.0 0.0 0.0 0.0 0.0 0.0 0.0 0.0 0.0 0.0 0.0 0.0 0.4 0.4 0.4 0.9 0.9 0.9 0.8 0.9 1.1 2.3 2.8 3.6 4.1 4.5 4.0 4.8 5.6 5.2 4.9 5.4 5.1 4.3 3.8 3.5 2.9
0.0 0.0 0.0 0.0 0.0 0.0 0.0 0.0 0.0 0.0 0.0 0.0 0.0 0.0 0.0 0.0 0.0 0.0 0.0 0.0 0.0 0.0 0.0 0.0 0.0 0.1 0.2 0.3 0.5 0.7 0.6 0.7 0.7 1.2 1.4 1.6 1.5 2.1 2.0 3.3 3.4 4.2 4.6 4.7 4.2 4.0 3.7 3.2 2.8 2.6 2.9 2.6 2.6 2.2
0.0 0.0 0.0 0.0 0.0 0.0 0.0 0.0 0.0 0.0 0.0 0.0 0.0 0.0 0.0 0.0 0.0 0.0 0.0 0.0 0.0 0.0 0.0 0.0 0.2 0.4 0.5 0.7 0.9 1.1 1.6 1.7 1.0 1.6 1.7 1.6 2.0 1.8 2.9 3.3 4.0 4.2 4.6 4.5 4.0 3.6 3.4 3.2 3.6 3.4 3.6 3.7 3.5 3.0
0.4 0.2 0.1 0.0 0.0 0.0 0.0 0.0 0.0 0.0 0.0 0.0 0.0 0.0 0.0 0.0 0.0 0.0 0.0 0.0 0.0 0.0 0.0 0.4 0.5 0.7 1.2 1.5 1.4 2.1 2.3 1.9 2.8 3.0 3.4 3.4 3.1 3.2 3.9 3.9 4.2 4.1 3.9 4.1 4.4 4.6 4.7 4.4 4.1 3.8 3.5 3.4 3.3 3.1

GFSWCAN_prec_snow_048.txt.gz
Snowfall_Accumulation
0.0 0.0 0.0 0.0 0.0 0.0 0.0 0.0 0.0 0.0 0.0 0.0 0.0 0.0 0.0 0.0 0.0 0.0 0.0 0.0 0.0 0.0 0.0 0.0 0.0 0.0 0.0 0.0 0.0 0.0 0.0 0.0 0.0 0.7 0.0 0.0 0.1 0.0 0.0 0.0 0.0 0.0 0.2 0.2 0.5 0.4 0.0 0.0 0.0 0.0 0.0 0.0 0.0 0.0
0.0 0.0 0.0 0.0 0.0 0.0 0.0 0.0 0.0 0.0 0.0 0.0 0.0 0.0 0.0 0.0 0.0 0.0 0.0 0.0 0.0 0.0 0.0 0.0 0.0 0.0 0.0 0.0 0.0 0.0 0.0 0.0 0.0 0.0 0.0 0.0 0.1 0.0 0.0 0.0 0.0 0.0 0.0 0.0 0.0 0.0 0.0 0.0 0.0 0.0 0.0 0.0 0.0 0.0
0.0 0.0 0.0 0.0 0.0 0.0 0.0 0.0 0.0 0.0 0.0 0.0 0.0 0.0 0.0 0.0 0.0 0.0 0.0 0.0 0.0 0.1 0.0 0.0 0.0 0.0 0.0 0.0 0.0 0.0 0.0 0.0 0.0 0.0 0.0 0.0 0.0 0.0 0.1 0.0 0.0 0.0 0.0 0.0 0.0 0.0 0.0 0.0 0.0 0.0 0.0 0.0 0.0 0.0
0.0 0.0 0.0 0.0 0.0 0.0 0.0 0.0 0.0 0.0 0.0 0.0 0.0 0.0 0.0 0.0 0.0 0.0 0.0 0.0 0.0 0.1 0.8 0.1 0.0 0.0 0.0 0.0 0.0 0.0 0.0 0.0 0.0 0.0 0.0 0.0 0.0 0.0 0.0 0.0 0.0 0.0 0.0 0.0 0.0 0.0 0.0 0.0 0.0 0.0 0.0 0.0 0.0 0.0
0.0 0.0 0.0 0.0 0.0 0.0 0.0 0.0 0.0 0.0 0.0 0.0 0.0 0.0 0.0 0.0 0.0 0.0 0.0 0.0 0.0 0.2 1.9 0.3 0.0 0.0 0.0 0.0 0.0 0.0 0.0 0.0 0.5 0.3 1.1 0.7 0.0 0.0 0.0 0.0 0.0 0.0 0.0 0.0 0.0 0.0 0.0 0.0 0.0 0.0 0.0 0.0 0.0 0.0
0.0 0.0 0.0 0.0 0.0 0.0 0.0 0.0 0.0 0.0 0.0 0.0 0.0 0.0 0.0 0.0 0.0 0.0 0.0 0.0 0.0 0.0 3.0 1.6 0.0 0.0 0.0 0.0 0.0 0.0 0.0 0.0 0.1 1.1 1.6 0.0 0.0 0.0 0.6 0.0 0.0 0.0 0.0 0.0 0.0 0.0 0.0 0.0 0.0 0.0 0.0 0.0 0.0 0.0
0.0 0.0 0.0 0.0 0.0 0.0 0.0 0.0 0.0 0.0 0.0 0.0 0.0 0.0 0.0 0.0 0.0 0.2 0.0 0.0 0.0 0.0 1.5 3.8 4.0 0.0 0.0 0.0 0.0 0.0 0.0 0.0 2.0 3.2 1.5 0.0 0.0 1.6 1.3 0.3 0.0 0.0 0.0 0.0 0.0 0.0 0.0 0.0 0.0 0.0 0.0 0.0 0.0 0.0
0.0 0.0 0.0 0.0 0.0 0.0 0.0 0.0 0.0 0.0 0.0 0.0 0.0 0.0 0.0 0.0 0.0 0.0 0.0 0.0 0.0 0.0 4.3 8.6 7.1 2.9 0.0 0.4 0.0 0.0 0.0 0.0 0.5 1.4 0.0 0.0 0.0 2.2 1.4 0.0 0.0 0.0 0.0 0.0 0.0 0.0 0.0 0.0 0.0 0.0 0.0 0.0 0.0 0.0
0.0 0.0 0.0 0.0 0.0 0.0 0.0 0.0 0.0 0.0 0.0 0.0 0.0 0.0 0.0 0.0 0.0 0.0 0.0 0.0 0.0 0.0 7.3 6.7 6.7 5.1 0.0 0.0 0.0 0.2 0.0 4.5 0.0 1.6 0.0 0.4 1.2 2.8 0.0 0.1 0.1 0.0 0.1 0.0 0.0 0.0 0.0 0.0 0.0 0.0 0.0 0.0 0.0 0.0
0.0 0.0 0.0 0.0 0.0 0.0 0.0 0.0 0.0 0.0 0.0 0.0 0.0 0.0 0.9 0.0 0.0 0.0 0.0 0.7 4.5 3.5 3.8 5.1 4.8 5.9 3.0 4.7 1.7 1.7 1.9 3.0 3.7 0.0 0.0 1.2 0.0 0.0 0.0 0.0 0.1 0.1 0.0 0.1 0.0 3.0 1.6 1.0 0.0 0.0 0.0 0.0 0.0 0.0
0.0 0.0 0.0 0.0 0.0 0.0 0.0 0.0 0.0 0.0 0.0 0.0 0.0 0.0 0.0 0.0 0.0 0.0 5.6 6.7 3.8 2.4 2.3 3.3 4.5 3.7 0.0 5.0 3.5 0.3 5.7 2.5 4.1 4.9 1.1 2.2 1.6 1.2 0.0 0.1 0.0 0.0 0.1 0.0 0.0 0.0 0.5 2.1 2.0 0.5 0.4 0.0 0.0 0.0
0.0 0.0 0.0 0.0 0.0 0.0 0.0 0.0 0.0 0.0 0.0 0.0 0.0 0.0 0.0 0.8 3.8 4.9 5.7 3.8 1.3 1.0 1.6 2.9 1.5 1.0 1.0 0.0 2.1 1.9 3.7 3.3 3.7 5.2 3.7 2.7 1.0 0.2 1.1 1.0 0.7 0.1 0.0 0.1 0.0 0.0 0.3 0.0 1.0 1.3 0.9 0.7 0.9 0.9
0.0 0.0 0.0 0.0 0.0 0.0 0.0 0.0 0.0 0.0 0.0 0.0 0.0 0.0 0.4 1.0 2.1 3.0 2.9 2.5 0.5 0.7 0.9 0.9 1.1 0.0 0.0 0.1 0.6 1.6 1.6 0.7 1.2 3.4 3.9 1.7 0.3 0.2 0.0 0.2 0.5 2.2 2.7 1.5 1.0 0.8 0.8 0.8 0.5 0.9 0.8 0.5 0.2 0.0
0.0 0.0 0.0 0.0 0.0 0.0 0.0 0.0 0.0 0.0 0.0 0.0 0.0 0.0 0.5 0.8 1.2 1.2 1.1 1.1 0.2 0.1 0.0 0.0 0.6 1.3 0.2 1.2 1.2 1.5 0.1 0.5 2.2 1.5 1.5 0.2 0.2 0.0 0.0 0.0 0.0 0.0 1.1 1.8 2.8 2.3 1.8 2.1 1.3 1.5 0.9 0.3 0.0 0.0
0.0 0.0 0.0 0.0 0.0 0.0 0.0 0.0 0.0 0.0 0.0 0.0 0.0 0.0 0.0 0.0 0.2 0.1 0.0 0.2 0.0 0.0 0.1 0.0 0.0 0.1 1.0 1.3 0.3 1.0 0.9 2.7 3.2 2.0 1.4 0.7 0.2 0.0 0.1 0.1 0.0 0.0 0.0 0.0 0.3 0.7 2.1 1.9 2.2 1.4 0.7 0.2 0.1 0.0
0.0 0.0 0.0 0.0 0.0 0.0 0.0 0.0 0.0 0.0 0.0 0.0 0.0 0.0 0.0 0.0 0.0 0.0 0.0 0.0 0.0 0.0 0.3 0.4 0.6 1.0 0.5 1.7 1.0 0.3 1.1 2.0 2.5 1.3 0.0 0.0 0.0 0.0 0.1 0.0 0.1 0.0 0.0 0.0 0.0 0.0 0.5 0.5 1.1 1.0 0.2 0.5 0.0 0.0
0.0 0.0 0.0 0.0 0.0 0.0 0.0 0.0 0.0 0.0 0.0 0.0 0.0 0.0 0.0 0.0 0.0 0.0 0.0 0.0 0.0 0.2 1.6 2.1 2.5 0.1 0.4 0.8 0.3 0.1 0.2 0.3 0.3 0.0 0.0 0.0 0.0 0.0 0.4 0.0 0.0 0.1 0.0 0.0 0.2 0.2 0.8 0.4 1.4 1.8 1.1 0.4 0.0 0.2
0.0 0.0 0.0 0.0 0.0 0.0 0.0 0.0 0.0 0.0 0.0 0.0 0.0 0.0 0.0 0.0 0.0 0.0 0.0 0.0 0.0 0.1 2.1 5.1 2.8 1.7 0.4 0.2 0.0 0.1 0.0 0.0 0.0 0.0 0.0 0.0 0.0 0.0 0.4 0.0 0.0 0.2 0.8 1.6 1.7 1.7 1.3 1.3 1.6 1.3 0.3 0.5 0.1 0.1
0.0 0.0 0.0 0.0 0.0 0.0 0.6 0.3 0.0 0.0 0.0 0.0 0.0 0.0 0.0 0.0 0.0 0.0 0.0 0.0 0.0 0.1 1.1 2.4 2.6 0.6 0.0 0.0 0.0 0.0 0.0 0.0 0.0 0.0 0.0 0.0 0.0 0.1 0.1 0.7 0.6 0.0 0.4 1.1 0.8 0.9 0.6 0.2 0.0 0.5 0.5 0.2 0.2 0.1
0.0 0.0 0.0 0.0 0.0 0.3 1.2 0.1 0.1 0.0 0.0 0.0 0.0 0.0 0.0 0.0 0.0 0.0 0.1 0.0 0.1 0.1 0.2 1.0 0.0 0.1 0.1 0.3 0.5 0.4 0.0 0.0 0.0 0.0 0.0 0.0 0.0 0.0 0.0 0.0 0.0 0.2 0.0 0.4 0.3 0.1 0.6 0.3 0.0 0.6 0.4 0.2 0.0 0.2
0.0 0.0 0.0 0.0 1.4 0.8 0.9 0.0 0.0 0.0 0.0 0.0 0.0 0.0 0.0 0.0 0.0 0.0 0.1 0.1 0.4 0.4 0.0 0.2 0.0 0.0 0.4 0.4 0.2 0.4 0.2 0.1 0.0 0.0 0.0 0.0 0.0 0.0 0.0 0.0 0.0 0.1 0.0 0.0 0.1 0.0 0.4 0.2 0.1 0.0 0.4 0.2 0.1 0.1
0.4 0.0 1.4 2.8 1.8 1.8 1.1 0.1 0.0 0.0 0.0 0.0 0.0 0.0 0.0 0.0 0.0 0.0 0.0 0.2 0.0 0.0 0.1 0.2 0.0 0.0 0.0 0.0 0.6 0.4 0.5 0.0 0.1 0.0 0.0 0.0 0.0 0.0 0.0 0.0 0.0 0.0 0.0 0.0 0.0 0.0 0.0 0.0 0.1 0.0 0.3 0.3 0.1 0.0
0.0 2.7 3.7 2.8 2.3 3.0 1.4 0.1 0.2 0.1 0.0 0.0 0.0 0.0 0.0 0.0 0.0 0.0 0.0 0.0 0.0 0.0 0.0 0.0 0.0 0.7 0.9 0.9 1.3 1.1 0.7 0.1 0.0 0.0 0.1 0.0 0.0 0.0 0.0 0.0 0.0 0.0 0.0 0.0 0.0 0.0 0.0 0.0 0.0 0.0 0.0 0.4 0.2 0.0
0.0 3.7 4.3 2.8 1.8 1.1 0.8 0.3 0.3 0.0 0.0 0.0 0.0 0.0 0.0 0.0 0.1 0.0 0.0 0.0 0.0 0.0 0.0 0.0 0.0 0.0 0.0 0.6 0.9 1.5 2.0 1.4 0.4 0.0 0.6 0.3 0.0 0.0 0.0 0.0 0.0 0.0 0.0 0.0 0.0 0.0 0.0 0.0 0.0 0.0 0.0 0.0 0.0 0.0
8.1 7.8 3.9 3.3 1.6 0.7 0.2 0.3 0.1 0.2 0.0 0.0 0.0 0.0 0.0 0.0 0.0 0.0 0.0 0.0 0.0 0.0 0.0 0.0 0.0 0.0 0.0 0.0 0.5 0.6 0.9 1.3 1.9 1.8 0.2 1.5 0.7 0.2 0.0 0.0 0.2 0.1 0.0 0.0 0.0 0.0 0.0 0.0 0.0 0.0 0.0 0.0 0.0 0.0
7.0 3.0 1.6 0.0 0.2 0.0 0.0 0.0 0.0 0.0 0.0 0.0 0.0 0.0 0.0 0.0 0.0 0.0 0.0 0.0 0.0 0.0 0.0 0.0 0.0 0.0 0.0 0.0 0.0 0.6 0.8 0.9 0.8 1.1 0.2 1.7 1.5 1.9 1.5 1.2 0.7 0.3 0.0 0.0 0.2 0.2 0.1 0.0 0.0 0.0 0.0 0.0 0.0 0.0
3.2 0.9 0.1 0.1 0.1 0.1 0.0 0.0 0.0 0.0 0.0 0.0 0.0 0.0 0.0 0.1 0.0 0.0 0.0 0.0 0.0 0.0 0.0 0.0 0.0 0.0 0.0 0.0 0.0 0.0 0.7 0.9 0.8 0.4 0.2 1.2 1.1 0.9 0.5 1.3 1.1 0.8 0.6 1.1 0.9 0.6 0.5 0.3 0.2 0.1 0.3 0.2 0.2 0.2
0.0 0.0 0.0 0.0 0.0 0.0 0.0 0.0 0.0 0.0 0.0 0.0 0.1 0.1 0.2 0.0 0.0 0.0 0.0 0.0 0.0 0.0 0.0 0.0 0.0 0.0 0.0 0.0 0.0 0.4 0.6 0.8 0.8 0.5 1.2 1.3 1.1 1.0 0.9 1.1 2.2 2.5 1.9 1.5 1.1 1.3 1.4 1.0 0.7 0.9 0.7 0.4 0.5 0.5
0.1 0.0 0.0 0.0 0.0 0.0 0.0 0.0 0.1 0.0 0.0 0.0 0.0 0.0 0.0 0.0 0.0 0.0 0.0 0.0 0.0 0.0 0.0 0.0 0.0 0.0 0.0 0.0 0.0 0.4 0.5 0.8 1.1 1.0 0.8 0.8 1.0 1.2 1.4 2.6 3.3 4.1 4.0 3.6 3.1 2.3 1.6 1.5 2.0 1.9 1.9 1.8 1.6 1.6
0.1 0.0 0.0 0.0 0.0 0.0 0.0 0.0 0.0 0.0 0.0 0.0 0.0 0.0 0.0 0.0 0.0 0.0 0.0 0.0 0.0 0.0 0.0 0.0 0.0 0.0 0.0 0.0 0.0 0.4 0.4 0.4 0.9 0.9 0.9 0.8 0.9 1.1 2.3 2.8 3.6 4.1 4.5 4.0 4.8 5.6 5.2 4.9 5.4 5.1 4.3 3.8 3.5 2.9
0.0 0.0 0.0 0.0 0.0 0.0 0.0 0.0 0.0 0.0 0.0 0.0 0.0 0.0 0.0 0.0 0.0 0.0 0.0 0.0 0.0 0.0 0.0 0.0 0.0 0.1 0.2 0.3 0.5 0.7 0.6 0.7 0.7 1.2 1.4 1.6 1.5 2.1 2.0 3.3 3.4 4.2 4.6 4.7 4.2 4.0 3.7 3.2 2.8 2.6 2.9 2.6 2.6 2.2
0.0 0.0 0.0 0.0 0.0 0.0 0.0 0.0 0.0 0.0 0.0 0.0 0.0 0.0 0.0 0.0 0.0 0.0 0.0 0.0 0.0 0.0 0.0 0.0 0.2 0.4 0.5 0.7 0.9 1.1 1.6 1.7 1.0 1.6 1.7 1.6 2.0 1.8 2.9 3.3 4.0 4.2 4.6 4.5 4.0 3.6 3.4 3.2 3.6 3.4 3.6 3.7 3.5 3.0
0.4 0.2 0.1 0.0 0.0 0.0 0.0 0.0 0.0 0.0 0.0 0.0 0.0 0.0 0.0 0.0 0.0 0.0 0.0 0.0 0.0 0.0 0.0 0.4 0.5 0.7 1.2 1.5 1.4 2.1 2.3 1.9 2.8 3.0 3.4 3.4 3.1 3.2 3.9 3.9 4.2 4.1 3.9 4.1 4.4 4.6 4.7 4.4 4.1 3.8 3.5 3.4 3.3 3.1

GFSWCAN_prec_snow_051.txt.gz
Snowfall_Accumulation
0.0 0.0 0.0 0.0 0.0 0.0 0.0 0.0 0.0 0.0 0.0 0.0 0.0 0.0 0.0 0.0 0.0 0.0 0.0 0.0 0.0 0.0 0.0 0.0 0.0 0.0 0.0 0.0 0.0 0.0 0.0 0.0 0.0 0.7 0.0 0.0 0.1 0.0 0.0 0.0 0.0 0.0 0.2 0.2 0.5 0.4 0.0 0.0 0.0 0.0 0.0 0.0 0.0 0.0
0.0 0.0 0.0 0.0 0.0 0.0 0.0 0.0 0.0 0.0 0.0 0.0 0.0 0.0 0.0 0.0 0.0 0.0 0.0 0.0 0.0 0.0 0.0 0.0 0.0 0.0 0.0 0.0 0.0 0.0 0.0 0.0 0.0 0.0 0.0 0.0 0.1 0.0 0.0 0.0 0.0 0.0 0.0 0.0 0.0 0.0 0.0 0.0 0.0 0.0 0.0 0.0 0.0 0.0
0.0 0.0 0.0 0.0 0.0 0.0 0.0 0.0 0.0 0.0 0.0 0.0 0.0 0.0 0.0 0.0 0.0 0.0 0.0 0.0 0.0 0.1 0.0 0.0 0.0 0.0 0.0 0.0 0.0 0.0 0.0 0.0 0.0 0.0 0.0 0.0 0.0 0.0 0.1 0.0 0.0 0.0 0.0 0.0 0.0 0.0 0.0 0.0 0.0 0.0 0.0 0.0 0.0 0.0
0.0 0.0 0.0 0.0 0.0 0.0 0.0 0.0 0.0 0.0 0.0 0.0 0.0 0.0 0.0 0.0 0.0 0.0 0.0 0.0 0.0 0.1 0.8 0.1 0.0 0.0 0.0 0.0 0.0 0.0 0.0 0.0 0.0 0.0 0.0 0.0 0.0 0.0 0.0 0.0 0.0 0.0 0.0 0.0 0.0 0.0 0.0 0.0 0.0 0.0 0.0 0.0 0.0 0.0
0.0 0.0 0.0 0.0 0.0 0.0 0.0 0.0 0.0 0.0 0.0 0.0 0.0 0.0 0.0 0.0 0.0 0.0 0.0 0.0 0.0 0.2 1.9 0.3 0.0 0.0 0.0 0.0 0.0 0.0 0.0 0.0 0.5 0.3 1.1 0.7 0.0 0.0 0.0 0.0 0.0 0.0 0.0 0.0 0.0 0.0 0.0 0.0 0.0 0.0 0.0 0.0 0.0 0.0
0.0 0.0 0.0 0.0 0.0 0.0 0.0 0.0 0.0 0.0 0.0 0.0 0.0 0.0 0.0 0.0 0.0 0.0 0.0 0.0 0.0 0.0 3.0 1.6 0.0 0.0 0.0 0.0 0.0 0.0 0.0 0.0 0.1 1.1 1.6 0.0 0.0 0.0 0.6 0.0 0.0 0.0 0.0 0.0 0.0 0.0 0.0 0.0 0.0 0.0 0.0 0.0 0.0 0.0
0.0 0.0 0.0 0.0 0.0 0.0 0.0 0.0 0.0 0.0 0.0 0.0 0.0 0.0 0.0 0.0 0.0 0.2 0.0 0.0 0.0 0.0 1.5 3.8 4.0 0.0 0.0 0.0 0.0 0.0 0.0 0.0 2.0 3.2 1.5 0.0 0.0 1.6 1.3 0.3 0.0 0.0 0.0 0.0 0.0 0.0 0.0 0.0 0.0 0.0 0.0 0.0 0.0 0.0
0.0 0.0 0.0 0.0 0.0 0.0 0.0 0.0 0.0 0.0 0.0 0.0 0.0 0.0 0.0 0.0 0.0 0.0 0.0 0.0 0.0 0.0 4.3 8.6 7.1 2.9 0.0 0.4 0.0 0.0 0.0 0.0 0.5 1.4 0.0 0.0 0.0 2.2 1.4 0.0 0.0 0.0 0.0 0.0 0.0 0.0 0.0 0.0 0.0 0.0 0.0 0.0 0.0 0.0
0.0 0.0 0.0 0.0 0.0 0.0 0.0 0.0 0.0 0.0 0.0 0.0 0.0 0.0 0.0 0.0 0.0 0.0 0.0 0.0 0.0 0.0 7.3 6.7 6.7 5.1 0.0 0.0 0.0 0.2 0.0 4.5 0.0 1.6 0.0 0.4 1.2 2.8 0.0 0.1 0.1 0.0 0.1 0.0 0.0 0.0 0.0 0.0 0.0 0.0 0.0 0.0 0.0 0.0
0.0 0.0 0.0 0.0 0.0 0.0 0.0 0.0 0.0 0.0 0.0 0.0 0.0 0.0 0.9 0.0 0.0 0.0 0.0 0.7 4.5 3.5 3.8 5.1 4.8 5.9 3.0 4.7 1.7 1.7 1.9 3.0 3.7 0.0 0.0 1.2 0.0 0.0 0.0 0.0 0.1 0.1 0.0 0.1 0.0 3.0 1.6 1.0 0.0 0.0 0.0 0.0 0.0 0.0
0.0 0.0 0.0 0.0 0.0 0.0 0.0 0.0 0.0 0.0 0.0 0.0 0.0 0.0 0.0 0.0 0.0 0.0 5.6 6.7 3.8 2.4 2.3 3.3 4.5 3.7 0.0 5.0 3.5 0.3 5.7 2.5 4.1 4.9 1.1 2.2 1.6 1.2 0.0 0.1 0.0 0.0 0.1 0.0 0.0 0.0 0.5 2.1 2.0 0.6 0.4 0.2 0.0 0.0
0.0 0.0 0.0 0.0 0.0 0.0 0.0 0.0 0.0 0.0 0.0 0.0 0.0 0.0 0.0 0.8 3.8 4.9 5.7 3.8 1.3 1.0 1.6 2.9 1.5 1.0 1.0 0.0 2.1 1.9 3.7 3.3 3.7 5.2 3.8 2.7 1.0 0.2 1.1 1.0 0.7 0.1 0.0 0.1 0.0 0.0 0.3 0.0 1.0 1.3 0.9 1.2 1.4 1.6
0.0 0.0 0.0 0.0 0.0 0.0 0.0 0.0 0.0 0.0 0.0 0.0 0.0 0.0 0.4 1.0 2.1 3.0 2.9 2.5 0.5 0.7 0.9 0.9 1.1 0.0 0.0 0.1 0.6 1.6 1.6 0.7 1.2 3.6 3.9 1.7 0.3 0.2 0.0 0.2 0.5 2.2 2.7 1.5 1.0 0.8 0.8 0.8 0.5 0.9 0.8 0.5 0.7 0.4
0.0 0.0 0.0 0.0 0.0 0.0 0.0 0.0 0.0 0.0 0.0 0.0 0.0 0.0 0.5 0.8 1.2 1.2 1.1 1.1 0.2 0.1 0.0 0.0 0.6 1.3 0.2 1.2 1.2 1.5 0.1 0.5 2.3 1.6 1.5 0.2 0.2 0.0 0.0 0.0 0.0 0.0 1.1 1.8 2.8 2.3 1.8 2.1 1.3 1.5 0.9 0.3 0.0 0.0
0.0 0.0 0.0 0.0 0.0 0.0 0.0 0.0 0.0 0.0 0.0 0.0 0.0 0.0 0.0 0.0 0.2 0.1 0.0 0.2 0.0 0.0 0.1 0.0 0.0 0.1 1.0 1.3 0.3 1.0 0.9 2.7 3.2 2.0 1.4 0.7 0.2 0.0 0.1 0.1 0.0 0.0 0.0 0.0 0.3 0.7 2.1 1.9 2.2 1.4 0.7 0.6 0.1 0.0
0.0 0.0 0.0 0.0 0.0 0.0 0.0 0.0 0.0 0.0 0.0 0.0 0.0 0.0 0.0 0.0 0.0 0.0 0.0 0.0 0.0 0.0 0.3 0.4 0.6 1.0 0.5 1.7 1.0 0.3 1.1 2.0 2.5 1.3 0.0 0.0 0.0 0.0 0.1 0.0 0.1 0.0 0.0 0.0 0.0 0.0 0.5 0.5 1.1 1.0 0.2 0.5 0.4 0.0
0.0 0.0 0.0 0.0 0.0 0.0 0.0 0.0 0.0 0.0 0.0 0.0 0.0 0.0 0.0 0.0 0.0 0.0 0.0 0.0 0.0 0.2 1.6 2.1 2.5 0.1 0.4 0.8 0.3 0.1 0.2 0.3 0.3 0.0 0.0 0.0 0.0 0.0 0.4 0.0 0.0 0.1 0.0 0.0 0.2 0.2 0.8 0.4 1.4 1.8 1.1 0.4 0.5 0.7
0.0 0.0 0.0 0.0 0.0 0.0 0.0 0.0 0.0 0.0 0.0 0.0 0.0 0.0 0.0 0.0 0.0 0.0 0.0 0.0 0.0 0.1 2.1 5.1 2.8 1.7 0.4 0.2 0.0 0.1 0.0 0.0 0.0 0.0 0.0 0.0 0.0 0.0 0.4 0.0 0.0 0.2 0.8 1.6 1.7 1.7 1.3 1.3 1.6 1.3 0.3 0.5 0.6 0.6
0.0 0.0 0.0 0.0 0.0 0.0 0.6 0.3 0.0 0.0 0.0 0.0 0.0 0.0 0.0 0.0 0.0 0.0 0.0 0.0 0.0 0.1 1.1 2.4 2.6 0.6 0.0 0.0 0.0 0.0 0.0 0.0 0.0 0.0 0.0 0.0 0.0 0.1 0.1 0.7 0.6 0.0 0.4 1.1 0.8 0.9 0.6 0.2 0.0 0.5 0.5 0.2 0.6 0.3
0.0 0.0 0.0 0.0 0.0 0.3 1.2 0.1 0.1 0.0 0.0 0.0 0.0 0.0 0.0 0.0 0.0 0.0 0.1 0.0 0.1 0.1 0.2 1.0 0.0 0.1 0.1 0.3 0.5 0.4 0.0 0.0 0.0 0.0 0.0 0.0 0.0 0.0 0.0 0.0 0.0 0.2 0.0 0.4 0.3 0.1 0.6 0.3 0.0 0.6 0.4 0.2 0.5 0.5
0.0 0.0 0.0 0.0 1.4 0.8 0.9 0.0 0.0 0.0 0.0 0.0 0.0 0.0 0.0 0.0 0.0 0.0 0.1 0.1 0.4 0.4 0.0 0.2 0.0 0.0 0.4 0.4 0.2 0.4 0.2 0.1 0.0 0.0 0.0 0.0 0.0 0.0 0.0 0.0 0.0 0.1 0.0 0.0 0.1 0.0 0.4 0.2 0.1 0.0 0.4 0.2 0.1 0.8
0.4 0.0 1.4 2.8 1.8 1.8 1.1 0.1 0.0 0.0 0.0 0.0 0.0 0.0 0.0 0.0 0.0 0.0 0.0 0.2 0.0 0.0 0.1 0.2 0.0 0.0 0.0 0.0 0.6 0.4 0.5 0.0 0.1 0.0 0.0 0.0 0.0 0.0 0.0 0.0 0.0 0.0 0.0 0.0 0.0 0.0 0.0 0.0 0.1 0.0 0.3 0.3 0.1 0.9
0.0 2.7 3.7 2.8 2.3 3.0 1.4 0.1 0.2 0.1 0.0 0.0 0.0 0.0 0.0 0.0 0.0 0.0 0.0 0.0 0.0 0.0 0.0 0.0 0.0 0.7 0.9 0.9 1.3 1.1 0.7 0.1 0.0 0.0 0.1 0.0 0.0 0.0 0.0 0.0 0.0 0.0 0.0 0.0 0.0 0.0 0.0 0.0 0.0 0.0 0.0 0.4 0.2 0.0
0.0 3.7 4.3 2.8 1.8 1.1 0.8 0.3 0.3 0.0 0.0 0.0 0.0 0.0 0.0 0.0 0.1 0.0 0.0 0.0 0.0 0.0 0.0 0.0 0.0 0.0 0.0 0.6 0.9 1.5 2.0 1.4 0.4 0.0 0.6 0.3 0.0 0.0 0.0 0.0 0.0 0.0 0.0 0.0 0.0 0.0 0.0 0.0 0.0 0.0 0.0 0.0 0.0 0.0
8.1 7.8 3.9 3.3 1.6 0.7 0.2 0.3 0.1 0.2 0.0 0.0 0.0 0.0 0.0 0.0 0.0 0.0 0.0 0.0 0.0 0.0 0.0 0.0 0.0 0.0 0.0 0.0 0.5 0.6 0.9 1.3 1.9 1.8 0.2 1.5 0.7 0.2 0.0 0.0 0.2 0.1 0.0 0.0 0.0 0.0 0.0 0.0 0.0 0.0 0.0 0.0 0.0 0.0
7.0 3.0 1.6 0.0 0.2 0.0 0.0 0.0 0.0 0.0 0.0 0.0 0.0 0.0 0.0 0.0 0.0 0.0 0.0 0.0 0.0 0.0 0.0 0.0 0.0 0.0 0.0 0.0 0.0 0.6 0.8 0.9 0.8 1.1 0.2 1.7 1.5 1.9 1.5 1.2 0.7 0.3 0.0 0.0 0.2 0.2 0.1 0.0 0.0 0.0 0.0 0.0 0.0 0.0
3.2 0.9 0.1 0.1 0.1 0.1 0.0 0.0 0.0 0.0 0.0 0.0 0.0 0.0 0.0 0.1 0.0 0.0 0.0 0.0 0.0 0.0 0.0 0.0 0.0 0.0 0.0 0.0 0.0 0.0 0.7 0.9 0.8 0.4 0.2 1.2 1.1 0.9 0.5 1.3 1.1 0.8 0.6 1.1 0.9 0.6 0.5 0.3 0.2 0.1 0.3 0.2 0.2 0.2
0.0 0.0 0.0 0.0 0.0 0.0 0.0 0.0 0.0 0.0 0.0 0.0 0.1 0.1 0.2 0.0 0.0 0.0 0.0 0.0 0.0 0.0 0.0 0.0 0.0 0.0 0.0 0.0 0.0 0.4 0.6 0.8 0.8 0.5 1.2 1.3 1.1 1.0 0.9 1.1 2.2 2.5 1.9 1.5 1.1 1.3 1.4 1.0 0.7 0.9 0.7 0.4 0.5 0.5
0.1 0.0 0.0 0.0 0.0 0.0 0.0 0.0 0.1 0.0 0.0 0.0 0.0 0.0 0.0 0.0 0.0 0.0 0.0 0.0 0.0 0.0 0.0 0.0 0.0 0.0 0.0 0.0 0.0 0.4 0.5 0.8 1.1 1.0 0.8 0.8 1.0 1.2 1.4 2.6 3.3 4.1 4.0 3.6 3.1 2.3 1.6 1.5 2.0 1.9 1.9 1.9 1.6 1.6
0.1 0.0 0.0 0.0 0.0 0.0 0.0 0.0 0.0 0.0 0.0 0.0 0.0 0.0 0.0 0.0 0.0 0.0 0.0 0.0 0.0 0.0 0.0 0.0 0.0 0.0 0.0 0.0 0.0 0.4 0.4 0.4 0.9 0.9 0.9 0.8 0.9 1.1 2.3 2.8 3.6 4.1 4.5 4.0 4.8 5.6 5.2 4.9 5.4 5.1 4.3 3.8 3.5 2.9
0.0 0.0 0.0 0.0 0.0 0.0 0.0 0.0 0.0 0.0 0.0 0.0 0.0 0.0 0.0 0.0 0.0 0.0 0.0 0.0 0.0 0.0 0.0 0.0 0.0 0.1 0.2 0.3 0.5 0.7 0.6 0.7 0.7 1.2 1.4 1.6 1.5 2.1 2.0 3.3 3.4 4.2 4.6 4.7 4.2 4.0 3.7 3.2 2.8 2.6 2.9 2.6 2.6 2.2
0.0 0.0 0.0 0.0 0.0 0.0 0.0 0.0 0.0 0.0 0.0 0.0 0.0 0.0 0.0 0.0 0.0 0.0 0.0 0.0 0.0 0.0 0.0 0.0 0.2 0.4 0.5 0.7 0.9 1.1 1.6 1.7 1.0 1.6 1.7 1.6 2.0 1.8 2.9 3.3 4.1 4.2 4.6 4.5 4.0 3.6 3.4 3.2 3.6 3.4 3.6 3.7 3.5 3.0
0.5 0.2 0.1 0.0 0.0 0.0 0.0 0.0 0.0 0.0 0.0 0.0 0.0 0.0 0.0 0.0 0.0 0.0 0.0 0.0 0.0 0.0 0.0 0.4 0.5 0.7 1.2 1.5 1.4 2.1 2.3 1.9 2.8 3.0 3.4 3.4 3.1 3.2 3.9 3.9 4.2 4.1 3.9 4.1 4.4 4.6 4.7 4.4 4.1 3.8 3.6 3.4 3.3 3.1

GFSWCAN_prec_snow_054.txt.gz
Snowfall_Accumulation
0.0 0.0 0.0 0.0 0.0 0.0 0.0 0.0 0.0 0.0 0.0 0.0 0.0 0.0 0.0 0.0 0.0 0.0 0.0 0.0 0.0 0.0 0.0 0.0 0.0 0.0 0.0 0.0 0.0 0.0 0.0 0.0 0.0 0.7 0.0 0.0 0.1 0.0 0.0 0.0 0.0 0.0 0.2 0.2 0.5 0.5 0.0 0.0 0.0 0.0 0.0 0.0 0.0 0.0
0.0 0.0 0.0 0.0 0.0 0.0 0.0 0.0 0.0 0.0 0.0 0.0 0.0 0.0 0.0 0.0 0.0 0.0 0.0 0.0 0.0 0.0 0.0 0.0 0.0 0.0 0.0 0.0 0.0 0.0 0.0 0.0 0.0 0.0 0.0 0.0 0.1 0.0 0.0 0.0 0.0 0.0 0.0 0.0 0.0 0.0 0.0 0.0 0.0 0.0 0.0 0.0 0.0 0.0
0.0 0.0 0.0 0.0 0.0 0.0 0.0 0.0 0.0 0.0 0.0 0.0 0.0 0.0 0.0 0.0 0.0 0.0 0.0 0.0 0.0 0.1 0.0 0.0 0.0 0.0 0.0 0.0 0.0 0.0 0.0 0.0 0.0 0.0 0.0 0.0 0.0 0.0 0.1 0.0 0.0 0.0 0.0 0.0 0.0 0.0 0.0 0.0 0.0 0.0 0.0 0.0 0.0 0.0
0.0 0.0 0.0 0.0 0.0 0.0 0.0 0.0 0.0 0.0 0.0 0.0 0.0 0.0 0.0 0.0 0.0 0.0 0.0 0.0 0.0 0.1 0.8 0.1 0.0 0.0 0.0 0.0 0.0 0.0 0.0 0.0 0.0 0.0 0.0 0.0 0.0 0.0 0.0 0.0 0.0 0.0 0.0 0.0 0.0 0.0 0.0 0.0 0.0 0.0 0.0 0.0 0.0 0.0
0.0 0.0 0.0 0.0 0.0 0.0 0.0 0.0 0.0 0.0 0.0 0.0 0.0 0.0 0.0 0.0 0.0 0.0 0.0 0.0 0.0 0.2 1.9 0.3 0.0 0.0 0.0 0.0 0.0 0.0 0.0 0.0 0.5 0.3 1.1 0.7 0.0 0.0 0.0 0.0 0.0 0.0 0.0 0.0 0.0 0.0 0.0 0.0 0.0 0.0 0.0 0.0 0.0 0.0
0.0 0.0 0.0 0.0 0.0 0.0 0.0 0.0 0.0 0.0 0.0 0.0 0.0 0.0 0.0 0.0 0.0 0.0 0.0 0.0 0.0 0.0 3.0 1.6 0.0 0.0 0.0 0.0 0.0 0.0 0.0 0.0 0.1 1.1 1.6 0.0 0.0 0.0 0.6 0.0 0.0 0.0 0.0 0.0 0.0 0.0 0.0 0.0 0.0 0.0 0.0 0.0 0.0 0.0
0.0 0.0 0.0 0.0 0.0 0.0 0.0 0.0 0.0 0.0 0.0 0.0 0.0 0.0 0.0 0.0 0.0 0.2 0.0 0.0 0.0 0.0 1.5 3.8 4.0 0.0 0.0 0.0 0.0 0.0 0.0 0.0 2.0 3.2 1.5 0.0 0.0 1.6 1.3 0.3 0.0 0.0 0.0 0.0 0.0 0.0 0.0 0.0 0.0 0.0 0.0 0.0 0.0 0.0
0.0 0.0 0.0 0.0 0.0 0.0 0.0 0.0 0.0 0.0 0.0 0.0 0.0 0.0 0.0 0.0 0.0 0.0 0.0 0.0 0.0 0.0 4.3 8.6 7.1 2.9 0.0 0.4 0.0 0.0 0.0 0.0 0.5 1.4 0.0 0.0 0.0 2.2 1.4 0.0 0.0 0.0 0.0 0.0 0.0 0.0 0.0 0.0 0.0 0.0 0.0 0.0 0.0 0.0
0.0 0.0 0.0 0.0 0.0 0.0 0.0 0.0 0.0 0.0 0.0 0.0 0.0 0.0 0.0 0.0 0.0 0.0 0.0 0.0 0.0 0.0 7.3 6.7 6.7 5.1 0.0 0.0 0.0 0.2 0.0 4.5 0.0 1.6 0.0 0.4 1.2 2.8 0.0 0.1 0.1 0.0 0.1 0.0 0.0 0.0 0.0 0.0 0.0 0.0 0.0 0.0 0.0 0.0
0.0 0.0 0.0 0.0 0.0 0.0 0.0 0.0 0.0 0.0 0.0 0.0 0.0 0.0 0.9 0.0 0.0 0.0 0.0 0.7 4.5 3.5 3.8 5.1 4.8 5.9 3.0 4.7 1.7 1.7 1.9 3.0 3.7 0.0 0.0 1.2 0.0 0.0 0.0 0.0 0.1 0.1 0.0 0.1 0.0 3.0 1.6 1.0 0.0 0.0 0.0 0.0 0.0 0.0
0.0 0.0 0.0 0.0 0.0 0.0 0.0 0.0 0.0 0.0 0.0 0.0 0.0 0.0 0.0 0.0 0.0 0.0 5.6 6.7 3.8 2.4 2.3 3.3 4.5 3.7 0.0 5.0 3.5 0.3 5.7 2.5 4.1 4.9 1.1 2.2 1.6 1.2 0.0 0.1 0.0 0.0 0.1 0.0 0.0 0.0 0.5 2.1 2.0 0.6 0.4 0.2 0.0 0.0
0.0 0.0 0.0 0.0 0.0 0.0 0.0 0.0 0.0 0.0 0.0 0.0 0.0 0.0 0.0 0.8 3.8 4.9 5.7 3.8 1.3 1.0 1.6 2.9 1.5 1.0 1.0 0.0 2.1 1.9 3.7 3.3 3.7 5.2 3.8 2.7 1.0 0.2 1.1 1.0 0.7 0.1 0.0 0.1 0.0 0.0 0.3 0.0 1.0 1.3 0.9 1.2 1.4 1.6
0.0 0.0 0.0 0.0 0.0 0.0 0.0 0.0 0.0 0.0 0.0 0.0 0.0 0.0 0.4 1.0 2.1 3.0 2.9 2.5 0.5 0.7 0.9 0.9 1.1 0.0 0.0 0.1 0.6 1.6 1.6 0.7 1.2 3.6 3.9 1.7 0.3 0.2 0.0 0.2 0.5 2.2 2.7 1.5 1.0 0.8 0.8 0.8 0.5 0.9 0.8 0.5 0.7 0.4
0.0 0.0 0.0 0.0 0.0 0.0 0.0 0.0 0.0 0.0 0.0 0.0 0.0 0.0 0.5 0.8 1.2 1.2 1.1 1.1 0.2 0.1 0.0 0.0 0.6 1.3 0.2 1.2 1.2 1.5 0.1 0.6 2.4 1.6 1.5 0.2 0.2 0.0 0.0 0.0 0.0 0.0 1.1 1.8 2.8 2.3 1.8 2.1 1.3 1.5 0.9 0.3 0.0 0.0
0.0 0.0 0.0 0.0 0.0 0.0 0.0 0.0 0.0 0.0 0.0 0.0 0.0 0.0 0.0 0.0 0.2 0.1 0.0 0.2 0.0 0.0 0.1 0.0 0.0 0.1 1.0 1.3 0.3 1.0 0.9 2.7 3.2 2.0 1.4 0.7 0.2 0.0 0.1 0.1 0.0 0.0 0.0 0.0 0.3 0.7 2.1 1.9 2.2 1.4 0.7 0.6 0.1 0.0
0.0 0.0 0.0 0.0 0.0 0.0 0.0 0.0 0.0 0.0 0.0 0.0 0.0 0.0 0.0 0.0 0.0 0.0 0.0 0.0 0.0 0.0 0.3 0.4 0.6 1.0 0.5 1.7 1.0 0.3 1.1 2.0 2.5 1.3 0.0 0.0 0.0 0.0 0.1 0.0 0.1 0.0 0.0 0.0 0.0 0.0 0.5 0.5 1.1 1.0 0.2 0.5 0.4 0.0
0.0 0.0 0.0 0.0 0.0 0.0 0.0 0.0 0.0 0.0 0.0 0.0 0.0 0.0 0.0 0.0 0.0 0.0 0.0 0.0 0.0 0.2 1.6 2.1 2.5 0.1 0.4 0.8 0.3 0.1 0.2 0.3 0.3 0.0 0.0 0.0 0.0 0.0 0.4 0.0 0.0 0.1 0.0 0.0 0.2 0.2 0.8 0.4 1.4 1.8 1.1 0.4 0.5 0.7
0.0 0.0 0.0 0.0 0.0 0.0 0.0 0.0 0.0 0.0 0.0 0.0 0.0 0.0 0.0 0.0 0.0 0.0 0.0 0.0 0.0 0.1 2.1 5.1 2.8 1.7 0.4 0.2 0.0 0.1 0.0 0.0 0.0 0.0 0.0 0.0 0.0 0.0 0.4 0.0 0.0 0.2 0.8 1.6 1.7 1.7 1.3 1.3 1.6 1.3 0.3 0.5 0.6 0.6
0.0 0.0 0.0 0.0 0.0 0.0 0.6 0.3 0.0 0.0 0.0 0.0 0.0 0.0 0.0 0.0 0.0 0.0 0.0 0.0 0.0 0.1 1.1 2.4 2.6 0.6 0.0 0.0 0.0 0.0 0.0 0.0 0.0 0.0 0.0 0.0 0.0 0.1 0.1 0.7 0.6 0.0 0.4 1.1 0.8 0.9 0.6 0.2 0.0 0.5 0.5 0.2 0.6 0.3
0.0 0.0 0.0 0.0 0.0 0.3 1.2 0.1 0.1 0.0 0.0 0.0 0.0 0.0 0.0 0.0 0.0 0.0 0.1 0.0 0.1 0.1 0.2 1.0 0.0 0.1 0.1 0.3 0.5 0.4 0.0 0.0 0.0 0.0 0.0 0.0 0.0 0.0 0.0 0.0 0.0 0.2 0.0 0.4 0.3 0.1 0.6 0.3 0.0 0.6 0.4 0.2 0.5 0.5
0.0 0.0 0.0 0.0 1.4 0.8 0.9 0.0 0.0 0.0 0.0 0.0 0.0 0.0 0.0 0.0 0.0 0.0 0.1 0.1 0.4 0.4 0.0 0.2 0.0 0.0 0.4 0.4 0.2 0.4 0.2 0.1 0.0 0.0 0.0 0.0 0.0 0.0 0.0 0.0 0.0 0.1 0.0 0.0 0.1 0.0 0.4 0.2 0.1 0.0 0.4 0.2 0.1 0.8
0.4 0.0 1.4 2.8 1.8 1.8 1.1 0.1 0.0 0.0 0.0 0.0 0.0 0.0 0.0 0.0 0.0 0.0 0.0 0.2 0.0 0.0 0.1 0.2 0.0 0.0 0.0 0.0 0.6 0.4 0.5 0.0 0.1 0.0 0.0 0.0 0.0 0.0 0.0 0.0 0.0 0.0 0.0 0.0 0.0 0.0 0.0 0.0 0.1 0.0 0.3 0.3 0.1 0.9
0.0 2.7 3.7 2.8 2.3 3.0 1.4 0.1 0.2 0.1 0.0 0.0 0.0 0.0 0.0 0.0 0.0 0.0 0.0 0.0 0.0 0.0 0.0 0.0 0.0 0.7 0.9 0.9 1.3 1.1 0.7 0.1 0.0 0.0 0.1 0.0 0.0 0.0 0.0 0.0 0.0 0.0 0.0 0.0 0.0 0.0 0.0 0.0 0.0 0.0 0.0 0.4 0.2 0.0
0.0 3.7 4.3 2.8 1.8 1.1 0.8 0.3 0.3 0.0 0.0 0.0 0.0 0.0 0.0 0.0 0.1 0.0 0.0 0.0 0.0 0.0 0.0 0.0 0.0 0.0 0.0 0.6 0.9 1.5 2.0 1.4 0.4 0.0 0.6 0.3 0.0 0.0 0.0 0.0 0.0 0.0 0.0 0.0 0.0 0.0 0.0 0.0 0.0 0.0 0.0 0.0 0.0 0.0
8.1 7.8 3.9 3.3 1.6 0.7 0.2 0.3 0.1 0.2 0.0 0.0 0.0 0.0 0.0 0.0 0.0 0.0 0.0 0.0 0.0 0.0 0.0 0.0 0.0 0.0 0.0 0.0 0.5 0.6 0.9 1.3 1.9 1.8 0.2 1.5 0.7 0.2 0.0 0.0 0.2 0.1 0.0 0.0 0.0 0.0 0.0 0.0 0.0 0.0 0.0 0.0 0.0 0.0
7.0 3.0 1.6 0.0 0.2 0.0 0.0 0.0 0.0 0.0 0.0 0.0 0.0 0.0 0.0 0.0 0.0 0.0 0.0 0.0 0.0 0.0 0.0 0.0 0.0 0.0 0.0 0.0 0.0 0.6 0.8 0.9 0.8 1.1 0.2 1.7 1.5 1.9 1.5 1.2 0.7 0.3 0.0 0.0 0.2 0.2 0.1 0.0 0.0 0.0 0.0 0.0 0.0 0.0
3.2 0.9 0.1 0.1 0.1 0.1 0.0 0.0 0.0 0.0 0.0 0.0 0.0 0.0 0.0 0.1 0.0 0.0 0.0 0.0 0.0 0.0 0.0 0.0 0.0 0.0 0.0 0.0 0.0 0.0 0.7 0.9 0.8 0.4 0.2 1.2 1.1 0.9 0.5 1.3 1.1 0.8 0.6 1.1 0.9 0.6 0.5 0.3 0.2 0.1 0.3 0.2 0.2 0.2
0.0 0.0 0.0 0.0 0.0 0.0 0.0 0.0 0.0 0.0 0.0 0.0 0.1 0.1 0.2 0.0 0.0 0.0 0.0 0.0 0.0 0.0 0.0 0.0 0.0 0.0 0.0 0.0 0.0 0.4 0.6 0.8 0.8 0.5 1.2 1.3 1.1 1.0 0.9 1.1 2.2 2.5 1.9 1.5 1.1 1.3 1.4 1.0 0.7 0.9 0.7 0.4 0.5 0.5
0.1 0.0 0.0 0.0 0.0 0.0 0.0 0.0 0.1 0.0 0.0 0.0 0.0 0.0 0.0 0.0 0.0 0.0 0.0 0.0 0.0 0.0 0.0 0.0 0.0 0.0 0.0 0.0 0.0 0.4 0.5 0.8 1.1 1.0 0.8 0.8 1.0 1.2 1.4 2.6 3.3 4.1 4.0 3.6 3.1 2.3 1.6 1.5 2.0 2.0 1.9 1.9 1.6 1.7
0.1 0.0 0.0 0.0 0.0 0.0 0.0 0.0 0.0 0.0 0.0 0.0 0.0 0.0 0.0 0.0 0.0 0.0 0.0 0.0 0.0 0.0 0.0 0.0 0.0 0.0 0.0 0.0 0.0 0.4 0.4 0.4 0.9 0.9 0.9 0.8 0.9 1.1 2.3 2.8 3.6 4.1 4.5 4.0 4.8 5.6 5.2 4.9 5.4 5.1 4.3 3.8 3.5 2.9
0.0 0.0 0.0 0.0 0.0 0.0 0.0 0.0 0.0 0.0 0.0 0.0 0.0 0.0 0.0 0.0 0.0 0.0 0.0 0.0 0.0 0.0 0.0 0.0 0.0 0.1 0.2 0.3 0.5 0.7 0.6 0.7 0.7 1.2 1.4 1.6 1.5 2.1 2.0 3.3 3.4 4.2 4.6 4.7 4.2 4.0 3.7 3.2 2.8 2.6 2.9 2.6 2.6 2.2
0.0 0.0 0.0 0.0 0.0 0.0 0.0 0.0 0.0 0.0 0.0 0.0 0.0 0.0 0.0 0.0 0.0 0.0 0.0 0.0 0.0 0.0 0.0 0.0 0.2 0.4 0.5 0.7 0.9 1.1 1.6 1.7 1.0 1.6 1.7 1.6 2.0 1.8 2.9 3.3 4.1 4.3 4.6 4.5 4.0 3.6 3.4 3.2 3.6 3.4 3.6 3.7 3.5 3.0
0.5 0.2 0.1 0.0 0.0 0.0 0.0 0.0 0.0 0.0 0.0 0.0 0.0 0.0 0.0 0.0 0.0 0.0 0.0 0.0 0.0 0.0 0.0 0.4 0.5 0.7 1.2 1.5 1.4 2.1 2.3 1.9 2.8 3.0 3.4 3.4 3.1 3.2 3.9 3.9 4.3 4.2 4.0 4.1 4.4 4.6 4.7 4.4 4.1 3.8 3.6 3.4 3.3 3.1

GFSWCAN_prec_snow_057.txt.gz
Snowfall_Accumulation
0.0 0.0 0.0 0.0 0.0 0.0 0.0 0.0 0.0 0.0 0.0 0.0 0.0 0.0 0.0 0.0 0.0 0.0 0.0 0.0 0.0 0.0 0.0 0.0 0.0 0.0 0.0 0.0 0.0 0.0 0.0 0.0 0.0 0.7 0.0 0.0 0.1 0.0 0.0 0.0 0.0 0.0 0.2 0.2 0.6 0.5 0.0 0.0 0.0 0.0 0.0 0.0 0.0 0.0
0.0 0.0 0.0 0.0 0.0 0.0 0.0 0.0 0.0 0.0 0.0 0.0 0.0 0.0 0.0 0.0 0.0 0.0 0.0 0.0 0.0 0.0 0.0 0.0 0.0 0.0 0.0 0.0 0.0 0.0 0.0 0.0 0.0 0.0 0.0 0.0 0.1 0.0 0.0 0.0 0.0 0.0 0.0 0.0 0.0 0.0 0.0 0.0 0.0 0.0 0.0 0.0 0.0 0.0
0.0 0.0 0.0 0.0 0.0 0.0 0.0 0.0 0.0 0.0 0.0 0.0 0.0 0.0 0.0 0.0 0.0 0.0 0.0 0.0 0.0 0.1 0.0 0.0 0.0 0.0 0.0 0.0 0.0 0.0 0.0 0.0 0.0 0.0 0.0 0.0 0.0 0.0 0.1 0.0 0.0 0.0 0.0 0.0 0.0 0.0 0.0 0.0 0.0 0.0 0.0 0.0 0.0 0.0
0.0 0.0 0.0 0.0 0.0 0.0 0.0 0.0 0.0 0.0 0.0 0.0 0.0 0.0 0.0 0.0 0.0 0.0 0.0 0.0 0.0 0.1 0.8 0.1 0.0 0.0 0.0 0.0 0.0 0.0 0.0 0.0 0.0 0.0 0.0 0.0 0.0 0.0 0.0 0.0 0.0 0.0 0.0 0.0 0.0 0.0 0.0 0.0 0.0 0.0 0.0 0.0 0.0 0.0
0.0 0.0 0.0 0.0 0.0 0.0 0.0 0.0 0.0 0.0 0.0 0.0 0.0 0.0 0.0 0.0 0.0 0.0 0.0 0.0 0.0 0.2 1.9 0.3 0.0 0.0 0.0 0.0 0.0 0.0 0.0 0.0 0.5 0.3 1.1 0.7 0.0 0.0 0.0 0.0 0.0 0.0 0.0 0.0 0.0 0.0 0.0 0.0 0.0 0.0 0.0 0.0 0.0 0.0
0.0 0.0 0.0 0.0 0.0 0.0 0.0 0.0 0.0 0.0 0.0 0.0 0.0 0.0 0.0 0.0 0.0 0.0 0.0 0.0 0.0 0.0 3.0 1.6 0.0 0.0 0.0 0.0 0.0 0.0 0.0 0.0 0.1 1.1 1.6 0.0 0.0 0.0 0.6 0.0 0.0 0.0 0.0 0.0 0.0 0.0 0.0 0.0 0.0 0.0 0.0 0.0 0.0 0.0
0.0 0.0 0.0 0.0 0.0 0.0 0.0 0.0 0.0 0.0 0.0 0.0 0.0 0.0 0.0 0.0 0.0 0.2 0.0 0.0 0.0 0.0 1.5 3.8 4.0 0.0 0.0 0.0 0.0 0.0 0.0 0.0 2.0 3.2 1.5 0.0 0.0 1.6 1.3 0.3 0.0 0.0 0.0 0.0 0.0 0.0 0.0 0.0 0.0 0.0 0.0 0.0 0.0 0.0
0.0 0.0 0.0 0.0 0.0 0.0 0.0 0.0 0.0 0.0 0.0 0.0 0.0 0.0 0.0 0.0 0.0 0.0 0.0 0.0 0.0 0.0 4.3 8.6 7.1 2.9 0.0 0.4 0.0 0.0 0.0 0.0 0.5 1.4 0.0 0.0 0.0 2.2 1.4 0.0 0.0 0.0 0.0 0.0 0.0 0.0 0.0 0.0 0.0 0.0 0.0 0.0 0.0 0.0
0.0 0.0 0.0 0.0 0.0 0.0 0.0 0.0 0.0 0.0 0.0 0.0 0.0 0.0 0.0 0.0 0.0 0.0 0.0 0.0 0.0 0.0 7.3 6.7 6.7 5.1 0.0 0.0 0.0 0.2 0.0 4.5 0.0 1.6 0.0 0.4 1.2 2.8 0.0 0.1 0.1 0.0 0.1 0.0 0.0 0.0 0.0 0.0 0.0 0.0 0.0 0.0 0.0 0.0
0.0 0.0 0.0 0.0 0.0 0.0 0.0 0.0 0.0 0.0 0.0 0.0 0.0 0.0 0.9 0.0 0.0 0.0 0.0 0.7 4.5 3.5 3.8 5.1 4.8 5.9 3.0 4.7 1.7 1.7 1.9 3.0 3.7 0.0 0.0 1.2 0.0 0.0 0.0 0.0 0.1 0.1 0.0 0.1 0.0 3.0 1.6 1.0 0.0 0.0 0.0 0.0 0.0 0.0
0.0 0.0 0.0 0.0 0.0 0.0 0.0 0.0 0.0 0.0 0.0 0.0 0.0 0.0 0.0 0.0 0.0 0.0 5.6 6.7 3.8 2.4 2.3 3.3 4.5 3.7 0.0 5.0 3.5 0.3 5.7 2.5 4.1 4.9 1.1 2.2 1.6 1.2 0.0 0.1 0.0 0.0 0.1 0.0 0.0 0.0 0.5 2.1 2.0 0.6 0.4 0.2 0.0 0.0
0.0 0.0 0.0 0.0 0.0 0.0 0.0 0.0 0.0 0.0 0.0 0.0 0.0 0.0 0.0 0.8 3.8 4.9 5.7 3.8 1.3 1.0 1.6 2.9 1.5 1.0 1.0 0.0 2.1 1.9 3.7 3.3 3.7 5.2 3.8 2.7 1.0 0.2 1.1 1.0 0.7 0.1 0.0 0.1 0.0 0.0 0.3 0.0 1.0 1.3 0.9 1.2 1.4 1.6
0.0 0.0 0.0 0.0 0.0 0.0 0.0 0.0 0.0 0.0 0.0 0.0 0.0 0.0 0.4 1.0 2.1 3.0 2.9 2.5 0.5 0.7 0.9 0.9 1.1 0.0 0.0 0.1 0.6 1.6 1.6 0.7 1.2 3.7 3.9 1.7 0.3 0.2 0.0 0.2 0.5 2.2 2.7 1.5 1.0 0.8 0.8 0.8 0.5 0.9 0.8 0.5 0.7 0.4
0.0 0.0 0.0 0.0 0.0 0.0 0.0 0.0 0.0 0.0 0.0 0.0 0.0 0.0 0.5 0.8 1.2 1.2 1.1 1.1 0.2 0.1 0.0 0.0 0.6 1.3 0.2 1.2 1.2 1.5 0.1 0.6 2.4 1.6 1.5 0.2 0.2 0.0 0.0 0.0 0.0 0.0 1.1 1.8 2.8 2.3 1.8 2.1 1.3 1.5 0.9 0.3 0.0 0.0
0.0 0.0 0.0 0.0 0.0 0.0 0.0 0.0 0.0 0.0 0.0 0.0 0.0 0.0 0.0 0.0 0.2 0.1 0.0 0.2 0.0 0.0 0.1 0.0 0.0 0.1 1.0 1.3 0.3 1.0 0.9 2.7 3.2 2.0 1.4 0.7 0.2 0.0 0.1 0.1 0.0 0.0 0.0 0.0 0.3 0.7 2.1 1.9 2.2 1.4 0.7 0.6 0.1 0.0
0.0 0.0 0.0 0.0 0.0 0.0 0.0 0.0 0.0 0.0 0.0 0.0 0.0 0.0 0.0 0.0 0.0 0.0 0.0 0.0 0.0 0.0 0.3 0.4 0.6 1.0 0.5 1.7 1.0 0.3 1.1 2.0 2.5 1.3 0.0 0.0 0.0 0.0 0.1 0.0 0.1 0.0 0.0 0.0 0.0 0.0 0.5 0.5 1.1 1.0 0.2 0.5 0.4 0.0
0.0 0.0 0.0 0.0 0.0 0.0 0.0 0.0 0.0 0.0 0.0 0.0 0.0 0.0 0.0 0.0 0.0 0.0 0.0 0.0 0.0 0.2 1.6 2.1 2.5 0.1 0.4 0.8 0.3 0.1 0.2 0.3 0.3 0.0 0.0 0.0 0.0 0.0 0.4 0.0 0.0 0.1 0.0 0.0 0.2 0.2 0.8 0.4 1.4 1.8 1.1 0.4 0.5 0.7
0.0 0.0 0.0 0.0 0.0 0.0 0.0 0.0 0.0 0.0 0.0 0.0 0.0 0.0 0.0 0.0 0.0 0.0 0.0 0.0 0.0 0.1 2.1 5.1 2.8 1.7 0.4 0.2 0.0 0.1 0.0 0.0 0.0 0.0 0.0 0.0 0.0 0.0 0.4 0.0 0.0 0.2 0.8 1.6 1.7 1.7 1.3 1.3 1.6 1.3 0.3 0.5 0.6 0.6
0.0 0.0 0.0 0.0 0.0 0.0 0.6 0.3 0.0 0.0 0.0 0.0 0.0 0.0 0.0 0.0 0.0 0.0 0.0 0.0 0.0 0.1 1.1 2.4 2.6 0.6 0.0 0.0 0.0 0.0 0.0 0.0 0.0 0.0 0.0 0.0 0.0 0.1 0.1 0.7 0.6 0.0 0.4 1.1 0.8 0.9 0.6 0.2 0.0 0.5 0.5 0.2 0.6 0.3
0.0 0.0 0.0 0.0 0.0 0.3 1.2 0.1 0.1 0.0 0.0 0.0 0.0 0.0 0.0 0.0 0.0 0.0 0.1 0.0 0.1 0.1 0.2 1.0 0.0 0.1 0.1 0.3 0.5 0.4 0.0 0.0 0.0 0.0 0.0 0.0 0.0 0.0 0.0 0.0 0.0 0.2 0.0 0.4 0.3 0.1 0.6 0.3 0.0 0.6 0.4 0.2 0.5 0.5
0.0 0.0 0.0 0.0 1.4 0.8 0.9 0.0 0.0 0.0 0.0 0.0 0.0 0.0 0.0 0.0 0.0 0.0 0.1 0.1 0.4 0.4 0.0 0.2 0.0 0.0 0.4 0.4 0.2 0.4 0.2 0.1 0.0 0.0 0.0 0.0 0.0 0.0 0.0 0.0 0.0 0.1 0.0 0.0 0.1 0.0 0.4 0.2 0.1 0.0 0.4 0.2 0.1 0.8
0.4 0.0 1.4 2.8 1.8 1.8 1.1 0.1 0.0 0.0 0.0 0.0 0.0 0.0 0.0 0.0 0.0 0.0 0.0 0.2 0.0 0.0 0.1 0.2 0.0 0.0 0.0 0.0 0.6 0.4 0.5 0.0 0.1 0.0 0.0 0.0 0.0 0.0 0.0 0.0 0.0 0.0 0.0 0.0 0.0 0.0 0.0 0.0 0.1 0.0 0.3 0.3 0.1 0.9
0.0 2.7 3.7 2.9 2.3 3.0 1.6 0.2 0.2 0.1 0.0 0.0 0.0 0.0 0.0 0.0 0.0 0.0 0.0 0.0 0.0 0.0 0.0 0.0 0.0 0.7 0.9 0.9 1.3 1.1 0.7 0.1 0.0 0.0 0.1 0.0 0.0 0.0 0.0 0.0 0.0 0.0 0.0 0.0 0.0 0.0 0.0 0.0 0.0 0.0 0.0 0.4 0.2 0.0
0.0 3.8 4.4 2.9 2.0 1.3 0.8 0.3 0.3 0.0 0.0 0.0 0.0 0.0 0.0 0.0 0.1 0.0 0.0 0.0 0.0 0.0 0.0 0.0 0.0 0.0 0.0 0.6 0.9 1.5 2.0 1.4 0.4 0.0 0.6 0.3 0.0 0.0 0.0 0.0 0.0 0.0 0.0 0.0 0.0 0.0 0.0 0.0 0.0 0.0 0.0 0.0 0.0 0.0
8.3 8.1 4.0 3.4 1.6 0.7 0.2 0.3 0.1 0.2 0.0 0.0 0.0 0.0 0.0 0.0 0.0 0.0 0.0 0.0 0.0 0.0 0.0 0.0 0.0 0.0 0.0 0.0 0.5 0.6 0.9 1.3 1.9 1.8 0.2 1.5 0.7 0.2 0.0 0.0 0.2 0.1 0.0 0.0 0.0 0.0 0.0 0.0 0.0 0.0 0.0 0.0 0.0 0.0
7.2 3.1 1.6 0.0 0.2 0.0 0.0 0.0 0.0 0.0 0.0 0.0 0.0 0.0 0.0 0.0 0.0 0.0 0.0 0.0 0.0 0.0 0.0 0.0 0.0 0.0 0.0 0.0 0.0 0.6 0.8 0.9 0.8 1.1 0.2 1.7 1.5 1.9 1.5 1.2 0.7 0.3 0.0 0.0 0.2 0.2 0.1 0.0 0.0 0.0 0.0 0.0 0.0 0.0
3.3 0.9 0.1 0.1 0.1 0.1 0.0 0.0 0.0 0.0 0.0 0.0 0.0 0.0 0.0 0.1 0.0 0.0 0.0 0.0 0.0 0.0 0.0 0.0 0.0 0.0 0.0 0.0 0.0 0.0 0.7 0.9 0.8 0.4 0.2 1.2 1.1 0.9 0.5 1.3 1.1 0.8 0.6 1.1 0.9 0.6 0.5 0.3 0.2 0.1 0.3 0.2 0.2 0.2
0.0 0.0 0.0 0.0 0.0 0.0 0.0 0.0 0.0 0.0 0.0 0.0 0.1 0.1 0.2 0.0 0.0 0.0 0.0 0.0 0.0 0.0 0.0 0.0 0.0 0.0 0.0 0.0 0.0 0.4 0.6 0.8 0.8 0.5 1.2 1.3 1.1 1.0 0.9 1.1 2.2 2.5 1.9 1.5 1.1 1.3 1.4 1.0 0.7 0.9 0.7 0.4 0.5 0.5
0.1 0.0 0.0 0.0 0.0 0.0 0.0 0.0 0.1 0.0 0.0 0.0 0.0 0.0 0.0 0.0 0.0 0.0 0.0 0.0 0.0 0.0 0.0 0.0 0.0 0.0 0.0 0.0 0.0 0.4 0.5 0.8 1.1 1.0 0.8 0.8 1.0 1.2 1.4 2.6 3.3 4.1 4.0 3.6 3.1 2.3 1.6 1.5 2.0 2.0 1.9 1.9 1.7 1.7
0.1 0.0 0.0 0.0 0.0 0.0 0.0 0.0 0.0 0.0 0.0 0.0 0.0 0.0 0.0 0.0 0.0 0.0 0.0 0.0 0.0 0.0 0.0 0.0 0.0 0.0 0.0 0.0 0.0 0.4 0.4 0.4 0.9 0.9 0.9 0.8 0.9 1.1 2.3 2.8 3.6 4.1 4.5 4.0 4.8 5.6 5.2 4.9 5.4 5.1 4.3 3.8 3.5 2.9
0.0 0.0 0.0 0.0 0.0 0.0 0.0 0.0 0.0 0.0 0.0 0.0 0.0 0.0 0.0 0.0 0.0 0.0 0.0 0.0 0.0 0.0 0.0 0.0 0.0 0.1 0.2 0.3 0.5 0.7 0.6 0.7 0.7 1.2 1.4 1.6 1.5 2.1 2.0 3.3 3.4 4.2 4.6 4.7 4.2 4.0 3.7 3.2 2.8 2.6 2.9 2.6 2.6 2.2
0.0 0.0 0.0 0.0 0.0 0.0 0.0 0.0 0.0 0.0 0.0 0.0 0.0 0.0 0.0 0.0 0.0 0.0 0.0 0.0 0.0 0.0 0.0 0.0 0.2 0.4 0.5 0.7 0.9 1.1 1.6 1.7 1.0 1.6 1.7 1.6 2.0 1.8 2.9 3.3 4.1 4.3 4.7 4.6 4.0 3.6 3.4 3.2 3.6 3.4 3.6 3.7 3.5 3.0
0.5 0.2 0.1 0.0 0.0 0.0 0.0 0.0 0.0 0.0 0.0 0.0 0.0 0.0 0.0 0.0 0.0 0.0 0.0 0.0 0.0 0.0 0.0 0.4 0.5 0.7 1.2 1.5 1.4 2.1 2.3 1.9 2.8 3.0 3.4 3.4 3.1 3.2 3.9 3.9 4.3 4.2 4.0 4.1 4.4 4.6 4.7 4.4 4.1 3.8 3.6 3.4 3.3 3.1

GFSWCAN_prec_snow_060.txt.gz
Snowfall_Accumulation
0.0 0.0 0.0 0.0 0.0 0.0 0.0 0.0 0.0 0.0 0.0 0.0 0.0 0.0 0.0 0.0 0.0 0.0 0.0 0.0 0.0 0.0 0.0 0.0 0.0 0.0 0.0 0.0 0.0 0.0 0.0 0.0 0.0 0.7 0.0 0.0 0.1 0.0 0.0 0.0 0.0 0.0 0.2 0.2 0.6 0.5 0.0 0.0 0.0 0.0 0.0 0.0 0.0 0.0
0.0 0.0 0.0 0.0 0.0 0.0 0.0 0.0 0.0 0.0 0.0 0.0 0.0 0.0 0.0 0.0 0.0 0.0 0.0 0.0 0.0 0.0 0.0 0.0 0.0 0.0 0.0 0.0 0.0 0.0 0.0 0.0 0.0 0.0 0.0 0.0 0.1 0.0 0.0 0.0 0.0 0.0 0.0 0.0 0.0 0.0 0.0 0.0 0.0 0.0 0.0 0.0 0.0 0.0
0.0 0.0 0.0 0.0 0.0 0.0 0.0 0.0 0.0 0.0 0.0 0.0 0.0 0.0 0.0 0.0 0.0 0.0 0.0 0.0 0.0 0.1 0.0 0.0 0.0 0.0 0.0 0.0 0.0 0.0 0.0 0.0 0.0 0.0 0.0 0.0 0.0 0.0 0.1 0.0 0.0 0.0 0.0 0.0 0.0 0.0 0.0 0.0 0.0 0.0 0.0 0.0 0.0 0.0
0.0 0.0 0.0 0.0 0.0 0.0 0.0 0.0 0.0 0.0 0.0 0.0 0.0 0.0 0.0 0.0 0.0 0.0 0.0 0.0 0.0 0.1 0.8 0.1 0.0 0.0 0.0 0.0 0.0 0.0 0.0 0.0 0.0 0.0 0.0 0.0 0.0 0.0 0.0 0.0 0.0 0.0 0.0 0.0 0.0 0.0 0.0 0.0 0.0 0.0 0.0 0.0 0.0 0.0
0.0 0.0 0.0 0.0 0.0 0.0 0.0 0.0 0.0 0.0 0.0 0.0 0.0 0.0 0.0 0.0 0.0 0.0 0.0 0.0 0.0 0.2 1.9 0.3 0.0 0.0 0.0 0.0 0.0 0.0 0.0 0.0 0.5 0.3 1.1 0.7 0.0 0.0 0.0 0.0 0.0 0.0 0.0 0.0 0.0 0.0 0.0 0.0 0.0 0.0 0.0 0.0 0.0 0.0
0.0 0.0 0.0 0.0 0.0 0.0 0.0 0.0 0.0 0.0 0.0 0.0 0.0 0.0 0.0 0.0 0.0 0.0 0.0 0.0 0.0 0.0 3.0 1.6 0.0 0.0 0.0 0.0 0.0 0.0 0.0 0.0 0.1 1.1 1.6 0.0 0.0 0.0 0.6 0.0 0.0 0.0 0.0 0.0 0.0 0.0 0.0 0.0 0.0 0.0 0.0 0.0 0.0 0.0
0.0 0.0 0.0 0.0 0.0 0.0 0.0 0.0 0.0 0.0 0.0 0.0 0.0 0.0 0.0 0.0 0.0 0.2 0.0 0.0 0.0 0.0 1.5 3.8 4.0 0.0 0.0 0.0 0.0 0.0 0.0 0.0 2.0 3.2 1.5 0.0 0.0 1.6 1.3 0.3 0.0 0.0 0.0 0.0 0.0 0.0 0.0 0.0 0.0 0.0 0.0 0.0 0.0 0.0
0.0 0.0 0.0 0.0 0.0 0.0 0.0 0.0 0.0 0.0 0.0 0.0 0.0 0.0 0.0 0.0 0.0 0.0 0.0 0.0 0.0 0.0 4.3 8.6 7.1 2.9 0.0 0.4 0.0 0.0 0.0 0.0 0.5 1.4 0.0 0.0 0.0 2.2 1.4 0.0 0.0 0.0 0.0 0.0 0.0 0.0 0.0 0.0 0.0 0.0 0.0 0.0 0.0 0.0
0.0 0.0 0.0 0.0 0.0 0.0 0.0 0.0 0.0 0.0 0.0 0.0 0.0 0.0 0.0 0.0 0.0 0.0 0.0 0.0 0.0 0.0 7.3 6.7 6.7 5.1 0.0 0.0 0.0 0.2 0.0 4.5 0.0 1.6 0.0 0.4 1.2 2.8 0.0 0.1 0.1 0.0 0.1 0.0 0.0 0.0 0.0 0.0 0.0 0.0 0.0 0.0 0.0 0.0
0.0 0.0 0.0 0.0 0.0 0.0 0.0 0.0 0.0 0.0 0.0 0.0 0.0 0.0 0.9 0.0 0.0 0.0 0.0 0.7 4.5 3.5 3.8 5.1 4.8 5.9 3.0 4.7 1.7 1.7 1.9 3.0 3.7 0.0 0.0 1.2 0.0 0.0 0.0 0.0 0.1 0.1 0.0 0.1 0.0 3.0 1.6 1.0 0.0 0.0 0.0 0.0 0.0 0.0
0.0 0.0 0.0 0.0 0.0 0.0 0.0 0.0 0.0 0.0 0.0 0.0 0.0 0.0 0.0 0.0 0.0 0.0 5.6 6.7 3.8 2.4 2.3 3.3 4.5 3.7 0.0 5.0 3.5 0.3 5.7 2.5 4.1 4.9 1.1 2.2 1.6 1.2 0.0 0.1 0.0 0.0 0.1 0.0 0.0 0.0 0.5 2.1 2.0 0.6 0.4 0.2 0.0 0.0
0.0 0.0 0.0 0.0 0.0 0.0 0.0 0.0 0.0 0.0 0.0 0.0 0.0 0.0 0.0 0.8 3.8 4.9 5.7 3.8 1.3 1.0 1.6 2.9 1.5 1.0 1.0 0.0 2.1 1.9 3.7 3.3 3.7 5.2 3.8 2.7 1.0 0.2 1.1 1.0 0.7 0.1 0.0 0.1 0.0 0.0 0.3 0.0 1.0 1.3 0.9 1.2 1.4 1.6
0.0 0.0 0.0 0.0 0.0 0.0 0.0 0.0 0.0 0.0 0.0 0.0 0.0 0.0 0.4 1.0 2.1 3.0 2.9 2.5 0.5 0.7 0.9 0.9 1.1 0.0 0.0 0.1 0.6 1.6 1.6 0.7 1.2 3.7 3.9 1.7 0.3 0.2 0.0 0.2 0.5 2.2 2.7 1.5 1.0 0.8 0.8 0.8 0.5 0.9 0.8 0.5 0.7 0.4
0.0 0.0 0.0 0.0 0.0 0.0 0.0 0.0 0.0 0.0 0.0 0.0 0.0 0.0 0.5 0.8 1.2 1.2 1.1 1.1 0.2 0.1 0.0 0.0 0.6 1.3 0.2 1.2 1.2 1.5 0.1 0.6 2.4 1.6 1.5 0.2 0.2 0.0 0.0 0.0 0.0 0.0 1.1 1.8 2.8 2.3 1.8 2.1 1.3 1.5 0.9 0.3 0.0 0.0
0.0 0.0 0.0 0.0 0.0 0.0 0.0 0.0 0.0 0.0 0.0 0.0 0.0 0.0 0.0 0.0 0.2 0.1 0.0 0.2 0.0 0.0 0.1 0.0 0.0 0.1 1.0 1.3 0.3 1.0 0.9 2.7 3.2 2.0 1.4 0.7 0.2 0.0 0.1 0.1 0.0 0.0 0.0 0.0 0.3 0.7 2.1 1.9 2.2 1.4 0.7 0.6 0.1 0.0
0.0 0.0 0.0 0.0 0.0 0.0 0.0 0.0 0.0 0.0 0.0 0.0 0.0 0.0 0.0 0.0 0.0 0.0 0.0 0.0 0.0 0.0 0.3 0.4 0.6 1.0 0.5 1.7 1.0 0.3 1.1 2.0 2.5 1.3 0.0 0.0 0.0 0.0 0.1 0.0 0.1 0.0 0.0 0.0 0.0 0.0 0.5 0.5 1.1 1.0 0.2 0.5 0.4 0.0
0.0 0.0 0.0 0.0 0.0 0.0 0.0 0.0 0.0 0.0 0.0 0.0 0.0 0.0 0.0 0.0 0.0 0.0 0.0 0.0 0.0 0.2 1.6 2.1 2.5 0.1 0.4 0.8 0.3 0.1 0.2 0.3 0.3 0.0 0.0 0.0 0.0 0.0 0.4 0.0 0.0 0.1 0.0 0.0 0.2 0.2 0.8 0.4 1.4 1.8 1.1 0.4 0.5 0.7
0.0 0.0 0.0 0.0 0.0 0.0 0.0 0.0 0.0 0.0 0.0 0.0 0.0 0.0 0.0 0.0 0.0 0.0 0.0 0.0 0.0 0.1 2.1 5.1 2.8 1.7 0.4 0.2 0.0 0.1 0.0 0.0 0.0 0.0 0.0 0.0 0.0 0.0 0.4 0.0 0.0 0.2 0.8 1.6 1.7 1.7 1.3 1.3 1.6 1.3 0.3 0.5 0.6 0.6
0.0 0.0 0.0 0.0 0.0 0.0 0.6 0.3 0.0 0.0 0.0 0.0 0.0 0.0 0.0 0.0 0.0 0.0 0.0 0.0 0.0 0.1 1.1 2.4 2.6 0.6 0.0 0.0 0.0 0.0 0.0 0.0 0.0 0.0 0.0 0.0 0.0 0.1 0.1 0.7 0.6 0.0 0.4 1.1 0.8 0.9 0.6 0.2 0.0 0.5 0.5 0.2 0.6 0.3
0.0 0.0 0.0 0.0 0.0 0.3 1.2 0.1 0.1 0.0 0.0 0.0 0.0 0.0 0.0 0.0 0.0 0.0 0.1 0.0 0.1 0.1 0.2 1.0 0.0 0.1 0.1 0.3 0.5 0.4 0.0 0.0 0.0 0.0 0.0 0.0 0.0 0.0 0.0 0.0 0.0 0.2 0.0 0.4 0.3 0.1 0.6 0.3 0.0 0.6 0.4 0.2 0.5 0.5
0.0 0.0 0.0 0.0 1.4 0.8 0.9 0.0 0.0 0.0 0.0 0.0 0.0 0.0 0.0 0.0 0.0 0.0 0.1 0.1 0.4 0.4 0.0 0.2 0.0 0.0 0.4 0.4 0.2 0.4 0.2 0.1 0.0 0.0 0.0 0.0 0.0 0.0 0.0 0.0 0.0 0.1 0.0 0.0 0.1 0.0 0.4 0.2 0.1 0.0 0.4 0.2 0.1 0.8
0.4 0.0 1.4 2.8 1.8 1.8 1.1 0.1 0.0 0.0 0.0 0.0 0.0 0.0 0.0 0.0 0.0 0.0 0.0 0.2 0.0 0.0 0.1 0.2 0.0 0.0 0.0 0.0 0.6 0.4 0.5 0.0 0.1 0.0 0.0 0.0 0.0 0.0 0.0 0.0 0.0 0.0 0.0 0.0 0.0 0.0 0.0 0.0 0.1 0.0 0.3 0.3 0.1 0.9
0.0 2.7 3.7 2.9 2.3 3.0 1.6 0.2 0.2 0.1 0.1 0.1 0.0 0.0 0.0 0.0 0.0 0.0 0.0 0.0 0.0 0.0 0.0 0.0 0.0 0.7 0.9 0.9 1.3 1.1 0.7 0.1 0.0 0.0 0.1 0.0 0.0 0.0 0.0 0.0 0.0 0.0 0.0 0.0 0.0 0.0 0.0 0.0 0.0 0.0 0.0 0.4 0.2 0.0
0.0 3.9 4.6 3.1 2.0 1.3 0.8 0.3 0.3 0.0 0.1 0.0 0.0 0.0 0.0 0.0 0.1 0.0 0.0 0.0 0.0 0.0 0.0 0.0 0.0 0.0 0.0 0.6 0.9 1.5 2.0 1.4 0.4 0.0 0.6 0.3 0.0 0.0 0.0 0.0 0.0 0.0 0.0 0.0 0.0 0.0 0.0 0.0 0.0 0.0 0.0 0.0 0.0 0.0
8.6 8.3 4.1 3.4 1.6 0.7 0.2 0.3 0.1 0.2 0.0 0.0 0.0 0.0 0.0 0.0 0.0 0.0 0.0 0.0 0.0 0.0 0.0 0.0 0.0 0.0 0.0 0.0 0.5 0.6 0.9 1.3 1.9 1.8 0.2 1.5 0.7 0.2 0.0 0.0 0.2 0.1 0.0 0.0 0.0 0.0 0.0 0.0 0.0 0.0 0.0 0.0 0.0 0.0
7.4 3.2 1.6 0.0 0.2 0.0 0.0 0.1 0.1 0.0 0.0 0.0 0.0 0.0 0.0 0.0 0.0 0.0 0.0 0.0 0.0 0.0 0.0 0.0 0.0 0.0 0.0 0.0 0.0 0.6 0.8 0.9 0.8 1.1 0.2 1.7 1.5 1.9 1.5 1.2 0.7 0.3 0.0 0.0 0.2 0.2 0.1 0.0 0.0 0.0 0.0 0.0 0.0 0.0
3.5 0.9 0.1 0.1 0.1 0.1 0.1 0.1 0.0 0.0 0.0 0.0 0.0 0.0 0.0 0.1 0.0 0.0 0.0 0.0 0.0 0.0 0.0 0.0 0.0 0.0 0.0 0.0 0.0 0.0 0.7 0.9 0.8 0.4 0.2 1.2 1.1 0.9 0.5 1.3 1.1 0.8 0.6 1.1 0.9 0.6 0.5 0.3 0.2 0.1 0.3 0.2 0.2 0.2
0.0 0.0 0.0 0.1 0.1 0.0 0.1 0.1 0.0 0.0 0.0 0.0 0.1 0.1 0.2 0.0 0.0 0.0 0.0 0.0 0.0 0.0 0.0 0.0 0.0 0.0 0.0 0.0 0.0 0.4 0.6 0.8 0.8 0.5 1.2 1.3 1.1 1.0 0.9 1.1 2.2 2.5 1.9 1.5 1.1 1.3 1.4 1.0 0.7 0.9 0.8 0.4 0.6 0.5
0.2 0.0 0.0 0.1 0.0 0.0 0.0 0.0 0.1 0.0 0.0 0.0 0.0 0.0 0.0 0.0 0.0 0.0 0.0 0.0 0.0 0.0 0.0 0.0 0.0 0.0 0.0 0.0 0.0 0.4 0.5 0.8 1.1 1.0 0.8 0.8 1.0 1.2 1.4 2.6 3.3 4.1 4.0 3.6 3.1 2.3 1.6 1.6 2.1 2.0 2.0 1.9 1.7 1.7
0.1 0.0 0.0 0.0 0.0 0.0 0.0 0.0 0.0 0.0 0.0 0.0 0.0 0.0 0.0 0.0 0.0 0.0 0.0 0.0 0.0 0.0 0.0 0.0 0.0 0.0 0.0 0.0 0.0 0.4 0.4 0.4 0.9 0.9 0.9 0.8 0.9 1.1 2.3 2.8 3.6 4.1 4.5 4.0 4.8 5.6 5.2 4.9 5.4 5.1 4.3 3.8 3.5 2.9
0.0 0.0 0.0 0.0 0.0 0.0 0.0 0.0 0.0 0.0 0.0 0.0 0.0 0.0 0.0 0.0 0.0 0.0 0.0 0.0 0.0 0.0 0.0 0.0 0.0 0.1 0.2 0.3 0.5 0.7 0.6 0.7 0.7 1.2 1.4 1.6 1.5 2.1 2.0 3.3 3.4 4.2 4.6 4.7 4.3 4.1 3.7 3.2 2.8 2.6 2.9 2.6 2.6 2.2
0.0 0.0 0.0 0.0 0.0 0.0 0.0 0.0 0.0 0.0 0.0 0.0 0.0 0.0 0.0 0.0 0.0 0.0 0.0 0.0 0.0 0.0 0.0 0.0 0.2 0.4 0.5 0.7 0.9 1.1 1.6 1.7 1.0 1.6 1.7 1.6 2.0 1.8 2.9 3.3 4.1 4.3 4.7 4.6 4.1 3.7 3.4 3.2 3.6 3.4 3.6 3.7 3.5 3.0
0.5 0.2 0.1 0.0 0.0 0.0 0.0 0.0 0.0 0.0 0.0 0.0 0.0 0.0 0.0 0.0 0.0 0.0 0.0 0.0 0.0 0.0 0.0 0.4 0.5 0.7 1.2 1.5 1.4 2.1 2.3 1.9 2.8 3.0 3.4 3.4 3.1 3.2 3.9 3.9 4.3 4.2 4.1 4.1 4.4 4.6 4.7 4.4 4.1 3.8 3.6 3.4 3.3 3.2

GFSWCAN_prec_snow_063.txt.gz
Snowfall_Accumulation
0.0 0.0 0.0 0.0 0.0 0.0 0.0 0.0 0.0 0.0 0.0 0.0 0.0 0.0 0.0 0.0 0.0 0.0 0.0 0.0 0.0 0.0 0.0 0.0 0.0 0.0 0.0 0.0 0.0 0.0 0.0 0.0 0.0 0.7 0.0 0.0 0.1 0.0 0.0 0.0 0.0 0.0 0.2 0.2 0.6 0.5 0.0 0.0 0.0 0.0 0.0 0.0 0.0 0.0
0.0 0.0 0.0 0.0 0.0 0.0 0.0 0.0 0.0 0.0 0.0 0.0 0.0 0.0 0.0 0.0 0.0 0.0 0.0 0.0 0.0 0.0 0.0 0.0 0.0 0.0 0.0 0.0 0.0 0.0 0.0 0.0 0.0 0.0 0.0 0.0 0.1 0.0 0.0 0.0 0.0 0.0 0.0 0.0 0.0 0.0 0.0 0.0 0.0 0.0 0.0 0.0 0.0 0.0
0.0 0.0 0.0 0.0 0.0 0.0 0.0 0.0 0.0 0.0 0.0 0.0 0.0 0.0 0.0 0.0 0.0 0.0 0.0 0.0 0.0 0.1 0.0 0.0 0.0 0.0 0.0 0.0 0.0 0.0 0.0 0.0 0.0 0.0 0.0 0.0 0.0 0.0 0.1 0.0 0.0 0.0 0.0 0.0 0.0 0.0 0.0 0.0 0.0 0.0 0.0 0.0 0.0 0.0
0.0 0.0 0.0 0.0 0.0 0.0 0.0 0.0 0.0 0.0 0.0 0.0 0.0 0.0 0.0 0.0 0.0 0.0 0.0 0.0 0.0 0.1 0.8 0.1 0.0 0.0 0.0 0.0 0.0 0.0 0.0 0.0 0.0 0.0 0.0 0.0 0.0 0.0 0.0 0.0 0.0 0.0 0.0 0.0 0.0 0.0 0.0 0.0 0.0 0.0 0.0 0.0 0.0 0.0
0.0 0.0 0.0 0.0 0.0 0.0 0.0 0.0 0.0 0.0 0.0 0.0 0.0 0.0 0.0 0.0 0.0 0.0 0.0 0.0 0.0 0.2 1.9 0.3 0.0 0.0 0.0 0.0 0.0 0.0 0.0 0.0 0.5 0.3 1.1 0.7 0.0 0.0 0.0 0.0 0.0 0.0 0.0 0.0 0.0 0.0 0.0 0.0 0.0 0.0 0.0 0.0 0.0 0.0
0.0 0.0 0.0 0.0 0.0 0.0 0.0 0.0 0.0 0.0 0.0 0.0 0.0 0.0 0.0 0.0 0.0 0.0 0.0 0.0 0.0 0.0 3.0 1.6 0.0 0.0 0.0 0.0 0.0 0.0 0.0 0.0 0.1 1.1 1.6 0.0 0.0 0.0 0.6 0.0 0.0 0.0 0.0 0.0 0.0 0.0 0.0 0.0 0.0 0.0 0.0 0.0 0.0 0.0
0.0 0.0 0.0 0.0 0.0 0.0 0.0 0.0 0.0 0.0 0.0 0.0 0.0 0.0 0.0 0.0 0.0 0.2 0.0 0.0 0.0 0.0 1.5 3.8 4.0 0.0 0.0 0.0 0.0 0.0 0.0 0.0 2.0 3.2 1.5 0.0 0.0 1.6 1.3 0.3 0.0 0.0 0.0 0.0 0.0 0.0 0.0 0.0 0.0 0.0 0.0 0.0 0.0 0.0
0.0 0.0 0.0 0.0 0.0 0.0 0.0 0.0 0.0 0.0 0.0 0.0 0.0 0.0 0.0 0.0 0.0 0.0 0.0 0.0 0.0 0.0 4.3 8.6 7.1 2.9 0.0 0.4 0.0 0.0 0.0 0.0 0.5 1.4 0.0 0.0 0.0 2.2 1.4 0.0 0.0 0.0 0.0 0.0 0.0 0.0 0.0 0.0 0.0 0.0 0.0 0.0 0.0 0.0
0.0 0.0 0.0 0.0 0.0 0.0 0.0 0.0 0.0 0.0 0.0 0.0 0.0 0.0 0.0 0.0 0.0 0.0 0.0 0.0 0.0 0.0 7.3 6.7 6.7 5.1 0.0 0.0 0.0 0.2 0.0 4.5 0.0 1.6 0.0 0.4 1.2 2.8 0.0 0.1 0.1 0.0 0.1 0.0 0.0 0.0 0.0 0.0 0.0 0.0 0.0 0.0 0.0 0.0
0.0 0.0 0.0 0.0 0.0 0.0 0.0 0.0 0.0 0.0 0.0 0.0 0.0 0.0 0.9 0.0 0.0 0.0 0.0 0.7 4.5 3.5 3.8 5.1 4.8 5.9 3.0 4.7 1.7 1.7 1.9 3.0 3.7 0.0 0.0 1.2 0.0 0.0 0.0 0.0 0.1 0.1 0.0 0.1 0.0 3.0 1.6 1.0 0.0 0.0 0.0 0.0 0.0 0.0
0.0 0.0 0.0 0.0 0.0 0.0 0.0 0.0 0.0 0.0 0.0 0.0 0.0 0.0 0.0 0.0 0.0 0.0 5.6 6.7 3.8 2.4 2.3 3.3 4.5 3.7 0.0 5.0 3.5 0.3 5.7 2.5 4.1 4.9 1.1 2.2 1.6 1.2 0.0 0.1 0.0 0.0 0.1 0.0 0.0 0.0 0.5 2.1 2.0 0.6 0.4 0.2 0.0 0.0
0.0 0.0 0.0 0.0 0.0 0.0 0.0 0.0 0.0 0.0 0.0 0.0 0.0 0.0 0.0 0.8 3.8 4.9 5.7 3.8 1.3 1.0 1.6 2.9 1.5 1.0 1.0 0.0 2.1 1.9 3.7 3.3 3.7 5.2 3.8 2.7 1.0 0.2 1.1 1.0 0.7 0.1 0.0 0.1 0.0 0.0 0.3 0.0 1.0 1.3 0.9 1.2 1.4 1.6
0.0 0.0 0.0 0.0 0.0 0.0 0.0 0.0 0.0 0.0 0.0 0.0 0.0 0.0 0.4 1.0 2.1 3.0 2.9 2.5 0.5 0.7 0.9 0.9 1.1 0.0 0.0 0.1 0.6 1.6 1.6 0.7 1.2 3.7 3.9 1.7 0.3 0.2 0.0 0.2 0.5 2.2 2.7 1.5 1.0 0.8 0.8 0.8 0.5 0.9 0.8 0.5 0.7 0.4
0.0 0.0 0.0 0.0 0.0 0.0 0.0 0.0 0.0 0.0 0.0 0.0 0.0 0.0 0.5 0.8 1.2 1.2 1.1 1.1 0.2 0.1 0.0 0.0 0.6 1.3 0.2 1.2 1.2 1.5 0.1 0.6 2.4 1.6 1.5 0.2 0.2 0.0 0.0 0.0 0.0 0.0 1.1 1.8 2.8 2.3 1.8 2.1 1.3 1.5 0.9 0.3 0.0 0.0
0.0 0.0 0.0 0.0 0.0 0.0 0.0 0.0 0.0 0.0 0.0 0.0 0.0 0.0 0.0 0.0 0.2 0.1 0.0 0.2 0.0 0.0 0.1 0.0 0.0 0.1 1.0 1.3 0.3 1.0 0.9 2.7 3.2 2.0 1.4 0.7 0.2 0.0 0.1 0.1 0.0 0.0 0.0 0.0 0.3 0.7 2.1 1.9 2.2 1.4 0.7 0.6 0.1 0.0
0.0 0.0 0.0 0.0 0.0 0.0 0.0 0.0 0.0 0.0 0.0 0.0 0.0 0.0 0.0 0.0 0.0 0.0 0.0 0.0 0.0 0.0 0.3 0.4 0.6 1.0 0.5 1.7 1.0 0.3 1.1 2.0 2.5 1.3 0.0 0.0 0.0 0.0 0.1 0.0 0.1 0.0 0.0 0.0 0.0 0.0 0.5 0.5 1.1 1.0 0.2 0.5 0.4 0.0
0.0 0.0 0.0 0.0 0.0 0.0 0.0 0.0 0.0 0.0 0.0 0.0 0.0 0.0 0.0 0.0 0.0 0.0 0.0 0.0 0.0 0.2 1.6 2.1 2.5 0.1 0.4 0.8 0.3 0.1 0.2 0.3 0.3 0.0 0.0 0.0 0.0 0.0 0.4 0.0 0.0 0.1 0.0 0.0 0.2 0.2 0.8 0.4 1.4 1.8 1.1 0.4 0.5 0.7
0.0 0.0 0.0 0.0 0.0 0.0 0.0 0.0 0.0 0.0 0.0 0.0 0.0 0.0 0.0 0.0 0.0 0.0 0.0 0.0 0.0 0.1 2.1 5.1 2.8 1.7 0.4 0.2 0.0 0.1 0.0 0.0 0.0 0.0 0.0 0.0 0.0 0.0 0.4 0.0 0.0 0.2 0.8 1.6 1.7 1.7 1.3 1.3 1.6 1.3 0.3 0.5 0.6 0.6
0.0 0.0 0.0 0.0 0.0 0.0 0.6 0.3 0.0 0.0 0.0 0.0 0.0 0.0 0.0 0.0 0.0 0.0 0.0 0.0 0.0 0.1 1.1 2.4 2.6 0.6 0.0 0.0 0.0 0.0 0.0 0.0 0.0 0.0 0.0 0.0 0.0 0.1 0.1 0.7 0.6 0.0 0.4 1.1 0.8 0.9 0.6 0.2 0.0 0.5 0.5 0.2 0.6 0.3
0.0 0.0 0.0 0.0 0.0 0.3 1.2 0.1 0.1 0.0 0.0 0.0 0.0 0.0 0.0 0.0 0.0 0.0 0.1 0.0 0.1 0.1 0.2 1.0 0.0 0.1 0.1 0.3 0.5 0.4 0.0 0.0 0.0 0.0 0.0 0.0 0.0 0.0 0.0 0.0 0.0 0.2 0.0 0.4 0.3 0.1 0.6 0.3 0.0 0.6 0.4 0.2 0.5 0.5
0.0 0.0 0.0 0.0 1.4 0.8 0.9 0.0 0.0 0.0 0.0 0.0 0.0 0.0 0.0 0.0 0.0 0.0 0.1 0.1 0.4 0.4 0.0 0.2 0.0 0.0 0.4 0.4 0.2 0.4 0.2 0.1 0.0 0.0 0.0 0.0 0.0 0.0 0.0 0.0 0.0 0.1 0.0 0.0 0.1 0.0 0.4 0.2 0.1 0.0 0.4 0.2 0.1 0.8
0.4 0.0 1.4 2.8 1.8 1.8 1.1 0.1 0.0 0.0 0.0 0.0 0.1 0.0 0.0 0.0 0.0 0.0 0.0 0.2 0.0 0.0 0.1 0.2 0.0 0.0 0.0 0.0 0.6 0.4 0.5 0.0 0.1 0.0 0.0 0.0 0.0 0.0 0.0 0.0 0.0 0.0 0.0 0.0 0.0 0.0 0.0 0.0 0.1 0.0 0.3 0.3 0.1 0.9
0.0 2.7 3.7 2.9 2.3 3.0 1.6 0.2 0.2 0.1 0.1 0.1 0.1 0.0 0.0 0.0 0.0 0.0 0.0 0.0 0.0 0.0 0.0 0.0 0.0 0.7 0.9 0.9 1.3 1.1 0.7 0.1 0.0 0.0 0.1 0.0 0.0 0.0 0.0 0.0 0.0 0.0 0.0 0.0 0.0 0.0 0.0 0.0 0.0 0.0 0.0 0.4 0.2 0.0
0.0 4.0 4.7 3.2 2.0 1.3 0.8 0.3 0.3 0.0 0.1 0.2 0.1 0.0 0.0 0.0 0.1 0.0 0.0 0.0 0.0 0.0 0.0 0.0 0.0 0.0 0.0 0.6 0.9 1.5 2.0 1.4 0.4 0.0 0.6 0.3 0.0 0.0 0.0 0.0 0.0 0.0 0.0 0.0 0.0 0.0 0.0 0.0 0.0 0.0 0.0 0.0 0.0 0.0
9.0 8.6 4.1 3.4 1.6 0.7 0.2 0.3 0.1 0.2 0.0 0.2 0.1 0.0 0.0 0.0 0.0 0.0 0.0 0.0 0.0 0.0 0.0 0.0 0.0 0.0 0.0 0.0 0.5 0.6 0.9 1.3 1.9 1.8 0.2 1.5 0.7 0.2 0.0 0.0 0.2 0.1 0.0 0.0 0.0 0.0 0.0 0.0 0.0 0.0 0.0 0.0 0.0 0.0
7.4 3.5 1.6 0.0 0.2 0.0 0.0 0.1 0.1 0.0 0.0 0.2 0.0 0.0 0.0 0.0 0.0 0.0 0.0 0.0 0.0 0.0 0.0 0.0 0.0 0.0 0.0 0.0 0.0 0.6 0.8 0.9 0.8 1.1 0.2 1.7 1.5 1.9 1.5 1.2 0.7 0.3 0.0 0.0 0.2 0.2 0.1 0.0 0.0 0.0 0.0 0.0 0.0 0.0
3.7 0.9 0.1 0.1 0.1 0.1 0.1 0.1 0.0 0.3 0.2 0.1 0.0 0.0 0.0 0.1 0.0 0.0 0.0 0.0 0.0 0.0 0.0 0.0 0.0 0.0 0.0 0.0 0.0 0.0 0.7 0.9 0.8 0.4 0.2 1.2 1.1 0.9 0.5 1.3 1.1 0.8 0.6 1.1 0.9 0.6 0.5 0.3 0.2 0.1 0.3 0.2 0.2 0.2
0.0 0.0 0.0 0.1 0.1 0.0 0.1 0.1 0.3 0.2 0.1 0.0 0.1 0.1 0.2 0.0 0.0 0.0 0.0 0.0 0.0 0.0 0.0 0.0 0.0 0.0 0.0 0.0 0.0 0.4 0.6 0.8 0.8 0.5 1.2 1.3 1.1 1.0 0.9 1.1 2.2 2.5 1.9 1.5 1.1 1.3 1.4 1.1 0.8 1.0 0.9 0.5 0.6 0.5
0.2 0.0 0.0 0.1 0.0 0.0 0.2 0.2 0.2 0.0 0.0 0.0 0.0 0.0 0.0 0.0 0.0 0.0 0.0 0.0 0.0 0.0 0.0 0.0 0.0 0.0 0.0 0.0 0.0 0.4 0.5 0.8 1.1 1.0 0.8 0.8 1.0 1.2 1.4 2.6 3.3 4.1 4.0 3.6 3.1 2.3 1.7 1.7 2.2 2.2 2.0 2.0 1.7 1.7
0.1 0.0 0.0 0.0 0.0 0.1 0.1 0.1 0.0 0.0 0.0 0.0 0.0 0.0 0.0 0.0 0.0 0.0 0.0 0.0 0.0 0.0 0.0 0.0 0.0 0.0 0.0 0.0 0.0 0.4 0.4 0.4 0.9 0.9 0.9 0.8 0.9 1.1 2.3 2.8 3.6 4.1 4.5 4.0 4.9 5.6 5.2 4.9 5.4 5.1 4.3 3.8 3.5 2.9
0.0 0.0 0.0 0.0 0.0 0.0 0.0 0.0 0.0 0.0 0.0 0.0 0.0 0.0 0.0 0.0 0.0 0.0 0.0 0.0 0.0 0.0 0.0 0.0 0.0 0.1 0.2 0.3 0.5 0.7 0.6 0.7 0.7 1.2 1.4 1.6 1.5 2.1 2.0 3.3 3.5 4.2 4.7 4.7 4.3 4.1 3.7 3.2 2.8 2.6 2.9 2.6 2.6 2.2
0.0 0.0 0.0 0.0 0.0 0.0 0.0 0.0 0.0 0.0 0.0 0.0 0.0 0.0 0.0 0.0 0.0 0.0 0.0 0.0 0.0 0.0 0.0 0.0 0.2 0.4 0.5 0.7 0.9 1.1 1.6 1.7 1.0 1.6 1.7 1.6 2.0 1.8 2.9 3.3 4.1 4.3 4.7 4.6 4.1 3.7 3.4 3.2 3.6 3.4 3.6 3.7 3.5 3.0
0.5 0.2 0.1 0.0 0.0 0.0 0.0 0.0 0.0 0.0 0.0 0.0 0.0 0.0 0.0 0.0 0.0 0.0 0.0 0.0 0.0 0.0 0.0 0.4 0.5 0.7 1.2 1.5 1.4 2.1 2.3 1.9 2.8 3.0 3.4 3.4 3.1 3.2 3.9 3.9 4.3 4.2 4.1 4.1 4.4 4.6 4.7 4.4 4.1 3.8 3.6 3.4 3.3 3.2

GFSWCAN_prec_snow_066.txt.gz
Snowfall_Accumulation
0.0 0.0 0.0 0.0 0.0 0.0 0.0 0.0 0.0 0.0 0.0 0.0 0.0 0.0 0.0 0.0 0.0 0.0 0.0 0.0 0.0 0.0 0.0 0.0 0.0 0.0 0.0 0.0 0.0 0.0 0.0 0.0 0.0 0.7 0.0 0.0 0.1 0.0 0.0 0.0 0.0 0.0 0.2 0.2 0.6 0.5 0.0 0.0 0.0 0.0 0.0 0.0 0.0 0.0
0.0 0.0 0.0 0.0 0.0 0.0 0.0 0.0 0.0 0.0 0.0 0.0 0.0 0.0 0.0 0.0 0.0 0.0 0.0 0.0 0.0 0.0 0.0 0.0 0.0 0.0 0.0 0.0 0.0 0.0 0.0 0.0 0.0 0.0 0.0 0.0 0.1 0.0 0.0 0.0 0.0 0.0 0.0 0.0 0.0 0.0 0.0 0.0 0.0 0.0 0.0 0.0 0.0 0.0
0.0 0.0 0.0 0.0 0.0 0.0 0.0 0.0 0.0 0.0 0.0 0.0 0.0 0.0 0.0 0.0 0.0 0.0 0.0 0.0 0.0 0.1 0.0 0.0 0.0 0.0 0.0 0.0 0.0 0.0 0.0 0.0 0.0 0.0 0.0 0.0 0.0 0.0 0.1 0.0 0.0 0.0 0.0 0.0 0.0 0.0 0.0 0.0 0.0 0.0 0.0 0.0 0.0 0.0
0.0 0.0 0.0 0.0 0.0 0.0 0.0 0.0 0.0 0.0 0.0 0.0 0.0 0.0 0.0 0.0 0.0 0.0 0.0 0.0 0.0 0.1 0.8 0.1 0.0 0.0 0.0 0.0 0.0 0.0 0.0 0.0 0.0 0.0 0.0 0.0 0.0 0.0 0.0 0.0 0.0 0.0 0.0 0.0 0.0 0.0 0.0 0.0 0.0 0.0 0.0 0.0 0.0 0.0
0.0 0.0 0.0 0.0 0.0 0.0 0.0 0.0 0.0 0.0 0.0 0.0 0.0 0.0 0.0 0.0 0.0 0.0 0.0 0.0 0.0 0.2 1.9 0.3 0.0 0.0 0.0 0.0 0.0 0.0 0.0 0.0 0.5 0.3 1.1 0.7 0.0 0.0 0.0 0.0 0.0 0.0 0.0 0.0 0.0 0.0 0.0 0.0 0.0 0.0 0.0 0.0 0.0 0.0
0.0 0.0 0.0 0.0 0.0 0.0 0.0 0.0 0.0 0.0 0.0 0.0 0.0 0.0 0.0 0.0 0.0 0.0 0.0 0.0 0.0 0.0 3.0 1.6 0.0 0.0 0.0 0.0 0.0 0.0 0.0 0.0 0.1 1.1 1.6 0.0 0.0 0.0 0.6 0.0 0.0 0.0 0.0 0.0 0.0 0.0 0.0 0.0 0.0 0.0 0.0 0.0 0.0 0.0
0.0 0.0 0.0 0.0 0.0 0.0 0.0 0.0 0.0 0.0 0.0 0.0 0.0 0.0 0.0 0.0 0.0 0.2 0.0 0.0 0.0 0.0 1.5 3.8 4.0 0.0 0.0 0.0 0.0 0.0 0.0 0.0 2.0 3.2 1.5 0.0 0.0 1.6 1.3 0.3 0.0 0.0 0.0 0.0 0.0 0.0 0.0 0.0 0.0 0.0 0.0 0.0 0.0 0.0
0.0 0.0 0.0 0.0 0.0 0.0 0.0 0.0 0.0 0.0 0.0 0.0 0.0 0.0 0.0 0.0 0.0 0.0 0.0 0.0 0.0 0.0 4.3 8.6 7.1 2.9 0.0 0.4 0.0 0.0 0.0 0.0 0.5 1.4 0.0 0.0 0.0 2.2 1.4 0.0 0.0 0.0 0.0 0.0 0.0 0.0 0.0 0.0 0.0 0.0 0.0 0.0 0.0 0.0
0.0 0.0 0.0 0.0 0.0 0.0 0.0 0.0 0.0 0.0 0.0 0.0 0.0 0.0 0.0 0.0 0.0 0.0 0.0 0.0 0.0 0.0 7.3 6.7 6.7 5.1 0.0 0.0 0.0 0.2 0.0 4.5 0.0 1.6 0.0 0.4 1.2 2.8 0.0 0.1 0.1 0.0 0.1 0.0 0.0 0.0 0.0 0.0 0.0 0.0 0.0 0.0 0.0 0.0
0.0 0.0 0.0 0.0 0.0 0.0 0.0 0.0 0.0 0.0 0.0 0.0 0.0 0.0 0.9 0.0 0.0 0.0 0.0 0.7 4.5 3.5 3.8 5.1 4.8 5.9 3.0 4.7 1.7 1.7 1.9 3.0 3.7 0.0 0.0 1.2 0.0 0.0 0.0 0.0 0.1 0.1 0.0 0.1 0.0 3.0 1.6 1.0 0.0 0.0 0.0 0.0 0.0 0.0
0.0 0.0 0.0 0.0 0.0 0.0 0.0 0.0 0.0 0.0 0.0 0.0 0.0 0.0 0.0 0.0 0.0 0.0 5.6 6.7 3.8 2.4 2.3 3.3 4.5 3.7 0.0 5.0 3.5 0.3 5.7 2.5 4.1 4.9 1.1 2.2 1.6 1.2 0.0 0.1 0.0 0.0 0.1 0.0 0.0 0.0 0.5 2.1 2.0 0.6 0.4 0.2 0.0 0.0
0.0 0.0 0.0 0.0 0.0 0.0 0.0 0.0 0.0 0.0 0.0 0.0 0.0 0.0 0.0 0.8 3.8 4.9 5.7 3.8 1.3 1.0 1.6 2.9 1.5 1.0 1.0 0.0 2.1 1.9 3.7 3.3 3.7 5.2 3.8 2.7 1.0 0.2 1.1 1.0 0.7 0.1 0.0 0.1 0.0 0.0 0.3 0.0 1.0 1.3 0.9 1.2 1.4 1.6
0.0 0.0 0.0 0.0 0.0 0.0 0.0 0.0 0.0 0.0 0.0 0.0 0.0 0.0 0.4 1.0 2.1 3.0 2.9 2.5 0.5 0.7 0.9 0.9 1.1 0.0 0.0 0.1 0.6 1.6 1.6 0.7 1.2 3.7 3.9 1.7 0.3 0.2 0.0 0.2 0.5 2.2 2.7 1.5 1.0 0.8 0.8 0.8 0.5 0.9 0.8 0.5 0.7 0.4
0.0 0.0 0.0 0.0 0.0 0.0 0.0 0.0 0.0 0.0 0.0 0.0 0.0 0.0 0.5 0.8 1.2 1.2 1.1 1.1 0.2 0.1 0.0 0.0 0.6 1.3 0.2 1.2 1.2 1.5 0.1 0.6 2.4 1.6 1.5 0.2 0.2 0.0 0.0 0.0 0.0 0.0 1.1 1.8 2.8 2.3 1.8 2.1 1.3 1.5 0.9 0.3 0.0 0.0
0.0 0.0 0.0 0.0 0.0 0.0 0.0 0.0 0.0 0.0 0.0 0.0 0.0 0.0 0.0 0.0 0.2 0.1 0.0 0.2 0.0 0.0 0.1 0.0 0.0 0.1 1.0 1.3 0.3 1.0 0.9 2.7 3.2 2.0 1.4 0.7 0.2 0.0 0.1 0.1 0.0 0.0 0.0 0.0 0.3 0.7 2.1 1.9 2.2 1.4 0.7 0.6 0.1 0.0
0.0 0.0 0.0 0.0 0.0 0.0 0.0 0.0 0.0 0.0 0.0 0.0 0.0 0.0 0.0 0.0 0.0 0.0 0.0 0.0 0.0 0.0 0.3 0.4 0.6 1.0 0.5 1.7 1.0 0.3 1.1 2.0 2.5 1.3 0.0 0.0 0.0 0.0 0.1 0.0 0.1 0.0 0.0 0.0 0.0 0.0 0.5 0.5 1.1 1.0 0.2 0.5 0.4 0.0
0.0 0.0 0.0 0.0 0.0 0.0 0.0 0.0 0.0 0.0 0.0 0.0 0.0 0.0 0.0 0.0 0.0 0.0 0.0 0.0 0.0 0.2 1.6 2.1 2.5 0.1 0.4 0.8 0.3 0.1 0.2 0.3 0.3 0.0 0.0 0.0 0.0 0.0 0.4 0.0 0.0 0.1 0.0 0.0 0.2 0.2 0.8 0.4 1.4 1.8 1.1 0.4 0.5 0.7
0.0 0.0 0.0 0.0 0.0 0.0 0.0 0.0 0.0 0.0 0.0 0.0 0.0 0.0 0.0 0.0 0.0 0.0 0.0 0.0 0.0 0.1 2.1 5.1 2.8 1.7 0.4 0.2 0.0 0.1 0.0 0.0 0.0 0.0 0.0 0.0 0.0 0.0 0.4 0.0 0.0 0.2 0.8 1.6 1.7 1.7 1.3 1.3 1.6 1.3 0.3 0.5 0.6 0.6
0.0 0.0 0.0 0.0 0.0 0.0 0.6 0.3 0.0 0.0 0.0 0.0 0.0 0.0 0.0 0.0 0.0 0.0 0.0 0.0 0.0 0.1 1.1 2.4 2.6 0.6 0.0 0.0 0.0 0.0 0.0 0.0 0.0 0.0 0.0 0.0 0.0 0.1 0.1 0.7 0.6 0.0 0.4 1.1 0.8 0.9 0.6 0.2 0.0 0.5 0.5 0.2 0.6 0.3
0.0 0.0 0.0 0.0 0.0 0.3 1.2 0.1 0.1 0.0 0.0 0.0 0.0 0.0 0.0 0.0 0.0 0.0 0.1 0.0 0.1 0.1 0.2 1.0 0.0 0.1 0.1 0.3 0.5 0.4 0.0 0.0 0.0 0.0 0.0 0.0 0.0 0.0 0.0 0.0 0.0 0.2 0.0 0.4 0.3 0.1 0.6 0.3 0.0 0.6 0.4 0.2 0.5 0.5
0.0 0.0 0.0 0.0 1.4 0.8 0.9 0.0 0.0 0.0 0.0 0.0 0.0 0.0 0.0 0.0 0.0 0.0 0.1 0.1 0.4 0.4 0.0 0.2 0.0 0.0 0.4 0.4 0.2 0.4 0.2 0.1 0.0 0.0 0.0 0.0 0.0 0.0 0.0 0.0 0.0 0.1 0.0 0.0 0.1 0.0 0.4 0.2 0.1 0.0 0.4 0.2 0.1 0.8
0.4 0.0 1.4 2.8 1.8 1.8 1.1 0.1 0.0 0.0 0.0 0.0 0.1 0.0 0.0 0.0 0.0 0.0 0.0 0.2 0.0 0.0 0.1 0.2 0.0 0.0 0.0 0.0 0.6 0.4 0.5 0.0 0.1 0.0 0.0 0.0 0.0 0.0 0.0 0.0 0.0 0.0 0.0 0.0 0.0 0.0 0.0 0.0 0.1 0.0 0.3 0.3 0.1 0.9
0.0 2.7 3.7 2.9 2.3 3.0 1.6 0.2 0.2 0.1 0.1 0.1 0.1 0.1 0.0 0.0 0.0 0.0 0.0 0.0 0.0 0.0 0.0 0.0 0.0 0.7 0.9 0.9 1.3 1.1 0.7 0.1 0.0 0.0 0.1 0.0 0.0 0.0 0.0 0.0 0.0 0.0 0.0 0.0 0.0 0.0 0.0 0.0 0.0 0.0 0.0 0.4 0.2 0.0
0.0 4.0 4.8 3.3 2.0 1.3 0.8 0.3 0.3 0.0 0.1 0.2 0.1 0.0 0.0 0.0 0.1 0.0 0.0 0.0 0.0 0.0 0.0 0.0 0.0 0.0 0.0 0.6 0.9 1.5 2.0 1.4 0.4 0.0 0.6 0.3 0.0 0.0 0.0 0.0 0.0 0.0 0.0 0.0 0.0 0.0 0.0 0.0 0.0 0.0 0.0 0.0 0.0 0.0
9.5 8.6 4.1 3.4 1.6 0.7 0.2 0.3 0.1 0.2 0.0 0.2 0.1 0.0 0.0 0.0 0.0 0.0 0.0 0.0 0.0 0.0 0.0 0.0 0.0 0.0 0.0 0.0 0.5 0.6 0.9 1.3 1.9 1.8 0.2 1.5 0.7 0.2 0.0 0.0 0.2 0.1 0.0 0.0 0.0 0.0 0.0 0.0 0.0 0.0 0.0 0.0 0.0 0.0
7.6 3.7 1.6 0.0 0.2 0.0 0.0 0.1 0.1 0.0 0.0 0.2 0.3 0.0 0.0 0.0 0.0 0.0 0.0 0.0 0.0 0.0 0.0 0.0 0.0 0.0 0.0 0.0 0.0 0.6 0.8 0.9 0.8 1.1 0.2 1.7 1.5 1.9 1.5 1.2 0.7 0.3 0.0 0.0 0.2 0.2 0.1 0.0 0.0 0.0 0.0 0.0 0.0 0.0
3.8 0.9 0.1 0.1 0.1 0.1 0.1 0.1 0.0 0.3 0.2 0.2 0.1 0.0 0.0 0.1 0.0 0.0 0.0 0.0 0.0 0.0 0.0 0.0 0.0 0.0 0.0 0.0 0.0 0.0 0.7 0.9 0.8 0.4 0.2 1.2 1.1 0.9 0.5 1.3 1.1 0.8 0.6 1.1 0.9 0.7 0.5 0.3 0.2 0.1 0.3 0.2 0.2 0.2
0.2 0.0 0.0 0.1 0.1 0.0 0.1 0.1 0.3 0.2 0.2 0.0 0.1 0.1 0.2 0.0 0.0 0.0 0.0 0.0 0.0 0.0 0.0 0.0 0.0 0.0 0.0 0.0 0.0 0.4 0.6 0.8 0.8 0.5 1.2 1.3 1.1 1.0 0.9 1.1 2.2 2.5 1.9 1.5 1.1 1.4 1.5 1.1 0.8 1.1 0.9 0.5 0.6 0.5
0.2 0.0 0.0 0.1 0.0 0.0 0.2 0.2 0.2 0.1 0.1 0.0 0.0 0.0 0.0 0.0 0.0 0.0 0.0 0.0 0.0 0.0 0.0 0.0 0.0 0.0 0.0 0.0 0.0 0.4 0.5 0.8 1.1 1.0 0.8 0.8 1.0 1.2 1.4 2.6 3.3 4.1 4.0 3.6 3.1 2.3 1.7 1.7 2.4 2.3 2.0 2.0 1.7 1.7
0.1 0.0 0.0 0.0 0.0 0.1 0.1 0.1 0.0 0.1 0.0 0.0 0.0 0.0 0.0 0.0 0.0 0.0 0.0 0.0 0.0 0.0 0.0 0.0 0.0 0.0 0.0 0.0 0.0 0.4 0.4 0.4 0.9 0.9 0.9 0.8 0.9 1.1 2.3 2.8 3.6 4.1 4.5 4.0 4.9 5.6 5.2 4.9 5.4 5.1 4.3 3.8 3.5 2.9
0.0 0.0 0.0 0.0 0.0 0.3 0.3 0.2 0.1 0.0 0.0 0.0 0.0 0.0 0.0 0.0 0.0 0.0 0.0 0.0 0.0 0.0 0.0 0.0 0.0 0.1 0.2 0.3 0.5 0.7 0.6 0.7 0.7 1.2 1.4 1.6 1.5 2.1 2.0 3.3 3.5 4.2 4.7 4.7 4.3 4.1 3.7 3.2 2.8 2.6 2.9 2.6 2.6 2.2
0.0 0.0 0.0 0.3 0.5 0.4 0.2 0.0 0.0 0.0 0.0 0.0 0.0 0.0 0.0 0.0 0.0 0.0 0.0 0.0 0.0 0.0 0.0 0.0 0.2 0.4 0.5 0.7 0.9 1.1 1.6 1.7 1.0 1.6 1.7 1.6 2.0 1.8 2.9 3.3 4.1 4.3 4.7 4.6 4.1 3.7 3.4 3.2 3.6 3.4 3.6 3.7 3.5 3.0
0.8 0.5 0.5 0.3 0.2 0.1 0.0 0.0 0.0 0.0 0.0 0.0 0.0 0.0 0.0 0.0 0.0 0.0 0.0 0.0 0.0 0.0 0.0 0.4 0.5 0.7 1.2 1.5 1.4 2.1 2.3 1.9 2.8 3.0 3.4 3.4 3.1 3.2 4.0 3.9 4.3 4.2 4.1 4.1 4.4 4.6 4.7 4.4 4.1 3.8 3.6 3.4 3.3 3.2

GFSWCAN_prec_snow_069.txt.gz
Snowfall_Accumulation
0.0 0.0 0.0 0.0 0.0 0.0 0.0 0.0 0.0 0.0 0.0 0.0 0.0 0.0 0.0 0.0 0.0 0.0 0.0 0.0 0.0 0.0 0.0 0.0 0.0 0.0 0.0 0.0 0.0 0.0 0.0 0.0 0.0 0.7 0.0 0.0 0.1 0.0 0.0 0.0 0.0 0.0 0.2 0.2 0.6 0.5 0.0 0.0 0.0 0.0 0.0 0.0 0.0 0.0
0.0 0.0 0.0 0.0 0.0 0.0 0.0 0.0 0.0 0.0 0.0 0.0 0.0 0.0 0.0 0.0 0.0 0.0 0.0 0.0 0.0 0.0 0.0 0.0 0.0 0.0 0.0 0.0 0.0 0.0 0.0 0.0 0.0 0.0 0.0 0.0 0.1 0.0 0.0 0.0 0.0 0.0 0.0 0.0 0.0 0.0 0.0 0.0 0.0 0.0 0.0 0.0 0.0 0.0
0.0 0.0 0.0 0.0 0.0 0.0 0.0 0.0 0.0 0.0 0.0 0.0 0.0 0.0 0.0 0.0 0.0 0.0 0.0 0.0 0.0 0.1 0.0 0.0 0.0 0.0 0.0 0.0 0.0 0.0 0.0 0.0 0.0 0.0 0.0 0.0 0.0 0.0 0.1 0.0 0.0 0.0 0.0 0.0 0.0 0.0 0.0 0.0 0.0 0.0 0.0 0.0 0.0 0.0
0.0 0.0 0.0 0.0 0.0 0.0 0.0 0.0 0.0 0.0 0.0 0.0 0.0 0.0 0.0 0.0 0.0 0.0 0.0 0.0 0.0 0.1 0.8 0.1 0.0 0.0 0.0 0.0 0.0 0.0 0.0 0.0 0.0 0.0 0.0 0.0 0.0 0.0 0.0 0.0 0.0 0.0 0.0 0.0 0.0 0.0 0.0 0.0 0.0 0.0 0.0 0.0 0.0 0.0
0.0 0.0 0.0 0.0 0.0 0.0 0.0 0.0 0.0 0.0 0.0 0.0 0.0 0.0 0.0 0.0 0.0 0.0 0.0 0.0 0.0 0.2 1.9 0.3 0.0 0.0 0.0 0.0 0.0 0.0 0.0 0.0 0.5 0.3 1.1 0.7 0.0 0.0 0.0 0.0 0.0 0.0 0.0 0.0 0.0 0.0 0.0 0.0 0.0 0.0 0.0 0.0 0.0 0.0
0.0 0.0 0.0 0.0 0.0 0.0 0.0 0.0 0.0 0.0 0.0 0.0 0.0 0.0 0.0 0.0 0.0 0.0 0.0 0.0 0.0 0.0 3.0 1.6 0.0 0.0 0.0 0.0 0.0 0.0 0.0 0.0 0.1 1.1 1.6 0.0 0.0 0.0 0.6 0.0 0.0 0.0 0.0 0.0 0.0 0.0 0.0 0.0 0.0 0.0 0.0 0.0 0.0 0.0
0.0 0.0 0.0 0.0 0.0 0.0 0.0 0.0 0.0 0.0 0.0 0.0 0.0 0.0 0.0 0.0 0.0 0.2 0.0 0.0 0.0 0.0 1.5 3.8 4.0 0.0 0.0 0.0 0.0 0.0 0.0 0.0 2.0 3.2 1.5 0.0 0.0 1.6 1.3 0.3 0.0 0.0 0.0 0.0 0.0 0.0 0.0 0.0 0.0 0.0 0.0 0.0 0.0 0.0
0.0 0.0 0.0 0.0 0.0 0.0 0.0 0.0 0.0 0.0 0.0 0.0 0.0 0.0 0.0 0.0 0.0 0.0 0.0 0.0 0.0 0.0 4.3 8.6 7.1 2.9 0.0 0.4 0.0 0.0 0.0 0.0 0.5 1.4 0.0 0.0 0.0 2.2 1.4 0.0 0.0 0.0 0.0 0.0 0.0 0.0 0.0 0.0 0.0 0.0 0.0 0.0 0.0 0.0
0.0 0.0 0.0 0.0 0.0 0.0 0.0 0.0 0.0 0.0 0.0 0.0 0.0 0.0 0.0 0.0 0.0 0.0 0.0 0.0 0.0 0.0 7.3 6.7 6.7 5.1 0.0 0.0 0.0 0.2 0.0 4.5 0.0 1.6 0.0 0.4 1.2 2.8 0.0 0.1 0.1 0.0 0.1 0.0 0.0 0.0 0.0 0.0 0.0 0.0 0.0 0.0 0.0 0.0
0.0 0.0 0.0 0.0 0.0 0.0 0.0 0.0 0.0 0.0 0.0 0.0 0.0 0.0 0.9 0.0 0.0 0.0 0.0 0.7 4.5 3.5 3.8 5.1 4.8 5.9 3.0 4.7 1.7 1.7 1.9 3.0 3.7 0.0 0.0 1.2 0.0 0.0 0.0 0.0 0.1 0.1 0.0 0.1 0.0 3.0 1.6 1.0 0.0 0.0 0.0 0.0 0.0 0.0
0.0 0.0 0.0 0.0 0.0 0.0 0.0 0.0 0.0 0.0 0.0 0.0 0.0 0.0 0.0 0.0 0.0 0.0 5.6 6.7 3.8 2.4 2.3 3.3 4.5 3.7 0.0 5.0 3.5 0.3 5.7 2.5 4.1 4.9 1.1 2.2 1.6 1.2 0.0 0.1 0.0 0.0 0.1 0.0 0.0 0.0 0.5 2.1 2.0 0.6 0.4 0.2 0.0 0.0
0.0 0.0 0.0 0.0 0.0 0.0 0.0 0.0 0.0 0.0 0.0 0.0 0.0 0.0 0.0 0.8 3.8 4.9 5.7 3.8 1.3 1.0 1.6 2.9 1.5 1.0 1.0 0.0 2.1 1.9 3.7 3.3 3.7 5.2 3.8 2.7 1.0 0.2 1.1 1.0 0.7 0.1 0.0 0.1 0.0 0.0 0.3 0.0 1.0 1.3 0.9 1.2 1.4 1.6
0.0 0.0 0.0 0.0 0.0 0.0 0.0 0.0 0.0 0.0 0.0 0.0 0.0 0.0 0.4 1.0 2.1 3.0 2.9 2.5 0.5 0.7 0.9 0.9 1.1 0.0 0.0 0.1 0.6 1.6 1.6 0.7 1.2 3.7 3.9 1.7 0.3 0.2 0.0 0.2 0.5 2.2 2.7 1.5 1.0 0.8 0.8 0.8 0.5 0.9 0.8 0.5 0.7 0.4
0.0 0.0 0.0 0.0 0.0 0.0 0.0 0.0 0.0 0.0 0.0 0.0 0.0 0.0 0.5 0.8 1.2 1.2 1.1 1.1 0.2 0.1 0.0 0.0 0.6 1.3 0.2 1.2 1.2 1.5 0.1 0.6 2.4 1.6 1.5 0.2 0.2 0.0 0.0 0.0 0.0 0.0 1.1 1.8 2.8 2.3 1.8 2.1 1.3 1.5 0.9 0.3 0.0 0.0
0.0 0.0 0.0 0.0 0.0 0.0 0.0 0.0 0.0 0.0 0.0 0.0 0.0 0.0 0.0 0.0 0.2 0.1 0.0 0.2 0.0 0.0 0.1 0.0 0.0 0.1 1.0 1.3 0.3 1.0 0.9 2.7 3.2 2.0 1.4 0.7 0.2 0.0 0.1 0.1 0.0 0.0 0.0 0.0 0.3 0.7 2.1 1.9 2.2 1.4 0.7 0.6 0.1 0.0
0.0 0.0 0.0 0.0 0.0 0.0 0.0 0.0 0.0 0.0 0.0 0.0 0.0 0.0 0.0 0.0 0.0 0.0 0.0 0.0 0.0 0.0 0.3 0.4 0.6 1.0 0.5 1.7 1.0 0.3 1.1 2.0 2.5 1.3 0.0 0.0 0.0 0.0 0.1 0.0 0.1 0.0 0.0 0.0 0.0 0.0 0.5 0.5 1.1 1.0 0.2 0.5 0.4 0.0
0.0 0.0 0.0 0.0 0.0 0.0 0.0 0.0 0.0 0.0 0.0 0.0 0.0 0.0 0.0 0.0 0.0 0.0 0.0 0.0 0.0 0.2 1.6 2.1 2.5 0.1 0.4 0.8 0.3 0.1 0.2 0.3 0.3 0.0 0.0 0.0 0.0 0.0 0.4 0.0 0.0 0.1 0.0 0.0 0.2 0.2 0.8 0.4 1.4 1.8 1.1 0.4 0.5 0.7
0.0 0.0 0.0 0.0 0.0 0.0 0.0 0.0 0.0 0.0 0.0 0.0 0.0 0.0 0.0 0.0 0.0 0.0 0.0 0.0 0.0 0.1 2.1 5.1 2.8 1.7 0.4 0.2 0.0 0.1 0.0 0.0 0.0 0.0 0.0 0.0 0.0 0.0 0.4 0.0 0.0 0.2 0.8 1.6 1.7 1.7 1.3 1.3 1.6 1.3 0.3 0.5 0.6 0.6
0.0 0.0 0.0 0.0 0.0 0.0 0.7 0.3 0.0 0.0 0.0 0.0 0.0 0.0 0.0 0.0 0.0 0.0 0.0 0.0 0.0 0.1 1.1 2.4 2.6 0.6 0.0 0.0 0.0 0.0 0.0 0.0 0.0 0.0 0.0 0.0 0.0 0.1 0.1 0.7 0.6 0.0 0.4 1.1 0.8 0.9 0.6 0.2 0.0 0.5 0.5 0.2 0.6 0.3
0.0 0.0 0.0 0.0 0.0 0.3 1.2 0.1 0.1 0.0 0.0 0.0 0.0 0.0 0.0 0.0 0.0 0.0 0.1 0.0 0.1 0.1 0.2 1.0 0.0 0.1 0.1 0.3 0.5 0.4 0.0 0.0 0.0 0.0 0.0 0.0 0.0 0.0 0.0 0.0 0.0 0.2 0.0 0.4 0.3 0.1 0.6 0.3 0.0 0.6 0.4 0.2 0.5 0.5
0.0 0.0 0.0 0.0 1.4 0.8 0.9 0.0 0.0 0.0 0.0 0.0 0.0 0.0 0.0 0.0 0.0 0.0 0.1 0.1 0.4 0.4 0.0 0.2 0.0 0.0 0.4 0.4 0.2 0.4 0.2 0.1 0.0 0.0 0.0 0.0 0.0 0.0 0.0 0.0 0.0 0.1 0.0 0.0 0.1 0.0 0.4 0.2 0.1 0.0 0.4 0.2 0.1 0.8
0.4 0.0 2.3 2.8 1.8 1.8 1.1 0.1 0.0 0.0 0.0 0.0 0.1 0.0 0.0 0.0 0.0 0.0 0.0 0.2 0.0 0.0 0.1 0.2 0.0 0.0 0.0 0.0 0.6 0.4 0.5 0.0 0.1 0.0 0.0 0.0 0.0 0.0 0.0 0.0 0.0 0.0 0.0 0.0 0.0 0.0 0.0 0.0 0.1 0.0 0.3 0.3 0.1 0.9
0.0 2.7 3.9 3.0 2.4 3.0 1.6 0.2 0.2 0.1 0.1 0.1 0.1 0.1 0.0 0.0 0.0 0.0 0.0 0.0 0.0 0.0 0.0 0.0 0.0 0.7 0.9 0.9 1.3 1.1 0.7 0.1 0.0 0.0 0.1 0.0 0.0 0.0 0.0 0.0 0.0 0.0 0.0 0.0 0.0 0.0 0.0 0.0 0.0 0.0 0.0 0.4 0.2 0.0
0.0 4.6 5.0 3.4 2.0 1.3 0.8 0.3 0.3 0.0 0.1 0.2 0.1 0.0 0.0 0.0 0.1 0.0 0.0 0.0 0.0 0.0 0.0 0.0 0.0 0.0 0.0 0.6 0.9 1.5 2.0 1.4 0.4 0.0 0.6 0.3 0.0 0.0 0.0 0.0 0.0 0.0 0.0 0.0 0.0 0.0 0.0 0.0 0.0 0.0 0.0 0.0 0.0 0.0
10.1 9.1 4.2 3.4 1.6 0.7 0.2 0.3 0.1 0.2 0.0 0.2 0.1 0.0 0.0 0.0 0.0 0.0 0.0 0.0 0.0 0.0 0.0 0.0 0.0 0.0 0.0 0.0 0.5 0.6 0.9 1.3 1.9 1.8 0.2 1.5 0.7 0.2 0.0 0.0 0.2 0.1 0.0 0.0 0.0 0.0 0.0 0.0 0.0 0.0 0.0 0.0 0.0 0.1
8.2 4.1 1.6 0.0 0.2 0.0 0.0 0.1 0.1 0.0 0.0 0.2 0.3 0.0 0.0 0.0 0.0 0.0 0.0 0.0 0.0 0.0 0.0 0.0 0.0 0.0 0.0 0.0 0.0 0.6 0.8 0.9 0.8 1.1 0.2 1.7 1.5 1.9 1.5 1.2 0.7 0.3 0.0 0.0 0.2 0.2 0.1 0.0 0.0 0.0 0.0 0.0 0.0 0.0
4.2 1.0 0.1 0.1 0.1 0.1 0.1 0.1 0.0 0.3 0.2 0.2 0.1 0.1 0.0 0.1 0.0 0.0 0.0 0.0 0.0 0.0 0.0 0.0 0.0 0.0 0.0 0.0 0.0 0.0 0.7 0.9 0.8 0.4 0.2 1.2 1.1 0.9 0.5 1.3 1.1 0.8 0.6 1.1 0.9 0.7 0.6 0.4 0.2 0.1 0.3 0.2 0.2 0.2
0.5 0.0 0.0 0.1 0.1 0.0 0.1 0.1 0.3 0.2 0.2 0.0 0.2 0.2 0.2 0.0 0.0 0.0 0.0 0.0 0.0 0.0 0.0 0.0 0.0 0.0 0.0 0.0 0.0 0.4 0.6 0.8 0.8 0.5 1.2 1.3 1.1 1.0 0.9 1.1 2.2 2.5 1.9 1.5 1.1 1.4 1.5 1.1 0.9 1.1 0.9 0.5 0.6 0.5
0.2 0.0 0.0 0.1 0.0 0.0 0.2 0.2 0.2 0.1 0.1 0.0 0.0 0.0 0.0 0.0 0.0 0.0 0.0 0.0 0.0 0.0 0.0 0.0 0.0 0.0 0.0 0.0 0.0 0.4 0.5 0.8 1.1 1.0 0.8 0.8 1.0 1.2 1.4 2.6 3.3 4.1 4.0 3.6 3.1 2.3 1.7 1.7 2.5 2.3 2.0 2.0 1.7 1.7
0.1 0.0 0.0 0.0 0.0 0.1 0.1 0.1 0.0 0.2 0.2 0.0 0.0 0.0 0.0 0.0 0.0 0.0 0.0 0.0 0.0 0.0 0.0 0.0 0.0 0.0 0.0 0.0 0.0 0.4 0.4 0.4 0.9 0.9 0.9 0.8 0.9 1.1 2.3 2.8 3.6 4.1 4.5 4.0 4.9 5.6 5.2 4.9 5.4 5.1 4.3 3.8 3.5 2.9
0.0 0.0 0.0 0.0 0.0 0.3 0.4 0.2 0.1 0.0 0.0 0.0 0.0 0.0 0.0 0.0 0.0 0.0 0.0 0.0 0.0 0.0 0.0 0.0 0.0 0.1 0.2 0.3 0.5 0.7 0.6 0.7 0.7 1.2 1.4 1.6 1.5 2.1 2.0 3.3 3.5 4.2 4.7 4.7 4.3 4.1 3.7 3.2 2.8 2.6 2.9 2.6 2.6 2.2
0.0 0.0 0.0 0.3 0.5 0.9 0.8 0.5 0.2 0.0 0.0 0.0 0.0 0.0 0.0 0.0 0.0 0.0 0.0 0.0 0.0 0.0 0.0 0.0 0.2 0.4 0.5 0.7 0.9 1.1 1.6 1.7 1.0 1.6 1.7 1.6 2.0 1.8 2.9 3.3 4.1 4.3 4.7 4.6 4.1 3.7 3.4 3.2 3.6 3.4 3.6 3.7 3.5 3.0
0.8 0.5 0.5 0.3 0.9 0.9 0.8 0.4 0.1 0.0 0.0 0.0 0.0 0.0 0.0 0.0 0.0 0.0 0.0 0.0 0.0 0.0 0.0 0.4 0.5 0.7 1.2 1.5 1.4 2.1 2.3 1.9 2.8 3.0 3.4 3.4 3.1 3.2 4.0 3.9 4.3 4.2 4.1 4.1 4.4 4.6 4.7 4.4 4.1 3.8 3.6 3.4 3.3 3.2

GFSWCAN_prec_snow_072.txt.gz
Snowfall_Accumulation
0.0 0.0 0.0 0.0 0.0 0.0 0.0 0.0 0.0 0.0 0.0 0.0 0.0 0.0 0.0 0.0 0.0 0.0 0.0 0.0 0.0 0.0 0.0 0.0 0.0 0.0 0.0 0.0 0.0 0.0 0.0 0.0 0.0 0.7 0.0 0.0 0.1 0.0 0.0 0.0 0.0 0.0 0.2 0.2 0.6 0.5 0.0 0.0 0.0 0.0 0.0 0.0 0.0 0.0
0.0 0.0 0.0 0.0 0.0 0.0 0.0 0.0 0.0 0.0 0.0 0.0 0.0 0.0 0.0 0.0 0.0 0.0 0.0 0.0 0.0 0.0 0.0 0.0 0.0 0.0 0.0 0.0 0.0 0.0 0.0 0.0 0.0 0.0 0.0 0.0 0.1 0.0 0.0 0.0 0.0 0.0 0.0 0.0 0.0 0.0 0.0 0.0 0.0 0.0 0.0 0.0 0.0 0.0
0.0 0.0 0.0 0.0 0.0 0.0 0.0 0.0 0.0 0.0 0.0 0.0 0.0 0.0 0.0 0.0 0.0 0.0 0.0 0.0 0.0 0.1 0.0 0.0 0.0 0.0 0.0 0.0 0.0 0.0 0.0 0.0 0.0 0.0 0.0 0.0 0.0 0.0 0.1 0.0 0.0 0.0 0.0 0.0 0.0 0.0 0.0 0.0 0.0 0.0 0.0 0.0 0.0 0.0
0.0 0.0 0.0 0.0 0.0 0.0 0.0 0.0 0.0 0.0 0.0 0.0 0.0 0.0 0.0 0.0 0.0 0.0 0.0 0.0 0.0 0.1 0.8 0.1 0.0 0.0 0.0 0.0 0.0 0.0 0.0 0.0 0.0 0.0 0.0 0.0 0.0 0.0 0.0 0.0 0.0 0.0 0.0 0.0 0.0 0.0 0.0 0.0 0.0 0.0 0.0 0.0 0.0 0.0
0.0 0.0 0.0 0.0 0.0 0.0 0.0 0.0 0.0 0.0 0.0 0.0 0.0 0.0 0.0 0.0 0.0 0.0 0.0 0.0 0.0 0.2 1.9 0.3 0.0 0.0 0.0 0.0 0.0 0.0 0.0 0.0 0.5 0.3 1.1 0.7 0.0 0.0 0.0 0.0 0.0 0.0 0.0 0.0 0.0 0.0 0.0 0.0 0.0 0.0 0.0 0.0 0.0 0.0
0.0 0.0 0.0 0.0 0.0 0.0 0.0 0.0 0.0 0.0 0.0 0.0 0.0 0.0 0.0 0.0 0.0 0.0 0.0 0.0 0.0 0.0 3.0 1.6 0.0 0.0 0.0 0.0 0.0 0.0 0.0 0.0 0.1 1.1 1.6 0.0 0.0 0.0 0.6 0.0 0.0 0.0 0.0 0.0 0.0 0.0 0.0 0.0 0.0 0.0 0.0 0.0 0.0 0.0
0.0 0.0 0.0 0.0 0.0 0.0 0.0 0.0 0.0 0.0 0.0 0.0 0.0 0.0 0.0 0.0 0.0 0.2 0.0 0.0 0.0 0.0 1.5 3.8 4.0 0.0 0.0 0.0 0.0 0.0 0.0 0.0 2.0 3.2 1.5 0.0 0.0 1.6 1.3 0.3 0.0 0.0 0.0 0.0 0.0 0.0 0.0 0.0 0.0 0.0 0.0 0.0 0.0 0.0
0.0 0.0 0.0 0.0 0.0 0.0 0.0 0.0 0.0 0.0 0.0 0.0 0.0 0.0 0.0 0.0 0.0 0.0 0.0 0.0 0.0 0.0 4.3 8.6 7.1 2.9 0.0 0.4 0.0 0.0 0.0 0.0 0.5 1.4 0.0 0.0 0.0 2.2 1.4 0.0 0.0 0.0 0.0 0.0 0.0 0.0 0.0 0.0 0.0 0.0 0.0 0.0 0.0 0.0
0.0 0.0 0.0 0.0 0.0 0.0 0.0 0.0 0.0 0.0 0.0 0.0 0.0 0.0 0.0 0.0 0.0 0.0 0.0 0.0 0.0 0.0 7.3 6.7 6.7 5.1 0.0 0.0 0.0 0.2 0.0 4.5 0.0 1.6 0.0 0.4 1.2 2.8 0.0 0.1 0.1 0.0 0.1 0.0 0.0 0.0 0.0 0.0 0.0 0.0 0.0 0.0 0.0 0.0
0.0 0.0 0.0 0.0 0.0 0.0 0.0 0.0 0.0 0.0 0.0 0.0 0.0 0.0 0.9 0.0 0.0 0.0 0.0 0.7 4.5 3.5 3.8 5.1 4.8 5.9 3.0 4.7 1.7 1.7 1.9 3.0 3.7 0.0 0.0 1.2 0.0 0.0 0.0 0.0 0.1 0.1 0.0 0.1 0.0 3.0 1.6 1.0 0.0 0.0 0.0 0.0 0.0 0.0
0.0 0.0 0.0 0.0 0.0 0.0 0.0 0.0 0.0 0.0 0.0 0.0 0.0 0.0 0.0 0.0 0.0 0.0 5.6 6.7 3.8 2.4 2.3 3.3 4.5 3.7 0.0 5.0 3.5 0.3 5.7 2.5 4.1 4.9 1.1 2.2 1.6 1.2 0.0 0.1 0.0 0.0 0.1 0.0 0.0 0.0 0.5 2.1 2.0 0.6 0.4 0.2 0.0 0.0
0.0 0.0 0.0 0.0 0.0 0.0 0.0 0.0 0.0 0.0 0.0 0.0 0.0 0.0 0.0 0.8 3.8 4.9 5.7 3.8 1.3 1.0 1.6 2.9 1.5 1.0 1.0 0.0 2.1 1.9 3.7 3.3 3.7 5.2 3.8 2.7 1.0 0.2 1.1 1.0 0.7 0.1 0.0 0.1 0.0 0.0 0.3 0.0 1.0 1.3 0.9 1.2 1.4 1.6
0.0 0.0 0.0 0.0 0.0 0.0 0.0 0.0 0.0 0.0 0.0 0.0 0.0 0.0 0.4 1.0 2.1 3.0 2.9 2.5 0.5 0.7 0.9 0.9 1.1 0.0 0.0 0.1 0.6 1.6 1.6 0.7 1.2 3.7 3.9 1.7 0.3 0.2 0.0 0.2 0.5 2.2 2.7 1.5 1.0 0.8 0.8 0.8 0.5 0.9 0.8 0.5 0.7 0.4
0.0 0.0 0.0 0.0 0.0 0.0 0.0 0.0 0.0 0.0 0.0 0.0 0.0 0.0 0.5 0.8 1.2 1.2 1.1 1.1 0.2 0.1 0.0 0.0 0.6 1.3 0.2 1.2 1.2 1.5 0.1 0.6 2.4 1.6 1.5 0.2 0.2 0.0 0.0 0.0 0.0 0.0 1.1 1.8 2.8 2.3 1.8 2.1 1.3 1.5 0.9 0.3 0.0 0.0
0.0 0.0 0.0 0.0 0.0 0.0 0.0 0.0 0.0 0.0 0.0 0.0 0.0 0.0 0.0 0.0 0.2 0.1 0.0 0.2 0.0 0.0 0.1 0.0 0.0 0.1 1.0 1.3 0.3 1.0 0.9 2.7 3.2 2.0 1.4 0.7 0.2 0.0 0.1 0.1 0.0 0.0 0.0 0.0 0.3 0.7 2.1 1.9 2.2 1.4 0.7 0.6 0.1 0.0
0.0 0.0 0.0 0.0 0.0 0.0 0.0 0.0 0.0 0.0 0.0 0.0 0.0 0.0 0.0 0.0 0.0 0.0 0.0 0.0 0.0 0.0 0.3 0.4 0.6 1.0 0.5 1.7 1.0 0.3 1.1 2.0 2.5 1.3 0.0 0.0 0.0 0.0 0.1 0.0 0.1 0.0 0.0 0.0 0.0 0.0 0.5 0.5 1.1 1.0 0.2 0.5 0.4 0.0
0.0 0.0 0.0 0.0 0.0 0.0 0.0 0.0 0.0 0.0 0.0 0.0 0.0 0.0 0.0 0.0 0.0 0.0 0.0 0.0 0.0 0.2 1.6 2.1 2.5 0.1 0.4 0.8 0.3 0.1 0.2 0.3 0.3 0.0 0.0 0.0 0.0 0.0 0.4 0.0 0.0 0.1 0.0 0.0 0.2 0.2 0.8 0.4 1.4 1.8 1.1 0.4 0.5 0.7
0.0 0.0 0.0 0.0 0.0 0.0 0.0 0.0 0.0 0.0 0.0 0.0 0.0 0.0 0.0 0.0 0.0 0.0 0.0 0.0 0.0 0.1 2.1 5.1 2.8 1.7 0.4 0.2 0.0 0.1 0.0 0.0 0.0 0.0 0.0 0.0 0.0 0.0 0.4 0.0 0.0 0.2 0.8 1.6 1.7 1.7 1.3 1.3 1.6 1.3 0.3 0.5 0.6 0.6
0.0 0.0 0.0 0.0 0.0 0.0 1.3 0.6 0.0 0.0 0.0 0.0 0.0 0.0 0.0 0.0 0.0 0.0 0.0 0.0 0.0 0.1 1.1 2.4 2.6 0.6 0.0 0.0 0.0 0.0 0.0 0.0 0.0 0.0 0.0 0.0 0.0 0.1 0.1 0.7 0.6 0.0 0.4 1.1 0.8 0.9 0.6 0.2 0.0 0.5 0.5 0.2 0.6 0.3
0.0 0.0 0.0 0.0 0.0 0.3 1.4 0.3 0.1 0.0 0.0 0.0 0.0 0.0 0.0 0.0 0.0 0.0 0.1 0.0 0.1 0.1 0.2 1.0 0.0 0.1 0.1 0.3 0.5 0.4 0.0 0.0 0.0 0.0 0.0 0.0 0.0 0.0 0.0 0.0 0.0 0.2 0.0 0.4 0.3 0.1 0.6 0.3 0.0 0.6 0.4 0.2 0.5 0.5
0.0 0.0 0.0 0.0 1.4 1.2 1.1 0.0 0.0 0.0 0.0 0.0 0.0 0.0 0.0 0.0 0.0 0.0 0.1 0.1 0.4 0.4 0.0 0.2 0.0 0.0 0.4 0.4 0.2 0.4 0.2 0.1 0.0 0.0 0.0 0.0 0.0 0.0 0.0 0.0 0.0 0.1 0.0 0.0 0.1 0.0 0.4 0.2 0.1 0.0 0.4 0.2 0.1 0.8
0.4 0.0 5.8 4.7 2.4 2.1 1.1 0.1 0.0 0.0 0.0 0.0 0.1 0.0 0.0 0.0 0.0 0.0 0.0 0.2 0.0 0.0 0.1 0.2 0.0 0.0 0.0 0.0 0.6 0.4 0.5 0.0 0.1 0.0 0.0 0.0 0.0 0.0 0.0 0.0 0.0 0.0 0.0 0.0 0.0 0.0 0.0 0.0 0.1 0.0 0.3 0.3 0.1 0.9
0.0 2.7 6.6 4.4 2.8 3.2 1.6 0.2 0.2 0.1 0.1 0.1 0.1 0.1 0.0 0.0 0.0 0.0 0.0 0.0 0.0 0.0 0.0 0.0 0.0 0.7 0.9 0.9 1.3 1.1 0.7 0.1 0.0 0.0 0.1 0.0 0.0 0.0 0.0 0.0 0.0 0.0 0.0 0.0 0.0 0.0 0.0 0.0 0.0 0.0 0.0 0.4 0.2 0.0
0.0 7.3 7.0 4.2 2.2 1.4 0.8 0.3 0.3 0.0 0.1 0.2 0.1 0.0 0.0 0.0 0.1 0.0 0.0 0.0 0.0 0.0 0.0 0.0 0.0 0.0 0.0 0.6 0.9 1.5 2.0 1.4 0.4 0.0 0.6 0.3 0.0 0.0 0.0 0.0 0.0 0.0 0.0 0.0 0.0 0.0 0.0 0.0 0.0 0.0 0.0 0.0 0.0 0.0
12.3 11.3 5.5 4.3 1.8 0.8 0.2 0.3 0.1 0.2 0.0 0.2 0.1 0.0 0.0 0.0 0.0 0.0 0.0 0.0 0.0 0.0 0.0 0.0 0.0 0.0 0.0 0.0 0.5 0.6 0.9 1.3 1.9 1.8 0.2 1.5 0.7 0.2 0.0 0.0 0.2 0.1 0.0 0.0 0.0 0.0 0.0 0.0 0.0 0.0 0.0 0.0 0.0 0.1
10.1 5.8 2.5 0.3 0.2 0.0 0.0 0.1 0.1 0.0 0.0 0.2 0.3 0.0 0.0 0.0 0.0 0.0 0.0 0.0 0.0 0.0 0.0 0.0 0.0 0.0 0.0 0.0 0.0 0.6 0.8 0.9 0.8 1.1 0.2 1.7 1.5 1.9 1.5 1.2 0.7 0.3 0.0 0.0 0.2 0.2 0.1 0.0 0.0 0.0 0.0 0.0 0.0 0.0
5.1 1.4 0.1 0.1 0.1 0.1 0.1 0.1 0.0 0.3 0.2 0.2 0.1 0.1 0.0 0.1 0.0 0.0 0.0 0.0 0.0 0.0 0.0 0.0 0.0 0.0 0.0 0.0 0.0 0.0 0.7 0.9 0.8 0.4 0.2 1.2 1.1 0.9 0.5 1.3 1.1 0.8 0.6 1.1 0.9 0.7 0.6 0.4 0.2 0.1 0.3 0.2 0.2 0.2
0.8 0.0 0.0 0.1 0.1 0.0 0.1 0.1 0.4 0.2 0.3 0.0 0.2 0.2 0.2 0.0 0.0 0.0 0.0 0.0 0.0 0.0 0.0 0.0 0.0 0.0 0.0 0.0 0.0 0.4 0.6 0.8 0.8 0.5 1.2 1.3 1.1 1.0 0.9 1.1 2.2 2.5 1.9 1.5 1.1 1.4 1.5 1.1 0.9 1.1 0.9 0.5 0.6 0.5
0.2 0.0 0.0 0.1 0.0 0.0 0.3 0.2 0.2 0.1 0.1 0.0 0.0 0.0 0.0 0.0 0.0 0.0 0.0 0.0 0.0 0.0 0.0 0.0 0.0 0.0 0.0 0.0 0.0 0.4 0.5 0.8 1.1 1.0 0.8 0.8 1.0 1.2 1.4 2.6 3.3 4.1 4.0 3.6 3.1 2.3 1.7 1.7 2.5 2.3 2.0 2.0 1.7 1.7
0.1 0.0 0.0 0.0 0.1 0.2 0.1 0.1 0.0 0.2 0.2 0.0 0.0 0.1 0.1 0.0 0.0 0.0 0.0 0.0 0.0 0.0 0.0 0.0 0.0 0.0 0.0 0.0 0.0 0.4 0.4 0.4 0.9 0.9 0.9 0.8 0.9 1.1 2.3 2.8 3.6 4.1 4.5 4.0 4.9 5.6 5.2 4.9 5.4 5.1 4.3 3.8 3.5 2.9
0.0 0.0 0.0 0.1 0.1 0.3 0.4 0.2 0.1 0.0 0.1 0.1 0.0 0.0 0.0 0.0 0.0 0.0 0.0 0.0 0.0 0.0 0.0 0.0 0.0 0.1 0.2 0.3 0.5 0.7 0.6 0.7 0.7 1.2 1.4 1.6 1.5 2.1 2.0 3.3 3.5 4.2 4.7 4.7 4.3 4.1 3.7 3.2 2.8 2.6 2.9 2.6 2.6 2.2
0.0 0.0 0.0 0.3 0.5 0.9 0.8 0.5 0.2 0.0 0.1 0.1 0.0 0.0 0.0 0.0 0.0 0.0 0.0 0.0 0.0 0.0 0.0 0.0 0.2 0.4 0.5 0.7 0.9 1.1 1.6 1.7 1.0 1.6 1.7 1.6 2.0 1.8 2.9 3.3 4.1 4.3 4.7 4.6 4.1 3.7 3.4 3.2 3.6 3.4 3.6 3.7 3.5 3.0
0.8 0.5 0.5 0.3 1.2 1.3 1.1 0.6 0.4 0.2 0.1 0.0 0.0 0.0 0.0 0.0 0.0 0.0 0.0 0.0 0.0 0.0 0.0 0.4 0.5 0.7 1.2 1.5 1.4 2.1 2.3 1.9 2.8 3.0 3.4 3.4 3.1 3.2 4.0 3.9 4.3 4.2 4.1 4.1 4.4 4.6 4.7 4.4 4.1 3.8 3.6 3.4 3.3 3.2

GFSWCAN_prec_snow_075.txt.gz
Snowfall_Accumulation
0.0 0.0 0.0 0.0 0.0 0.0 0.0 0.0 0.0 0.0 0.0 0.0 0.0 0.0 0.0 0.0 0.0 0.0 0.0 0.0 0.0 0.0 0.0 0.0 0.0 0.0 0.0 0.0 0.0 0.0 0.0 0.0 0.0 0.7 0.0 0.0 0.1 0.0 0.0 0.0 0.0 0.0 0.2 0.2 0.6 0.5 0.0 0.0 0.0 0.0 0.0 0.0 0.0 0.0
0.0 0.0 0.0 0.0 0.0 0.0 0.0 0.0 0.0 0.0 0.0 0.0 0.0 0.0 0.0 0.0 0.0 0.0 0.0 0.0 0.0 0.0 0.0 0.0 0.0 0.0 0.0 0.0 0.0 0.0 0.0 0.0 0.0 0.0 0.0 0.0 0.1 0.0 0.0 0.0 0.0 0.0 0.0 0.0 0.0 0.0 0.0 0.0 0.0 0.0 0.0 0.0 0.0 0.0
0.0 0.0 0.0 0.0 0.0 0.0 0.0 0.0 0.0 0.0 0.0 0.0 0.0 0.0 0.0 0.0 0.0 0.0 0.0 0.0 0.0 0.1 0.0 0.0 0.0 0.0 0.0 0.0 0.0 0.0 0.0 0.0 0.0 0.0 0.0 0.0 0.0 0.0 0.1 0.0 0.0 0.0 0.0 0.0 0.0 0.0 0.0 0.0 0.0 0.0 0.0 0.0 0.0 0.0
0.0 0.0 0.0 0.0 0.0 0.0 0.0 0.0 0.0 0.0 0.0 0.0 0.0 0.0 0.0 0.0 0.0 0.0 0.0 0.0 0.0 0.1 0.8 0.1 0.0 0.0 0.0 0.0 0.0 0.0 0.0 0.0 0.0 0.0 0.0 0.0 0.0 0.0 0.0 0.0 0.0 0.0 0.0 0.0 0.0 0.0 0.0 0.0 0.0 0.0 0.0 0.0 0.0 0.0
0.0 0.0 0.0 0.0 0.0 0.0 0.0 0.0 0.0 0.0 0.0 0.0 0.0 0.0 0.0 0.0 0.0 0.0 0.0 0.0 0.0 0.2 1.9 0.3 0.0 0.0 0.0 0.0 0.0 0.0 0.0 0.0 0.5 0.3 1.1 0.7 0.0 0.0 0.0 0.0 0.0 0.0 0.0 0.0 0.0 0.0 0.0 0.0 0.0 0.0 0.0 0.0 0.0 0.0
0.0 0.0 0.0 0.0 0.0 0.0 0.0 0.0 0.0 0.0 0.0 0.0 0.0 0.0 0.0 0.0 0.0 0.0 0.0 0.0 0.0 0.0 3.0 1.6 0.0 0.0 0.0 0.0 0.0 0.0 0.0 0.0 0.1 1.1 1.6 0.0 0.0 0.0 0.6 0.0 0.0 0.0 0.0 0.0 0.0 0.0 0.0 0.0 0.0 0.0 0.0 0.0 0.0 0.0
0.0 0.0 0.0 0.0 0.0 0.0 0.0 0.0 0.0 0.0 0.0 0.0 0.0 0.0 0.0 0.0 0.0 0.2 0.0 0.0 0.0 0.0 1.5 3.8 4.0 0.0 0.0 0.0 0.0 0.0 0.0 0.0 2.0 3.2 1.5 0.0 0.0 1.6 1.3 0.3 0.0 0.0 0.0 0.0 0.0 0.0 0.0 0.0 0.0 0.0 0.0 0.0 0.0 0.0
0.0 0.0 0.0 0.0 0.0 0.0 0.0 0.0 0.0 0.0 0.0 0.0 0.0 0.0 0.0 0.0 0.0 0.0 0.0 0.0 0.0 0.0 4.3 8.6 7.1 2.9 0.0 0.4 0.0 0.0 0.0 0.0 0.5 1.4 0.0 0.0 0.0 2.2 1.4 0.0 0.0 0.0 0.0 0.0 0.0 0.0 0.0 0.0 0.0 0.0 0.0 0.0 0.0 0.0
0.0 0.0 0.0 0.0 0.0 0.0 0.0 0.0 0.0 0.0 0.0 0.0 0.0 0.0 0.0 0.0 0.0 0.0 0.0 0.0 0.0 0.0 7.3 6.7 6.7 5.1 0.0 0.0 0.0 0.2 0.0 4.5 0.0 1.6 0.0 0.4 1.2 2.8 0.0 0.1 0.1 0.0 0.1 0.0 0.0 0.0 0.0 0.0 0.0 0.0 0.0 0.0 0.0 0.0
0.0 0.0 0.0 0.0 0.0 0.0 0.0 0.0 0.0 0.0 0.0 0.0 0.0 0.0 0.9 0.0 0.0 0.0 0.0 0.7 4.5 3.5 3.8 5.1 4.8 5.9 3.0 4.7 1.7 1.7 1.9 3.0 3.7 0.0 0.0 1.2 0.0 0.0 0.0 0.0 0.1 0.1 0.0 0.1 0.0 3.0 1.6 1.0 0.0 0.0 0.0 0.0 0.0 0.0
0.0 0.0 0.0 0.0 0.0 0.0 0.0 0.0 0.0 0.0 0.0 0.0 0.0 0.0 0.0 0.0 0.0 0.0 5.6 6.7 3.8 2.4 2.3 3.3 4.5 3.7 0.0 5.0 3.5 0.3 5.7 2.5 4.1 4.9 1.1 2.2 1.6 1.2 0.0 0.1 0.0 0.0 0.1 0.0 0.0 0.0 0.5 2.1 2.0 0.6 0.4 0.2 0.0 0.0
0.0 0.0 0.0 0.0 0.0 0.0 0.0 0.0 0.0 0.0 0.0 0.0 0.0 0.0 0.0 0.8 3.8 4.9 5.7 3.8 1.3 1.0 1.6 2.9 1.5 1.0 1.0 0.0 2.1 1.9 3.7 3.3 3.7 5.2 3.8 2.7 1.0 0.2 1.1 1.0 0.7 0.1 0.0 0.1 0.0 0.0 0.3 0.0 1.0 1.3 0.9 1.2 1.4 1.6
0.0 0.0 0.0 0.0 0.0 0.0 0.0 0.0 0.0 0.0 0.0 0.0 0.0 0.0 0.4 1.0 2.1 3.0 2.9 2.5 0.5 0.7 0.9 0.9 1.1 0.0 0.0 0.1 0.6 1.6 1.6 0.7 1.2 3.7 3.9 1.7 0.3 0.2 0.0 0.2 0.5 2.2 2.7 1.5 1.0 0.8 0.8 0.8 0.5 0.9 0.8 0.5 0.7 0.4
0.0 0.0 0.0 0.0 0.0 0.0 0.0 0.0 0.0 0.0 0.0 0.0 0.0 0.0 0.5 0.8 1.2 1.2 1.1 1.1 0.2 0.1 0.0 0.0 0.6 1.3 0.2 1.2 1.2 1.5 0.1 0.6 2.4 1.6 1.5 0.2 0.2 0.0 0.0 0.0 0.0 0.0 1.1 1.8 2.8 2.3 1.8 2.1 1.3 1.5 0.9 0.3 0.0 0.0
0.0 0.0 0.0 0.0 0.0 0.0 0.0 0.0 0.0 0.0 0.0 0.0 0.0 0.0 0.0 0.0 0.2 0.1 0.0 0.2 0.0 0.0 0.1 0.0 0.0 0.1 1.0 1.3 0.3 1.0 0.9 2.7 3.2 2.0 1.4 0.7 0.2 0.0 0.1 0.1 0.0 0.0 0.0 0.0 0.3 0.7 2.1 1.9 2.2 1.4 0.7 0.6 0.1 0.0
0.0 0.0 0.0 0.0 0.0 0.0 0.0 0.0 0.0 0.0 0.0 0.0 0.0 0.0 0.0 0.0 0.0 0.0 0.0 0.0 0.0 0.0 0.3 0.4 0.6 1.0 0.5 1.7 1.0 0.3 1.1 2.0 2.5 1.3 0.0 0.0 0.0 0.0 0.1 0.0 0.1 0.0 0.0 0.0 0.0 0.0 0.5 0.5 1.1 1.0 0.2 0.5 0.4 0.0
0.0 0.0 0.0 0.0 0.0 0.0 0.0 0.0 0.0 0.6 0.0 0.0 0.0 0.0 0.0 0.0 0.0 0.0 0.0 0.0 0.0 0.2 1.6 2.1 2.5 0.1 0.4 0.8 0.3 0.1 0.2 0.3 0.3 0.0 0.0 0.0 0.0 0.0 0.4 0.0 0.0 0.1 0.0 0.0 0.2 0.2 0.8 0.4 1.4 1.8 1.1 0.4 0.5 0.7
0.0 0.0 0.0 0.0 0.0 0.0 0.0 0.0 0.0 0.5 0.2 0.0 0.0 0.0 0.0 0.0 0.0 0.0 0.0 0.0 0.0 0.1 2.1 5.1 2.8 1.7 0.4 0.2 0.0 0.1 0.0 0.0 0.0 0.0 0.0 0.0 0.0 0.0 0.4 0.0 0.0 0.2 0.8 1.6 1.7 1.7 1.3 1.3 1.6 1.3 0.3 0.5 0.6 0.6
0.0 0.0 0.0 0.0 0.0 0.0 1.3 1.8 1.1 0.4 0.0 0.0 0.0 0.0 0.0 0.0 0.0 0.0 0.0 0.0 0.0 0.1 1.1 2.4 2.6 0.6 0.0 0.0 0.0 0.0 0.0 0.0 0.0 0.0 0.0 0.0 0.0 0.1 0.1 0.7 0.6 0.0 0.4 1.1 0.8 0.9 0.6 0.2 0.0 0.5 0.5 0.2 0.6 0.3
0.0 0.0 0.0 0.0 0.0 0.3 1.7 1.0 0.4 0.0 0.0 0.0 0.0 0.0 0.0 0.0 0.0 0.0 0.1 0.0 0.1 0.1 0.2 1.0 0.0 0.1 0.1 0.3 0.5 0.4 0.0 0.0 0.0 0.0 0.0 0.0 0.0 0.0 0.0 0.0 0.0 0.2 0.0 0.4 0.3 0.1 0.6 0.3 0.0 0.6 0.4 0.2 0.5 0.5
0.0 0.0 0.0 0.0 1.4 2.7 1.7 0.2 0.1 0.0 0.0 0.0 0.0 0.0 0.0 0.0 0.0 0.0 0.1 0.1 0.4 0.4 0.0 0.2 0.0 0.0 0.4 0.4 0.2 0.4 0.2 0.1 0.0 0.0 0.0 0.0 0.0 0.0 0.0 0.0 0.0 0.1 0.0 0.0 0.1 0.0 0.4 0.2 0.1 0.0 0.4 0.2 0.1 0.8
0.4 0.0 5.8 4.7 4.7 4.0 1.9 0.2 0.0 0.0 0.0 0.0 0.1 0.0 0.0 0.0 0.0 0.0 0.0 0.2 0.0 0.0 0.1 0.2 0.0 0.0 0.0 0.0 0.6 0.4 0.5 0.0 0.1 0.0 0.0 0.0 0.0 0.0 0.0 0.0 0.0 0.0 0.0 0.0 0.0 0.0 0.0 0.0 0.1 0.0 0.3 0.3 0.1 0.9
0.0 2.7 8.5 7.5 5.8 5.0 2.6 0.3 0.2 0.1 0.1 0.1 0.1 0.1 0.0 0.0 0.0 0.0 0.0 0.0 0.0 0.0 0.0 0.0 0.0 0.7 0.9 0.9 1.3 1.1 0.7 0.1 0.0 0.0 0.1 0.0 0.0 0.0 0.0 0.0 0.0 0.0 0.0 0.0 0.0 0.0 0.0 0.0 0.0 0.0 0.0 0.4 0.2 0.0
0.0 8.6 9.5 7.0 3.8 2.3 1.5 0.7 0.3 0.0 0.1 0.2 0.1 0.1 0.0 0.0 0.1 0.0 0.0 0.0 0.0 0.0 0.0 0.0 0.0 0.0 0.0 0.6 0.9 1.5 2.0 1.4 0.4 0.0 0.6 0.3 0.0 0.0 0.0 0.0 0.0 0.0 0.0 0.0 0.0 0.0 0.0 0.0 0.0 0.0 0.0 0.0 0.0 0.0
13.7 13.5 7.6 6.4 3.2 1.2 0.4 0.4 0.2 0.2 0.0 0.3 0.1 0.0 0.0 0.0 0.0 0.0 0.0 0.0 0.0 0.0 0.0 0.0 0.0 0.0 0.0 0.0 0.5 0.6 0.9 1.3 1.9 1.8 0.2 1.5 0.7 0.2 0.0 0.0 0.2 0.1 0.0 0.0 0.0 0.0 0.0 0.0 0.0 0.0 0.0 0.0 0.0 0.1
11.9 7.9 4.3 1.4 0.7 0.1 0.0 0.1 0.1 0.0 0.0 0.2 0.3 0.0 0.0 0.0 0.0 0.0 0.0 0.0 0.0 0.0 0.0 0.0 0.0 0.0 0.0 0.0 0.0 0.6 0.8 0.9 0.8 1.1 0.2 1.7 1.5 1.9 1.5 1.2 0.7 0.3 0.0 0.0 0.2 0.2 0.1 0.0 0.0 0.0 0.0 0.0 0.0 0.0
6.5 2.6 0.6 0.3 0.1 0.1 0.1 0.1 0.0 0.3 0.2 0.3 0.1 0.2 0.1 0.2 0.0 0.0 0.0 0.0 0.0 0.0 0.0 0.0 0.0 0.0 0.0 0.0 0.0 0.0 0.7 0.9 0.8 0.4 0.2 1.2 1.1 0.9 0.5 1.3 1.1 0.8 0.6 1.1 0.9 0.7 0.6 0.4 0.2 0.1 0.3 0.2 0.2 0.2
1.6 0.2 0.0 0.1 0.1 0.0 0.1 0.1 0.4 0.2 0.4 0.1 0.2 0.3 0.4 0.1 0.0 0.0 0.0 0.0 0.0 0.0 0.0 0.0 0.0 0.0 0.0 0.0 0.0 0.4 0.6 0.8 0.8 0.5 1.2 1.3 1.1 1.0 0.9 1.1 2.2 2.5 1.9 1.5 1.1 1.4 1.5 1.1 0.9 1.1 0.9 0.5 0.6 0.5
0.2 0.0 0.0 0.1 0.0 0.0 0.3 0.2 0.2 0.1 0.1 0.0 0.0 0.0 0.0 0.0 0.0 0.0 0.0 0.0 0.0 0.0 0.0 0.0 0.0 0.0 0.0 0.0 0.0 0.4 0.5 0.8 1.1 1.0 0.8 0.8 1.0 1.2 1.4 2.6 3.3 4.1 4.0 3.6 3.1 2.3 1.7 1.8 2.5 2.3 2.0 2.0 1.7 1.7
0.1 0.0 0.0 0.0 0.1 0.2 0.1 0.1 0.0 0.2 0.2 0.0 0.0 0.3 0.1 0.0 0.1 0.0 0.0 0.0 0.0 0.0 0.0 0.0 0.0 0.0 0.0 0.0 0.0 0.4 0.4 0.4 0.9 0.9 0.9 0.8 0.9 1.1 2.3 2.8 3.6 4.1 4.5 4.0 4.9 5.6 5.2 4.9 5.4 5.1 4.3 3.8 3.5 2.9
0.0 0.0 0.0 0.1 0.1 0.3 0.4 0.2 0.1 0.0 0.1 0.1 0.2 0.2 0.2 0.2 0.1 0.0 0.0 0.0 0.0 0.0 0.0 0.0 0.0 0.1 0.2 0.3 0.5 0.7 0.6 0.7 0.7 1.2 1.4 1.6 1.5 2.1 2.0 3.3 3.5 4.2 4.7 4.7 4.3 4.1 3.7 3.2 2.8 2.6 2.9 2.6 2.6 2.2
0.0 0.0 0.0 0.3 0.5 1.0 0.9 0.5 0.2 0.0 0.1 0.1 0.1 0.0 0.1 0.0 0.0 0.0 0.0 0.0 0.0 0.0 0.0 0.0 0.2 0.4 0.5 0.7 0.9 1.1 1.6 1.7 1.0 1.6 1.7 1.6 2.0 1.8 2.9 3.3 4.1 4.3 4.7 4.6 4.1 3.7 3.4 3.2 3.6 3.4 3.6 3.7 3.5 3.0
0.8 0.5 0.5 0.3 1.4 1.3 1.1 0.6 0.7 0.5 0.4 0.2 0.1 0.1 0.0 0.0 0.0 0.0 0.0 0.0 0.0 0.0 0.0 0.4 0.5 0.7 1.2 1.5 1.4 2.1 2.3 1.9 2.8 3.0 3.4 3.4 3.1 3.2 4.0 3.9 4.3 4.2 4.1 4.1 4.4 4.6 4.7 4.4 4.1 3.8 3.6 3.4 3.3 3.2

GFSWCAN_prec_snow_078.txt.gz
Snowfall_Accumulation
0.0 0.0 0.0 0.0 0.0 0.0 0.0 0.0 0.0 0.0 0.0 0.0 0.0 0.0 0.0 0.0 0.0 0.0 0.0 0.0 0.0 0.0 0.0 0.0 0.0 0.0 0.0 0.0 0.0 0.0 0.0 0.0 0.0 0.7 0.0 0.0 0.1 0.0 0.0 0.0 0.0 0.0 0.2 0.2 0.6 0.5 0.0 0.0 0.0 0.0 0.0 0.0 0.0 0.0
0.0 0.0 0.0 0.0 0.0 0.0 0.0 0.0 0.0 0.0 0.0 0.0 0.0 0.0 0.0 0.0 0.0 0.0 0.0 0.0 0.0 0.0 0.0 0.0 0.0 0.0 0.0 0.0 0.0 0.0 0.0 0.0 0.0 0.0 0.0 0.0 0.1 0.0 0.0 0.0 0.0 0.0 0.0 0.0 0.0 0.0 0.0 0.0 0.0 0.0 0.0 0.0 0.0 0.0
0.0 0.0 0.0 0.0 0.0 0.0 0.0 0.0 0.0 0.0 0.0 0.0 0.0 0.0 0.0 0.0 0.0 0.0 0.0 0.0 0.0 0.1 0.0 0.0 0.0 0.0 0.0 0.0 0.0 0.0 0.0 0.0 0.0 0.0 0.0 0.0 0.0 0.0 0.1 0.0 0.0 0.0 0.0 0.0 0.0 0.0 0.0 0.0 0.0 0.0 0.0 0.0 0.0 0.0
0.0 0.0 0.0 0.0 0.0 0.0 0.0 0.0 0.0 0.0 0.0 0.0 0.0 0.0 0.0 0.0 0.0 0.0 0.0 0.0 0.0 0.1 0.8 0.1 0.0 0.0 0.0 0.0 0.0 0.0 0.0 0.0 0.0 0.0 0.0 0.0 0.0 0.0 0.0 0.0 0.0 0.0 0.0 0.0 0.0 0.0 0.0 0.0 0.0 0.0 0.0 0.0 0.0 0.0
0.0 0.0 0.0 0.0 0.0 0.0 0.0 0.0 0.0 0.0 0.0 0.0 0.0 0.0 0.0 0.0 0.0 0.0 0.0 0.0 0.0 0.2 1.9 0.3 0.0 0.0 0.0 0.0 0.0 0.0 0.0 0.0 0.5 0.3 1.1 0.7 0.0 0.0 0.0 0.0 0.0 0.0 0.0 0.0 0.0 0.0 0.0 0.0 0.0 0.0 0.0 0.0 0.0 0.0
0.0 0.0 0.0 0.0 0.0 0.0 0.0 0.0 0.0 0.0 0.0 0.0 0.0 0.0 0.0 0.0 0.0 0.0 0.0 0.0 0.0 0.0 3.0 1.6 0.0 0.0 0.0 0.0 0.0 0.0 0.0 0.0 0.1 1.1 1.6 0.0 0.0 0.0 0.6 0.0 0.0 0.0 0.0 0.0 0.0 0.0 0.0 0.0 0.0 0.0 0.0 0.0 0.0 0.0
0.0 0.0 0.0 0.0 0.0 0.0 0.0 0.0 0.0 0.0 0.0 0.0 0.0 0.0 0.0 0.0 0.0 0.2 0.0 0.0 0.0 0.0 1.5 3.8 4.0 0.0 0.0 0.0 0.0 0.0 0.0 0.0 2.0 3.2 1.5 0.0 0.0 1.6 1.3 0.3 0.0 0.0 0.0 0.0 0.0 0.0 0.0 0.0 0.0 0.0 0.0 0.0 0.0 0.0
0.0 0.0 0.0 0.0 0.0 0.0 0.0 0.0 0.0 0.0 0.0 0.0 0.0 0.0 0.0 0.0 0.0 0.0 0.0 0.0 0.0 0.0 4.3 8.6 7.1 2.9 0.0 0.4 0.0 0.0 0.0 0.0 0.5 1.4 0.0 0.0 0.0 2.2 1.4 0.0 0.0 0.0 0.0 0.0 0.0 0.0 0.0 0.0 0.0 0.0 0.0 0.0 0.0 0.0
0.0 0.0 0.0 0.0 0.0 0.0 0.0 0.0 0.0 0.0 0.0 0.0 0.0 0.0 0.0 0.0 0.0 0.0 0.0 0.0 0.0 0.0 7.3 6.7 6.7 5.1 0.0 0.0 0.0 0.2 0.0 4.5 0.0 1.6 0.0 0.4 1.2 2.8 0.0 0.1 0.1 0.0 0.1 0.0 0.0 0.0 0.0 0.0 0.0 0.0 0.0 0.0 0.0 0.0
0.0 0.0 0.0 0.0 0.0 0.0 0.0 0.0 0.0 0.0 0.0 0.0 0.0 0.0 0.9 0.0 0.0 0.0 0.0 0.7 4.5 3.5 3.8 5.1 4.8 5.9 3.0 4.7 1.7 1.7 1.9 3.0 3.7 0.0 0.0 1.2 0.0 0.0 0.0 0.0 0.1 0.1 0.0 0.1 0.0 3.0 1.6 1.0 0.0 0.0 0.0 0.0 0.0 0.0
0.0 0.0 0.0 0.0 0.0 0.0 0.0 0.0 0.0 0.0 0.0 0.0 0.0 0.0 0.0 0.0 0.0 0.0 5.6 6.7 3.8 2.4 2.3 3.3 4.5 3.7 0.0 5.0 3.5 0.3 5.7 2.5 4.1 4.9 1.1 2.2 1.6 1.2 0.0 0.1 0.0 0.0 0.1 0.0 0.0 0.0 0.5 2.1 2.0 0.6 0.4 0.2 0.0 0.0
0.0 0.0 0.0 0.0 0.0 0.0 0.0 0.0 0.0 0.0 0.0 0.0 0.0 0.0 0.0 0.8 3.8 4.9 5.7 3.8 1.3 1.0 1.6 2.9 1.5 1.0 1.0 0.0 2.1 1.9 3.7 3.3 3.7 5.2 3.8 2.7 1.0 0.2 1.1 1.0 0.7 0.1 0.0 0.1 0.0 0.0 0.3 0.0 1.0 1.3 0.9 1.2 1.4 1.6
0.0 0.0 0.0 0.0 0.0 0.0 0.0 0.0 0.0 0.0 0.0 0.0 0.0 0.0 0.4 1.0 2.1 3.0 2.9 2.5 0.5 0.7 0.9 0.9 1.1 0.0 0.0 0.1 0.6 1.6 1.6 0.7 1.2 3.7 3.9 1.7 0.3 0.2 0.0 0.2 0.5 2.2 2.7 1.5 1.0 0.8 0.8 0.8 0.5 0.9 0.8 0.5 0.7 0.4
0.0 0.0 0.0 0.0 0.0 0.0 0.0 0.0 0.0 0.0 0.0 0.0 0.0 0.0 0.5 0.8 1.2 1.2 1.1 1.1 0.2 0.1 0.0 0.0 0.6 1.3 0.2 1.2 1.2 1.5 0.1 0.6 2.4 1.6 1.5 0.2 0.2 0.0 0.0 0.0 0.0 0.0 1.1 1.8 2.8 2.3 1.8 2.1 1.3 1.5 0.9 0.3 0.0 0.0
0.0 0.0 0.0 0.0 0.0 0.0 0.0 0.0 0.0 0.0 0.0 0.0 0.0 0.0 0.0 0.0 0.2 0.1 0.0 0.2 0.0 0.0 0.1 0.0 0.0 0.1 1.0 1.3 0.3 1.0 1.0 2.7 3.2 2.0 1.4 0.7 0.2 0.0 0.1 0.1 0.0 0.0 0.0 0.0 0.3 0.7 2.1 1.9 2.2 1.4 0.7 0.6 0.1 0.0
0.0 0.0 0.0 0.0 0.0 0.0 0.0 0.0 0.0 0.0 0.0 0.0 0.0 0.0 0.0 0.0 0.0 0.0 0.0 0.0 0.0 0.0 0.3 0.4 0.6 1.0 0.5 1.7 1.0 0.3 1.1 2.0 2.5 1.3 0.0 0.0 0.0 0.0 0.1 0.0 0.1 0.0 0.0 0.0 0.0 0.0 0.5 0.5 1.1 1.0 0.2 0.5 0.4 0.0
0.0 0.0 0.0 0.0 0.0 0.0 0.0 0.0 0.0 0.6 0.4 0.0 0.0 0.0 0.0 0.0 0.0 0.0 0.0 0.0 0.0 0.2 1.6 2.1 2.5 0.1 0.4 0.8 0.3 0.1 0.2 0.3 0.3 0.0 0.0 0.0 0.0 0.0 0.4 0.0 0.0 0.1 0.0 0.0 0.2 0.2 0.8 0.4 1.4 1.8 1.1 0.4 0.5 0.7
0.0 0.0 0.0 0.0 0.0 0.0 0.0 0.0 0.0 1.7 0.9 0.0 0.0 0.0 0.0 0.0 0.0 0.0 0.0 0.0 0.0 0.1 2.1 5.1 2.8 1.7 0.4 0.2 0.0 0.1 0.0 0.0 0.0 0.0 0.0 0.0 0.0 0.0 0.4 0.0 0.0 0.2 0.8 1.6 1.7 1.7 1.3 1.3 1.6 1.3 0.3 0.5 0.6 0.6
0.0 0.0 0.0 0.0 0.0 0.0 1.3 1.8 1.7 1.3 0.0 0.0 0.0 0.0 0.0 0.0 0.0 0.0 0.0 0.0 0.0 0.1 1.1 2.4 2.6 0.6 0.0 0.0 0.0 0.0 0.0 0.0 0.0 0.0 0.0 0.0 0.0 0.1 0.1 0.7 0.6 0.0 0.4 1.1 0.8 0.9 0.6 0.2 0.0 0.5 0.5 0.2 0.6 0.3
0.0 0.0 0.0 0.0 0.0 0.3 1.9 1.2 0.5 0.1 0.0 0.0 0.0 0.0 0.0 0.0 0.0 0.0 0.1 0.0 0.1 0.1 0.2 1.0 0.0 0.1 0.1 0.3 0.5 0.4 0.0 0.0 0.0 0.0 0.0 0.0 0.0 0.0 0.0 0.0 0.0 0.2 0.0 0.4 0.3 0.1 0.6 0.3 0.0 0.6 0.4 0.2 0.5 0.5
0.0 0.0 0.0 0.0 1.4 2.7 1.7 0.4 0.1 0.0 0.0 0.0 0.0 0.0 0.0 0.0 0.0 0.0 0.1 0.1 0.4 0.4 0.0 0.2 0.0 0.0 0.4 0.4 0.2 0.4 0.2 0.1 0.0 0.0 0.0 0.0 0.0 0.0 0.0 0.0 0.0 0.1 0.0 0.0 0.1 0.0 0.4 0.2 0.1 0.0 0.4 0.2 0.1 0.8
0.4 0.0 5.8 4.7 6.6 5.4 2.7 0.7 0.0 0.0 0.0 0.0 0.1 0.0 0.0 0.0 0.0 0.0 0.0 0.2 0.0 0.0 0.1 0.2 0.0 0.0 0.0 0.0 0.6 0.4 0.5 0.0 0.1 0.0 0.0 0.0 0.0 0.0 0.0 0.0 0.0 0.0 0.0 0.0 0.0 0.0 0.0 0.0 0.1 0.0 0.3 0.3 0.1 0.9
0.0 2.7 10.4 9.9 7.8 6.6 3.7 0.8 0.4 0.1 0.1 0.1 0.1 0.1 0.0 0.0 0.0 0.0 0.0 0.0 0.0 0.0 0.0 0.0 0.0 0.7 0.9 0.9 1.3 1.1 0.7 0.1 0.0 0.0 0.1 0.0 0.0 0.0 0.0 0.0 0.0 0.0 0.0 0.0 0.0 0.0 0.0 0.0 0.0 0.0 0.0 0.4 0.2 0.0
0.0 10.5 11.6 9.4 5.7 3.9 2.8 1.8 0.9 0.1 0.1 0.2 0.1 0.1 0.0 0.0 0.1 0.0 0.1 0.0 0.0 0.0 0.0 0.0 0.0 0.0 0.0 0.6 0.9 1.5 2.0 1.4 0.4 0.0 0.6 0.3 0.0 0.0 0.0 0.0 0.0 0.0 0.0 0.0 0.0 0.0 0.0 0.0 0.0 0.0 0.0 0.0 0.0 0.0
15.5 15.5 9.2 8.0 4.8 2.3 1.4 1.2 0.7 0.4 0.0 0.3 0.1 0.0 0.0 0.0 0.0 0.0 0.1 0.0 0.0 0.0 0.0 0.0 0.0 0.0 0.0 0.0 0.5 0.6 0.9 1.3 1.9 1.8 0.2 1.5 0.7 0.2 0.0 0.0 0.2 0.1 0.0 0.0 0.0 0.0 0.0 0.0 0.0 0.0 0.0 0.0 0.0 0.1
13.5 9.6 5.5 2.5 1.6 0.7 0.3 0.3 0.2 0.1 0.0 0.2 0.3 0.0 0.0 0.0 0.0 0.0 0.0 0.0 0.0 0.0 0.0 0.0 0.0 0.0 0.0 0.0 0.0 0.6 0.8 0.9 0.8 1.1 0.2 1.7 1.5 1.9 1.5 1.2 0.7 0.3 0.0 0.0 0.2 0.2 0.1 0.0 0.0 0.0 0.0 0.0 0.0 0.0
7.9 4.1 1.5 0.6 0.1 0.2 0.2 0.1 0.0 0.3 0.2 0.3 0.1 0.2 0.1 0.2 0.0 0.0 0.0 0.0 0.0 0.0 0.0 0.0 0.0 0.0 0.0 0.0 0.0 0.0 0.7 0.9 0.8 0.4 0.2 1.2 1.1 0.9 0.5 1.3 1.1 0.8 0.6 1.1 0.9 0.7 0.6 0.4 0.2 0.1 0.3 0.2 0.2 0.2
2.7 0.6 0.0 0.1 0.1 0.0 0.1 0.1 0.4 0.2 0.4 0.1 0.2 0.3 0.4 0.1 0.0 0.0 0.0 0.0 0.0 0.0 0.0 0.0 0.0 0.0 0.0 0.0 0.0 0.4 0.6 0.8 0.8 0.5 1.2 1.3 1.1 1.0 0.9 1.1 2.2 2.5 1.9 1.5 1.1 1.4 1.5 1.1 0.9 1.1 0.9 0.5 0.6 0.5
0.4 0.1 0.0 0.1 0.0 0.0 0.3 0.2 0.2 0.1 0.1 0.0 0.0 0.0 0.0 0.0 0.0 0.0 0.0 0.0 0.0 0.0 0.0 0.0 0.0 0.0 0.0 0.0 0.0 0.4 0.5 0.8 1.1 1.0 0.8 0.8 1.0 1.2 1.4 2.6 3.3 4.1 4.0 3.6 3.1 2.3 1.7 1.8 2.5 2.3 2.0 2.0 1.7 1.7
0.1 0.0 0.0 0.0 0.1 0.2 0.1 0.1 0.0 0.2 0.2 0.0 0.0 0.3 0.1 0.0 0.1 0.0 0.0 0.1 0.0 0.0 0.0 0.0 0.0 0.0 0.0 0.0 0.0 0.4 0.4 0.4 0.9 0.9 0.9 0.8 0.9 1.1 2.3 2.8 3.6 4.1 4.5 4.0 4.9 5.6 5.2 4.9 5.4 5.1 4.3 3.8 3.5 2.9
0.0 0.0 0.0 0.1 0.1 0.3 0.4 0.2 0.1 0.0 0.1 0.1 0.2 0.2 0.2 0.2 0.1 0.1 0.1 0.0 0.0 0.0 0.0 0.0 0.0 0.1 0.2 0.3 0.5 0.7 0.6 0.7 0.7 1.2 1.4 1.6 1.5 2.1 2.0 3.3 3.5 4.2 4.7 4.7 4.3 4.1 3.7 3.2 2.8 2.6 2.9 2.6 2.6 2.2
0.0 0.0 0.0 0.3 0.5 1.1 1.0 0.5 0.2 0.0 0.1 0.1 0.1 0.0 0.1 0.0 0.0 0.0 0.0 0.0 0.0 0.0 0.0 0.0 0.2 0.4 0.5 0.7 0.9 1.1 1.6 1.7 1.0 1.6 1.7 1.6 2.0 1.8 2.9 3.3 4.1 4.3 4.7 4.6 4.1 3.7 3.4 3.2 3.6 3.4 3.6 3.7 3.5 3.0
0.8 0.5 0.5 0.3 1.4 1.3 1.1 0.6 0.7 0.5 0.4 0.2 0.1 0.1 0.0 0.0 0.0 0.0 0.0 0.0 0.0 0.0 0.0 0.4 0.5 0.7 1.2 1.5 1.4 2.1 2.3 1.9 2.8 3.0 3.4 3.4 3.1 3.2 4.0 3.9 4.3 4.2 4.1 4.1 4.4 4.6 4.7 4.4 4.1 3.8 3.6 3.4 3.3 3.2

GFSWCAN_prec_snow_081.txt.gz
Snowfall_Accumulation
0.0 0.0 0.0 0.0 0.0 0.0 0.0 0.0 0.0 0.0 0.0 0.0 0.0 0.0 0.0 0.0 0.0 0.0 0.0 0.0 0.0 0.0 0.0 0.0 0.0 0.0 0.0 0.0 0.0 0.0 0.0 0.0 0.0 0.7 0.0 0.0 0.1 0.0 0.0 0.0 0.0 0.0 0.2 0.2 0.6 0.5 0.0 0.0 0.0 0.0 0.0 0.0 0.0 0.0
0.0 0.0 0.0 0.0 0.0 0.0 0.0 0.0 0.0 0.0 0.0 0.0 0.0 0.0 0.0 0.0 0.0 0.0 0.0 0.0 0.0 0.0 0.0 0.0 0.0 0.0 0.0 0.0 0.0 0.0 0.0 0.0 0.0 0.0 0.0 0.0 0.1 0.0 0.0 0.0 0.0 0.0 0.0 0.0 0.0 0.0 0.0 0.0 0.0 0.0 0.0 0.0 0.0 0.0
0.0 0.0 0.0 0.0 0.0 0.0 0.0 0.0 0.0 0.0 0.0 0.0 0.0 0.0 0.0 0.0 0.0 0.0 0.0 0.0 0.0 0.1 0.0 0.0 0.0 0.0 0.0 0.0 0.0 0.0 0.0 0.0 0.0 0.0 0.0 0.0 0.0 0.0 0.1 0.0 0.0 0.0 0.0 0.0 0.0 0.0 0.0 0.0 0.0 0.0 0.0 0.0 0.0 0.0
0.0 0.0 0.0 0.0 0.0 0.0 0.0 0.0 0.0 0.0 0.0 0.0 0.0 0.0 0.0 0.0 0.0 0.0 0.0 0.0 0.0 0.1 0.8 0.1 0.0 0.0 0.0 0.0 0.0 0.0 0.0 0.0 0.0 0.0 0.0 0.0 0.0 0.0 0.0 0.0 0.0 0.0 0.0 0.0 0.0 0.0 0.0 0.0 0.0 0.0 0.0 0.0 0.0 0.0
0.0 0.0 0.0 0.0 0.0 0.0 0.0 0.0 0.0 0.0 0.0 0.0 0.0 0.0 0.0 0.0 0.0 0.0 0.0 0.0 0.0 0.2 1.9 0.3 0.0 0.0 0.0 0.0 0.0 0.0 0.0 0.0 0.5 0.3 1.1 0.7 0.0 0.0 0.0 0.0 0.0 0.0 0.0 0.0 0.0 0.0 0.0 0.0 0.0 0.0 0.0 0.0 0.0 0.0
0.0 0.0 0.0 0.0 0.0 0.0 0.0 0.0 0.0 0.0 0.0 0.0 0.0 0.0 0.0 0.0 0.0 0.0 0.0 0.0 0.0 0.0 3.0 1.6 0.0 0.0 0.0 0.0 0.0 0.0 0.0 0.0 0.1 1.1 1.6 0.0 0.0 0.0 0.6 0.0 0.0 0.0 0.0 0.0 0.0 0.0 0.0 0.0 0.0 0.0 0.0 0.0 0.0 0.0
0.0 0.0 0.0 0.0 0.0 0.0 0.0 0.0 0.0 0.0 0.0 0.0 0.0 0.0 0.0 0.0 0.0 0.2 0.0 0.0 0.0 0.0 1.5 3.8 4.0 0.0 0.0 0.0 0.0 0.0 0.0 0.0 2.0 3.2 1.5 0.0 0.0 1.6 1.3 0.3 0.0 0.0 0.0 0.0 0.0 0.0 0.0 0.0 0.0 0.0 0.0 0.0 0.0 0.0
0.0 0.0 0.0 0.0 0.0 0.0 0.0 0.0 0.0 0.0 0.0 0.0 0.0 0.0 0.0 0.0 0.0 0.0 0.0 0.0 0.0 0.0 4.3 8.6 7.1 2.9 0.0 0.4 0.0 0.0 0.0 0.0 0.5 1.4 0.0 0.0 0.0 2.2 1.4 0.0 0.0 0.0 0.0 0.0 0.0 0.0 0.0 0.0 0.0 0.0 0.0 0.0 0.0 0.0
0.0 0.0 0.0 0.0 0.0 0.0 0.0 0.0 0.0 0.0 0.0 0.0 0.0 0.0 0.0 0.0 0.0 0.0 0.0 0.0 0.0 0.0 7.3 6.7 6.7 5.1 0.0 0.0 0.0 0.2 0.0 4.5 0.0 1.6 0.0 0.4 1.2 2.8 0.0 0.1 0.1 0.0 0.1 0.0 0.0 0.0 0.0 0.0 0.0 0.0 0.0 0.0 0.0 0.0
0.0 0.0 0.0 0.0 0.0 0.0 0.0 0.0 0.0 0.0 0.0 0.0 0.0 0.0 0.9 0.0 0.0 0.0 0.0 0.7 4.5 3.5 3.8 5.1 4.8 5.9 3.0 4.7 1.7 1.7 1.9 3.0 3.7 0.0 0.0 1.2 0.0 0.0 0.0 0.0 0.1 0.1 0.0 0.1 0.0 3.0 1.6 1.0 0.0 0.0 0.0 0.0 0.0 0.0
0.0 0.0 0.0 0.0 0.0 0.0 0.0 0.0 0.0 0.0 0.0 0.0 0.0 0.0 0.0 0.0 0.0 0.0 5.6 6.7 3.8 2.4 2.3 3.3 4.5 3.7 0.0 5.0 3.5 0.3 5.7 2.5 4.1 4.9 1.1 2.2 1.6 1.2 0.0 0.1 0.0 0.0 0.1 0.0 0.0 0.0 0.5 2.1 2.0 0.6 0.4 0.2 0.0 0.0
0.0 0.0 0.0 0.0 0.0 0.0 0.0 0.0 0.0 0.0 0.0 0.0 0.0 0.0 0.0 0.8 3.8 4.9 5.7 3.8 1.3 1.0 1.6 2.9 1.5 1.0 1.0 0.0 2.1 1.9 3.7 3.3 3.7 5.2 3.8 2.7 1.0 0.2 1.1 1.0 0.7 0.1 0.0 0.1 0.0 0.0 0.3 0.0 1.0 1.3 0.9 1.2 1.4 1.6
0.0 0.0 0.0 0.0 0.0 0.0 0.0 0.0 0.0 0.0 0.0 0.0 0.0 0.0 0.4 1.0 2.1 3.0 2.9 2.5 0.5 0.7 0.9 0.9 1.1 0.0 0.0 0.1 0.6 1.6 1.6 0.7 1.2 3.7 3.9 1.7 0.3 0.2 0.0 0.2 0.5 2.2 2.7 1.5 1.0 0.8 0.8 0.8 0.5 0.9 0.8 0.5 0.7 0.4
0.0 0.0 0.0 0.0 0.0 0.0 0.0 0.0 0.0 0.0 0.0 0.0 0.0 0.0 0.5 0.8 1.2 1.2 1.1 1.1 0.2 0.1 0.0 0.0 0.6 1.3 0.2 1.2 1.2 1.5 0.1 0.6 2.4 1.6 1.5 0.2 0.2 0.0 0.0 0.0 0.0 0.0 1.1 1.8 2.8 2.3 1.8 2.1 1.3 1.5 0.9 0.3 0.0 0.0
0.0 0.0 0.0 0.0 0.0 0.0 0.0 0.0 0.0 0.0 0.0 0.0 0.0 0.0 0.0 0.0 0.2 0.1 0.0 0.2 0.0 0.0 0.1 0.0 0.0 0.1 1.0 1.3 0.3 1.0 1.0 2.7 3.2 2.0 1.4 0.7 0.2 0.0 0.1 0.1 0.0 0.0 0.0 0.0 0.3 0.7 2.1 1.9 2.2 1.4 0.7 0.6 0.1 0.0
0.0 0.0 0.0 0.0 0.0 0.0 0.0 0.0 0.0 0.0 0.0 0.0 0.0 0.0 0.0 0.0 0.0 0.0 0.0 0.0 0.0 0.0 0.3 0.4 0.6 1.0 0.5 1.7 1.0 0.3 1.1 2.0 2.5 1.3 0.0 0.0 0.0 0.0 0.1 0.0 0.1 0.0 0.0 0.0 0.0 0.0 0.5 0.5 1.1 1.0 0.2 0.5 0.4 0.0
0.0 0.0 0.0 0.0 0.0 0.0 0.0 0.0 0.0 0.6 0.4 0.0 0.0 0.0 0.0 0.0 0.0 0.0 0.0 0.0 0.0 0.2 1.6 2.1 2.5 0.1 0.4 0.8 0.3 0.1 0.2 0.3 0.3 0.0 0.0 0.0 0.0 0.0 0.4 0.0 0.0 0.1 0.0 0.0 0.2 0.2 0.8 0.4 1.4 1.8 1.1 0.4 0.5 0.7
0.0 0.0 0.0 0.0 0.0 0.0 0.0 0.0 0.0 2.4 1.1 0.1 0.0 0.0 0.0 0.0 0.0 0.0 0.0 0.0 0.0 0.1 2.1 5.1 2.8 1.7 0.4 0.2 0.0 0.1 0.0 0.0 0.0 0.0 0.0 0.0 0.0 0.0 0.4 0.0 0.0 0.2 0.8 1.6 1.7 1.7 1.3 1.3 1.6 1.3 0.3 0.5 0.6 0.6
0.0 0.0 0.0 0.0 0.0 0.0 1.3 1.8 1.7 1.9 0.0 0.0 0.0 0.0 0.0 0.0 0.0 0.0 0.0 0.0 0.0 0.1 1.1 2.4 2.6 0.6 0.0 0.0 0.0 0.0 0.0 0.0 0.0 0.0 0.0 0.0 0.0 0.1 0.1 0.7 0.6 0.0 0.4 1.1 0.8 0.9 0.6 0.2 0.0 0.5 0.5 0.2 0.6 0.3
0.0 0.0 0.0 0.0 0.0 0.3 2.0 1.5 0.7 0.2 0.1 0.0 0.0 0.0 0.0 0.0 0.0 0.0 0.1 0.0 0.1 0.1 0.2 1.0 0.0 0.1 0.1 0.3 0.5 0.4 0.0 0.0 0.0 0.0 0.0 0.0 0.0 0.0 0.0 0.0 0.0 0.2 0.0 0.4 0.3 0.1 0.6 0.3 0.0 0.6 0.4 0.2 0.5 0.5
0.0 0.0 0.0 0.0 1.4 2.7 1.7 0.6 0.1 0.0 0.0 0.0 0.0 0.0 0.0 0.0 0.0 0.0 0.1 0.1 0.4 0.4 0.0 0.2 0.0 0.0 0.4 0.4 0.2 0.4 0.2 0.1 0.0 0.0 0.0 0.0 0.0 0.0 0.0 0.0 0.0 0.1 0.0 0.0 0.1 0.0 0.4 0.2 0.1 0.0 0.4 0.2 0.1 0.8
0.4 0.0 5.8 4.7 6.6 6.9 3.5 1.0 0.0 0.0 0.0 0.0 0.1 0.0 0.0 0.0 0.0 0.0 0.0 0.2 0.0 0.0 0.1 0.2 0.0 0.0 0.0 0.0 0.6 0.4 0.5 0.0 0.1 0.0 0.0 0.0 0.0 0.0 0.0 0.0 0.0 0.0 0.0 0.0 0.0 0.0 0.0 0.0 0.1 0.0 0.3 0.3 0.1 0.9
0.0 2.7 12.2 12.2 9.3 7.8 4.7 0.8 0.4 0.1 0.1 0.1 0.1 0.1 0.0 0.0 0.0 0.0 0.0 0.0 0.0 0.0 0.0 0.0 0.0 0.7 0.9 0.9 1.3 1.1 0.7 0.1 0.0 0.0 0.1 0.0 0.0 0.0 0.0 0.0 0.0 0.0 0.0 0.0 0.0 0.0 0.0 0.0 0.0 0.0 0.0 0.4 0.2 0.0
0.0 11.8 13.2 11.3 7.2 4.8 3.4 2.3 1.2 0.1 0.4 0.2 0.1 0.1 0.0 0.0 0.1 0.0 0.1 0.0 0.0 0.0 0.0 0.0 0.0 0.0 0.0 0.6 0.9 1.5 2.0 1.4 0.4 0.0 0.6 0.3 0.0 0.0 0.0 0.0 0.0 0.0 0.0 0.0 0.0 0.0 0.0 0.0 0.0 0.0 0.0 0.0 0.0 0.0
17.9 17.6 11.2 10.0 6.1 2.8 1.6 1.4 0.7 0.7 0.2 0.4 0.1 0.0 0.0 0.0 0.0 0.0 0.1 0.0 0.0 0.0 0.0 0.0 0.0 0.0 0.0 0.0 0.5 0.6 0.9 1.3 1.9 1.8 0.2 1.5 0.7 0.2 0.0 0.0 0.2 0.1 0.0 0.0 0.0 0.0 0.0 0.0 0.0 0.0 0.0 0.0 0.0 0.1
15.8 11.2 6.5 2.9 1.6 0.7 0.3 0.3 0.3 0.1 0.0 0.2 0.3 0.0 0.0 0.0 0.0 0.0 0.0 0.0 0.0 0.0 0.0 0.0 0.0 0.0 0.0 0.0 0.0 0.6 0.8 0.9 0.8 1.1 0.2 1.7 1.5 1.9 1.5 1.2 0.7 0.3 0.0 0.0 0.2 0.2 0.1 0.0 0.0 0.0 0.0 0.0 0.0 0.0
9.4 5.4 2.4 0.6 0.1 0.2 0.2 0.1 0.0 0.3 0.2 0.3 0.1 0.2 0.1 0.2 0.0 0.0 0.0 0.0 0.0 0.0 0.0 0.0 0.0 0.0 0.0 0.0 0.0 0.0 0.7 0.9 0.8 0.4 0.2 1.2 1.1 0.9 0.5 1.3 1.1 0.8 0.6 1.1 0.9 0.7 0.6 0.4 0.2 0.1 0.3 0.2 0.2 0.2
3.4 0.8 0.0 0.1 0.1 0.0 0.1 0.1 0.4 0.2 0.4 0.1 0.2 0.3 0.4 0.1 0.0 0.0 0.0 0.0 0.0 0.0 0.0 0.0 0.0 0.0 0.0 0.0 0.0 0.4 0.6 0.8 0.8 0.5 1.2 1.3 1.1 1.0 0.9 1.1 2.2 2.5 1.9 1.5 1.1 1.4 1.5 1.1 0.9 1.1 0.9 0.5 0.6 0.5
0.6 0.1 0.0 0.1 0.0 0.0 0.3 0.2 0.2 0.1 0.1 0.0 0.0 0.0 0.0 0.0 0.0 0.0 0.0 0.0 0.0 0.0 0.0 0.0 0.0 0.0 0.0 0.0 0.0 0.4 0.5 0.8 1.1 1.0 0.8 0.8 1.0 1.2 1.4 2.6 3.3 4.1 4.0 3.6 3.1 2.3 1.7 1.8 2.5 2.3 2.0 2.0 1.7 1.7
0.2 0.0 0.0 0.0 0.1 0.2 0.1 0.1 0.0 0.2 0.2 0.0 0.0 0.3 0.1 0.0 0.1 0.0 0.0 0.1 0.0 0.0 0.0 0.0 0.0 0.0 0.0 0.0 0.0 0.4 0.4 0.4 0.9 0.9 0.9 0.8 0.9 1.1 2.3 2.8 3.6 4.1 4.5 4.0 4.9 5.6 5.2 4.9 5.4 5.1 4.3 3.8 3.5 2.9
0.0 0.0 0.0 0.1 0.1 0.3 0.4 0.2 0.1 0.0 0.1 0.1 0.2 0.2 0.2 0.2 0.1 0.1 0.1 0.0 0.0 0.0 0.0 0.0 0.0 0.1 0.2 0.3 0.5 0.7 0.6 0.7 0.7 1.2 1.4 1.6 1.5 2.1 2.0 3.3 3.5 4.2 4.7 4.7 4.3 4.1 3.7 3.2 2.8 2.6 2.9 2.6 2.6 2.2
0.0 0.0 0.0 0.3 0.5 1.1 1.0 0.5 0.2 0.0 0.1 0.1 0.1 0.0 0.1 0.0 0.0 0.0 0.0 0.0 0.0 0.0 0.0 0.0 0.2 0.4 0.5 0.7 0.9 1.1 1.6 1.7 1.0 1.6 1.7 1.6 2.0 1.8 2.9 3.3 4.1 4.3 4.7 4.6 4.1 3.7 3.4 3.2 3.6 3.4 3.6 3.7 3.5 3.0
0.8 0.5 0.5 0.3 1.4 1.3 1.1 0.6 0.7 0.5 0.4 0.2 0.1 0.1 0.0 0.0 0.0 0.0 0.0 0.0 0.0 0.0 0.0 0.4 0.5 0.7 1.2 1.5 1.4 2.1 2.3 1.9 2.8 3.0 3.4 3.4 3.1 3.2 4.0 3.9 4.3 4.2 4.1 4.1 4.4 4.6 4.7 4.4 4.1 3.8 3.6 3.4 3.3 3.2

GFSWCAN_prec_snow_084.txt.gz
Snowfall_Accumulation
0.0 0.0 0.0 0.0 0.0 0.0 0.0 0.0 0.0 0.0 0.0 0.0 0.0 0.0 0.0 0.0 0.0 0.0 0.0 0.0 0.0 0.0 0.0 0.0 0.0 0.0 0.0 0.0 0.0 0.0 0.0 0.0 0.0 0.7 0.0 0.0 0.1 0.0 0.0 0.0 0.0 0.0 0.2 0.2 0.6 0.5 0.0 0.0 0.0 0.0 0.0 0.0 0.0 0.0
0.0 0.0 0.0 0.0 0.0 0.0 0.0 0.0 0.0 0.0 0.0 0.0 0.0 0.0 0.0 0.0 0.0 0.0 0.0 0.0 0.0 0.0 0.0 0.0 0.0 0.0 0.0 0.0 0.0 0.0 0.0 0.0 0.0 0.0 0.0 0.0 0.1 0.0 0.0 0.0 0.0 0.0 0.0 0.0 0.0 0.0 0.0 0.0 0.0 0.0 0.0 0.0 0.0 0.0
0.0 0.0 0.0 0.0 0.0 0.0 0.0 0.0 0.0 0.0 0.0 0.0 0.0 0.0 0.0 0.0 0.0 0.0 0.0 0.0 0.0 0.1 0.0 0.0 0.0 0.0 0.0 0.0 0.0 0.0 0.0 0.0 0.0 0.0 0.0 0.0 0.0 0.0 0.1 0.0 0.0 0.0 0.0 0.0 0.0 0.0 0.0 0.0 0.0 0.0 0.0 0.0 0.0 0.0
0.0 0.0 0.0 0.0 0.0 0.0 0.0 0.0 0.0 0.0 0.0 0.0 0.0 0.0 0.0 0.0 0.0 0.0 0.0 0.0 0.0 0.1 0.8 0.1 0.0 0.0 0.0 0.0 0.0 0.0 0.0 0.0 0.0 0.0 0.0 0.0 0.0 0.0 0.0 0.0 0.0 0.0 0.0 0.0 0.0 0.0 0.0 0.0 0.0 0.0 0.0 0.0 0.0 0.0
0.0 0.0 0.0 0.0 0.0 0.0 0.0 0.0 0.0 0.0 0.0 0.0 0.0 0.0 0.0 0.0 0.0 0.0 0.0 0.0 0.0 0.2 1.9 0.3 0.0 0.0 0.0 0.0 0.0 0.0 0.0 0.0 0.5 0.3 1.1 0.7 0.0 0.0 0.0 0.0 0.0 0.0 0.0 0.0 0.0 0.0 0.0 0.0 0.0 0.0 0.0 0.0 0.0 0.0
0.0 0.0 0.0 0.0 0.0 0.0 0.0 0.0 0.0 0.0 0.0 0.0 0.0 0.0 0.0 0.0 0.0 0.0 0.0 0.0 0.0 0.0 3.0 1.6 0.0 0.0 0.0 0.0 0.0 0.0 0.0 0.0 0.1 1.1 1.6 0.0 0.0 0.0 0.6 0.0 0.0 0.0 0.0 0.0 0.0 0.0 0.0 0.0 0.0 0.0 0.0 0.0 0.0 0.0
0.0 0.0 0.0 0.0 0.0 0.0 0.0 0.0 0.0 0.0 0.0 0.0 0.0 0.0 0.0 0.0 0.0 0.2 0.0 0.0 0.0 0.0 1.5 3.8 4.0 0.0 0.0 0.0 0.0 0.0 0.0 0.0 2.0 3.2 1.5 0.0 0.0 1.6 1.3 0.3 0.0 0.0 0.0 0.0 0.0 0.0 0.0 0.0 0.0 0.0 0.0 0.0 0.0 0.0
0.0 0.0 0.0 0.0 0.0 0.0 0.0 0.0 0.0 0.0 0.0 0.0 0.0 0.0 0.0 0.0 0.0 0.0 0.0 0.0 0.0 0.0 4.3 8.6 7.1 2.9 0.0 0.4 0.0 0.0 0.0 0.0 0.5 1.4 0.0 0.0 0.0 2.2 1.4 0.0 0.0 0.0 0.0 0.0 0.0 0.0 0.0 0.0 0.0 0.0 0.0 0.0 0.0 0.0
0.0 0.0 0.0 0.0 0.0 0.0 0.0 0.0 0.0 0.0 0.0 0.0 0.0 0.0 0.0 0.0 0.0 0.0 0.0 0.0 0.0 0.0 7.3 6.7 6.7 5.1 0.0 0.0 0.0 0.2 0.0 4.5 0.0 1.6 0.0 0.4 1.2 2.8 0.0 0.1 0.1 0.0 0.1 0.0 0.0 0.0 0.0 0.0 0.0 0.0 0.0 0.0 0.0 0.0
0.0 0.0 0.0 0.0 0.0 0.0 0.0 0.0 0.0 0.0 0.0 0.0 0.0 0.0 0.9 0.0 0.0 0.0 0.0 0.7 4.5 3.5 3.8 5.1 4.8 5.9 3.0 4.7 1.7 1.7 1.9 3.0 3.7 0.0 0.0 1.2 0.0 0.0 0.0 0.0 0.1 0.1 0.0 0.1 0.0 3.0 1.6 1.0 0.0 0.0 0.0 0.0 0.0 0.0
0.0 0.0 0.0 0.0 0.0 0.0 0.0 0.0 0.0 0.0 0.0 0.0 0.0 0.0 0.0 0.0 0.0 0.0 5.6 6.7 3.8 2.4 2.3 3.3 4.5 3.7 0.0 5.0 3.5 0.3 5.7 2.5 4.1 4.9 1.1 2.2 1.6 1.2 0.0 0.1 0.0 0.0 0.1 0.0 0.0 0.0 0.5 2.1 2.0 0.6 0.4 0.2 0.0 0.0
0.0 0.0 0.0 0.0 0.0 0.0 0.0 0.0 0.0 0.0 0.0 0.0 0.0 0.0 0.0 0.8 3.8 4.9 5.7 3.8 1.3 1.0 1.6 2.9 1.5 1.0 1.0 0.0 2.1 1.9 3.7 3.3 3.7 5.2 3.8 2.7 1.0 0.2 1.1 1.0 0.7 0.1 0.0 0.1 0.0 0.0 0.3 0.0 1.0 1.3 0.9 1.2 1.4 1.6
0.0 0.0 0.0 0.0 0.0 0.0 0.0 0.0 0.0 0.0 0.0 0.0 0.0 0.0 0.4 1.0 2.1 3.0 2.9 2.5 0.5 0.7 0.9 0.9 1.1 0.0 0.0 0.1 0.6 1.6 1.6 0.7 1.2 3.7 3.9 1.7 0.3 0.2 0.0 0.2 0.5 2.2 2.7 1.5 1.0 0.8 0.8 0.8 0.5 0.9 0.8 0.5 0.7 0.4
0.0 0.0 0.0 0.0 0.0 0.0 0.0 0.0 0.0 0.0 0.0 0.0 0.0 0.0 0.5 0.8 1.2 1.2 1.1 1.1 0.2 0.1 0.0 0.0 0.6 1.3 0.2 1.2 1.2 1.5 0.1 0.6 2.4 1.6 1.5 0.2 0.2 0.0 0.0 0.0 0.0 0.0 1.1 1.8 2.8 2.3 1.8 2.1 1.3 1.5 0.9 0.3 0.0 0.0
0.0 0.0 0.0 0.0 0.0 0.0 0.0 0.0 0.0 0.0 0.0 0.0 0.0 0.0 0.0 0.0 0.2 0.1 0.0 0.2 0.0 0.0 0.1 0.0 0.0 0.1 1.0 1.3 0.3 1.0 1.0 2.7 3.2 2.0 1.4 0.7 0.2 0.0 0.1 0.1 0.0 0.0 0.0 0.0 0.3 0.7 2.1 1.9 2.2 1.4 0.7 0.6 0.1 0.0
0.0 0.0 0.0 0.0 0.0 0.0 0.0 0.0 0.0 0.0 0.0 0.0 0.0 0.0 0.0 0.0 0.0 0.0 0.0 0.0 0.0 0.0 0.3 0.4 0.6 1.0 0.5 1.7 1.0 0.3 1.1 2.0 2.5 1.3 0.0 0.0 0.0 0.0 0.1 0.0 0.1 0.0 0.0 0.0 0.0 0.0 0.5 0.5 1.1 1.0 0.2 0.5 0.4 0.0
0.0 0.0 0.0 0.0 0.0 0.0 0.0 0.0 0.0 0.6 0.4 0.0 0.0 0.0 0.0 0.0 0.0 0.0 0.0 0.0 0.0 0.2 1.6 2.1 2.5 0.1 0.4 0.8 0.3 0.1 0.2 0.3 0.3 0.0 0.0 0.0 0.0 0.0 0.4 0.0 0.0 0.1 0.0 0.0 0.2 0.2 0.8 0.4 1.4 1.8 1.1 0.4 0.5 0.7
0.0 0.0 0.0 0.0 0.0 0.0 0.0 0.0 0.0 2.7 1.5 0.1 0.0 0.0 0.0 0.0 0.0 0.0 0.0 0.0 0.0 0.1 2.1 5.1 2.8 1.7 0.4 0.2 0.0 0.1 0.0 0.0 0.0 0.0 0.0 0.0 0.0 0.0 0.4 0.0 0.0 0.2 0.8 1.6 1.7 1.7 1.3 1.3 1.6 1.3 0.3 0.5 0.6 0.6
0.0 0.0 0.0 0.0 0.0 0.0 1.3 1.8 1.7 2.5 0.0 0.0 0.0 0.0 0.0 0.0 0.0 0.0 0.0 0.0 0.0 0.1 1.1 2.4 2.6 0.6 0.0 0.0 0.0 0.0 0.0 0.0 0.0 0.0 0.0 0.0 0.0 0.1 0.1 0.7 0.6 0.0 0.4 1.1 0.8 0.9 0.6 0.2 0.0 0.5 0.5 0.2 0.6 0.3
0.0 0.0 0.0 0.0 0.0 0.3 2.3 1.7 0.7 0.4 0.2 0.0 0.0 0.0 0.0 0.0 0.0 0.0 0.1 0.0 0.1 0.1 0.2 1.0 0.0 0.1 0.1 0.3 0.5 0.4 0.0 0.0 0.0 0.0 0.0 0.0 0.0 0.0 0.0 0.0 0.0 0.2 0.0 0.4 0.3 0.1 0.6 0.3 0.0 0.6 0.4 0.2 0.5 0.5
0.0 0.0 0.0 0.0 1.4 2.7 1.7 0.6 0.1 0.0 0.0 0.0 0.0 0.0 0.0 0.0 0.0 0.0 0.1 0.1 0.4 0.4 0.0 0.2 0.0 0.0 0.4 0.4 0.2 0.4 0.2 0.1 0.0 0.0 0.0 0.0 0.0 0.0 0.0 0.0 0.0 0.1 0.0 0.0 0.1 0.0 0.4 0.2 0.1 0.0 0.4 0.2 0.1 0.8
0.4 0.0 5.8 4.7 9.0 6.9 3.5 1.0 0.0 0.0 0.0 0.0 0.1 0.0 0.0 0.0 0.0 0.0 0.0 0.2 0.0 0.0 0.1 0.2 0.0 0.0 0.0 0.0 0.6 0.4 0.5 0.0 0.1 0.0 0.0 0.0 0.0 0.0 0.0 0.0 0.0 0.0 0.0 0.0 0.0 0.0 0.0 0.0 0.1 0.0 0.3 0.3 0.1 0.9
0.0 2.7 16.0 15.1 11.4 9.4 5.5 0.8 0.4 0.1 0.1 0.1 0.1 0.1 0.0 0.0 0.0 0.0 0.0 0.0 0.0 0.0 0.0 0.0 0.0 0.7 0.9 0.9 1.3 1.1 0.7 0.1 0.0 0.0 0.1 0.0 0.0 0.0 0.0 0.0 0.0 0.0 0.0 0.0 0.0 0.0 0.0 0.0 0.0 0.0 0.0 0.4 0.2 0.0
0.0 15.5 16.4 14.0 8.7 5.6 3.8 2.7 1.6 0.1 0.6 0.2 0.1 0.1 0.0 0.0 0.1 0.0 0.1 0.0 0.0 0.0 0.0 0.0 0.0 0.0 0.0 0.6 0.9 1.5 2.0 1.4 0.4 0.0 0.6 0.3 0.0 0.0 0.0 0.0 0.0 0.0 0.0 0.0 0.0 0.0 0.0 0.0 0.0 0.0 0.0 0.0 0.0 0.0
21.2 21.2 14.0 11.8 7.2 3.1 1.7 1.5 0.7 0.7 0.4 0.4 0.1 0.0 0.0 0.0 0.0 0.0 0.1 0.0 0.0 0.0 0.0 0.0 0.0 0.0 0.0 0.0 0.5 0.6 0.9 1.3 1.9 1.8 0.2 1.5 0.7 0.2 0.0 0.0 0.2 0.1 0.0 0.0 0.0 0.0 0.0 0.0 0.0 0.0 0.0 0.0 0.0 0.1
18.5 13.0 7.3 3.2 1.7 0.7 0.3 0.3 0.3 0.1 0.0 0.2 0.3 0.0 0.0 0.0 0.0 0.0 0.0 0.0 0.0 0.0 0.0 0.0 0.0 0.0 0.0 0.0 0.0 0.6 0.8 0.9 0.8 1.1 0.2 1.7 1.5 1.9 1.5 1.2 0.7 0.3 0.0 0.0 0.2 0.2 0.1 0.0 0.0 0.0 0.0 0.0 0.0 0.0
11.5 6.5 2.8 0.6 0.1 0.2 0.2 0.1 0.0 0.3 0.2 0.3 0.1 0.2 0.1 0.2 0.0 0.0 0.0 0.0 0.0 0.0 0.0 0.0 0.0 0.0 0.0 0.0 0.0 0.0 0.7 0.9 0.8 0.4 0.2 1.2 1.1 0.9 0.5 1.3 1.1 0.8 0.6 1.1 0.9 0.7 0.6 0.4 0.2 0.1 0.3 0.2 0.2 0.2
4.2 1.0 0.0 0.2 0.1 0.0 0.1 0.1 0.4 0.2 0.4 0.1 0.2 0.3 0.4 0.1 0.0 0.0 0.0 0.0 0.0 0.0 0.0 0.0 0.0 0.0 0.0 0.0 0.0 0.4 0.6 0.8 0.8 0.5 1.2 1.3 1.1 1.0 0.9 1.1 2.2 2.5 1.9 1.5 1.1 1.4 1.5 1.1 0.9 1.1 0.9 0.5 0.6 0.5
0.8 0.1 0.0 0.1 0.0 0.0 0.3 0.2 0.2 0.1 0.1 0.0 0.0 0.0 0.0 0.0 0.0 0.0 0.0 0.0 0.0 0.0 0.0 0.0 0.0 0.0 0.0 0.0 0.0 0.4 0.5 0.8 1.1 1.0 0.8 0.8 1.0 1.2 1.4 2.6 3.3 4.1 4.0 3.6 3.1 2.3 1.7 1.8 2.5 2.3 2.0 2.0 1.7 1.7
0.2 0.0 0.0 0.0 0.1 0.2 0.1 0.1 0.0 0.2 0.2 0.0 0.0 0.3 0.1 0.0 0.1 0.0 0.0 0.1 0.0 0.0 0.0 0.0 0.0 0.0 0.0 0.0 0.0 0.6 0.4 0.4 0.9 0.9 0.9 0.8 0.9 1.2 2.3 2.8 3.6 4.1 4.5 4.0 4.9 5.6 5.2 4.9 5.4 5.1 4.3 3.8 3.5 2.9
0.0 0.0 0.0 0.1 0.1 0.3 0.4 0.2 0.1 0.0 0.1 0.1 0.2 0.2 0.2 0.2 0.1 0.1 0.1 0.0 0.0 0.0 0.0 0.0 0.0 0.1 0.2 0.3 0.5 0.7 0.6 0.7 0.7 1.2 1.4 1.7 1.5 2.1 2.0 3.3 3.5 4.2 4.7 4.7 4.3 4.1 3.7 3.2 2.8 2.6 2.9 2.6 2.6 2.2
0.0 0.0 0.0 0.3 0.5 1.1 1.0 0.5 0.2 0.0 0.1 0.1 0.1 0.0 0.1 0.0 0.0 0.0 0.0 0.0 0.0 0.0 0.0 0.0 0.2 0.4 0.5 0.7 0.9 1.1 1.7 1.7 1.0 1.7 1.7 1.7 2.0 1.8 2.9 3.3 4.1 4.3 4.7 4.6 4.1 3.7 3.4 3.2 3.6 3.4 3.6 3.7 3.5 3.0
0.8 0.5 0.5 0.3 1.4 1.3 1.1 0.6 0.7 0.5 0.4 0.2 0.1 0.1 0.0 0.0 0.0 0.0 0.0 0.0 0.0 0.0 0.0 0.4 0.5 0.7 1.2 1.5 1.4 2.1 2.3 2.0 2.9 3.1 3.5 3.4 3.1 3.2 4.0 3.9 4.3 4.2 4.1 4.1 4.4 4.6 4.7 4.4 4.1 3.8 3.6 3.4 3.3 3.2

GFSWCAN_prec_snow_087.txt.gz
Snowfall_Accumulation
0.0 0.0 0.0 0.0 0.0 0.0 0.0 0.0 0.0 0.0 0.0 0.0 0.0 0.0 0.0 0.0 0.0 0.0 0.0 0.0 0.0 0.0 0.0 0.0 0.0 0.0 0.0 0.0 0.0 0.0 0.0 0.0 0.0 0.7 0.0 0.0 0.1 0.0 0.0 0.0 0.0 0.0 0.2 0.2 0.6 0.5 0.0 0.0 0.0 0.0 0.0 0.0 0.0 0.0
0.0 0.0 0.0 0.0 0.0 0.0 0.0 0.0 0.0 0.0 0.0 0.0 0.0 0.0 0.0 0.0 0.0 0.0 0.0 0.0 0.0 0.0 0.0 0.0 0.0 0.0 0.0 0.0 0.0 0.0 0.0 0.0 0.0 0.0 0.0 0.0 0.1 0.0 0.0 0.0 0.0 0.0 0.0 0.0 0.0 0.0 0.0 0.0 0.0 0.0 0.0 0.0 0.0 0.0
0.0 0.0 0.0 0.0 0.0 0.0 0.0 0.0 0.0 0.0 0.0 0.0 0.0 0.0 0.0 0.0 0.0 0.0 0.0 0.0 0.0 0.1 0.0 0.0 0.0 0.0 0.0 0.0 0.0 0.0 0.0 0.0 0.0 0.0 0.0 0.0 0.0 0.0 0.1 0.0 0.0 0.0 0.0 0.0 0.0 0.0 0.0 0.0 0.0 0.0 0.0 0.0 0.0 0.0
0.0 0.0 0.0 0.0 0.0 0.0 0.0 0.0 0.0 0.0 0.0 0.0 0.0 0.0 0.0 0.0 0.0 0.0 0.0 0.0 0.0 0.1 0.8 0.1 0.0 0.0 0.0 0.0 0.0 0.0 0.0 0.0 0.0 0.0 0.0 0.0 0.0 0.0 0.0 0.0 0.0 0.0 0.0 0.0 0.0 0.0 0.0 0.0 0.0 0.0 0.0 0.0 0.0 0.0
0.0 0.0 0.0 0.0 0.0 0.0 0.0 0.0 0.0 0.0 0.0 0.0 0.0 0.0 0.0 0.0 0.0 0.0 0.0 0.0 0.0 0.2 1.9 0.3 0.0 0.0 0.0 0.0 0.0 0.0 0.0 0.0 0.5 0.3 1.1 0.7 0.0 0.0 0.0 0.0 0.0 0.0 0.0 0.0 0.0 0.0 0.0 0.0 0.0 0.0 0.0 0.0 0.0 0.0
0.0 0.0 0.0 0.0 0.0 0.0 0.0 0.0 0.0 0.0 0.0 0.0 0.0 0.0 0.0 0.0 0.0 0.0 0.0 0.0 0.0 0.0 3.0 1.6 0.0 0.0 0.0 0.0 0.0 0.0 0.0 0.0 0.1 1.1 1.6 0.0 0.0 0.0 0.6 0.0 0.0 0.0 0.0 0.0 0.0 0.0 0.0 0.0 0.0 0.0 0.0 0.0 0.0 0.0
0.0 0.0 0.0 0.0 0.0 0.0 0.0 0.0 0.0 0.0 0.0 0.0 0.0 0.0 0.0 0.0 0.0 0.2 0.0 0.0 0.0 0.0 1.5 3.8 4.0 0.0 0.0 0.0 0.0 0.0 0.0 0.0 2.0 3.2 1.5 0.0 0.0 1.6 1.3 0.3 0.0 0.0 0.0 0.0 0.0 0.0 0.0 0.0 0.0 0.0 0.0 0.0 0.0 0.0
0.0 0.0 0.0 0.0 0.0 0.0 0.0 0.0 0.0 0.0 0.0 0.0 0.0 0.0 0.0 0.0 0.0 0.0 0.0 0.0 0.0 0.0 4.3 8.6 7.1 2.9 0.0 0.4 0.0 0.0 0.0 0.0 0.5 1.4 0.0 0.0 0.0 2.2 1.4 0.0 0.0 0.0 0.0 0.0 0.0 0.0 0.0 0.0 0.0 0.0 0.0 0.0 0.0 0.0
0.0 0.0 0.0 0.0 0.0 0.0 0.0 0.0 0.0 0.0 0.0 0.0 0.0 0.0 0.0 0.0 0.0 0.0 0.0 0.0 0.0 0.0 7.3 6.7 6.7 5.1 0.0 0.0 0.0 0.2 0.0 4.5 0.0 1.6 0.0 0.4 1.2 2.8 0.0 0.1 0.1 0.0 0.1 0.0 0.0 0.0 0.0 0.0 0.0 0.0 0.0 0.0 0.0 0.0
0.0 0.0 0.0 0.0 0.0 0.0 0.0 0.0 0.0 0.0 0.0 0.0 0.0 0.0 0.9 0.0 0.0 0.0 0.0 0.7 4.5 3.5 3.8 5.1 4.8 5.9 3.0 4.7 1.7 1.7 1.9 3.0 3.7 0.0 0.0 1.2 0.0 0.0 0.0 0.0 0.1 0.1 0.0 0.1 0.0 3.0 1.6 1.0 0.0 0.0 0.0 0.0 0.0 0.0
0.0 0.0 0.0 0.0 0.0 0.0 0.0 0.0 0.0 0.0 0.0 0.0 0.0 0.0 0.0 0.0 0.0 0.0 5.6 6.7 3.8 2.4 2.3 3.3 4.5 3.7 0.0 5.0 3.5 0.3 5.7 2.5 4.1 4.9 1.1 2.2 1.6 1.2 0.0 0.1 0.0 0.0 0.1 0.0 0.0 0.0 0.5 2.1 2.0 0.6 0.4 0.2 0.0 0.0
0.0 0.0 0.0 0.0 0.0 0.0 0.0 0.0 0.0 0.0 0.0 0.0 0.0 0.0 0.0 0.8 3.8 4.9 5.7 3.8 1.3 1.0 1.6 2.9 1.5 1.0 1.0 0.0 2.1 1.9 3.7 3.3 3.7 5.2 3.8 2.7 1.0 0.2 1.1 1.0 0.7 0.1 0.0 0.1 0.0 0.0 0.3 0.0 1.0 1.3 0.9 1.2 1.4 1.6
0.0 0.0 0.0 0.0 0.0 0.0 0.0 0.0 0.0 0.0 0.0 0.0 0.0 0.0 0.4 1.0 2.1 3.0 2.9 2.5 0.5 0.7 0.9 0.9 1.1 0.0 0.0 0.1 0.6 1.6 1.6 0.7 1.2 3.7 3.9 1.7 0.3 0.2 0.0 0.2 0.5 2.2 2.7 1.5 1.0 0.8 0.8 0.8 0.5 0.9 0.8 0.5 0.7 0.4
0.0 0.0 0.0 0.0 0.0 0.0 0.0 0.0 0.0 0.0 0.0 0.0 0.0 0.0 0.5 0.8 1.2 1.2 1.1 1.1 0.2 0.1 0.0 0.0 0.6 1.3 0.2 1.2 1.2 1.5 0.1 0.6 2.4 1.6 1.5 0.2 0.2 0.0 0.0 0.0 0.0 0.0 1.1 1.8 2.8 2.3 1.8 2.1 1.3 1.5 0.9 0.3 0.0 0.0
0.0 0.0 0.0 0.0 0.0 0.0 0.0 0.0 0.0 0.0 0.0 0.0 0.0 0.0 0.0 0.0 0.2 0.1 0.0 0.2 0.0 0.0 0.1 0.0 0.0 0.1 1.0 1.3 0.3 1.0 1.0 2.7 3.2 2.0 1.4 0.7 0.2 0.0 0.1 0.1 0.0 0.0 0.0 0.0 0.3 0.7 2.1 1.9 2.2 1.4 0.7 0.6 0.1 0.0
0.0 0.0 0.0 0.0 0.0 0.0 0.0 0.0 0.0 0.0 0.0 0.0 0.0 0.0 0.0 0.0 0.0 0.0 0.0 0.0 0.0 0.0 0.3 0.4 0.6 1.0 0.5 1.7 1.0 0.3 1.1 2.0 2.5 1.3 0.0 0.0 0.0 0.0 0.1 0.0 0.1 0.0 0.0 0.0 0.0 0.0 0.5 0.5 1.1 1.0 0.2 0.5 0.4 0.0
0.0 0.0 0.0 0.0 0.0 0.0 0.0 0.0 0.0 0.6 0.4 0.0 0.0 0.0 0.0 0.0 0.0 0.0 0.0 0.0 0.0 0.2 1.6 2.1 2.5 0.1 0.4 0.8 0.3 0.1 0.2 0.3 0.3 0.0 0.0 0.0 0.0 0.0 0.4 0.0 0.0 0.1 0.0 0.0 0.2 0.2 0.8 0.4 1.4 1.8 1.1 0.4 0.5 0.7
0.0 0.0 0.0 0.0 0.0 0.0 0.0 0.0 0.0 2.7 2.0 0.1 0.0 0.0 0.0 0.0 0.0 0.0 0.0 0.0 0.0 0.1 2.1 5.1 2.8 1.7 0.4 0.2 0.0 0.1 0.0 0.0 0.0 0.0 0.0 0.0 0.0 0.0 0.4 0.0 0.0 0.2 0.8 1.6 1.7 1.7 1.3 1.3 1.6 1.3 0.3 0.5 0.6 0.6
0.0 0.0 0.0 0.0 0.0 0.0 1.3 1.8 1.7 3.2 0.2 0.0 0.0 0.0 0.0 0.0 0.0 0.0 0.0 0.0 0.0 0.1 1.1 2.4 2.6 0.6 0.0 0.0 0.0 0.0 0.0 0.0 0.0 0.0 0.0 0.0 0.0 0.1 0.1 0.7 0.6 0.0 0.4 1.1 0.8 0.9 0.6 0.2 0.0 0.5 0.5 0.2 0.6 0.3
0.0 0.0 0.0 0.0 0.0 3.8 4.6 3.0 0.7 0.7 0.5 0.0 0.0 0.0 0.0 0.0 0.0 0.0 0.1 0.0 0.1 0.1 0.2 1.0 0.0 0.1 0.1 0.3 0.5 0.4 0.0 0.0 0.0 0.0 0.0 0.0 0.0 0.0 0.0 0.0 0.0 0.2 0.0 0.4 0.3 0.1 0.6 0.3 0.0 0.6 0.4 0.2 0.5 0.5
0.0 0.0 0.0 0.0 1.4 6.6 3.2 1.2 0.2 0.0 0.0 0.0 0.0 0.0 0.0 0.0 0.0 0.0 0.1 0.1 0.4 0.4 0.0 0.2 0.0 0.0 0.4 0.4 0.2 0.4 0.2 0.1 0.0 0.0 0.0 0.0 0.0 0.0 0.0 0.0 0.0 0.1 0.0 0.0 0.1 0.0 0.4 0.2 0.1 0.0 0.4 0.2 0.1 0.8
0.4 0.0 5.8 4.7 14.1 9.8 4.6 1.3 0.0 0.0 0.0 0.1 0.1 0.0 0.0 0.0 0.0 0.0 0.0 0.2 0.0 0.0 0.1 0.2 0.0 0.0 0.0 0.0 0.6 0.4 0.5 0.0 0.1 0.0 0.0 0.0 0.0 0.0 0.0 0.0 0.0 0.0 0.0 0.0 0.0 0.0 0.0 0.0 0.1 0.0 0.3 0.3 0.1 0.9
0.0 2.7 21.3 19.2 14.3 11.0 6.2 0.9 0.4 0.2 0.1 0.1 0.1 0.1 0.0 0.0 0.0 0.0 0.0 0.0 0.0 0.0 0.0 0.0 0.0 0.7 0.9 0.9 1.3 1.1 0.7 0.1 0.0 0.0 0.1 0.0 0.0 0.0 0.0 0.0 0.0 0.0 0.0 0.0 0.0 0.0 0.0 0.0 0.0 0.0 0.0 0.4 0.2 0.0
0.0 20.7 21.3 17.4 10.5 6.5 4.4 3.2 2.1 0.4 0.8 0.2 0.1 0.1 0.0 0.0 0.1 0.0 0.1 0.0 0.0 0.0 0.0 0.0 0.0 0.0 0.0 0.6 0.9 1.5 2.0 1.4 0.4 0.0 0.6 0.3 0.0 0.0 0.0 0.0 0.0 0.0 0.0 0.0 0.0 0.0 0.0 0.0 0.0 0.0 0.0 0.0 0.0 0.0
26.6 26.7 18.2 14.4 8.1 3.3 1.8 1.7 0.9 0.9 0.6 0.5 0.1 0.0 0.0 0.0 0.0 0.0 0.1 0.0 0.0 0.0 0.0 0.0 0.0 0.0 0.0 0.0 0.5 0.6 0.9 1.3 1.9 1.8 0.2 1.5 0.7 0.2 0.0 0.0 0.2 0.1 0.0 0.0 0.0 0.0 0.0 0.0 0.0 0.0 0.0 0.0 0.0 0.1
22.5 16.0 8.9 3.8 1.9 0.7 0.3 0.3 0.3 0.2 0.0 0.2 0.3 0.0 0.0 0.0 0.0 0.0 0.0 0.0 0.0 0.0 0.0 0.0 0.0 0.0 0.0 0.0 0.0 0.6 0.8 0.9 0.8 1.1 0.2 1.7 1.5 1.9 1.5 1.2 0.7 0.3 0.0 0.0 0.2 0.2 0.1 0.0 0.0 0.0 0.0 0.0 0.0 0.0
14.7 8.3 3.4 0.7 0.1 0.2 0.2 0.1 0.0 0.3 0.2 0.3 0.1 0.2 0.1 0.2 0.0 0.0 0.0 0.0 0.0 0.0 0.0 0.0 0.0 0.0 0.0 0.0 0.0 0.0 0.7 0.9 0.8 0.4 0.2 1.2 1.1 0.9 0.5 1.3 1.1 0.8 0.6 1.1 0.9 0.7 0.6 0.4 0.2 0.1 0.3 0.2 0.2 0.2
5.8 1.4 0.0 0.2 0.1 0.0 0.1 0.1 0.4 0.2 0.4 0.1 0.2 0.3 0.4 0.1 0.0 0.0 0.0 0.0 0.0 0.0 0.0 0.0 0.0 0.0 0.0 0.0 0.0 0.4 0.6 0.8 0.8 0.5 1.2 1.3 1.1 1.0 0.9 1.1 2.2 2.5 1.9 1.6 1.1 1.4 1.5 1.1 0.9 1.1 0.9 0.5 0.6 0.5
1.1 0.1 0.0 0.1 0.0 0.0 0.3 0.2 0.2 0.1 0.1 0.0 0.0 0.0 0.0 0.0 0.0 0.0 0.0 0.0 0.0 0.0 0.0 0.0 0.0 0.0 0.0 0.0 0.0 0.4 0.5 0.8 1.1 1.0 0.8 0.8 1.0 1.2 1.4 2.6 3.3 4.1 4.0 3.7 3.1 2.3 1.7 1.8 2.5 2.3 2.0 2.0 1.7 1.7
0.3 0.0 0.0 0.0 0.1 0.2 0.1 0.1 0.0 0.2 0.2 0.0 0.0 0.3 0.1 0.0 0.1 0.0 0.0 0.1 0.0 0.0 0.0 0.0 0.0 0.0 0.0 0.0 0.0 0.6 0.4 0.4 0.9 0.9 0.9 0.8 0.9 1.2 2.3 2.8 3.6 4.1 4.5 4.0 4.9 5.6 5.2 4.9 5.4 5.1 4.3 3.8 3.5 2.9
0.0 0.0 0.0 0.1 0.1 0.3 0.4 0.2 0.1 0.0 0.1 0.1 0.2 0.2 0.2 0.2 0.1 0.1 0.1 0.0 0.0 0.0 0.0 0.0 0.0 0.1 0.2 0.3 0.5 0.7 0.6 0.7 0.7 1.3 1.4 1.7 1.6 2.2 2.0 3.3 3.5 4.2 4.7 4.7 4.3 4.1 3.7 3.2 2.8 2.6 2.9 2.6 2.6 2.2
0.0 0.0 0.0 0.3 0.5 1.1 1.0 0.5 0.2 0.0 0.1 0.1 0.1 0.0 0.1 0.0 0.0 0.0 0.0 0.0 0.0 0.0 0.0 0.0 0.2 0.4 0.5 0.7 0.9 1.1 1.7 1.7 1.1 1.8 1.7 1.8 2.1 1.8 2.9 3.3 4.1 4.3 4.7 4.6 4.1 3.7 3.4 3.2 3.6 3.4 3.6 3.7 3.5 3.0
0.8 0.5 0.5 0.3 1.4 1.3 1.1 0.6 0.7 0.5 0.4 0.2 0.1 0.1 0.0 0.0 0.0 0.0 0.0 0.0 0.0 0.0 0.0 0.4 0.5 0.7 1.2 1.5 1.4 2.1 2.3 2.0 2.9 3.1 3.5 3.4 3.1 3.2 4.0 3.9 4.3 4.2 4.1 4.1 4.4 4.6 4.7 4.4 4.1 3.8 3.6 3.4 3.3 3.2

GFSWCAN_prec_snow_090.txt.gz
Snowfall_Accumulation
0.0 0.0 0.0 0.0 0.0 0.0 0.0 0.0 0.0 0.0 0.0 0.0 0.0 0.0 0.0 0.0 0.0 0.0 0.0 0.0 0.0 0.0 0.0 0.0 0.0 0.0 0.0 0.0 0.0 0.0 0.0 0.0 0.0 0.7 0.0 0.0 0.1 0.0 0.0 0.0 0.0 0.0 0.2 0.2 0.6 0.5 0.0 0.0 0.0 0.0 0.0 0.0 0.0 0.0
0.0 0.0 0.0 0.0 0.0 0.0 0.0 0.0 0.0 0.0 0.0 0.0 0.0 0.0 0.0 0.0 0.0 0.0 0.0 0.0 0.0 0.0 0.0 0.0 0.0 0.0 0.0 0.0 0.0 0.0 0.0 0.0 0.0 0.0 0.0 0.0 0.1 0.0 0.0 0.0 0.0 0.0 0.0 0.0 0.0 0.0 0.0 0.0 0.0 0.0 0.0 0.0 0.0 0.0
0.0 0.0 0.0 0.0 0.0 0.0 0.0 0.0 0.0 0.0 0.0 0.0 0.0 0.0 0.0 0.0 0.0 0.0 0.0 0.0 0.0 0.1 0.0 0.0 0.0 0.0 0.0 0.0 0.0 0.0 0.0 0.0 0.0 0.0 0.0 0.0 0.0 0.0 0.1 0.0 0.0 0.0 0.0 0.0 0.0 0.0 0.0 0.0 0.0 0.0 0.0 0.0 0.0 0.0
0.0 0.0 0.0 0.0 0.0 0.0 0.0 0.0 0.0 0.0 0.0 0.0 0.0 0.0 0.0 0.0 0.0 0.0 0.0 0.0 0.0 0.1 0.8 0.1 0.0 0.0 0.0 0.0 0.0 0.0 0.0 0.0 0.0 0.0 0.0 0.0 0.0 0.0 0.0 0.0 0.0 0.0 0.0 0.0 0.0 0.0 0.0 0.0 0.0 0.0 0.0 0.0 0.0 0.0
0.0 0.0 0.0 0.0 0.0 0.0 0.0 0.0 0.0 0.0 0.0 0.0 0.0 0.0 0.0 0.0 0.0 0.0 0.0 0.0 0.0 0.2 1.9 0.3 0.0 0.0 0.0 0.0 0.0 0.0 0.0 0.0 0.5 0.3 1.1 0.7 0.0 0.0 0.0 0.0 0.0 0.0 0.0 0.0 0.0 0.0 0.0 0.0 0.0 0.0 0.0 0.0 0.0 0.0
0.0 0.0 0.0 0.0 0.0 0.0 0.0 0.0 0.0 0.0 0.0 0.0 0.0 0.0 0.0 0.0 0.0 0.0 0.0 0.0 0.0 0.0 3.0 1.6 0.0 0.0 0.0 0.0 0.0 0.0 0.0 0.0 0.1 1.1 1.6 0.0 0.0 0.0 0.6 0.0 0.0 0.0 0.0 0.0 0.0 0.0 0.0 0.0 0.0 0.0 0.0 0.0 0.0 0.0
0.0 0.0 0.0 0.0 0.0 0.0 0.0 0.0 0.0 0.0 0.0 0.0 0.0 0.0 0.0 0.0 0.0 0.2 0.0 0.0 0.0 0.0 1.5 3.8 4.0 0.0 0.0 0.0 0.0 0.0 0.0 0.0 2.0 3.2 1.5 0.0 0.0 1.6 1.3 0.3 0.0 0.0 0.0 0.0 0.0 0.0 0.0 0.0 0.0 0.0 0.0 0.0 0.0 0.0
0.0 0.0 0.0 0.0 0.0 0.0 0.0 0.0 0.0 0.0 0.0 0.0 0.0 0.0 0.0 0.0 0.0 0.0 0.0 0.0 0.0 0.0 4.3 8.6 7.1 2.9 0.0 0.4 0.0 0.0 0.0 0.0 0.5 1.4 0.0 0.0 0.0 2.2 1.4 0.0 0.0 0.0 0.0 0.0 0.0 0.0 0.0 0.0 0.0 0.0 0.0 0.0 0.0 0.0
0.0 0.0 0.0 0.0 0.0 0.0 0.0 0.0 0.0 0.0 0.0 0.0 0.0 0.0 0.0 0.0 0.0 0.0 0.0 0.0 0.0 0.0 7.3 6.7 6.7 5.1 0.0 0.0 0.0 0.2 0.0 4.5 0.0 1.6 0.0 0.4 1.2 2.8 0.0 0.1 0.1 0.0 0.1 0.0 0.0 0.0 0.0 0.0 0.0 0.0 0.0 0.0 0.0 0.0
0.0 0.0 0.0 0.0 0.0 0.0 0.0 0.0 0.0 0.0 0.0 0.0 0.0 0.0 0.9 0.0 0.0 0.0 0.0 0.7 4.5 3.5 3.8 5.1 4.8 5.9 3.0 4.7 1.7 1.7 1.9 3.0 3.7 0.0 0.0 1.2 0.0 0.0 0.0 0.0 0.1 0.1 0.0 0.1 0.0 3.0 1.6 1.0 0.0 0.0 0.0 0.0 0.0 0.0
0.0 0.0 0.0 0.0 0.0 0.0 0.0 0.0 0.0 0.0 0.0 0.0 0.0 0.0 0.0 0.0 0.0 0.0 5.6 6.7 3.8 2.4 2.3 3.3 4.5 3.7 0.0 5.0 3.5 0.3 5.7 2.5 4.1 4.9 1.1 2.2 1.6 1.2 0.0 0.1 0.0 0.0 0.1 0.0 0.0 0.0 0.5 2.1 2.0 0.6 0.4 0.2 0.0 0.0
0.0 0.0 0.0 0.0 0.0 0.0 0.0 0.0 0.0 0.0 0.0 0.0 0.0 0.0 0.0 0.8 3.8 4.9 5.7 3.8 1.3 1.0 1.6 2.9 1.5 1.0 1.0 0.0 2.1 1.9 3.7 3.3 3.7 5.2 3.8 2.7 1.0 0.2 1.1 1.0 0.7 0.1 0.0 0.1 0.0 0.0 0.3 0.0 1.0 1.3 0.9 1.2 1.4 1.6
0.0 0.0 0.0 0.0 0.0 0.0 0.0 0.0 0.0 0.0 0.0 0.0 0.0 0.0 0.4 1.0 2.1 3.0 2.9 2.5 0.5 0.7 0.9 0.9 1.1 0.0 0.0 0.1 0.6 1.6 1.6 0.7 1.2 3.7 3.9 1.7 0.3 0.2 0.0 0.2 0.5 2.2 2.7 1.5 1.0 0.8 0.8 0.8 0.5 0.9 0.8 0.5 0.7 0.4
0.0 0.0 0.0 0.0 0.0 0.0 0.0 0.0 0.0 0.0 0.0 0.0 0.0 0.0 0.5 0.8 1.2 1.2 1.1 1.1 0.2 0.1 0.0 0.0 0.6 1.3 0.2 1.2 1.2 1.5 0.1 0.6 2.4 1.6 1.5 0.2 0.2 0.0 0.0 0.0 0.0 0.0 1.1 1.8 2.8 2.3 1.8 2.1 1.3 1.5 0.9 0.3 0.0 0.0
0.0 0.0 0.0 0.0 0.0 0.0 0.0 0.0 0.0 0.0 0.0 0.0 0.0 0.0 0.0 0.0 0.2 0.1 0.0 0.2 0.0 0.0 0.1 0.0 0.0 0.1 1.0 1.3 0.3 1.0 1.0 2.7 3.2 2.0 1.4 0.7 0.2 0.0 0.1 0.1 0.0 0.0 0.0 0.0 0.3 0.7 2.1 1.9 2.2 1.4 0.7 0.6 0.1 0.0
0.0 0.0 0.0 0.0 0.0 0.0 0.0 0.0 0.0 0.0 0.0 0.0 0.0 0.0 0.0 0.0 0.0 0.0 0.0 0.0 0.0 0.0 0.3 0.4 0.6 1.0 0.5 1.7 1.0 0.3 1.1 2.0 2.5 1.3 0.0 0.0 0.0 0.0 0.1 0.0 0.1 0.0 0.0 0.0 0.0 0.0 0.5 0.5 1.1 1.0 0.2 0.5 0.4 0.0
0.0 0.0 0.0 0.0 0.0 0.0 0.0 0.0 0.0 0.6 0.4 0.0 0.0 0.0 0.0 0.0 0.0 0.0 0.0 0.0 0.0 0.2 1.6 2.1 2.5 0.1 0.4 0.8 0.3 0.1 0.2 0.3 0.3 0.0 0.0 0.0 0.0 0.0 0.4 0.0 0.0 0.1 0.0 0.0 0.2 0.2 0.8 0.4 1.4 1.8 1.1 0.4 0.5 0.7
0.0 0.0 0.0 0.0 0.0 0.0 0.0 0.0 0.0 4.1 2.9 0.2 0.0 0.0 0.0 0.0 0.0 0.0 0.0 0.0 0.0 0.1 2.1 5.1 2.8 1.7 0.4 0.2 0.0 0.1 0.0 0.0 0.0 0.0 0.0 0.0 0.0 0.0 0.4 0.0 0.0 0.2 0.8 1.6 1.7 1.7 1.3 1.3 1.6 1.3 0.3 0.5 0.6 0.6
0.0 0.0 0.0 0.0 0.0 0.0 5.4 1.8 1.7 4.0 0.3 0.0 0.0 0.0 0.0 0.0 0.0 0.0 0.0 0.0 0.0 0.1 1.1 2.4 2.6 0.6 0.0 0.0 0.0 0.0 0.0 0.0 0.0 0.0 0.0 0.0 0.0 0.1 0.1 0.7 0.6 0.0 0.4 1.1 0.8 0.9 0.6 0.2 0.0 0.5 0.5 0.2 0.6 0.3
0.0 0.0 0.0 0.0 0.0 8.3 8.7 5.8 0.7 1.5 0.8 0.0 0.0 0.0 0.0 0.0 0.0 0.0 0.1 0.0 0.1 0.1 0.2 1.0 0.0 0.1 0.1 0.3 0.5 0.4 0.0 0.0 0.0 0.0 0.0 0.0 0.0 0.0 0.0 0.0 0.0 0.2 0.0 0.4 0.3 0.1 0.6 0.3 0.0 0.6 0.4 0.2 0.5 0.5
0.0 0.0 0.0 0.0 1.4 12.3 6.7 2.8 0.8 0.2 0.2 0.1 0.0 0.0 0.0 0.0 0.0 0.0 0.1 0.1 0.4 0.4 0.0 0.2 0.0 0.0 0.4 0.4 0.2 0.4 0.2 0.1 0.0 0.0 0.0 0.0 0.0 0.0 0.0 0.0 0.0 0.1 0.0 0.0 0.1 0.0 0.4 0.2 0.1 0.0 0.4 0.2 0.1 0.8
0.4 0.0 5.8 4.7 19.9 14.6 7.5 2.6 0.2 0.1 0.1 0.3 0.1 0.0 0.0 0.0 0.0 0.0 0.0 0.2 0.0 0.0 0.1 0.2 0.0 0.0 0.0 0.0 0.6 0.4 0.5 0.0 0.1 0.0 0.0 0.0 0.0 0.0 0.0 0.0 0.0 0.0 0.0 0.0 0.0 0.0 0.0 0.0 0.1 0.0 0.3 0.3 0.1 0.9
0.0 2.7 26.6 23.7 18.3 14.0 7.8 1.7 0.5 0.2 0.1 0.2 0.3 0.1 0.0 0.0 0.0 0.0 0.0 0.0 0.0 0.0 0.0 0.0 0.0 0.7 0.9 0.9 1.3 1.1 0.7 0.1 0.0 0.0 0.1 0.0 0.0 0.0 0.0 0.0 0.0 0.0 0.0 0.0 0.0 0.0 0.0 0.0 0.0 0.0 0.0 0.4 0.2 0.0
0.0 25.6 26.2 21.6 13.4 8.3 5.6 4.0 2.5 0.7 1.0 0.4 0.3 0.2 0.0 0.0 0.1 0.0 0.1 0.0 0.0 0.0 0.0 0.0 0.0 0.0 0.0 0.6 0.9 1.5 2.0 1.4 0.4 0.0 0.6 0.3 0.0 0.0 0.0 0.0 0.0 0.0 0.0 0.0 0.0 0.0 0.0 0.0 0.0 0.0 0.0 0.0 0.0 0.0
31.1 31.8 22.6 17.9 10.1 4.0 2.1 1.9 1.1 1.0 0.7 0.6 0.1 0.0 0.0 0.0 0.0 0.0 0.1 0.0 0.0 0.0 0.0 0.0 0.0 0.0 0.0 0.0 0.5 0.6 0.9 1.3 1.9 1.8 0.2 1.5 0.7 0.2 0.0 0.0 0.2 0.1 0.0 0.0 0.0 0.0 0.0 0.0 0.0 0.0 0.0 0.0 0.0 0.1
26.5 19.1 10.9 4.9 2.4 0.8 0.4 0.3 0.3 0.2 0.0 0.3 0.3 0.0 0.0 0.0 0.0 0.0 0.0 0.0 0.0 0.0 0.0 0.0 0.0 0.0 0.0 0.0 0.0 0.6 0.8 0.9 0.8 1.1 0.2 1.7 1.5 1.9 1.5 1.2 0.7 0.3 0.0 0.0 0.2 0.2 0.1 0.0 0.0 0.0 0.0 0.0 0.0 0.0
18.1 10.8 4.2 0.9 0.1 0.2 0.2 0.1 0.0 0.3 0.2 0.3 0.1 0.2 0.1 0.2 0.0 0.0 0.0 0.0 0.0 0.0 0.0 0.0 0.0 0.0 0.0 0.0 0.0 0.0 0.7 0.9 0.8 0.4 0.2 1.2 1.1 0.9 0.5 1.3 1.1 0.8 0.6 1.1 0.9 0.7 0.6 0.4 0.2 0.1 0.3 0.2 0.2 0.2
7.6 2.0 0.0 0.3 0.1 0.0 0.1 0.1 0.4 0.2 0.4 0.1 0.2 0.3 0.4 0.1 0.0 0.0 0.0 0.0 0.0 0.0 0.0 0.0 0.0 0.0 0.0 0.0 0.0 0.4 0.6 0.8 0.8 0.5 1.2 1.3 1.1 1.0 0.9 1.1 2.2 2.5 1.9 1.6 1.1 1.4 1.5 1.1 0.9 1.1 0.9 0.5 0.6 0.5
1.4 0.1 0.0 0.1 0.0 0.0 0.3 0.2 0.2 0.1 0.1 0.0 0.0 0.0 0.0 0.0 0.0 0.0 0.0 0.0 0.0 0.0 0.0 0.0 0.0 0.0 0.0 0.0 0.0 0.4 0.5 0.8 1.1 1.0 0.8 0.8 1.0 1.2 1.4 2.6 3.3 4.1 4.0 3.7 3.1 2.3 1.7 1.8 2.5 2.3 2.0 2.0 1.7 1.7
0.3 0.0 0.0 0.0 0.1 0.2 0.1 0.1 0.0 0.2 0.2 0.0 0.0 0.3 0.1 0.0 0.1 0.0 0.0 0.1 0.0 0.0 0.0 0.0 0.0 0.0 0.0 0.0 0.0 0.6 0.4 0.4 0.9 0.9 0.9 0.8 0.9 1.2 2.3 2.8 3.6 4.1 4.5 4.0 4.9 5.6 5.2 4.9 5.4 5.1 4.3 3.8 3.5 2.9
0.0 0.0 0.0 0.1 0.1 0.3 0.4 0.2 0.1 0.0 0.1 0.1 0.2 0.2 0.2 0.2 0.1 0.1 0.1 0.0 0.0 0.0 0.0 0.0 0.0 0.1 0.2 0.3 0.5 0.7 0.6 0.7 0.7 1.3 1.4 1.7 1.6 2.2 2.0 3.3 3.5 4.2 4.7 4.7 4.3 4.1 3.7 3.2 2.8 2.6 2.9 2.6 2.6 2.2
0.0 0.0 0.0 0.3 0.5 1.1 1.0 0.5 0.2 0.0 0.1 0.1 0.1 0.0 0.1 0.0 0.0 0.0 0.0 0.0 0.0 0.0 0.0 0.0 0.2 0.4 0.5 0.7 0.9 1.1 1.7 1.7 1.1 1.8 1.7 1.8 2.1 1.8 2.9 3.3 4.1 4.3 4.7 4.6 4.1 3.7 3.4 3.2 3.6 3.4 3.6 3.7 3.5 3.0
1.0 0.5 0.5 0.3 1.4 1.3 1.1 0.6 0.7 0.5 0.5 0.3 0.1 0.1 0.0 0.0 0.0 0.0 0.0 0.0 0.0 0.0 0.0 0.4 0.5 0.7 1.2 1.5 1.4 2.1 2.3 2.0 2.9 3.1 3.5 3.4 3.1 3.2 4.0 3.9 4.3 4.2 4.1 4.1 4.4 4.6 4.7 4.4 4.1 3.8 3.6 3.4 3.3 3.2

GFSWCAN_prec_snow_093.txt.gz
Snowfall_Accumulation
0.0 0.0 0.0 0.0 0.0 0.0 0.0 0.0 0.0 0.0 0.0 0.0 0.0 0.0 0.0 0.0 0.0 0.0 0.0 0.0 0.0 0.0 0.0 0.0 0.0 0.0 0.0 0.0 0.0 0.0 0.0 0.0 0.0 0.7 0.0 0.0 0.1 0.0 0.0 0.0 0.0 0.0 0.2 0.2 0.6 0.5 0.0 0.0 0.0 0.0 0.0 0.0 0.0 0.0
0.0 0.0 0.0 0.0 0.0 0.0 0.0 0.0 0.0 0.0 0.0 0.0 0.0 0.0 0.0 0.0 0.0 0.0 0.0 0.0 0.0 0.0 0.0 0.0 0.0 0.0 0.0 0.0 0.0 0.0 0.0 0.0 0.0 0.0 0.0 0.0 0.1 0.0 0.0 0.0 0.0 0.0 0.0 0.0 0.0 0.0 0.0 0.0 0.0 0.0 0.0 0.0 0.0 0.0
0.0 0.0 0.0 0.0 0.0 0.0 0.0 0.0 0.0 0.0 0.0 0.0 0.0 0.0 0.0 0.0 0.0 0.0 0.0 0.0 0.0 0.1 0.0 0.0 0.0 0.0 0.0 0.0 0.0 0.0 0.0 0.0 0.0 0.0 0.0 0.0 0.0 0.0 0.1 0.0 0.0 0.0 0.0 0.0 0.0 0.0 0.0 0.0 0.0 0.0 0.0 0.0 0.0 0.0
0.0 0.0 0.0 0.0 0.0 0.0 0.0 0.0 0.0 0.0 0.0 0.0 0.0 0.0 0.0 0.0 0.0 0.0 0.0 0.0 0.0 0.1 0.8 0.1 0.0 0.0 0.0 0.0 0.0 0.0 0.0 0.0 0.0 0.0 0.0 0.0 0.0 0.0 0.0 0.0 0.0 0.0 0.0 0.0 0.0 0.0 0.0 0.0 0.0 0.0 0.0 0.0 0.0 0.0
0.0 0.0 0.0 0.0 0.0 0.0 0.0 0.0 0.0 0.0 0.0 0.0 0.0 0.0 0.0 0.0 0.0 0.0 0.0 0.0 0.0 0.2 1.9 0.3 0.0 0.0 0.0 0.0 0.0 0.0 0.0 0.0 0.5 0.3 1.1 0.7 0.0 0.0 0.0 0.0 0.0 0.0 0.0 0.0 0.0 0.0 0.0 0.0 0.0 0.0 0.0 0.0 0.0 0.0
0.0 0.0 0.0 0.0 0.0 0.0 0.0 0.0 0.0 0.0 0.0 0.0 0.0 0.0 0.0 0.0 0.0 0.0 0.0 0.0 0.0 0.0 3.0 1.6 0.0 0.0 0.0 0.0 0.0 0.0 0.0 0.0 0.1 1.1 1.6 0.0 0.0 0.0 0.6 0.0 0.0 0.0 0.0 0.0 0.0 0.0 0.0 0.0 0.0 0.0 0.0 0.0 0.0 0.0
0.0 0.0 0.0 0.0 0.0 0.0 0.0 0.0 0.0 0.0 0.0 0.0 0.0 0.0 0.0 0.0 0.0 0.2 0.0 0.0 0.0 0.0 1.5 3.8 4.0 0.0 0.0 0.0 0.0 0.0 0.0 0.0 2.0 3.2 1.5 0.0 0.0 1.6 1.3 0.3 0.0 0.0 0.0 0.0 0.0 0.0 0.0 0.0 0.0 0.0 0.0 0.0 0.0 0.0
0.0 0.0 0.0 0.0 0.0 0.0 0.0 0.0 0.0 0.0 0.0 0.0 0.0 0.0 0.0 0.0 0.0 0.0 0.0 0.0 0.0 0.0 4.3 8.6 7.1 2.9 0.0 0.4 0.0 0.0 0.0 0.0 0.5 1.4 0.0 0.0 0.0 2.2 1.4 0.0 0.0 0.0 0.0 0.0 0.0 0.0 0.0 0.0 0.0 0.0 0.0 0.0 0.0 0.0
0.0 0.0 0.0 0.0 0.0 0.0 0.0 0.0 0.0 0.0 0.0 0.0 0.0 0.0 0.0 0.0 0.0 0.0 0.0 0.0 0.0 0.0 7.3 6.7 6.7 5.1 0.0 0.0 0.0 0.2 0.0 4.5 0.0 1.6 0.0 0.4 1.2 2.8 0.0 0.1 0.1 0.0 0.1 0.0 0.0 0.0 0.0 0.0 0.0 0.0 0.0 0.0 0.0 0.0
0.0 0.0 0.0 0.0 0.0 0.0 0.0 0.0 0.0 0.0 0.0 0.0 0.0 0.0 0.9 0.0 0.0 0.0 0.0 0.7 4.5 3.5 3.8 5.1 4.8 5.9 3.0 4.7 1.7 1.7 1.9 3.0 3.7 0.0 0.0 1.2 0.0 0.0 0.0 0.0 0.1 0.1 0.0 0.1 0.0 3.0 1.6 1.0 0.0 0.0 0.0 0.0 0.0 0.0
0.0 0.0 0.0 0.0 0.0 0.0 0.0 0.0 0.0 0.0 0.0 0.0 0.0 0.0 0.0 0.0 0.0 0.0 5.6 6.7 3.8 2.4 2.3 3.3 4.5 3.7 0.0 5.0 3.5 0.3 5.7 2.5 4.1 4.9 1.1 2.2 1.6 1.2 0.0 0.1 0.0 0.0 0.1 0.0 0.0 0.0 0.5 2.1 2.0 0.6 0.4 0.2 0.0 0.0
0.0 0.0 0.0 0.0 0.0 0.0 0.0 0.0 0.0 0.0 0.0 0.0 0.0 0.0 0.0 0.8 3.8 4.9 5.7 3.8 1.3 1.0 1.6 2.9 1.5 1.0 1.0 0.0 2.1 1.9 3.7 3.3 3.7 5.2 3.8 2.7 1.0 0.2 1.1 1.0 0.7 0.1 0.0 0.1 0.0 0.0 0.3 0.0 1.0 1.3 0.9 1.2 1.4 1.6
0.0 0.0 0.0 0.0 0.0 0.0 0.0 0.0 0.0 0.0 0.0 0.0 0.0 0.0 0.4 1.0 2.1 3.0 2.9 2.5 0.5 0.7 0.9 0.9 1.1 0.0 0.0 0.1 0.6 1.6 1.6 0.7 1.2 3.7 3.9 1.7 0.3 0.2 0.0 0.2 0.5 2.2 2.7 1.5 1.0 0.8 0.8 0.8 0.5 0.9 0.8 0.5 0.7 0.4
0.0 0.0 0.0 0.0 0.0 0.0 0.0 0.0 0.0 0.0 0.0 0.0 0.0 0.0 0.5 0.8 1.2 1.2 1.1 1.1 0.2 0.1 0.0 0.0 0.6 1.3 0.2 1.2 1.2 1.5 0.1 0.6 2.4 1.6 1.5 0.2 0.2 0.0 0.0 0.0 0.0 0.0 1.1 1.8 2.8 2.3 1.8 2.1 1.3 1.5 0.9 0.3 0.0 0.0
0.0 0.0 0.0 0.0 0.0 0.0 0.0 0.0 0.0 0.0 0.0 0.0 0.0 0.0 0.0 0.0 0.2 0.1 0.0 0.2 0.0 0.0 0.1 0.0 0.0 0.1 1.0 1.3 0.3 1.0 1.0 2.7 3.2 2.0 1.4 0.7 0.2 0.0 0.1 0.1 0.0 0.0 0.0 0.0 0.3 0.7 2.1 1.9 2.2 1.4 0.7 0.6 0.1 0.0
0.0 0.0 0.0 0.0 0.0 0.0 0.0 0.0 0.0 0.0 0.0 0.0 0.0 0.0 0.0 0.0 0.0 0.0 0.0 0.0 0.0 0.0 0.3 0.4 0.6 1.0 0.5 1.7 1.0 0.3 1.1 2.0 2.5 1.3 0.0 0.0 0.0 0.0 0.1 0.0 0.1 0.0 0.0 0.0 0.0 0.0 0.5 0.5 1.1 1.0 0.2 0.5 0.4 0.0
0.0 0.0 0.0 0.0 0.0 0.0 0.0 0.0 0.0 2.7 1.5 0.3 0.0 0.0 0.0 0.0 0.0 0.0 0.0 0.0 0.0 0.2 1.6 2.1 2.5 0.1 0.4 0.8 0.3 0.1 0.2 0.3 0.3 0.0 0.0 0.0 0.0 0.0 0.4 0.0 0.0 0.1 0.0 0.0 0.2 0.2 0.8 0.4 1.4 1.8 1.1 0.4 0.5 0.7
0.0 0.0 0.0 0.0 0.0 0.0 0.0 0.0 0.0 7.0 4.2 0.5 0.0 0.0 0.0 0.0 0.0 0.0 0.0 0.0 0.0 0.1 2.1 5.1 2.8 1.7 0.4 0.2 0.0 0.1 0.0 0.0 0.0 0.0 0.0 0.0 0.0 0.0 0.4 0.0 0.0 0.2 0.8 1.6 1.7 1.7 1.3 1.3 1.6 1.3 0.3 0.5 0.6 0.6
0.0 0.0 0.0 0.0 0.0 0.0 11.3 5.9 4.7 5.7 0.3 0.0 0.0 0.0 0.0 0.0 0.0 0.0 0.0 0.0 0.0 0.1 1.1 2.4 2.6 0.6 0.0 0.0 0.0 0.0 0.0 0.0 0.0 0.0 0.0 0.0 0.0 0.1 0.1 0.7 0.6 0.0 0.4 1.1 0.8 0.9 0.6 0.2 0.0 0.5 0.5 0.2 0.6 0.3
0.0 0.0 0.0 0.0 0.0 14.5 14.2 9.3 2.6 2.3 1.0 0.0 0.0 0.0 0.0 0.0 0.0 0.0 0.1 0.0 0.1 0.1 0.2 1.0 0.0 0.1 0.1 0.3 0.5 0.4 0.0 0.0 0.0 0.0 0.0 0.0 0.0 0.0 0.0 0.0 0.0 0.2 0.0 0.4 0.3 0.1 0.6 0.3 0.0 0.6 0.4 0.2 0.5 0.5
0.0 0.0 0.0 0.0 1.4 19.2 12.8 6.2 2.0 0.6 0.2 0.1 0.0 0.0 0.0 0.0 0.0 0.0 0.1 0.1 0.5 0.4 0.0 0.2 0.0 0.0 0.4 0.4 0.2 0.4 0.2 0.1 0.0 0.0 0.0 0.0 0.0 0.0 0.0 0.0 0.0 0.1 0.0 0.0 0.1 0.0 0.4 0.2 0.1 0.0 0.4 0.2 0.1 0.8
0.4 0.0 5.8 4.7 25.2 20.0 12.3 5.4 0.9 0.2 0.1 0.3 0.1 0.0 0.0 0.0 0.0 0.0 0.1 0.7 0.0 0.0 0.1 0.2 0.0 0.0 0.0 0.0 0.6 0.4 0.5 0.0 0.1 0.0 0.0 0.0 0.0 0.0 0.0 0.0 0.0 0.0 0.0 0.0 0.0 0.0 0.0 0.0 0.1 0.0 0.3 0.3 0.1 0.9
0.0 2.7 30.9 27.7 21.9 17.5 10.7 3.4 1.1 0.4 0.1 0.2 0.4 0.4 0.1 0.0 0.0 0.0 0.0 0.0 0.0 0.0 0.0 0.0 0.0 0.7 0.9 0.9 1.3 1.1 0.7 0.1 0.0 0.0 0.1 0.0 0.0 0.0 0.0 0.0 0.0 0.0 0.0 0.0 0.0 0.0 0.0 0.0 0.0 0.0 0.0 0.4 0.2 0.0
0.0 28.8 29.7 25.1 16.3 11.0 7.6 5.3 3.3 1.0 1.2 0.5 0.6 0.5 0.2 0.0 0.1 0.0 0.1 0.0 0.0 0.0 0.0 0.0 0.0 0.0 0.0 0.6 0.9 1.5 2.0 1.4 0.4 0.0 0.6 0.3 0.0 0.0 0.0 0.0 0.0 0.0 0.0 0.0 0.0 0.0 0.0 0.0 0.0 0.0 0.0 0.0 0.0 0.0
33.5 35.3 26.4 21.2 12.4 5.0 2.5 2.2 1.2 1.1 0.8 0.7 0.1 0.0 0.1 0.1 0.0 0.0 0.1 0.0 0.0 0.0 0.0 0.0 0.0 0.0 0.0 0.0 0.5 0.6 0.9 1.3 1.9 1.8 0.2 1.5 0.7 0.2 0.0 0.0 0.2 0.1 0.0 0.0 0.0 0.0 0.0 0.0 0.0 0.0 0.0 0.0 0.0 0.1
29.8 21.6 12.6 6.0 2.9 0.8 0.4 0.3 0.3 0.2 0.0 0.3 0.3 0.0 0.0 0.1 0.1 0.0 0.0 0.0 0.0 0.0 0.0 0.0 0.0 0.0 0.0 0.0 0.0 0.6 0.8 0.9 0.8 1.1 0.2 1.7 1.5 1.9 1.5 1.2 0.7 0.3 0.0 0.0 0.2 0.2 0.1 0.0 0.0 0.0 0.0 0.0 0.0 0.0
20.5 12.9 5.4 1.2 0.1 0.2 0.2 0.1 0.0 0.3 0.2 0.3 0.1 0.2 0.1 0.2 0.0 0.0 0.0 0.0 0.0 0.0 0.0 0.0 0.0 0.0 0.0 0.0 0.0 0.0 0.7 0.9 0.8 0.4 0.2 1.2 1.1 0.9 0.5 1.3 1.1 0.8 0.6 1.1 0.9 0.7 0.6 0.4 0.2 0.1 0.3 0.2 0.2 0.2
7.6 2.5 0.0 0.3 0.1 0.0 0.1 0.1 0.4 0.2 0.4 0.1 0.2 0.3 0.4 0.1 0.0 0.0 0.0 0.0 0.0 0.0 0.0 0.0 0.0 0.0 0.0 0.0 0.0 0.4 0.6 0.8 0.8 0.5 1.2 1.3 1.1 1.0 0.9 1.1 2.2 2.5 1.9 1.6 1.1 1.4 1.5 1.1 0.9 1.1 0.9 0.5 0.6 0.5
1.4 0.1 0.0 0.1 0.1 0.0 0.3 0.2 0.2 0.1 0.1 0.0 0.0 0.0 0.0 0.0 0.0 0.0 0.0 0.0 0.0 0.0 0.0 0.0 0.0 0.0 0.0 0.0 0.0 0.4 0.5 0.8 1.1 1.0 0.8 0.8 1.0 1.2 1.4 2.6 3.3 4.1 4.0 3.7 3.1 2.3 1.7 1.8 2.5 2.3 2.0 2.0 1.7 1.7
0.3 0.0 0.0 0.0 0.1 0.2 0.1 0.1 0.0 0.2 0.2 0.0 0.0 0.3 0.1 0.0 0.1 0.0 0.0 0.1 0.0 0.0 0.0 0.0 0.0 0.0 0.0 0.0 0.0 0.6 0.4 0.4 0.9 0.9 0.9 0.8 0.9 1.2 2.3 2.8 3.6 4.1 4.5 4.0 4.9 5.6 5.2 4.9 5.4 5.1 4.3 3.8 3.5 2.9
0.0 0.0 0.0 0.1 0.1 0.3 0.4 0.2 0.1 0.0 0.1 0.1 0.2 0.2 0.2 0.2 0.1 0.1 0.1 0.0 0.0 0.0 0.0 0.0 0.0 0.1 0.2 0.3 0.5 0.7 0.6 0.7 0.7 1.3 1.4 1.7 1.6 2.2 2.0 3.3 3.5 4.2 4.7 4.7 4.3 4.1 3.7 3.2 2.8 2.6 2.9 2.6 2.6 2.2
0.0 0.0 0.0 0.3 0.5 1.1 1.0 0.5 0.2 0.0 0.1 0.1 0.1 0.0 0.1 0.0 0.0 0.0 0.0 0.0 0.0 0.0 0.0 0.0 0.2 0.4 0.5 0.7 0.9 1.1 1.7 1.7 1.1 1.8 1.7 1.8 2.1 1.8 2.9 3.3 4.1 4.3 4.7 4.6 4.1 3.7 3.4 3.2 3.6 3.4 3.6 3.7 3.5 3.0
1.1 0.6 0.5 0.3 1.4 1.3 1.1 0.6 0.7 0.5 0.5 0.3 0.1 0.1 0.0 0.0 0.0 0.0 0.0 0.0 0.0 0.0 0.0 0.4 0.5 0.7 1.2 1.5 1.4 2.1 2.3 2.0 2.9 3.1 3.5 3.4 3.1 3.2 4.0 3.9 4.3 4.2 4.1 4.1 4.4 4.6 4.7 4.4 4.1 3.8 3.6 3.4 3.3 3.2

GFSWCAN_prec_snow_096.txt.gz
Snowfall_Accumulation
0.0 0.0 0.0 0.0 0.0 0.0 0.0 0.0 0.0 0.0 0.0 0.0 0.0 0.0 0.0 0.0 0.0 0.0 0.0 0.0 0.0 0.0 0.0 0.0 0.0 0.0 0.0 0.0 0.0 0.0 0.0 0.0 0.0 0.7 0.0 0.0 0.1 0.0 0.0 0.0 0.0 0.0 0.2 0.2 0.6 0.5 0.0 0.0 0.0 0.0 0.0 0.0 0.0 0.0
0.0 0.0 0.0 0.0 0.0 0.0 0.0 0.0 0.0 0.0 0.0 0.0 0.0 0.0 0.0 0.0 0.0 0.0 0.0 0.0 0.0 0.0 0.0 0.0 0.0 0.0 0.0 0.0 0.0 0.0 0.0 0.0 0.0 0.0 0.0 0.0 0.1 0.0 0.0 0.0 0.0 0.0 0.0 0.0 0.0 0.0 0.0 0.0 0.0 0.0 0.0 0.0 0.0 0.0
0.0 0.0 0.0 0.0 0.0 0.0 0.0 0.0 0.0 0.0 0.0 0.0 0.0 0.0 0.0 0.0 0.0 0.0 0.0 0.0 0.0 0.1 0.0 0.0 0.0 0.0 0.0 0.0 0.0 0.0 0.0 0.0 0.0 0.0 0.0 0.0 0.0 0.0 0.1 0.0 0.0 0.0 0.0 0.0 0.0 0.0 0.0 0.0 0.0 0.0 0.0 0.0 0.0 0.0
0.0 0.0 0.0 0.0 0.0 0.0 0.0 0.0 0.0 0.0 0.0 0.0 0.0 0.0 0.0 0.0 0.0 0.0 0.0 0.0 0.0 0.1 0.8 0.1 0.0 0.0 0.0 0.0 0.0 0.0 0.0 0.0 0.0 0.0 0.0 0.0 0.0 0.0 0.0 0.0 0.0 0.0 0.0 0.0 0.0 0.0 0.0 0.0 0.0 0.0 0.0 0.0 0.0 0.0
0.0 0.0 0.0 0.0 0.0 0.0 0.0 0.0 0.0 0.0 0.0 0.0 0.0 0.0 0.0 0.0 0.0 0.0 0.0 0.0 0.0 0.2 1.9 0.3 0.0 0.0 0.0 0.0 0.0 0.0 0.0 0.0 0.5 0.3 1.1 0.7 0.0 0.0 0.0 0.0 0.0 0.0 0.0 0.0 0.0 0.0 0.0 0.0 0.0 0.0 0.0 0.0 0.0 0.0
0.0 0.0 0.0 0.0 0.0 0.0 0.0 0.0 0.0 0.0 0.0 0.0 0.0 0.0 0.0 0.0 0.0 0.0 0.0 0.0 0.0 0.0 3.0 1.6 0.0 0.0 0.0 0.0 0.0 0.0 0.0 0.0 0.1 1.1 1.6 0.0 0.0 0.0 0.6 0.0 0.0 0.0 0.0 0.0 0.0 0.0 0.0 0.0 0.0 0.0 0.0 0.0 0.0 0.0
0.0 0.0 0.0 0.0 0.0 0.0 0.0 0.0 0.0 0.0 0.0 0.0 0.0 0.0 0.0 0.0 0.0 0.2 0.0 0.0 0.0 0.0 1.5 3.8 4.0 0.0 0.0 0.0 0.0 0.0 0.0 0.0 2.0 3.2 1.5 0.0 0.0 1.6 1.3 0.3 0.0 0.0 0.0 0.0 0.0 0.0 0.0 0.0 0.0 0.0 0.0 0.0 0.0 0.0
0.0 0.0 0.0 0.0 0.0 0.0 0.0 0.0 0.0 0.0 0.0 0.0 0.0 0.0 0.0 0.0 0.0 0.0 0.0 0.0 0.0 0.0 4.3 8.6 7.1 2.9 0.0 0.4 0.0 0.0 0.0 0.0 0.5 1.4 0.0 0.0 0.0 2.2 1.4 0.0 0.0 0.0 0.0 0.0 0.0 0.0 0.0 0.0 0.0 0.0 0.0 0.0 0.0 0.0
0.0 0.0 0.0 0.0 0.0 0.0 0.0 0.0 0.0 0.0 0.0 0.0 0.0 0.0 0.0 0.0 0.0 0.0 0.0 0.0 0.0 0.0 7.3 6.7 6.7 5.1 0.0 0.0 0.0 0.2 0.0 4.5 0.0 1.6 0.0 0.4 1.2 2.8 0.0 0.1 0.1 0.0 0.1 0.0 0.0 0.0 0.0 0.0 0.0 0.0 0.0 0.0 0.0 0.0
0.0 0.0 0.0 0.0 0.0 0.0 0.0 0.0 0.0 0.0 0.0 0.0 0.0 0.0 0.9 0.0 0.0 0.0 0.0 0.7 4.5 3.5 3.8 5.1 4.8 5.9 3.0 4.7 1.7 1.7 1.9 3.0 3.7 0.0 0.0 1.2 0.0 0.0 0.0 0.0 0.1 0.1 0.0 0.1 0.0 3.0 1.6 1.0 0.0 0.0 0.0 0.0 0.0 0.0
0.0 0.0 0.0 0.0 0.0 0.0 0.0 0.0 0.0 0.0 0.0 0.0 0.0 0.0 0.0 0.0 0.0 0.0 5.6 6.7 3.8 2.4 2.3 3.3 4.5 3.7 0.0 5.0 3.5 0.3 5.7 2.5 4.1 4.9 1.1 2.2 1.6 1.2 0.0 0.1 0.0 0.0 0.1 0.0 0.0 0.0 0.5 2.1 2.0 0.6 0.4 0.2 0.0 0.0
0.0 0.0 0.0 0.0 0.0 0.0 0.0 0.0 0.0 0.0 0.0 0.0 0.0 0.0 0.0 0.8 3.8 4.9 5.7 3.8 1.3 1.0 1.6 2.9 1.5 1.0 1.0 0.0 2.1 1.9 3.7 3.3 3.7 5.2 3.8 2.7 1.0 0.2 1.1 1.0 0.7 0.1 0.0 0.1 0.0 0.0 0.3 0.0 1.0 1.3 0.9 1.2 1.4 1.6
0.0 0.0 0.0 0.0 0.0 0.0 0.0 0.0 0.0 0.0 0.0 0.0 0.0 0.0 0.4 1.0 2.1 3.0 2.9 2.5 0.5 0.7 0.9 0.9 1.1 0.0 0.0 0.1 0.6 1.6 1.6 0.7 1.2 3.7 3.9 1.7 0.3 0.2 0.0 0.2 0.5 2.2 2.7 1.5 1.0 0.8 0.8 0.8 0.5 0.9 0.8 0.5 0.7 0.4
0.0 0.0 0.0 0.0 0.0 0.0 0.0 0.0 0.0 0.0 0.0 0.0 0.0 0.0 0.5 0.8 1.2 1.2 1.1 1.1 0.2 0.1 0.0 0.0 0.6 1.3 0.2 1.2 1.2 1.5 0.1 0.6 2.4 1.6 1.5 0.2 0.2 0.0 0.0 0.0 0.0 0.0 1.1 1.8 2.8 2.3 1.8 2.1 1.3 1.5 0.9 0.3 0.0 0.0
0.0 0.0 0.0 0.0 0.0 0.0 0.0 0.0 0.0 0.0 0.0 0.5 0.0 0.0 0.0 0.0 0.2 0.1 0.0 0.2 0.0 0.0 0.1 0.0 0.0 0.1 1.0 1.3 0.3 1.0 1.0 2.7 3.2 2.0 1.4 0.7 0.2 0.0 0.1 0.1 0.0 0.0 0.0 0.0 0.3 0.7 2.1 1.9 2.2 1.4 0.7 0.6 0.1 0.0
0.0 0.0 0.0 0.0 0.0 0.0 0.0 0.0 0.0 0.0 2.8 0.9 0.1 0.0 0.0 0.0 0.0 0.0 0.0 0.0 0.0 0.0 0.3 0.4 0.6 1.0 0.5 1.7 1.0 0.3 1.1 2.0 2.5 1.3 0.0 0.0 0.0 0.0 0.1 0.0 0.1 0.0 0.0 0.0 0.0 0.0 0.5 0.5 1.1 1.0 0.2 0.5 0.4 0.0
0.0 0.0 0.0 0.0 0.0 0.0 0.0 0.0 0.0 7.0 4.4 1.7 0.0 0.0 0.0 0.0 0.0 0.0 0.0 0.0 0.0 0.2 1.6 2.1 2.5 0.1 0.4 0.8 0.3 0.1 0.2 0.3 0.3 0.0 0.0 0.0 0.0 0.0 0.4 0.0 0.0 0.1 0.0 0.0 0.2 0.2 0.8 0.4 1.4 1.8 1.1 0.4 0.5 0.7
0.0 0.0 0.0 0.0 0.0 0.0 0.0 0.0 5.2 11.7 7.1 0.5 0.0 0.0 0.0 0.0 0.0 0.0 0.0 0.0 0.0 0.1 2.1 5.1 2.8 1.7 0.4 0.2 0.0 0.1 0.0 0.0 0.0 0.0 0.0 0.0 0.0 0.0 0.4 0.0 0.0 0.2 0.8 1.6 1.7 1.7 1.3 1.3 1.6 1.3 0.3 0.5 0.6 0.6
0.0 0.0 0.0 0.0 0.0 0.0 17.9 11.0 8.8 8.7 1.1 0.0 0.0 0.0 0.0 0.0 0.0 0.0 0.0 0.0 0.0 0.1 1.1 2.4 2.6 0.6 0.0 0.0 0.0 0.0 0.0 0.0 0.0 0.0 0.0 0.0 0.0 0.1 0.1 0.7 0.6 0.0 0.4 1.1 0.8 0.9 0.6 0.2 0.0 0.5 0.5 0.2 0.6 0.3
0.0 0.0 0.0 0.0 0.0 14.5 19.6 14.1 5.4 3.8 1.4 0.0 0.0 0.0 0.0 0.0 0.0 0.0 0.1 0.0 0.1 0.1 0.2 1.0 0.0 0.1 0.1 0.3 0.5 0.4 0.0 0.0 0.0 0.0 0.0 0.0 0.0 0.0 0.0 0.0 0.0 0.2 0.0 0.4 0.3 0.1 0.6 0.3 0.0 0.6 0.4 0.2 0.5 0.5
0.0 0.0 0.0 0.0 1.4 19.2 16.9 9.5 3.7 1.3 0.2 0.2 0.0 0.0 0.0 0.0 0.0 0.0 0.1 0.1 0.9 0.7 0.0 0.2 0.0 0.0 0.4 0.4 0.2 0.4 0.2 0.1 0.0 0.0 0.0 0.0 0.0 0.0 0.0 0.0 0.0 0.1 0.0 0.0 0.1 0.0 0.4 0.2 0.1 0.0 0.4 0.2 0.1 0.8
0.4 0.0 5.8 4.7 25.2 23.4 15.8 8.4 2.1 0.5 0.1 0.3 0.1 0.0 0.1 0.0 0.0 0.0 0.1 0.7 0.6 0.1 0.1 0.2 0.0 0.0 0.0 0.0 0.6 0.4 0.5 0.0 0.1 0.0 0.0 0.0 0.0 0.0 0.0 0.0 0.0 0.0 0.0 0.0 0.0 0.0 0.0 0.0 0.1 0.0 0.3 0.3 0.1 0.9
0.0 2.7 30.9 29.5 24.6 20.4 12.8 4.9 1.9 0.7 0.1 0.2 0.5 0.6 0.3 0.0 0.0 0.0 0.0 0.0 0.0 0.0 0.0 0.0 0.0 0.7 0.9 0.9 1.3 1.1 0.7 0.1 0.0 0.0 0.1 0.0 0.0 0.0 0.0 0.0 0.0 0.0 0.0 0.0 0.0 0.0 0.0 0.0 0.0 0.0 0.0 0.4 0.2 0.0
0.0 28.8 31.4 27.0 18.2 13.2 9.3 6.4 4.0 1.4 1.6 0.8 0.9 0.8 0.3 0.0 0.2 0.1 0.1 0.0 0.0 0.0 0.0 0.0 0.0 0.0 0.0 0.6 0.9 1.5 2.0 1.4 0.4 0.0 0.6 0.3 0.0 0.0 0.0 0.0 0.0 0.0 0.0 0.0 0.0 0.0 0.0 0.0 0.0 0.0 0.0 0.0 0.0 0.0
35.5 37.8 28.7 23.4 14.4 5.9 2.5 2.2 1.2 1.2 0.8 0.7 0.2 0.0 0.1 0.3 0.3 0.2 0.1 0.0 0.0 0.0 0.0 0.0 0.0 0.0 0.0 0.0 0.5 0.6 0.9 1.3 1.9 1.8 0.2 1.5 0.7 0.2 0.0 0.0 0.2 0.1 0.0 0.0 0.0 0.0 0.0 0.0 0.0 0.0 0.0 0.0 0.0 0.1
31.8 22.6 13.2 6.0 2.9 0.9 0.4 0.3 0.3 0.2 0.0 0.3 0.3 0.0 0.0 0.5 0.5 0.1 0.0 0.0 0.0 0.0 0.0 0.0 0.0 0.0 0.0 0.0 0.0 0.6 0.8 0.9 0.8 1.1 0.2 1.7 1.5 1.9 1.5 1.2 0.7 0.3 0.0 0.0 0.2 0.2 0.1 0.0 0.0 0.0 0.0 0.0 0.0 0.0
22.0 13.8 5.4 1.2 0.1 0.2 0.2 0.1 0.0 0.3 0.2 0.3 0.1 0.2 0.1 0.5 0.1 0.0 0.0 0.0 0.0 0.0 0.0 0.0 0.0 0.0 0.0 0.0 0.0 0.0 0.7 0.9 0.8 0.4 0.2 1.2 1.1 0.9 0.5 1.3 1.1 0.8 0.6 1.1 0.9 0.7 0.6 0.4 0.2 0.1 0.3 0.2 0.2 0.2
7.8 2.6 0.0 0.3 0.1 0.0 0.1 0.1 0.4 0.2 0.4 0.1 0.2 0.3 0.4 0.1 0.0 0.0 0.0 0.0 0.0 0.0 0.0 0.0 0.0 0.0 0.0 0.0 0.0 0.4 0.6 0.8 0.8 0.5 1.2 1.3 1.1 1.0 0.9 1.1 2.2 2.5 1.9 1.6 1.1 1.4 1.5 1.1 0.9 1.1 0.9 0.5 0.6 0.5
1.4 0.1 0.0 0.1 0.1 0.0 0.3 0.2 0.2 0.1 0.1 0.0 0.0 0.0 0.0 0.0 0.0 0.0 0.0 0.0 0.0 0.0 0.0 0.0 0.0 0.0 0.0 0.0 0.0 0.4 0.5 0.8 1.1 1.0 0.8 0.8 1.0 1.2 1.4 2.6 3.3 4.1 4.0 3.7 3.1 2.3 1.7 1.8 2.5 2.3 2.0 2.0 1.7 1.7
0.3 0.0 0.0 0.0 0.1 0.2 0.1 0.1 0.0 0.2 0.2 0.0 0.0 0.3 0.1 0.0 0.1 0.0 0.0 0.1 0.0 0.0 0.0 0.0 0.0 0.0 0.0 0.0 0.0 0.6 0.4 0.4 0.9 0.9 0.9 0.8 0.9 1.2 2.3 2.8 3.6 4.1 4.5 4.0 4.9 5.6 5.2 4.9 5.4 5.1 4.3 3.8 3.5 2.9
0.0 0.0 0.0 0.1 0.1 0.3 0.4 0.2 0.1 0.0 0.1 0.1 0.2 0.2 0.2 0.2 0.1 0.1 0.1 0.0 0.0 0.0 0.0 0.0 0.0 0.1 0.2 0.3 0.5 0.7 0.6 0.7 0.7 1.3 1.4 1.7 1.6 2.2 2.0 3.3 3.5 4.2 4.7 4.7 4.3 4.1 3.7 3.2 2.8 2.6 2.9 2.6 2.6 2.2
0.0 0.0 0.0 0.3 0.5 1.1 1.0 0.5 0.2 0.0 0.1 0.1 0.1 0.0 0.1 0.0 0.0 0.0 0.0 0.0 0.0 0.0 0.0 0.0 0.2 0.4 0.5 0.7 0.9 1.1 1.7 1.7 1.1 1.8 1.7 1.8 2.1 1.8 2.9 3.3 4.1 4.3 4.7 4.6 4.1 3.7 3.4 3.2 3.6 3.4 3.6 3.7 3.5 3.0
1.2 0.6 0.5 0.3 1.4 1.3 1.1 0.6 0.7 0.5 0.5 0.3 0.1 0.1 0.0 0.0 0.0 0.0 0.0 0.0 0.0 0.0 0.0 0.4 0.5 0.7 1.2 1.5 1.4 2.1 2.3 2.0 2.9 3.1 3.5 3.4 3.1 3.2 4.0 3.9 4.3 4.2 4.1 4.1 4.4 4.6 4.7 4.4 4.1 3.8 3.6 3.4 3.3 3.2

GFSWCAN_prec_snow_099.txt.gz
Snowfall_Accumulation
0.0 0.0 0.0 0.0 0.0 0.0 0.0 0.0 0.0 0.0 0.0 0.0 0.0 0.0 0.0 0.0 0.0 0.0 0.0 0.0 0.0 0.0 0.0 0.0 0.0 0.0 0.0 0.0 0.0 0.0 0.0 0.0 0.0 0.7 0.0 0.0 0.1 0.0 0.0 0.0 0.0 0.0 0.2 0.2 0.6 0.5 0.0 0.0 0.0 0.0 0.0 0.0 0.0 0.0
0.0 0.0 0.0 0.0 0.0 0.0 0.0 0.0 0.0 0.0 0.0 0.0 0.0 0.0 0.0 0.0 0.0 0.0 0.0 0.0 0.0 0.0 0.0 0.0 0.0 0.0 0.0 0.0 0.0 0.0 0.0 0.0 0.0 0.0 0.0 0.0 0.1 0.0 0.0 0.0 0.0 0.0 0.0 0.0 0.0 0.0 0.0 0.0 0.0 0.0 0.0 0.0 0.0 0.0
0.0 0.0 0.0 0.0 0.0 0.0 0.0 0.0 0.0 0.0 0.0 0.0 0.0 0.0 0.0 0.0 0.0 0.0 0.0 0.0 0.0 0.1 0.0 0.0 0.0 0.0 0.0 0.0 0.0 0.0 0.0 0.0 0.0 0.0 0.0 0.0 0.0 0.0 0.1 0.0 0.0 0.0 0.0 0.0 0.0 0.0 0.0 0.0 0.0 0.0 0.0 0.0 0.0 0.0
0.0 0.0 0.0 0.0 0.0 0.0 0.0 0.0 0.0 0.0 0.0 0.0 0.0 0.0 0.0 0.0 0.0 0.0 0.0 0.0 0.0 0.1 0.8 0.1 0.0 0.0 0.0 0.0 0.0 0.0 0.0 0.0 0.0 0.0 0.0 0.0 0.0 0.0 0.0 0.0 0.0 0.0 0.0 0.0 0.0 0.0 0.0 0.0 0.0 0.0 0.0 0.0 0.0 0.0
0.0 0.0 0.0 0.0 0.0 0.0 0.0 0.0 0.0 0.0 0.0 0.0 0.0 0.0 0.0 0.0 0.0 0.0 0.0 0.0 0.0 0.2 1.9 0.3 0.0 0.0 0.0 0.0 0.0 0.0 0.0 0.0 0.5 0.3 1.1 0.7 0.0 0.0 0.0 0.0 0.0 0.0 0.0 0.0 0.0 0.0 0.0 0.0 0.0 0.0 0.0 0.0 0.0 0.0
0.0 0.0 0.0 0.0 0.0 0.0 0.0 0.0 0.0 0.0 0.0 0.0 0.0 0.0 0.0 0.0 0.0 0.0 0.0 0.0 0.0 0.0 3.0 1.6 0.0 0.0 0.0 0.0 0.0 0.0 0.0 0.0 0.1 1.1 1.6 0.0 0.0 0.0 0.6 0.0 0.0 0.0 0.0 0.0 0.0 0.0 0.0 0.0 0.0 0.0 0.0 0.0 0.0 0.0
0.0 0.0 0.0 0.0 0.0 0.0 0.0 0.0 0.0 0.0 0.0 0.0 0.0 0.0 0.0 0.0 0.0 0.2 0.0 0.0 0.0 0.0 1.5 3.8 4.0 0.0 0.0 0.0 0.0 0.0 0.0 0.0 2.0 3.2 1.5 0.0 0.0 1.6 1.3 0.3 0.0 0.0 0.0 0.0 0.0 0.0 0.0 0.0 0.0 0.0 0.0 0.0 0.0 0.0
0.0 0.0 0.0 0.0 0.0 0.0 0.0 0.0 0.0 0.0 0.0 0.0 0.0 0.0 0.0 0.0 0.0 0.0 0.0 0.0 0.0 0.0 4.3 8.6 7.1 2.9 0.0 0.4 0.0 0.0 0.0 0.0 0.5 1.4 0.0 0.0 0.0 2.2 1.4 0.0 0.0 0.0 0.0 0.0 0.0 0.0 0.0 0.0 0.0 0.0 0.0 0.0 0.0 0.0
0.0 0.0 0.0 0.0 0.0 0.0 0.0 0.0 0.0 0.0 0.0 0.0 0.0 0.0 0.0 0.0 0.0 0.0 0.0 0.0 0.0 0.0 7.3 6.7 6.7 5.1 0.0 0.0 0.0 0.2 0.0 4.5 0.0 1.6 0.0 0.4 1.2 2.8 0.0 0.1 0.1 0.0 0.1 0.0 0.0 0.0 0.0 0.0 0.0 0.0 0.0 0.0 0.0 0.0
0.0 0.0 0.0 0.0 0.0 0.0 0.0 0.0 0.0 0.0 0.0 0.0 0.0 0.0 0.9 0.0 0.0 0.0 0.0 0.7 4.5 3.5 3.8 5.1 4.8 5.9 3.0 4.7 1.7 1.7 1.9 3.0 3.7 0.0 0.0 1.2 0.0 0.0 0.0 0.0 0.1 0.1 0.0 0.1 0.0 3.0 1.6 1.0 0.0 0.0 0.0 0.0 0.0 0.0
0.0 0.0 0.0 0.0 0.0 0.0 0.0 0.0 0.0 0.0 0.0 0.0 0.0 0.0 0.0 0.0 0.0 0.0 5.6 6.7 3.8 2.4 2.3 3.3 4.5 3.7 0.0 5.0 3.5 0.3 5.7 2.5 4.1 4.9 1.1 2.2 1.6 1.2 0.0 0.1 0.0 0.0 0.1 0.0 0.0 0.0 0.5 2.1 2.0 0.6 0.4 0.2 0.0 0.0
0.0 0.0 0.0 0.0 0.0 0.0 0.0 0.0 0.0 0.0 0.0 0.0 0.0 0.0 0.0 0.8 3.8 4.9 5.7 3.8 1.3 1.0 1.6 2.9 1.5 1.0 1.0 0.0 2.1 1.9 3.7 3.3 3.7 5.2 3.8 2.7 1.0 0.2 1.1 1.0 0.7 0.1 0.0 0.1 0.0 0.0 0.3 0.0 1.0 1.3 0.9 1.2 1.4 1.6
0.0 0.0 0.0 0.0 0.0 0.0 0.0 0.0 0.0 0.0 0.0 0.0 0.0 0.0 0.4 1.0 2.1 3.0 2.9 2.5 0.5 0.7 0.9 0.9 1.1 0.0 0.0 0.1 0.6 1.6 1.6 0.7 1.2 3.7 3.9 1.7 0.3 0.2 0.0 0.2 0.5 2.2 2.7 1.5 1.0 0.8 0.8 0.8 0.5 0.9 0.8 0.5 0.7 0.4
0.0 0.0 0.0 0.0 0.0 0.0 0.0 0.0 0.0 0.0 0.0 0.0 1.0 0.4 0.5 0.8 1.2 1.2 1.1 1.1 0.2 0.1 0.0 0.0 0.6 1.3 0.2 1.2 1.2 1.5 0.1 0.6 2.4 1.6 1.5 0.2 0.2 0.0 0.0 0.0 0.0 0.0 1.1 1.8 2.8 2.3 1.8 2.1 1.3 1.5 0.9 0.3 0.0 0.0
0.0 0.0 0.0 0.0 0.0 0.0 0.0 0.0 0.0 0.0 0.0 2.8 1.0 0.2 0.0 0.0 0.2 0.1 0.0 0.2 0.0 0.0 0.1 0.0 0.0 0.1 1.0 1.3 0.3 1.0 1.0 2.7 3.2 2.0 1.4 0.7 0.2 0.0 0.1 0.1 0.0 0.0 0.0 0.0 0.3 0.7 2.1 1.9 2.2 1.4 0.7 0.6 0.1 0.0
0.0 0.0 0.0 0.0 0.0 0.0 0.0 0.0 0.0 0.0 7.0 3.8 1.3 0.1 0.0 0.0 0.0 0.0 0.0 0.0 0.0 0.0 0.3 0.4 0.6 1.0 0.5 1.7 1.0 0.3 1.1 2.0 2.5 1.3 0.0 0.0 0.0 0.0 0.1 0.0 0.1 0.0 0.0 0.0 0.0 0.0 0.5 0.5 1.1 1.0 0.2 0.5 0.4 0.0
0.0 0.0 0.0 0.0 0.0 0.0 0.0 0.0 0.0 11.5 8.1 4.6 0.6 0.0 0.0 0.0 0.0 0.0 0.0 0.0 0.0 0.2 1.6 2.1 2.5 0.1 0.4 0.8 0.3 0.1 0.2 0.3 0.3 0.0 0.0 0.0 0.0 0.0 0.4 0.0 0.0 0.1 0.0 0.0 0.2 0.2 0.8 0.4 1.4 1.8 1.1 0.4 0.5 0.7
0.0 0.0 0.0 0.0 0.0 0.0 0.0 0.0 5.2 15.7 10.4 1.7 0.0 0.0 0.0 0.0 0.0 0.0 0.0 0.0 0.0 0.1 2.1 5.2 2.8 1.7 0.4 0.2 0.0 0.1 0.0 0.0 0.0 0.0 0.0 0.0 0.0 0.0 0.4 0.0 0.0 0.2 0.8 1.6 1.7 1.7 1.3 1.3 1.6 1.3 0.3 0.5 0.6 0.6
0.0 0.0 0.0 0.0 0.0 0.0 17.9 14.6 12.2 12.0 2.3 0.0 0.0 0.0 0.0 0.0 0.0 0.0 0.0 0.1 0.0 0.1 1.1 2.6 2.7 0.7 0.0 0.0 0.0 0.0 0.0 0.0 0.0 0.0 0.0 0.0 0.0 0.1 0.1 0.7 0.6 0.0 0.4 1.1 0.8 0.9 0.6 0.2 0.0 0.5 0.5 0.2 0.6 0.3
0.0 0.0 0.0 0.0 0.0 14.5 22.0 17.2 8.1 5.5 2.1 0.1 0.0 0.0 0.0 0.0 0.0 0.0 0.1 0.2 0.4 0.7 1.0 1.5 0.0 0.1 0.1 0.3 0.5 0.4 0.0 0.0 0.0 0.0 0.0 0.0 0.0 0.0 0.0 0.0 0.0 0.2 0.0 0.4 0.3 0.1 0.6 0.3 0.0 0.6 0.4 0.2 0.5 0.5
0.0 0.0 0.0 0.0 1.4 19.2 16.9 12.0 3.7 2.0 0.5 0.2 0.0 0.0 0.0 0.0 0.0 0.0 0.1 0.2 1.7 2.1 0.6 0.2 0.0 0.0 0.4 0.4 0.2 0.4 0.2 0.1 0.0 0.0 0.0 0.0 0.0 0.0 0.0 0.0 0.0 0.1 0.0 0.0 0.1 0.0 0.4 0.2 0.1 0.0 0.4 0.2 0.1 0.8
0.4 0.0 5.8 4.7 25.2 24.0 16.5 9.3 3.2 0.5 0.1 0.3 0.1 0.0 0.1 0.0 0.0 0.0 0.1 1.3 1.7 0.4 0.1 0.2 0.0 0.0 0.0 0.0 0.6 0.4 0.5 0.0 0.1 0.0 0.0 0.0 0.0 0.0 0.0 0.0 0.0 0.0 0.0 0.0 0.0 0.0 0.0 0.0 0.1 0.0 0.3 0.3 0.1 0.9
0.0 2.7 30.9 30.4 25.5 21.5 12.8 4.9 1.9 0.7 0.3 0.2 0.5 0.9 0.5 0.0 0.0 0.0 0.2 0.2 0.0 0.0 0.0 0.0 0.0 0.7 0.9 0.9 1.3 1.1 0.7 0.1 0.0 0.0 0.1 0.0 0.0 0.0 0.0 0.0 0.0 0.0 0.0 0.0 0.0 0.0 0.0 0.0 0.0 0.0 0.0 0.4 0.2 0.0
0.0 30.1 33.0 29.1 19.7 14.0 9.7 6.8 4.4 1.6 1.9 0.9 1.0 0.8 0.4 0.0 0.3 0.5 0.3 0.0 0.0 0.0 0.0 0.0 0.0 0.0 0.0 0.6 0.9 1.5 2.0 1.4 0.4 0.0 0.6 0.3 0.0 0.0 0.0 0.0 0.0 0.0 0.0 0.0 0.0 0.0 0.0 0.0 0.0 0.0 0.0 0.0 0.0 0.0
37.6 40.2 30.4 25.2 15.1 6.2 2.5 2.3 1.3 1.2 0.8 0.7 0.3 0.0 0.1 0.4 0.7 0.6 0.2 0.0 0.0 0.0 0.0 0.0 0.0 0.0 0.0 0.0 0.5 0.6 0.9 1.3 1.9 1.8 0.2 1.5 0.7 0.2 0.0 0.0 0.2 0.1 0.0 0.0 0.0 0.0 0.0 0.0 0.0 0.0 0.0 0.0 0.0 0.1
33.8 23.5 14.6 6.0 2.9 0.9 0.4 0.3 0.3 0.2 0.0 0.3 0.3 0.0 0.0 0.7 1.1 0.4 0.0 0.0 0.0 0.0 0.0 0.0 0.0 0.0 0.0 0.0 0.0 0.6 0.8 0.9 0.8 1.1 0.2 1.7 1.5 1.9 1.5 1.2 0.7 0.3 0.0 0.0 0.2 0.2 0.1 0.0 0.0 0.0 0.0 0.0 0.0 0.0
23.5 14.3 5.4 1.4 0.4 0.4 0.2 0.1 0.0 0.3 0.2 0.3 0.1 0.2 0.1 0.8 0.1 0.0 0.0 0.0 0.0 0.0 0.0 0.0 0.0 0.0 0.0 0.0 0.0 0.0 0.7 0.9 0.8 0.4 0.2 1.2 1.1 0.9 0.5 1.3 1.1 0.8 0.6 1.1 0.9 0.7 0.6 0.4 0.2 0.1 0.3 0.2 0.2 0.2
8.4 2.7 0.0 0.3 0.1 0.0 0.1 0.1 0.4 0.2 0.4 0.1 0.2 0.3 0.4 0.1 0.0 0.0 0.0 0.0 0.0 0.0 0.0 0.0 0.0 0.0 0.0 0.0 0.0 0.4 0.6 0.8 0.8 0.5 1.2 1.3 1.1 1.0 0.9 1.1 2.2 2.5 1.9 1.6 1.1 1.4 1.5 1.1 0.9 1.1 0.9 0.5 0.6 0.5
1.4 0.2 0.0 0.1 0.1 0.0 0.3 0.2 0.2 0.1 0.1 0.0 0.0 0.0 0.0 0.0 0.0 0.0 0.0 0.0 0.0 0.0 0.0 0.0 0.0 0.0 0.0 0.0 0.0 0.4 0.5 0.8 1.1 1.0 0.8 0.8 1.0 1.2 1.4 2.6 3.3 4.1 4.0 3.7 3.1 2.3 1.7 1.8 2.5 2.3 2.0 2.0 1.7 1.7
0.3 0.0 0.0 0.0 0.1 0.2 0.1 0.1 0.0 0.2 0.2 0.0 0.0 0.3 0.1 0.0 0.1 0.0 0.0 0.1 0.0 0.0 0.0 0.0 0.0 0.0 0.0 0.0 0.0 0.6 0.4 0.4 0.9 0.9 0.9 0.8 0.9 1.2 2.3 2.8 3.6 4.1 4.5 4.0 4.9 5.6 5.2 4.9 5.4 5.1 4.3 3.8 3.5 2.9
0.0 0.0 0.0 0.1 0.1 0.3 0.4 0.2 0.1 0.0 0.1 0.1 0.2 0.2 0.2 0.2 0.1 0.1 0.1 0.0 0.0 0.0 0.0 0.0 0.0 0.1 0.2 0.3 0.5 0.7 0.6 0.7 0.7 1.3 1.4 1.7 1.6 2.2 2.0 3.3 3.5 4.2 4.7 4.7 4.3 4.1 3.7 3.2 2.8 2.6 2.9 2.6 2.6 2.2
0.0 0.0 0.0 0.3 0.5 1.1 1.0 0.5 0.2 0.0 0.1 0.1 0.1 0.0 0.1 0.0 0.0 0.0 0.0 0.0 0.0 0.0 0.0 0.0 0.2 0.4 0.5 0.7 0.9 1.1 1.7 1.7 1.1 1.8 1.7 1.8 2.1 1.8 2.9 3.3 4.1 4.3 4.7 4.6 4.1 3.7 3.4 3.2 3.6 3.4 3.6 3.7 3.5 3.0
1.2 0.6 0.5 0.3 1.4 1.3 1.1 0.6 0.7 0.5 0.5 0.3 0.1 0.1 0.0 0.0 0.0 0.0 0.0 0.0 0.0 0.0 0.0 0.4 0.5 0.7 1.2 1.5 1.4 2.1 2.3 2.0 2.9 3.1 3.5 3.4 3.1 3.2 4.0 3.9 4.3 4.2 4.1 4.1 4.4 4.6 4.7 4.4 4.1 3.8 3.6 3.4 3.3 3.2

GFSWCAN_prec_snow_102.txt.gz
Snowfall_Accumulation
0.0 0.0 0.0 0.0 0.0 0.0 0.0 0.0 0.0 0.0 0.0 0.0 0.0 0.0 0.0 0.0 0.0 0.0 0.0 0.0 0.0 0.0 0.0 0.0 0.0 0.0 0.0 0.0 0.0 0.0 0.0 0.0 0.0 0.7 0.0 0.0 0.1 0.0 0.0 0.0 0.0 0.0 0.2 0.2 0.6 0.5 0.0 0.0 0.0 0.0 0.0 0.0 0.0 0.0
0.0 0.0 0.0 0.0 0.0 0.0 0.0 0.0 0.0 0.0 0.0 0.0 0.0 0.0 0.0 0.0 0.0 0.0 0.0 0.0 0.0 0.0 0.0 0.0 0.0 0.0 0.0 0.0 0.0 0.0 0.0 0.0 0.0 0.0 0.0 0.0 0.1 0.0 0.0 0.0 0.0 0.0 0.0 0.0 0.0 0.0 0.0 0.0 0.0 0.0 0.0 0.0 0.0 0.0
0.0 0.0 0.0 0.0 0.0 0.0 0.0 0.0 0.0 0.0 0.0 0.0 0.0 0.0 0.0 0.0 0.0 0.0 0.0 0.0 0.0 0.1 0.0 0.0 0.0 0.0 0.0 0.0 0.0 0.0 0.0 0.0 0.0 0.0 0.0 0.0 0.0 0.0 0.1 0.0 0.0 0.0 0.0 0.0 0.0 0.0 0.0 0.0 0.0 0.0 0.0 0.0 0.0 0.0
0.0 0.0 0.0 0.0 0.0 0.0 0.0 0.0 0.0 0.0 0.0 0.0 0.0 0.0 0.0 0.0 0.0 0.0 0.0 0.0 0.0 0.1 0.8 0.1 0.0 0.0 0.0 0.0 0.0 0.0 0.0 0.0 0.0 0.0 0.0 0.0 0.0 0.0 0.0 0.0 0.0 0.0 0.0 0.0 0.0 0.0 0.0 0.0 0.0 0.0 0.0 0.0 0.0 0.0
0.0 0.0 0.0 0.0 0.0 0.0 0.0 0.0 0.0 0.0 0.0 0.0 0.0 0.0 0.0 0.0 0.0 0.0 0.0 0.0 0.0 0.2 1.9 0.3 0.0 0.0 0.0 0.0 0.0 0.0 0.0 0.0 0.5 0.3 1.1 0.7 0.0 0.0 0.0 0.0 0.0 0.0 0.0 0.0 0.0 0.0 0.0 0.0 0.0 0.0 0.0 0.0 0.0 0.0
0.0 0.0 0.0 0.0 0.0 0.0 0.0 0.0 0.0 0.0 0.0 0.0 0.0 0.0 0.0 0.0 0.0 0.0 0.0 0.0 0.0 0.0 3.0 1.6 0.0 0.0 0.0 0.0 0.0 0.0 0.0 0.0 0.1 1.1 1.6 0.0 0.0 0.0 0.6 0.0 0.0 0.0 0.0 0.0 0.0 0.0 0.0 0.0 0.0 0.0 0.0 0.0 0.0 0.0
0.0 0.0 0.0 0.0 0.0 0.0 0.0 0.0 0.0 0.0 0.0 0.0 0.0 0.0 0.0 0.0 0.0 0.2 0.0 0.0 0.0 0.0 1.5 3.8 4.0 0.0 0.0 0.0 0.0 0.0 0.0 0.0 2.0 3.2 1.5 0.0 0.0 1.6 1.3 0.3 0.0 0.0 0.0 0.0 0.0 0.0 0.0 0.0 0.0 0.0 0.0 0.0 0.0 0.0
0.0 0.0 0.0 0.0 0.0 0.0 0.0 0.0 0.0 0.0 0.0 0.0 0.0 0.0 0.0 0.0 0.0 0.0 0.0 0.0 0.0 0.0 4.3 8.6 7.1 2.9 0.0 0.4 0.0 0.0 0.0 0.0 0.5 1.4 0.0 0.0 0.0 2.2 1.4 0.0 0.0 0.0 0.0 0.0 0.0 0.0 0.0 0.0 0.0 0.0 0.0 0.0 0.0 0.0
0.0 0.0 0.0 0.0 0.0 0.0 0.0 0.0 0.0 0.0 0.0 0.0 0.0 0.0 0.0 0.0 0.0 0.0 0.0 0.0 0.0 0.0 7.3 6.7 6.7 5.1 0.0 0.0 0.0 0.2 0.0 4.5 0.0 1.6 0.0 0.4 1.2 2.8 0.0 0.1 0.1 0.0 0.1 0.0 0.0 0.0 0.0 0.0 0.0 0.0 0.0 0.0 0.0 0.0
0.0 0.0 0.0 0.0 0.0 0.0 0.0 0.0 0.0 0.0 0.0 0.0 0.0 0.0 0.9 0.0 0.0 0.0 0.0 0.7 4.5 3.5 3.8 5.1 4.8 5.9 3.0 4.7 1.7 1.7 1.9 3.0 3.7 0.0 0.0 1.2 0.0 0.0 0.0 0.0 0.1 0.1 0.0 0.1 0.0 3.0 1.6 1.0 0.0 0.0 0.0 0.0 0.0 0.0
0.0 0.0 0.0 0.0 0.0 0.0 0.0 0.0 0.0 0.0 0.0 0.0 0.0 0.0 0.0 0.0 0.0 0.0 5.6 6.7 3.8 2.4 2.3 3.3 4.5 3.7 0.0 5.0 3.5 0.3 5.7 2.5 4.1 4.9 1.1 2.2 1.6 1.2 0.0 0.1 0.0 0.0 0.1 0.0 0.0 0.0 0.5 2.1 2.0 0.6 0.4 0.2 0.0 0.0
0.0 0.0 0.0 0.0 0.0 0.0 0.0 0.0 0.0 0.0 0.0 0.0 0.0 0.0 0.0 0.8 3.8 4.9 5.7 3.8 1.3 1.0 1.6 2.9 1.5 1.0 1.0 0.0 2.1 1.9 3.7 3.3 3.7 5.2 3.8 2.7 1.0 0.2 1.1 1.0 0.7 0.1 0.0 0.1 0.0 0.0 0.3 0.0 1.0 1.3 0.9 1.2 1.4 1.6
0.0 0.0 0.0 0.0 0.0 0.0 0.0 0.0 0.0 0.0 0.0 0.0 0.0 0.9 0.6 1.1 2.1 3.0 2.9 2.5 0.5 0.7 0.9 0.9 1.1 0.0 0.0 0.1 0.6 1.6 1.6 0.7 1.2 3.7 3.9 1.7 0.3 0.2 0.0 0.2 0.5 2.2 2.7 1.5 1.0 0.8 0.8 0.8 0.5 0.9 0.8 0.5 0.7 0.4
0.0 0.0 0.0 0.0 0.0 0.0 0.0 0.0 0.0 0.0 0.0 0.0 2.8 1.5 0.7 0.8 1.2 1.2 1.1 1.1 0.2 0.1 0.0 0.0 0.6 1.3 0.2 1.2 1.2 1.5 0.1 0.6 2.4 1.6 1.5 0.2 0.2 0.0 0.0 0.0 0.0 0.0 1.1 1.8 2.8 2.3 1.8 2.1 1.3 1.5 0.9 0.3 0.0 0.0
0.0 0.0 0.0 0.0 0.0 0.0 0.0 0.0 0.0 0.0 0.0 4.8 2.8 0.8 0.0 0.0 0.2 0.1 0.0 0.2 0.0 0.0 0.1 0.0 0.0 0.1 1.0 1.3 0.3 1.0 1.0 2.7 3.2 2.0 1.4 0.7 0.2 0.0 0.1 0.1 0.0 0.0 0.0 0.0 0.3 0.7 2.1 1.9 2.2 1.4 0.7 0.6 0.1 0.0
0.0 0.0 0.0 0.0 0.0 0.0 0.0 0.0 0.0 0.0 7.0 6.0 3.7 0.6 0.0 0.0 0.0 0.0 0.0 0.0 0.0 0.0 0.3 0.4 0.6 1.0 0.5 1.7 1.0 0.3 1.1 2.0 2.5 1.3 0.0 0.0 0.0 0.0 0.1 0.0 0.1 0.0 0.0 0.0 0.0 0.0 0.5 0.5 1.1 1.0 0.2 0.5 0.4 0.0
0.0 0.0 0.0 0.0 0.0 0.0 0.0 0.0 0.0 14.4 10.6 7.3 1.6 0.0 0.0 0.0 0.0 0.0 0.0 0.0 0.0 0.2 1.6 2.1 2.6 0.1 0.4 0.8 0.3 0.1 0.2 0.3 0.3 0.0 0.0 0.0 0.0 0.0 0.4 0.0 0.0 0.1 0.0 0.0 0.2 0.2 0.8 0.4 1.4 1.8 1.1 0.4 0.5 0.7
0.0 0.0 0.0 0.0 0.0 0.0 0.0 0.0 5.2 18.8 12.9 2.7 0.0 0.0 0.0 0.0 0.0 0.0 0.0 0.0 0.0 0.1 2.1 5.3 2.9 1.8 0.4 0.2 0.0 0.1 0.0 0.0 0.0 0.0 0.0 0.0 0.0 0.0 0.4 0.0 0.0 0.2 0.8 1.6 1.7 1.7 1.3 1.3 1.6 1.3 0.3 0.5 0.6 0.6
0.0 0.0 0.0 0.0 0.0 0.0 17.9 14.6 12.2 14.2 3.7 0.4 0.0 0.0 0.0 0.0 0.0 0.0 0.0 0.1 0.0 0.1 1.1 3.0 3.1 0.8 0.0 0.0 0.0 0.0 0.0 0.0 0.0 0.0 0.0 0.0 0.0 0.1 0.1 0.7 0.6 0.0 0.4 1.1 0.8 0.9 0.6 0.2 0.0 0.5 0.5 0.2 0.6 0.3
0.0 0.0 0.0 0.0 0.0 14.5 23.8 18.9 8.8 5.5 2.1 0.1 0.0 0.0 0.0 0.0 0.0 0.0 0.1 0.2 0.4 0.7 2.8 2.7 0.0 0.1 0.1 0.3 0.5 0.4 0.0 0.0 0.0 0.0 0.0 0.0 0.0 0.0 0.0 0.0 0.0 0.2 0.0 0.4 0.3 0.1 0.6 0.3 0.0 0.6 0.4 0.2 0.5 0.5
0.0 0.0 0.0 0.0 1.4 19.2 18.8 13.0 4.1 2.2 0.5 0.2 0.0 0.0 0.0 0.0 0.1 0.0 0.2 0.2 2.5 3.6 1.3 0.2 0.0 0.0 0.4 0.4 0.2 0.4 0.2 0.1 0.0 0.0 0.0 0.0 0.0 0.0 0.0 0.0 0.0 0.1 0.0 0.0 0.1 0.0 0.4 0.2 0.1 0.0 0.4 0.2 0.1 0.8
0.4 0.0 5.8 4.7 25.2 25.0 17.7 9.3 4.1 1.1 0.4 0.3 0.1 0.0 0.3 0.0 0.0 0.0 0.1 2.1 3.0 0.8 0.1 0.2 0.0 0.0 0.0 0.0 0.6 0.4 0.5 0.0 0.1 0.0 0.0 0.0 0.0 0.0 0.0 0.0 0.0 0.0 0.0 0.0 0.0 0.0 0.0 0.0 0.1 0.0 0.3 0.3 0.1 0.9
0.0 2.7 31.6 31.3 26.6 22.6 12.8 4.9 1.9 0.7 0.3 0.2 0.5 0.9 0.5 0.0 0.0 0.0 0.4 0.2 0.0 0.0 0.0 0.0 0.0 0.7 0.9 0.9 1.3 1.1 0.7 0.1 0.0 0.0 0.1 0.0 0.0 0.0 0.0 0.0 0.0 0.0 0.0 0.0 0.0 0.0 0.0 0.0 0.0 0.0 0.0 0.4 0.2 0.0
0.0 31.2 34.2 30.5 21.3 14.9 9.9 6.8 4.4 1.6 1.9 0.9 1.0 0.8 0.4 0.0 0.3 0.7 0.5 0.0 0.0 0.0 0.0 0.0 0.0 0.0 0.0 0.6 0.9 1.5 2.0 1.4 0.4 0.0 0.6 0.3 0.0 0.0 0.0 0.0 0.0 0.0 0.0 0.0 0.0 0.0 0.0 0.0 0.0 0.0 0.0 0.0 0.0 0.0
38.7 41.7 32.0 26.3 15.9 7.3 3.2 2.6 1.5 1.3 0.8 0.7 0.3 0.0 0.1 0.5 0.9 1.0 0.2 0.0 0.0 0.0 0.0 0.0 0.0 0.0 0.0 0.0 0.5 0.6 0.9 1.3 1.9 1.8 0.2 1.5 0.7 0.2 0.0 0.0 0.2 0.1 0.0 0.0 0.0 0.0 0.0 0.0 0.0 0.0 0.0 0.0 0.0 0.1
35.6 23.5 15.6 6.5 3.1 1.0 0.4 0.3 0.3 0.2 0.0 0.3 0.3 0.0 0.0 0.8 1.4 0.6 0.0 0.0 0.0 0.0 0.0 0.0 0.0 0.0 0.0 0.0 0.0 0.6 0.8 0.9 0.8 1.1 0.2 1.7 1.5 1.9 1.5 1.2 0.7 0.3 0.0 0.0 0.2 0.2 0.1 0.0 0.0 0.0 0.0 0.0 0.0 0.0
25.1 14.3 5.8 1.4 0.4 0.4 0.2 0.1 0.0 0.3 0.2 0.3 0.1 0.2 0.1 1.3 0.1 0.0 0.0 0.0 0.0 0.0 0.0 0.0 0.0 0.0 0.0 0.0 0.0 0.0 0.7 0.9 0.8 0.4 0.2 1.2 1.1 0.9 0.5 1.3 1.1 0.8 0.6 1.1 0.9 0.7 0.6 0.4 0.2 0.1 0.3 0.2 0.2 0.2
8.4 2.7 0.6 0.6 0.1 0.0 0.3 0.2 0.4 0.2 0.4 0.1 0.2 0.3 0.6 0.2 0.0 0.0 0.0 0.0 0.0 0.0 0.0 0.0 0.0 0.0 0.0 0.0 0.0 0.4 0.6 0.8 0.8 0.5 1.2 1.3 1.1 1.0 0.9 1.1 2.2 2.5 1.9 1.6 1.1 1.4 1.5 1.1 0.9 1.1 0.9 0.5 0.6 0.5
1.4 0.2 0.0 0.1 0.2 0.1 0.4 0.3 0.2 0.1 0.1 0.0 0.0 0.0 0.0 0.0 0.0 0.0 0.0 0.0 0.0 0.0 0.0 0.0 0.0 0.0 0.0 0.0 0.0 0.4 0.5 0.8 1.1 1.0 0.8 0.8 1.0 1.2 1.4 2.6 3.3 4.1 4.0 3.7 3.1 2.3 1.7 1.8 2.5 2.3 2.0 2.0 1.7 1.7
0.3 0.0 0.0 0.0 0.4 0.4 0.1 0.1 0.0 0.2 0.2 0.0 0.0 0.3 0.1 0.0 0.1 0.0 0.0 0.1 0.0 0.0 0.0 0.0 0.0 0.0 0.0 0.0 0.0 0.6 0.4 0.4 0.9 0.9 0.9 0.8 0.9 1.2 2.3 2.8 3.6 4.1 4.5 4.0 4.9 5.6 5.2 4.9 5.4 5.1 4.3 3.8 3.5 2.9
0.0 0.0 0.0 0.1 0.1 0.3 0.4 0.2 0.1 0.0 0.1 0.1 0.2 0.2 0.2 0.2 0.1 0.1 0.1 0.0 0.0 0.0 0.0 0.0 0.0 0.1 0.2 0.3 0.5 0.7 0.6 0.7 0.7 1.3 1.4 1.7 1.6 2.2 2.0 3.3 3.5 4.2 4.7 4.7 4.3 4.1 3.7 3.2 2.8 2.6 2.9 2.6 2.6 2.2
0.0 0.0 0.0 0.3 0.5 1.1 1.0 0.5 0.2 0.0 0.1 0.1 0.1 0.0 0.1 0.0 0.0 0.0 0.0 0.0 0.0 0.0 0.0 0.0 0.2 0.4 0.5 0.7 0.9 1.1 1.7 1.7 1.1 1.8 1.7 1.8 2.1 1.8 2.9 3.3 4.1 4.3 4.7 4.6 4.1 3.7 3.4 3.2 3.6 3.4 3.6 3.7 3.5 3.0
1.2 0.6 0.5 0.3 1.4 1.3 1.1 0.6 0.7 0.5 0.5 0.3 0.1 0.1 0.0 0.0 0.0 0.0 0.0 0.0 0.0 0.0 0.0 0.4 0.5 0.7 1.2 1.5 1.4 2.1 2.3 2.0 2.9 3.1 3.5 3.4 3.1 3.2 4.0 3.9 4.3 4.2 4.1 4.1 4.4 4.6 4.7 4.4 4.1 3.8 3.6 3.4 3.3 3.2

GFSWCAN_prec_snow_105.txt.gz
Snowfall_Accumulation
0.0 0.0 0.0 0.0 0.0 0.0 0.0 0.0 0.0 0.0 0.0 0.0 0.0 0.0 0.0 0.0 0.0 0.0 0.0 0.0 0.0 0.0 0.0 0.0 0.0 0.0 0.0 0.0 0.0 0.0 0.0 0.0 0.0 0.7 0.0 0.0 0.1 0.0 0.0 0.0 0.0 0.0 0.2 0.2 0.6 0.5 0.0 0.0 0.0 0.0 0.0 0.0 0.0 0.0
0.0 0.0 0.0 0.0 0.0 0.0 0.0 0.0 0.0 0.0 0.0 0.0 0.0 0.0 0.0 0.0 0.0 0.0 0.0 0.0 0.0 0.0 0.0 0.0 0.0 0.0 0.0 0.0 0.0 0.0 0.0 0.0 0.0 0.0 0.0 0.0 0.1 0.0 0.0 0.0 0.0 0.0 0.0 0.0 0.0 0.0 0.0 0.0 0.0 0.0 0.0 0.0 0.0 0.0
0.0 0.0 0.0 0.0 0.0 0.0 0.0 0.0 0.0 0.0 0.0 0.0 0.0 0.0 0.0 0.0 0.0 0.0 0.0 0.0 0.0 0.1 0.0 0.0 0.0 0.0 0.0 0.0 0.0 0.0 0.0 0.0 0.0 0.0 0.0 0.0 0.0 0.0 0.1 0.0 0.0 0.0 0.0 0.0 0.0 0.0 0.0 0.0 0.0 0.0 0.0 0.0 0.0 0.0
0.0 0.0 0.0 0.0 0.0 0.0 0.0 0.0 0.0 0.0 0.0 0.0 0.0 0.0 0.0 0.0 0.0 0.0 0.0 0.0 0.0 0.1 0.8 0.1 0.0 0.0 0.0 0.0 0.0 0.0 0.0 0.0 0.0 0.0 0.0 0.0 0.0 0.0 0.0 0.0 0.0 0.0 0.0 0.0 0.0 0.0 0.0 0.0 0.0 0.0 0.0 0.0 0.0 0.0
0.0 0.0 0.0 0.0 0.0 0.0 0.0 0.0 0.0 0.0 0.0 0.0 0.0 0.0 0.0 0.0 0.0 0.0 0.0 0.0 0.0 0.2 1.9 0.3 0.0 0.0 0.0 0.0 0.0 0.0 0.0 0.0 0.5 0.3 1.1 0.7 0.0 0.0 0.0 0.0 0.0 0.0 0.0 0.0 0.0 0.0 0.0 0.0 0.0 0.0 0.0 0.0 0.0 0.0
0.0 0.0 0.0 0.0 0.0 0.0 0.0 0.0 0.0 0.0 0.0 0.0 0.0 0.0 0.0 0.0 0.0 0.0 0.0 0.0 0.0 0.0 3.0 1.6 0.0 0.0 0.0 0.0 0.0 0.0 0.0 0.0 0.1 1.1 1.6 0.0 0.0 0.0 0.6 0.0 0.0 0.0 0.0 0.0 0.0 0.0 0.0 0.0 0.0 0.0 0.0 0.0 0.0 0.0
0.0 0.0 0.0 0.0 0.0 0.0 0.0 0.0 0.0 0.0 0.0 0.0 0.0 0.0 0.0 0.0 0.0 0.2 0.0 0.0 0.0 0.0 1.5 3.8 4.0 0.0 0.0 0.0 0.0 0.0 0.0 0.0 2.0 3.2 1.5 0.0 0.0 1.6 1.3 0.3 0.0 0.0 0.0 0.0 0.0 0.0 0.0 0.0 0.0 0.0 0.0 0.0 0.0 0.0
0.0 0.0 0.0 0.0 0.0 0.0 0.0 0.0 0.0 0.0 0.0 0.0 0.0 0.0 0.0 0.0 0.0 0.0 0.0 0.0 0.0 0.0 4.3 8.6 7.1 2.9 0.0 0.4 0.0 0.0 0.0 0.0 0.5 1.4 0.0 0.0 0.0 2.2 1.4 0.0 0.0 0.0 0.0 0.0 0.0 0.0 0.0 0.0 0.0 0.0 0.0 0.0 0.0 0.0
0.0 0.0 0.0 0.0 0.0 0.0 0.0 0.0 0.0 0.0 0.0 0.0 0.0 0.0 0.0 0.0 0.0 0.0 0.0 0.0 0.0 0.0 7.3 6.7 6.7 5.1 0.0 0.0 0.0 0.2 0.0 4.5 0.0 1.6 0.0 0.4 1.2 2.8 0.0 0.1 0.1 0.0 0.1 0.0 0.0 0.0 0.0 0.0 0.0 0.0 0.0 0.0 0.0 0.0
0.0 0.0 0.0 0.0 0.0 0.0 0.0 0.0 0.0 0.0 0.0 0.0 0.0 0.0 0.9 0.0 0.0 0.0 0.0 0.7 4.5 3.5 3.8 5.1 4.8 5.9 3.0 4.7 1.7 1.7 1.9 3.0 3.7 0.0 0.0 1.2 0.0 0.0 0.0 0.0 0.1 0.1 0.0 0.1 0.0 3.0 1.6 1.0 0.0 0.0 0.0 0.0 0.0 0.0
0.0 0.0 0.0 0.0 0.0 0.0 0.0 0.0 0.0 0.0 0.0 0.0 0.0 0.0 0.0 0.0 0.0 0.0 5.6 6.7 3.8 2.4 2.3 3.3 4.5 3.7 0.0 5.0 3.5 0.3 5.7 2.5 4.1 4.9 1.1 2.2 1.6 1.2 0.0 0.1 0.0 0.0 0.1 0.0 0.0 0.0 0.5 2.1 2.0 0.6 0.4 0.2 0.0 0.0
0.0 0.0 0.0 0.0 0.0 0.0 0.0 0.0 0.0 0.0 0.0 0.0 0.0 0.0 0.0 0.8 3.8 4.9 5.7 3.8 1.3 1.0 1.6 2.9 1.5 1.0 1.0 0.0 2.1 1.9 3.7 3.3 3.7 5.2 3.8 2.7 1.0 0.2 1.1 1.0 0.7 0.1 0.0 0.1 0.0 0.0 0.3 0.0 1.0 1.3 0.9 1.2 1.4 1.6
0.0 0.0 0.0 0.0 0.0 0.0 0.0 0.0 0.0 0.0 0.0 0.0 0.0 0.9 0.6 1.1 2.2 3.1 2.9 2.5 0.5 0.7 0.9 0.9 1.1 0.0 0.0 0.1 0.6 1.6 1.6 0.7 1.2 3.7 3.9 1.7 0.3 0.2 0.0 0.2 0.5 2.2 2.7 1.5 1.0 0.8 0.8 0.8 0.5 0.9 0.8 0.5 0.7 0.4
0.0 0.0 0.0 0.0 0.0 0.0 0.0 0.0 0.0 0.0 0.0 0.0 3.7 2.3 0.7 0.8 1.2 1.2 1.1 1.1 0.2 0.1 0.0 0.0 0.6 1.3 0.2 1.2 1.2 1.5 0.1 0.6 2.4 1.6 1.5 0.2 0.2 0.0 0.0 0.0 0.0 0.0 1.1 1.8 2.8 2.3 1.8 2.1 1.3 1.5 0.9 0.3 0.0 0.0
0.0 0.0 0.0 0.0 0.0 0.0 0.0 0.0 0.0 0.0 0.0 6.1 4.1 1.3 0.0 0.0 0.2 0.1 0.0 0.2 0.0 0.0 0.1 0.0 0.0 0.1 1.0 1.3 0.3 1.0 1.0 2.7 3.2 2.0 1.4 0.7 0.2 0.0 0.1 0.1 0.0 0.0 0.0 0.0 0.3 0.7 2.1 1.9 2.2 1.4 0.7 0.6 0.1 0.0
0.0 0.0 0.0 0.0 0.0 0.0 0.0 0.0 0.0 0.0 7.0 7.1 4.8 0.6 0.0 0.0 0.0 0.0 0.0 0.0 0.0 0.0 0.3 0.4 0.6 1.0 0.5 1.7 1.0 0.3 1.1 2.0 2.5 1.3 0.0 0.0 0.0 0.0 0.1 0.0 0.1 0.0 0.0 0.0 0.0 0.0 0.5 0.5 1.1 1.0 0.2 0.5 0.4 0.0
0.0 0.0 0.0 0.0 0.0 0.0 0.0 0.0 0.0 14.4 12.0 9.1 2.3 0.0 0.0 0.0 0.0 0.0 0.0 0.0 0.0 0.2 1.6 2.4 3.0 0.1 0.4 0.8 0.3 0.1 0.2 0.3 0.3 0.0 0.0 0.0 0.0 0.0 0.4 0.0 0.0 0.1 0.0 0.0 0.2 0.2 0.8 0.4 1.4 1.8 1.1 0.4 0.5 0.7
0.0 0.0 0.0 0.0 0.0 0.0 0.0 0.0 5.2 20.0 14.4 2.7 0.0 0.0 0.0 0.0 0.0 0.0 0.0 0.0 0.0 0.1 2.1 5.6 3.3 2.3 0.6 0.2 0.0 0.1 0.0 0.0 0.0 0.0 0.0 0.0 0.0 0.0 0.4 0.0 0.0 0.2 0.8 1.6 1.7 1.7 1.3 1.3 1.6 1.3 0.3 0.5 0.6 0.6
0.0 0.0 0.0 0.0 0.0 0.0 17.9 14.6 12.2 14.4 3.7 0.4 0.0 0.0 0.0 0.0 0.0 0.0 0.0 0.1 0.0 0.1 1.1 3.6 3.8 1.4 0.0 0.0 0.0 0.0 0.0 0.0 0.0 0.0 0.0 0.0 0.0 0.1 0.1 0.7 0.6 0.0 0.4 1.1 0.8 0.9 0.6 0.2 0.0 0.5 0.5 0.2 0.6 0.3
0.0 0.0 0.0 0.0 0.0 15.1 24.2 19.2 9.1 5.7 2.1 0.1 0.0 0.0 0.0 0.0 0.0 0.0 0.1 0.2 0.4 0.7 3.9 3.8 0.0 0.1 0.1 0.3 0.5 0.4 0.0 0.0 0.0 0.0 0.0 0.0 0.0 0.0 0.0 0.0 0.0 0.2 0.0 0.4 0.3 0.1 0.6 0.3 0.0 0.6 0.4 0.2 0.5 0.5
0.0 0.0 0.0 0.0 1.4 19.2 19.9 13.5 4.5 2.2 0.5 0.2 0.0 0.0 0.0 0.0 0.1 0.0 0.2 0.2 3.9 5.7 2.3 0.2 0.0 0.0 0.4 0.4 0.2 0.4 0.2 0.1 0.0 0.0 0.0 0.0 0.0 0.0 0.0 0.0 0.0 0.1 0.0 0.0 0.1 0.0 0.4 0.2 0.1 0.0 0.4 0.2 0.1 0.8
0.4 0.0 5.8 4.7 25.5 25.6 17.7 9.3 4.5 1.1 0.4 0.3 0.3 0.1 0.4 0.1 0.0 0.0 0.1 2.1 3.7 0.8 0.1 0.2 0.0 0.0 0.0 0.0 0.6 0.4 0.5 0.0 0.1 0.0 0.0 0.0 0.0 0.0 0.0 0.0 0.0 0.0 0.0 0.0 0.0 0.0 0.0 0.0 0.1 0.0 0.3 0.3 0.1 0.9
0.0 2.7 32.1 31.6 27.2 23.2 12.8 4.9 1.9 0.8 0.5 0.6 0.9 1.3 0.8 0.1 0.0 0.0 0.5 0.2 0.0 0.0 0.0 0.0 0.0 0.7 0.9 0.9 1.3 1.1 0.7 0.1 0.0 0.0 0.1 0.0 0.0 0.0 0.0 0.0 0.0 0.0 0.0 0.0 0.0 0.0 0.0 0.0 0.0 0.0 0.0 0.4 0.2 0.0
0.0 32.6 35.3 31.1 21.7 15.4 9.9 6.8 4.5 1.8 2.1 1.1 1.1 0.8 0.4 0.0 0.3 0.7 0.6 0.0 0.0 0.0 0.0 0.0 0.0 0.0 0.0 0.6 0.9 1.5 2.0 1.4 0.4 0.0 0.6 0.3 0.0 0.0 0.0 0.0 0.0 0.0 0.0 0.0 0.0 0.0 0.0 0.0 0.0 0.0 0.0 0.0 0.0 0.0
40.5 43.8 32.9 26.9 16.1 7.7 3.6 2.6 1.8 1.6 0.9 0.7 0.3 0.0 0.1 0.5 0.9 1.1 0.2 0.0 0.0 0.0 0.0 0.0 0.0 0.0 0.0 0.0 0.5 0.6 0.9 1.3 1.9 1.8 0.2 1.5 0.7 0.2 0.0 0.0 0.2 0.1 0.0 0.0 0.0 0.0 0.0 0.0 0.0 0.0 0.0 0.0 0.0 0.1
37.1 23.5 16.0 6.6 3.1 1.2 0.4 0.3 0.3 0.2 0.0 0.3 0.3 0.0 0.0 0.8 1.8 0.7 0.0 0.0 0.0 0.0 0.0 0.0 0.0 0.0 0.0 0.0 0.0 0.6 0.8 0.9 0.8 1.1 0.2 1.7 1.5 1.9 1.5 1.2 0.7 0.3 0.0 0.0 0.2 0.2 0.1 0.0 0.0 0.0 0.0 0.0 0.0 0.0
26.3 14.8 6.0 1.4 0.4 0.4 0.2 0.1 0.0 0.4 0.4 0.5 0.1 0.2 0.1 1.8 0.3 0.0 0.0 0.0 0.0 0.0 0.0 0.0 0.0 0.0 0.0 0.0 0.0 0.0 0.7 0.9 0.8 0.4 0.2 1.2 1.1 0.9 0.5 1.3 1.1 0.8 0.6 1.1 0.9 0.7 0.6 0.4 0.2 0.1 0.3 0.2 0.2 0.2
8.4 2.7 0.7 0.6 0.4 0.2 0.3 0.2 0.4 0.2 0.7 0.2 0.3 0.5 1.0 0.5 0.0 0.0 0.0 0.0 0.0 0.0 0.0 0.0 0.0 0.0 0.0 0.0 0.0 0.4 0.6 0.8 0.8 0.5 1.2 1.3 1.1 1.0 0.9 1.1 2.2 2.5 1.9 1.6 1.1 1.4 1.5 1.1 0.9 1.1 0.9 0.5 0.6 0.5
1.4 0.2 0.0 0.1 0.2 0.1 0.4 0.3 0.4 0.2 0.1 0.0 0.1 0.2 0.0 0.0 0.0 0.0 0.0 0.0 0.0 0.0 0.0 0.0 0.0 0.0 0.0 0.0 0.0 0.4 0.5 0.8 1.1 1.0 0.8 0.8 1.0 1.2 1.4 2.6 3.3 4.1 4.0 3.7 3.1 2.3 1.7 1.8 2.5 2.3 2.0 2.0 1.7 1.7
0.3 0.0 0.0 0.0 0.4 0.4 0.1 0.1 0.0 0.2 0.2 0.0 0.0 0.3 0.1 0.0 0.1 0.0 0.0 0.1 0.0 0.0 0.0 0.0 0.0 0.0 0.0 0.0 0.0 0.6 0.4 0.4 0.9 0.9 0.9 0.8 0.9 1.2 2.3 2.8 3.6 4.1 4.5 4.0 4.9 5.6 5.2 4.9 5.4 5.1 4.3 3.8 3.5 2.9
0.0 0.0 0.0 0.1 0.1 0.3 0.4 0.2 0.1 0.0 0.1 0.1 0.2 0.2 0.2 0.2 0.1 0.1 0.1 0.0 0.0 0.0 0.0 0.0 0.0 0.1 0.2 0.3 0.5 0.7 0.6 0.7 0.7 1.3 1.4 1.7 1.6 2.2 2.0 3.3 3.5 4.2 4.7 4.7 4.3 4.1 3.7 3.2 2.8 2.6 2.9 2.6 2.6 2.2
0.0 0.0 0.0 0.3 0.5 1.1 1.0 0.5 0.2 0.0 0.1 0.1 0.1 0.0 0.1 0.0 0.0 0.0 0.0 0.0 0.0 0.0 0.0 0.0 0.2 0.4 0.5 0.7 0.9 1.1 1.7 1.7 1.1 1.8 1.7 1.8 2.1 1.8 2.9 3.3 4.1 4.3 4.7 4.6 4.1 3.7 3.4 3.2 3.6 3.4 3.6 3.7 3.5 3.0
1.2 0.6 0.5 0.3 1.4 1.3 1.1 0.6 0.7 0.5 0.5 0.3 0.1 0.1 0.0 0.0 0.0 0.0 0.0 0.0 0.0 0.0 0.0 0.4 0.5 0.7 1.2 1.5 1.4 2.1 2.3 2.0 2.9 3.1 3.5 3.4 3.1 3.2 4.0 3.9 4.3 4.2 4.1 4.1 4.4 4.6 4.7 4.4 4.1 3.8 3.6 3.4 3.3 3.2

GFSWCAN_prec_snow_108.txt.gz
Snowfall_Accumulation
0.0 0.0 0.0 0.0 0.0 0.0 0.0 0.0 0.0 0.0 0.0 0.0 0.0 0.0 0.0 0.0 0.0 0.0 0.0 0.0 0.0 0.0 0.0 0.0 0.0 0.0 0.0 0.0 0.0 0.0 0.0 0.0 0.0 0.7 0.0 0.0 0.1 0.0 0.0 0.0 0.0 0.0 0.2 0.2 0.6 0.5 0.0 0.0 0.0 0.0 0.0 0.0 0.0 0.0
0.0 0.0 0.0 0.0 0.0 0.0 0.0 0.0 0.0 0.0 0.0 0.0 0.0 0.0 0.0 0.0 0.0 0.0 0.0 0.0 0.0 0.0 0.0 0.0 0.0 0.0 0.0 0.0 0.0 0.0 0.0 0.0 0.0 0.0 0.0 0.0 0.1 0.0 0.0 0.0 0.0 0.0 0.0 0.0 0.0 0.0 0.0 0.0 0.0 0.0 0.0 0.0 0.0 0.0
0.0 0.0 0.0 0.0 0.0 0.0 0.0 0.0 0.0 0.0 0.0 0.0 0.0 0.0 0.0 0.0 0.0 0.0 0.0 0.0 0.0 0.1 0.0 0.0 0.0 0.0 0.0 0.0 0.0 0.0 0.0 0.0 0.0 0.0 0.0 0.0 0.0 0.0 0.1 0.0 0.0 0.0 0.0 0.0 0.0 0.0 0.0 0.0 0.0 0.0 0.0 0.0 0.0 0.0
0.0 0.0 0.0 0.0 0.0 0.0 0.0 0.0 0.0 0.0 0.0 0.0 0.0 0.0 0.0 0.0 0.0 0.0 0.0 0.0 0.0 0.1 0.8 0.1 0.0 0.0 0.0 0.0 0.0 0.0 0.0 0.0 0.0 0.0 0.0 0.0 0.0 0.0 0.0 0.0 0.0 0.0 0.0 0.0 0.0 0.0 0.0 0.0 0.0 0.0 0.0 0.0 0.0 0.0
0.0 0.0 0.0 0.0 0.0 0.0 0.0 0.0 0.0 0.0 0.0 0.0 0.0 0.0 0.0 0.0 0.0 0.0 0.0 0.0 0.0 0.2 1.9 0.3 0.0 0.0 0.0 0.0 0.0 0.0 0.0 0.0 0.5 0.3 1.1 0.7 0.0 0.0 0.0 0.0 0.0 0.0 0.0 0.0 0.0 0.0 0.0 0.0 0.0 0.0 0.0 0.0 0.0 0.0
0.0 0.0 0.0 0.0 0.0 0.0 0.0 0.0 0.0 0.0 0.0 0.0 0.0 0.0 0.0 0.0 0.0 0.0 0.0 0.0 0.0 0.0 3.0 1.6 0.0 0.0 0.0 0.0 0.0 0.0 0.0 0.0 0.1 1.1 1.6 0.0 0.0 0.0 0.6 0.0 0.0 0.0 0.0 0.0 0.0 0.0 0.0 0.0 0.0 0.0 0.0 0.0 0.0 0.0
0.0 0.0 0.0 0.0 0.0 0.0 0.0 0.0 0.0 0.0 0.0 0.0 0.0 0.0 0.0 0.0 0.0 0.2 0.0 0.0 0.0 0.0 1.5 3.8 4.0 0.0 0.0 0.0 0.0 0.0 0.0 0.0 2.0 3.2 1.5 0.0 0.0 1.6 1.3 0.3 0.0 0.0 0.0 0.0 0.0 0.0 0.0 0.0 0.0 0.0 0.0 0.0 0.0 0.0
0.0 0.0 0.0 0.0 0.0 0.0 0.0 0.0 0.0 0.0 0.0 0.0 0.0 0.0 0.0 0.0 0.0 0.0 0.0 0.0 0.0 0.0 4.3 8.6 7.1 2.9 0.0 0.4 0.0 0.0 0.0 0.0 0.5 1.4 0.0 0.0 0.0 2.2 1.4 0.0 0.0 0.0 0.0 0.0 0.0 0.0 0.0 0.0 0.0 0.0 0.0 0.0 0.0 0.0
0.0 0.0 0.0 0.0 0.0 0.0 0.0 0.0 0.0 0.0 0.0 0.0 0.0 0.0 0.0 0.0 0.0 0.0 0.0 0.0 0.0 0.0 7.3 6.7 6.7 5.1 0.0 0.0 0.0 0.2 0.0 4.5 0.0 1.6 0.0 0.4 1.2 2.8 0.0 0.1 0.1 0.0 0.1 0.0 0.0 0.0 0.0 0.0 0.0 0.0 0.0 0.0 0.0 0.0
0.0 0.0 0.0 0.0 0.0 0.0 0.0 0.0 0.0 0.0 0.0 0.0 0.0 0.0 0.9 0.0 0.0 0.0 0.0 0.7 4.5 3.5 3.8 5.1 4.8 5.9 3.0 4.7 1.7 1.7 1.9 3.0 3.7 0.0 0.0 1.2 0.0 0.0 0.0 0.0 0.1 0.1 0.0 0.1 0.0 3.0 1.6 1.0 0.0 0.0 0.0 0.0 0.0 0.0
0.0 0.0 0.0 0.0 0.0 0.0 0.0 0.0 0.0 0.0 0.0 0.0 0.0 0.0 0.0 0.0 0.0 0.0 5.6 6.7 3.8 2.4 2.3 3.3 4.5 3.7 0.0 5.0 3.5 0.3 5.7 2.5 4.1 4.9 1.1 2.2 1.6 1.2 0.0 0.1 0.0 0.0 0.1 0.0 0.0 0.0 0.5 2.1 2.0 0.6 0.4 0.2 0.0 0.0
0.0 0.0 0.0 0.0 0.0 0.0 0.0 0.0 0.0 0.0 0.0 0.0 0.0 0.0 0.0 0.8 3.8 4.9 5.8 3.9 1.3 1.0 1.6 2.9 1.5 1.0 1.0 0.0 2.1 1.9 3.7 3.3 3.7 5.2 3.8 2.7 1.0 0.2 1.1 1.0 0.7 0.1 0.0 0.1 0.0 0.0 0.3 0.0 1.0 1.3 0.9 1.2 1.4 1.6
0.0 0.0 0.0 0.0 0.0 0.0 0.0 0.0 0.0 0.0 0.0 0.0 0.0 0.9 0.6 1.1 2.2 3.2 2.9 2.5 0.5 0.7 0.9 0.9 1.1 0.0 0.0 0.1 0.6 1.6 1.6 0.7 1.2 3.7 3.9 1.7 0.3 0.2 0.0 0.2 0.5 2.2 2.7 1.5 1.0 0.8 0.8 0.8 0.5 0.9 0.8 0.5 0.7 0.4
0.0 0.0 0.0 0.0 0.0 0.0 0.0 0.0 0.0 0.0 0.0 0.0 3.7 2.3 0.7 0.8 1.2 1.2 1.1 1.1 0.2 0.1 0.0 0.0 0.6 1.3 0.2 1.2 1.2 1.5 0.1 0.6 2.4 1.6 1.5 0.2 0.2 0.0 0.0 0.0 0.0 0.0 1.1 1.8 2.8 2.3 1.8 2.1 1.3 1.5 0.9 0.3 0.0 0.0
0.0 0.0 0.0 0.0 0.0 0.0 0.0 0.0 0.0 0.0 0.0 6.1 4.7 1.3 0.0 0.0 0.2 0.1 0.0 0.2 0.0 0.0 0.1 0.0 0.0 0.1 1.0 1.3 0.3 1.0 1.0 2.7 3.2 2.0 1.4 0.7 0.2 0.0 0.1 0.1 0.0 0.0 0.0 0.0 0.3 0.7 2.1 1.9 2.2 1.4 0.7 0.6 0.1 0.0
0.0 0.0 0.0 0.0 0.0 0.0 0.0 0.0 0.0 0.0 7.0 7.8 5.3 0.6 0.0 0.0 0.0 0.0 0.0 0.0 0.0 0.0 0.3 0.4 0.6 1.0 0.5 1.7 1.1 0.3 1.1 2.0 2.5 1.3 0.0 0.0 0.0 0.0 0.1 0.0 0.1 0.0 0.0 0.0 0.0 0.0 0.5 0.5 1.1 1.0 0.2 0.5 0.4 0.0
0.0 0.0 0.0 0.0 0.0 0.0 0.0 0.0 0.0 14.4 12.0 9.1 2.3 0.0 0.0 0.0 0.0 0.0 0.0 0.0 0.0 0.2 1.6 2.4 3.0 0.1 0.7 1.1 0.4 0.1 0.2 0.3 0.3 0.0 0.0 0.0 0.0 0.0 0.4 0.0 0.0 0.1 0.0 0.0 0.2 0.2 0.8 0.4 1.4 1.8 1.1 0.4 0.5 0.7
0.0 0.0 0.0 0.0 0.0 0.0 0.0 0.0 5.2 20.0 14.7 2.7 0.0 0.0 0.0 0.0 0.0 0.0 0.0 0.0 0.0 0.1 2.1 5.8 3.6 3.0 1.0 0.2 0.0 0.1 0.0 0.0 0.0 0.0 0.0 0.0 0.0 0.0 0.4 0.0 0.0 0.2 0.8 1.6 1.7 1.7 1.3 1.3 1.6 1.3 0.3 0.5 0.6 0.6
0.0 0.0 0.0 0.0 0.0 0.0 17.9 14.6 12.2 14.5 3.7 0.4 0.0 0.0 0.0 0.0 0.0 0.0 0.0 0.1 0.0 0.1 1.1 4.8 4.8 1.8 0.0 0.0 0.0 0.0 0.0 0.0 0.0 0.0 0.0 0.0 0.0 0.1 0.1 0.7 0.6 0.0 0.4 1.1 0.8 0.9 0.6 0.2 0.0 0.5 0.5 0.2 0.6 0.3
0.0 0.0 0.0 0.0 0.0 15.5 24.5 19.4 9.1 5.7 2.1 0.1 0.0 0.0 0.0 0.0 0.0 0.0 0.1 0.2 0.4 0.7 4.5 4.8 0.0 0.1 0.1 0.3 0.5 0.4 0.0 0.0 0.0 0.0 0.0 0.0 0.0 0.0 0.0 0.0 0.0 0.2 0.0 0.4 0.3 0.1 0.6 0.3 0.0 0.6 0.4 0.2 0.5 0.5
0.0 0.0 0.0 0.0 1.4 19.7 20.3 13.5 4.7 2.3 0.5 0.2 0.0 0.0 0.0 0.0 0.1 0.0 0.2 0.2 4.0 6.0 2.3 0.2 0.0 0.0 0.4 0.4 0.2 0.4 0.2 0.1 0.0 0.0 0.0 0.0 0.0 0.0 0.0 0.0 0.0 0.1 0.0 0.0 0.1 0.0 0.4 0.2 0.1 0.0 0.4 0.2 0.1 0.8
0.4 0.0 5.8 4.7 26.7 26.9 18.3 9.3 4.5 1.1 0.4 0.3 0.3 0.1 0.4 0.1 0.0 0.0 0.1 2.2 3.9 0.8 0.1 0.2 0.0 0.0 0.0 0.0 0.6 0.4 0.5 0.0 0.1 0.0 0.0 0.0 0.0 0.0 0.0 0.0 0.0 0.0 0.0 0.0 0.0 0.0 0.0 0.0 0.1 0.0 0.3 0.3 0.1 0.9
0.0 2.7 33.1 32.6 28.3 24.5 13.2 4.9 1.9 0.8 0.5 0.6 0.9 1.6 0.8 0.1 0.1 0.0 0.9 0.4 0.0 0.0 0.0 0.0 0.0 0.7 0.9 0.9 1.3 1.1 0.7 0.1 0.0 0.0 0.1 0.0 0.0 0.0 0.0 0.0 0.0 0.0 0.0 0.0 0.0 0.0 0.0 0.0 0.0 0.0 0.0 0.4 0.2 0.0
0.0 34.1 37.3 33.0 22.7 15.8 10.1 6.9 4.5 1.8 2.1 1.1 1.1 0.8 0.4 0.0 0.3 0.7 0.8 0.0 0.0 0.0 0.0 0.0 0.0 0.0 0.0 0.6 0.9 1.5 2.0 1.4 0.4 0.0 0.6 0.3 0.0 0.0 0.0 0.0 0.0 0.0 0.0 0.0 0.0 0.0 0.0 0.0 0.0 0.0 0.0 0.0 0.0 0.0
41.4 45.0 34.3 28.5 17.1 8.1 3.9 2.7 1.8 1.6 0.9 0.7 0.3 0.2 0.1 0.5 1.0 1.4 0.3 0.0 0.0 0.0 0.0 0.0 0.0 0.0 0.0 0.0 0.5 0.6 0.9 1.3 1.9 1.8 0.2 1.5 0.7 0.2 0.0 0.0 0.2 0.1 0.0 0.0 0.0 0.0 0.0 0.0 0.0 0.0 0.0 0.0 0.0 0.1
37.8 23.5 16.6 7.3 3.7 1.2 0.4 0.3 0.3 0.2 0.0 0.3 0.3 0.0 0.0 1.1 2.4 1.1 0.0 0.0 0.0 0.0 0.0 0.0 0.0 0.0 0.0 0.0 0.0 0.6 0.8 0.9 0.8 1.1 0.2 1.7 1.5 1.9 1.5 1.2 0.7 0.3 0.0 0.0 0.2 0.2 0.1 0.0 0.0 0.0 0.0 0.0 0.0 0.0
26.9 14.8 6.0 1.4 0.4 0.4 0.2 0.1 0.0 0.4 0.5 0.6 0.1 0.2 0.1 2.4 0.3 0.0 0.0 0.0 0.0 0.0 0.0 0.0 0.0 0.0 0.0 0.0 0.0 0.0 0.7 0.9 0.8 0.4 0.2 1.2 1.1 0.9 0.5 1.3 1.1 0.8 0.6 1.1 0.9 0.7 0.6 0.4 0.2 0.1 0.3 0.2 0.2 0.2
8.4 2.7 0.7 0.6 0.4 0.2 0.3 0.2 0.4 0.2 0.7 0.2 0.9 1.3 2.1 1.4 0.4 0.0 0.0 0.0 0.0 0.0 0.0 0.0 0.0 0.0 0.0 0.0 0.0 0.4 0.6 0.8 0.8 0.5 1.2 1.3 1.1 1.0 0.9 1.1 2.2 2.5 1.9 1.6 1.1 1.4 1.5 1.1 0.9 1.1 0.9 0.5 0.6 0.5
1.4 0.2 0.0 0.1 0.2 0.1 0.4 0.3 0.4 0.2 0.1 0.0 0.1 0.2 0.0 0.0 0.0 0.0 0.0 0.0 0.0 0.0 0.0 0.0 0.0 0.0 0.0 0.0 0.0 0.4 0.5 0.8 1.1 1.0 0.8 0.8 1.0 1.2 1.4 2.6 3.3 4.1 4.0 3.7 3.1 2.3 1.7 1.8 2.5 2.3 2.0 2.0 1.7 1.7
0.3 0.0 0.0 0.0 0.4 0.4 0.1 0.1 0.0 0.2 0.2 0.0 0.0 0.3 0.1 0.0 0.1 0.0 0.0 0.1 0.0 0.0 0.0 0.0 0.0 0.0 0.0 0.0 0.0 0.6 0.4 0.4 0.9 0.9 0.9 0.8 0.9 1.2 2.3 2.8 3.6 4.1 4.5 4.0 4.9 5.6 5.2 4.9 5.4 5.1 4.3 3.8 3.5 2.9
0.0 0.0 0.0 0.1 0.1 0.3 0.4 0.2 0.1 0.0 0.1 0.1 0.2 0.2 0.2 0.2 0.1 0.1 0.1 0.0 0.0 0.0 0.0 0.0 0.0 0.1 0.2 0.3 0.5 0.7 0.6 0.7 0.7 1.3 1.4 1.7 1.6 2.2 2.0 3.3 3.5 4.2 4.7 4.7 4.3 4.1 3.7 3.2 2.8 2.6 2.9 2.6 2.6 2.2
0.0 0.0 0.0 0.3 0.5 1.1 1.0 0.5 0.2 0.0 0.1 0.1 0.1 0.0 0.1 0.0 0.0 0.0 0.0 0.0 0.0 0.0 0.0 0.0 0.2 0.4 0.5 0.7 0.9 1.1 1.7 1.7 1.1 1.8 1.7 1.8 2.1 1.8 2.9 3.3 4.1 4.3 4.7 4.6 4.1 3.7 3.4 3.2 3.6 3.4 3.6 3.7 3.5 3.0
1.2 0.6 0.5 0.3 1.4 1.3 1.1 0.6 0.7 0.5 0.5 0.3 0.1 0.1 0.0 0.0 0.0 0.0 0.0 0.0 0.0 0.0 0.0 0.4 0.5 0.7 1.2 1.5 1.4 2.1 2.3 2.0 2.9 3.1 3.5 3.4 3.1 3.2 4.0 3.9 4.3 4.2 4.1 4.1 4.4 4.6 4.7 4.5 4.1 3.8 3.6 3.4 3.3 3.2

GFSWCAN_prec_snow_111.txt.gz
Snowfall_Accumulation
0.0 0.0 0.0 0.0 0.0 0.0 0.0 0.0 0.0 0.0 0.0 0.0 0.0 0.0 0.0 0.0 0.0 0.0 0.0 0.0 0.0 0.0 0.0 0.0 0.0 0.0 0.0 0.0 0.0 0.0 0.0 0.0 0.0 0.7 0.0 0.0 0.1 0.0 0.0 0.0 0.0 0.0 0.2 0.2 0.6 0.5 0.0 0.0 0.0 0.0 0.0 0.0 0.0 0.0
0.0 0.0 0.0 0.0 0.0 0.0 0.0 0.0 0.0 0.0 0.0 0.0 0.0 0.0 0.0 0.0 0.0 0.0 0.0 0.0 0.0 0.0 0.0 0.0 0.0 0.0 0.0 0.0 0.0 0.0 0.0 0.0 0.0 0.0 0.0 0.0 0.1 0.0 0.0 0.0 0.0 0.0 0.0 0.0 0.0 0.0 0.0 0.0 0.0 0.0 0.0 0.0 0.0 0.0
0.0 0.0 0.0 0.0 0.0 0.0 0.0 0.0 0.0 0.0 0.0 0.0 0.0 0.0 0.0 0.0 0.0 0.0 0.0 0.0 0.0 0.1 0.0 0.0 0.0 0.0 0.0 0.0 0.0 0.0 0.0 0.0 0.0 0.0 0.0 0.0 0.0 0.0 0.1 0.0 0.0 0.0 0.0 0.0 0.0 0.0 0.0 0.0 0.0 0.0 0.0 0.0 0.0 0.0
0.0 0.0 0.0 0.0 0.0 0.0 0.0 0.0 0.0 0.0 0.0 0.0 0.0 0.0 0.0 0.0 0.0 0.0 0.0 0.0 0.0 0.1 0.8 0.1 0.0 0.0 0.0 0.0 0.0 0.0 0.0 0.0 0.0 0.0 0.0 0.0 0.0 0.0 0.0 0.0 0.0 0.0 0.0 0.0 0.0 0.0 0.0 0.0 0.0 0.0 0.0 0.0 0.0 0.0
0.0 0.0 0.0 0.0 0.0 0.0 0.0 0.0 0.0 0.0 0.0 0.0 0.0 0.0 0.0 0.0 0.0 0.0 0.0 0.0 0.0 0.2 1.9 0.3 0.0 0.0 0.0 0.0 0.0 0.0 0.0 0.0 0.5 0.3 1.1 0.7 0.0 0.0 0.0 0.0 0.0 0.0 0.0 0.0 0.0 0.0 0.0 0.0 0.0 0.0 0.0 0.0 0.0 0.0
0.0 0.0 0.0 0.0 0.0 0.0 0.0 0.0 0.0 0.0 0.0 0.0 0.0 0.0 0.0 0.0 0.0 0.0 0.0 0.0 0.0 0.0 3.0 1.6 0.0 0.0 0.0 0.0 0.0 0.0 0.0 0.0 0.1 1.1 1.6 0.0 0.0 0.0 0.6 0.0 0.0 0.0 0.0 0.0 0.0 0.0 0.0 0.0 0.0 0.0 0.0 0.0 0.0 0.0
0.0 0.0 0.0 0.0 0.0 0.0 0.0 0.0 0.0 0.0 0.0 0.0 0.0 0.0 0.0 0.0 0.0 0.2 0.0 0.0 0.0 0.0 1.5 3.8 4.0 0.0 0.0 0.0 0.0 0.0 0.0 0.0 2.0 3.2 1.5 0.0 0.0 1.6 1.3 0.3 0.0 0.0 0.0 0.0 0.0 0.0 0.0 0.0 0.0 0.0 0.0 0.0 0.0 0.0
0.0 0.0 0.0 0.0 0.0 0.0 0.0 0.0 0.0 0.0 0.0 0.0 0.0 0.0 0.0 0.0 0.0 0.0 0.0 0.0 0.0 0.0 4.3 8.6 7.1 2.9 0.0 0.4 0.0 0.0 0.0 0.0 0.5 1.4 0.0 0.0 0.0 2.2 1.4 0.0 0.0 0.0 0.0 0.0 0.0 0.0 0.0 0.0 0.0 0.0 0.0 0.0 0.0 0.0
0.0 0.0 0.0 0.0 0.0 0.0 0.0 0.0 0.0 0.0 0.0 0.0 0.0 0.0 0.0 0.0 0.0 0.0 0.0 0.0 0.0 0.0 7.3 6.7 6.7 5.1 0.0 0.0 0.0 0.2 0.0 4.5 0.0 1.6 0.0 0.4 1.2 2.8 0.0 0.1 0.1 0.0 0.1 0.0 0.0 0.0 0.0 0.0 0.0 0.0 0.0 0.0 0.0 0.0
0.0 0.0 0.0 0.0 0.0 0.0 0.0 0.0 0.0 0.0 0.0 0.0 0.0 0.0 0.9 0.0 0.0 0.0 0.0 0.7 4.5 3.5 3.8 5.1 4.8 5.9 3.0 4.7 1.7 1.7 1.9 3.0 3.7 0.0 0.0 1.2 0.0 0.0 0.0 0.0 0.1 0.1 0.0 0.1 0.0 3.0 1.6 1.0 0.0 0.0 0.0 0.0 0.0 0.0
0.0 0.0 0.0 0.0 0.0 0.0 0.0 0.0 0.0 0.0 0.0 0.0 0.0 0.0 0.0 0.0 0.0 0.0 5.6 6.7 3.8 2.4 2.3 3.3 4.5 3.7 0.0 5.0 3.5 0.3 5.7 2.5 4.1 4.9 1.1 2.2 1.6 1.2 0.0 0.1 0.0 0.0 0.1 0.0 0.0 0.0 0.5 2.1 2.0 0.6 0.4 0.2 0.0 0.0
0.0 0.0 0.0 0.0 0.0 0.0 0.0 0.0 0.0 0.0 0.0 0.0 0.0 0.0 0.0 0.8 3.8 4.9 5.8 3.9 1.3 1.0 1.6 2.9 1.5 1.0 1.0 0.0 2.1 1.9 3.7 3.3 3.7 5.2 3.8 2.7 1.0 0.2 1.1 1.0 0.7 0.1 0.0 0.1 0.0 0.0 0.3 0.0 1.0 1.3 0.9 1.2 1.4 1.6
0.0 0.0 0.0 0.0 0.0 0.0 0.0 0.0 0.0 0.0 0.0 0.0 0.0 0.9 0.6 1.1 2.2 3.3 2.9 2.5 0.5 0.7 0.9 0.9 1.1 0.0 0.0 0.1 0.6 1.6 1.6 0.7 1.2 3.7 3.9 1.7 0.3 0.2 0.0 0.2 0.5 2.2 2.7 1.5 1.0 0.8 0.8 0.8 0.5 0.9 0.8 0.5 0.7 0.4
0.0 0.0 0.0 0.0 0.0 0.0 0.0 0.0 0.0 0.0 0.0 0.0 3.7 2.3 0.7 0.8 1.2 1.2 1.1 1.1 0.2 0.1 0.0 0.0 0.6 1.3 0.2 1.2 1.2 1.5 0.1 0.6 2.4 1.6 1.5 0.2 0.2 0.0 0.0 0.0 0.0 0.0 1.1 1.8 2.8 2.3 1.8 2.1 1.3 1.5 0.9 0.3 0.0 0.0
0.0 0.0 0.0 0.0 0.0 0.0 0.0 0.0 0.0 0.0 0.0 6.1 4.7 1.3 0.0 0.0 0.2 0.1 0.0 0.2 0.0 0.0 0.1 0.0 0.0 0.1 1.0 1.3 0.3 1.0 1.0 2.7 3.2 2.0 1.4 0.7 0.2 0.0 0.1 0.1 0.0 0.0 0.0 0.0 0.3 0.7 2.1 1.9 2.2 1.4 0.7 0.6 0.1 0.0
0.0 0.0 0.0 0.0 0.0 0.0 0.0 0.0 0.0 0.0 7.0 7.8 5.3 0.6 0.0 0.0 0.0 0.0 0.0 0.0 0.0 0.0 0.3 0.4 0.6 1.0 0.5 1.7 1.2 0.3 1.1 2.0 2.5 1.3 0.0 0.0 0.0 0.0 0.1 0.0 0.1 0.0 0.0 0.0 0.0 0.0 0.5 0.5 1.1 1.0 0.2 0.5 0.4 0.0
0.0 0.0 0.0 0.0 0.0 0.0 0.0 0.0 0.0 14.4 12.0 9.2 2.3 0.0 0.0 0.0 0.0 0.0 0.0 0.0 0.0 0.2 1.6 2.4 3.1 0.1 0.7 1.3 0.4 0.1 0.2 0.3 0.3 0.0 0.0 0.0 0.0 0.0 0.4 0.0 0.0 0.1 0.0 0.0 0.2 0.2 0.8 0.4 1.4 1.8 1.1 0.4 0.5 0.7
0.0 0.0 0.0 0.0 0.0 0.0 0.0 0.0 5.2 20.0 14.8 2.7 0.0 0.0 0.0 0.0 0.0 0.0 0.0 0.0 0.0 0.1 2.1 5.8 3.6 3.0 1.0 0.2 0.0 0.1 0.0 0.0 0.0 0.0 0.0 0.0 0.0 0.0 0.4 0.0 0.0 0.2 0.8 1.6 1.7 1.7 1.3 1.3 1.6 1.3 0.3 0.5 0.6 0.6
0.0 0.0 0.0 0.0 0.0 0.0 17.9 14.6 12.2 14.5 3.7 0.4 0.0 0.0 0.0 0.0 0.0 0.0 0.0 0.1 0.0 0.1 1.1 5.4 5.4 1.8 0.0 0.0 0.0 0.0 0.0 0.0 0.0 0.0 0.0 0.0 0.0 0.1 0.1 0.7 0.6 0.0 0.4 1.1 0.8 0.9 0.6 0.2 0.0 0.5 0.5 0.2 0.6 0.3
0.0 0.0 0.0 0.0 0.0 15.9 24.8 19.4 9.1 5.7 2.1 0.1 0.0 0.0 0.0 0.0 0.0 0.0 0.1 0.2 0.4 0.7 4.9 5.2 0.0 0.1 0.1 0.3 0.5 0.4 0.0 0.0 0.0 0.0 0.0 0.0 0.0 0.0 0.0 0.0 0.0 0.2 0.0 0.4 0.3 0.1 0.6 0.3 0.0 0.6 0.4 0.2 0.5 0.5
0.0 0.0 0.0 0.0 1.4 21.0 21.0 13.6 4.8 2.3 0.5 0.2 0.0 0.0 0.0 0.0 0.1 0.0 0.2 0.2 4.0 6.0 2.3 0.2 0.0 0.0 0.4 0.4 0.2 0.4 0.2 0.1 0.0 0.0 0.0 0.0 0.0 0.0 0.0 0.0 0.0 0.1 0.0 0.0 0.1 0.0 0.4 0.2 0.1 0.0 0.4 0.2 0.1 0.8
0.4 0.0 5.8 4.7 27.5 28.6 20.3 9.7 4.5 1.1 0.4 0.3 0.3 0.1 0.4 0.1 0.0 0.0 0.1 2.2 4.0 0.8 0.1 0.2 0.0 0.0 0.0 0.0 0.6 0.4 0.5 0.0 0.1 0.0 0.0 0.0 0.0 0.0 0.0 0.0 0.0 0.0 0.0 0.0 0.0 0.0 0.0 0.0 0.1 0.0 0.3 0.3 0.1 0.9
0.0 2.7 33.7 32.6 29.2 26.0 14.2 5.0 2.0 0.9 0.6 0.6 0.9 1.6 0.8 0.1 0.1 0.0 0.9 0.4 0.0 0.0 0.0 0.0 0.0 0.7 0.9 0.9 1.3 1.1 0.7 0.1 0.0 0.0 0.1 0.0 0.0 0.0 0.0 0.0 0.0 0.0 0.0 0.0 0.0 0.0 0.0 0.0 0.0 0.0 0.0 0.4 0.2 0.0
0.0 34.6 38.1 34.4 24.0 16.8 10.1 7.3 4.6 1.8 2.1 1.1 1.1 0.8 0.4 0.0 0.3 0.7 0.8 0.0 0.0 0.0 0.0 0.0 0.0 0.0 0.0 0.6 0.9 1.5 2.0 1.4 0.4 0.0 0.6 0.3 0.0 0.0 0.0 0.0 0.0 0.0 0.0 0.0 0.0 0.0 0.0 0.0 0.0 0.0 0.0 0.0 0.0 0.0
42.7 46.1 35.0 29.2 17.8 9.0 4.6 3.0 1.9 1.6 0.9 0.7 0.3 0.2 0.1 0.5 1.0 1.4 0.3 0.0 0.0 0.0 0.0 0.0 0.0 0.0 0.0 0.0 0.5 0.6 0.9 1.3 1.9 1.8 0.2 1.5 0.7 0.2 0.0 0.0 0.2 0.1 0.0 0.0 0.0 0.0 0.0 0.0 0.0 0.0 0.0 0.0 0.0 0.1
38.9 23.7 16.8 7.4 3.7 1.2 0.4 0.3 0.4 0.2 0.0 0.3 0.3 0.0 0.0 1.1 2.4 1.3 0.0 0.0 0.0 0.0 0.0 0.0 0.0 0.0 0.0 0.0 0.0 0.6 0.8 0.9 0.8 1.1 0.2 1.7 1.5 1.9 1.5 1.2 0.7 0.3 0.0 0.0 0.2 0.2 0.1 0.0 0.0 0.0 0.0 0.0 0.0 0.4
27.8 14.9 6.0 1.4 0.4 0.4 0.2 0.1 0.0 0.4 0.5 0.6 0.1 0.2 0.1 2.4 0.3 0.0 0.0 0.0 0.0 0.0 0.0 0.0 0.0 0.0 0.0 0.0 0.0 0.0 0.7 0.9 0.8 0.4 0.2 1.2 1.1 0.9 0.5 1.3 1.1 0.8 0.6 1.1 0.9 0.7 0.6 0.4 0.2 0.1 0.3 0.2 0.2 0.2
8.6 2.7 0.7 0.6 0.4 0.2 0.3 0.2 0.4 0.2 0.7 0.2 0.9 1.3 2.1 1.4 0.4 0.0 0.0 0.0 0.0 0.0 0.0 0.0 0.0 0.0 0.0 0.0 0.0 0.4 0.6 0.8 0.8 0.5 1.2 1.3 1.1 1.0 0.9 1.1 2.2 2.5 1.9 1.6 1.1 1.4 1.5 1.1 0.9 1.1 0.9 0.5 0.6 0.5
1.4 0.2 0.0 0.1 0.2 0.1 0.4 0.3 0.4 0.2 0.1 0.0 0.1 0.2 0.0 0.0 0.0 0.0 0.0 0.0 0.0 0.0 0.0 0.0 0.0 0.0 0.0 0.0 0.0 0.4 0.5 0.8 1.1 1.0 0.8 0.8 1.0 1.2 1.4 2.6 3.3 4.1 4.0 3.7 3.1 2.3 1.7 1.8 2.5 2.3 2.0 2.0 1.7 1.7
0.3 0.0 0.0 0.0 0.4 0.4 0.1 0.1 0.0 0.2 0.2 0.0 0.0 0.3 0.1 0.0 0.1 0.0 0.0 0.1 0.0 0.0 0.0 0.0 0.0 0.0 0.0 0.0 0.0 0.6 0.4 0.4 0.9 0.9 0.9 0.8 0.9 1.2 2.3 2.8 3.6 4.1 4.5 4.0 4.9 5.6 5.2 4.9 5.4 5.1 4.3 3.8 3.5 2.9
0.0 0.0 0.0 0.1 0.1 0.3 0.4 0.2 0.1 0.0 0.1 0.1 0.2 0.2 0.2 0.2 0.1 0.1 0.1 0.0 0.0 0.0 0.0 0.0 0.0 0.1 0.2 0.3 0.5 0.7 0.6 0.7 0.7 1.3 1.4 1.7 1.6 2.2 2.0 3.3 3.5 4.2 4.7 4.7 4.3 4.1 3.7 3.2 2.8 2.6 2.9 2.6 2.6 2.2
0.0 0.0 0.0 0.3 0.5 1.1 1.0 0.5 0.2 0.0 0.1 0.1 0.1 0.0 0.1 0.0 0.0 0.0 0.0 0.0 0.0 0.0 0.0 0.0 0.2 0.4 0.5 0.7 0.9 1.1 1.7 1.7 1.1 1.8 1.7 1.8 2.1 1.8 2.9 3.3 4.1 4.3 4.7 4.6 4.1 3.7 3.4 3.2 3.6 3.4 3.6 3.7 3.5 3.0
1.2 0.6 0.5 0.3 1.4 1.3 1.1 0.6 0.7 0.5 0.5 0.3 0.1 0.1 0.0 0.0 0.0 0.0 0.0 0.0 0.0 0.0 0.0 0.4 0.5 0.7 1.2 1.5 1.4 2.1 2.3 2.0 2.9 3.1 3.5 3.4 3.1 3.2 4.0 3.9 4.3 4.2 4.1 4.1 4.4 4.6 4.7 4.5 4.1 3.8 3.6 3.4 3.3 3.2

GFSWCAN_prec_snow_114.txt.gz
Snowfall_Accumulation
0.0 0.0 0.0 0.0 0.0 0.0 0.0 0.0 0.0 0.0 0.0 0.0 0.0 0.0 0.0 0.0 0.0 0.0 0.0 0.0 0.0 0.0 0.0 0.0 0.0 0.0 0.0 0.0 0.0 0.0 0.0 0.0 0.0 0.7 0.0 0.0 0.1 0.0 0.0 0.0 0.0 0.0 0.2 0.2 0.6 0.5 0.0 0.0 0.0 0.0 0.0 0.0 0.0 0.0
0.0 0.0 0.0 0.0 0.0 0.0 0.0 0.0 0.0 0.0 0.0 0.0 0.0 0.0 0.0 0.0 0.0 0.0 0.0 0.0 0.0 0.0 0.0 0.0 0.0 0.0 0.0 0.0 0.0 0.0 0.0 0.0 0.0 0.0 0.0 0.0 0.1 0.0 0.0 0.0 0.0 0.0 0.0 0.0 0.0 0.0 0.0 0.0 0.0 0.0 0.0 0.0 0.0 0.0
0.0 0.0 0.0 0.0 0.0 0.0 0.0 0.0 0.0 0.0 0.0 0.0 0.0 0.0 0.0 0.0 0.0 0.0 0.0 0.0 0.0 0.1 0.0 0.0 0.0 0.0 0.0 0.0 0.0 0.0 0.0 0.0 0.0 0.0 0.0 0.0 0.0 0.0 0.1 0.0 0.0 0.0 0.0 0.0 0.0 0.0 0.0 0.0 0.0 0.0 0.0 0.0 0.0 0.0
0.0 0.0 0.0 0.0 0.0 0.0 0.0 0.0 0.0 0.0 0.0 0.0 0.0 0.0 0.0 0.0 0.0 0.0 0.0 0.0 0.0 0.1 0.8 0.1 0.0 0.0 0.0 0.0 0.0 0.0 0.0 0.0 0.0 0.0 0.0 0.0 0.0 0.0 0.0 0.0 0.0 0.0 0.0 0.0 0.0 0.0 0.0 0.0 0.0 0.0 0.0 0.0 0.0 0.0
0.0 0.0 0.0 0.0 0.0 0.0 0.0 0.0 0.0 0.0 0.0 0.0 0.0 0.0 0.0 0.0 0.0 0.0 0.0 0.0 0.0 0.2 1.9 0.3 0.0 0.0 0.0 0.0 0.0 0.0 0.0 0.0 0.5 0.3 1.1 0.7 0.0 0.0 0.0 0.0 0.0 0.0 0.0 0.0 0.0 0.0 0.0 0.0 0.0 0.0 0.0 0.0 0.0 0.0
0.0 0.0 0.0 0.0 0.0 0.0 0.0 0.0 0.0 0.0 0.0 0.0 0.0 0.0 0.0 0.0 0.0 0.0 0.0 0.0 0.0 0.0 3.0 1.6 0.0 0.0 0.0 0.0 0.0 0.0 0.0 0.0 0.1 1.1 1.6 0.0 0.0 0.0 0.6 0.0 0.0 0.0 0.0 0.0 0.0 0.0 0.0 0.0 0.0 0.0 0.0 0.0 0.0 0.0
0.0 0.0 0.0 0.0 0.0 0.0 0.0 0.0 0.0 0.0 0.0 0.0 0.0 0.0 0.0 0.0 0.0 0.2 0.0 0.0 0.0 0.0 1.5 3.8 4.0 0.0 0.0 0.0 0.0 0.0 0.0 0.0 2.0 3.2 1.5 0.0 0.0 1.6 1.3 0.3 0.0 0.0 0.0 0.0 0.0 0.0 0.0 0.0 0.0 0.0 0.0 0.0 0.0 0.0
0.0 0.0 0.0 0.0 0.0 0.0 0.0 0.0 0.0 0.0 0.0 0.0 0.0 0.0 0.0 0.0 0.0 0.0 0.0 0.0 0.0 0.0 4.3 8.6 7.1 2.9 0.0 0.4 0.0 0.0 0.0 0.0 0.5 1.4 0.0 0.0 0.0 2.2 1.4 0.0 0.0 0.0 0.0 0.0 0.0 0.0 0.0 0.0 0.0 0.0 0.0 0.0 0.0 0.0
0.0 0.0 0.0 0.0 0.0 0.0 0.0 0.0 0.0 0.0 0.0 0.0 0.0 0.0 0.0 0.0 0.0 0.0 0.0 0.0 0.0 0.0 7.3 6.7 6.7 5.1 0.0 0.0 0.0 0.2 0.0 4.5 0.0 1.6 0.0 0.4 1.2 2.8 0.0 0.1 0.1 0.0 0.1 0.0 0.0 0.0 0.0 0.0 0.0 0.0 0.0 0.0 0.0 0.0
0.0 0.0 0.0 0.0 0.0 0.0 0.0 0.0 0.0 0.0 0.0 0.0 0.0 0.0 0.9 0.0 0.0 0.0 0.0 0.7 4.5 3.5 3.8 5.1 4.8 5.9 3.0 4.7 1.7 1.7 1.9 3.0 3.7 0.0 0.0 1.2 0.0 0.0 0.0 0.0 0.1 0.1 0.0 0.1 0.0 3.0 1.6 1.0 0.0 0.0 0.0 0.0 0.0 0.0
0.0 0.0 0.0 0.0 0.0 0.0 0.0 0.0 0.0 0.0 0.0 0.0 0.0 0.0 0.0 0.0 0.0 0.0 5.6 6.7 3.8 2.4 2.3 3.3 4.5 3.7 0.0 5.0 3.5 0.3 5.7 2.5 4.1 4.9 1.1 2.2 1.6 1.2 0.0 0.1 0.0 0.0 0.1 0.0 0.0 0.0 0.5 2.1 2.0 0.6 0.4 0.2 0.0 0.0
0.0 0.0 0.0 0.0 0.0 0.0 0.0 0.0 0.0 0.0 0.0 0.0 0.0 0.0 0.0 0.8 3.8 4.9 5.8 3.9 1.3 1.0 1.6 2.9 1.5 1.0 1.0 0.0 2.1 1.9 3.7 3.3 3.7 5.2 3.8 2.7 1.0 0.2 1.1 1.0 0.7 0.1 0.0 0.1 0.0 0.0 0.3 0.0 1.0 1.3 0.9 1.2 1.4 1.6
0.0 0.0 0.0 0.0 0.0 0.0 0.0 0.0 0.0 0.0 0.0 0.0 0.0 0.9 0.6 1.1 2.2 3.3 2.9 2.5 0.5 0.7 0.9 0.9 1.1 0.0 0.0 0.1 0.6 1.6 1.6 0.7 1.2 3.7 3.9 1.7 0.3 0.2 0.0 0.2 0.5 2.2 2.7 1.5 1.0 0.8 0.8 0.8 0.5 0.9 0.8 0.5 0.7 0.4
0.0 0.0 0.0 0.0 0.0 0.0 0.0 0.0 0.0 0.0 0.0 0.0 3.7 2.3 0.7 0.8 1.2 1.2 1.1 1.1 0.2 0.1 0.0 0.0 0.6 1.3 0.2 1.2 1.2 1.5 0.1 0.6 2.4 1.6 1.5 0.2 0.2 0.0 0.0 0.0 0.0 0.0 1.1 1.8 2.8 2.3 1.8 2.1 1.3 1.5 0.9 0.3 0.0 0.0
0.0 0.0 0.0 0.0 0.0 0.0 0.0 0.0 0.0 0.0 0.0 6.1 4.7 1.3 0.0 0.0 0.2 0.1 0.0 0.2 0.0 0.0 0.1 0.0 0.0 0.1 1.0 1.3 0.3 1.0 1.0 2.7 3.2 2.0 1.4 0.7 0.2 0.0 0.1 0.1 0.0 0.0 0.0 0.0 0.3 0.7 2.1 1.9 2.2 1.4 0.7 0.6 0.1 0.0
0.0 0.0 0.0 0.0 0.0 0.0 0.0 0.0 0.0 0.0 7.0 7.8 5.3 0.6 0.0 0.0 0.0 0.0 0.0 0.0 0.0 0.0 0.3 0.4 0.6 1.0 0.5 1.7 1.2 0.3 1.2 2.0 2.5 1.3 0.0 0.0 0.0 0.0 0.1 0.0 0.1 0.0 0.0 0.0 0.0 0.0 0.5 0.5 1.1 1.0 0.2 0.5 0.4 0.0
0.0 0.0 0.0 0.0 0.0 0.0 0.0 0.0 0.0 14.4 12.0 9.2 2.3 0.0 0.0 0.0 0.0 0.0 0.0 0.0 0.0 0.2 1.6 2.4 3.1 0.1 0.7 1.3 0.5 0.1 0.2 0.3 0.3 0.0 0.0 0.0 0.0 0.0 0.4 0.0 0.0 0.1 0.0 0.0 0.2 0.2 0.8 0.4 1.4 1.8 1.1 0.4 0.5 0.7
0.0 0.0 0.0 0.0 0.0 0.0 0.0 0.0 5.2 20.0 14.8 2.7 0.0 0.0 0.0 0.0 0.0 0.0 0.0 0.0 0.0 0.1 2.1 5.8 3.6 3.0 1.0 0.2 0.0 0.1 0.0 0.0 0.0 0.0 0.0 0.0 0.0 0.0 0.4 0.0 0.0 0.2 0.8 1.6 1.7 1.7 1.3 1.3 1.6 1.3 0.3 0.5 0.6 0.6
0.0 0.0 0.0 0.0 0.0 0.0 17.9 14.6 12.2 14.5 3.7 0.4 0.0 0.0 0.0 0.0 0.0 0.0 0.0 0.1 0.0 0.1 1.1 5.4 5.7 1.8 0.0 0.0 0.0 0.0 0.0 0.0 0.0 0.0 0.0 0.0 0.0 0.1 0.1 0.7 0.6 0.0 0.4 1.1 0.8 0.9 0.6 0.2 0.0 0.5 0.5 0.2 0.6 0.3
0.0 0.0 0.0 0.0 0.0 15.9 25.0 19.4 9.1 5.7 2.1 0.1 0.0 0.0 0.0 0.0 0.0 0.0 0.1 0.2 0.4 0.7 5.1 5.3 0.0 0.1 0.1 0.3 0.5 0.4 0.0 0.0 0.0 0.0 0.0 0.0 0.0 0.0 0.0 0.0 0.0 0.2 0.0 0.4 0.3 0.1 0.6 0.3 0.0 0.6 0.4 0.2 0.5 0.5
0.0 0.0 0.0 0.0 1.4 21.0 21.0 14.1 4.8 2.3 0.5 0.2 0.0 0.0 0.0 0.0 0.1 0.0 0.2 0.2 4.0 6.1 2.3 0.2 0.0 0.0 0.4 0.4 0.2 0.4 0.2 0.1 0.0 0.0 0.0 0.0 0.0 0.0 0.0 0.0 0.0 0.1 0.0 0.0 0.1 0.0 0.4 0.2 0.1 0.0 0.4 0.2 0.1 0.8
0.4 0.0 5.8 4.7 27.5 28.8 20.6 9.7 4.5 1.2 0.5 0.3 0.3 0.1 0.4 0.1 0.0 0.0 0.1 2.2 4.0 0.8 0.1 0.2 0.0 0.0 0.0 0.0 0.6 0.4 0.5 0.0 0.1 0.0 0.0 0.0 0.0 0.0 0.0 0.0 0.0 0.0 0.0 0.0 0.0 0.0 0.0 0.0 0.1 0.0 0.3 0.3 0.1 0.9
0.0 2.7 33.8 32.6 29.5 26.5 14.2 5.0 2.0 0.9 0.7 0.6 0.9 1.6 0.8 0.1 0.1 0.0 0.9 0.4 0.0 0.0 0.0 0.0 0.0 0.7 0.9 0.9 1.3 1.1 0.7 0.1 0.0 0.0 0.1 0.0 0.0 0.0 0.0 0.0 0.0 0.0 0.0 0.0 0.0 0.0 0.0 0.0 0.0 0.0 0.0 0.4 0.2 0.0
0.0 35.1 38.6 35.0 24.5 17.2 10.1 7.5 4.7 1.8 2.1 1.1 1.1 0.8 0.4 0.0 0.3 0.7 0.8 0.0 0.0 0.0 0.0 0.0 0.0 0.0 0.0 0.6 0.9 1.5 2.0 1.4 0.4 0.0 0.6 0.3 0.0 0.0 0.0 0.0 0.0 0.0 0.0 0.0 0.0 0.0 0.0 0.0 0.0 0.0 0.0 0.0 0.0 0.0
44.4 48.1 35.9 29.9 18.0 9.1 4.8 3.1 2.0 1.7 0.9 0.7 0.3 0.2 0.1 0.5 1.0 1.4 0.3 0.0 0.0 0.0 0.0 0.0 0.0 0.0 0.0 0.0 0.5 0.6 0.9 1.3 1.9 1.8 0.2 1.5 0.7 0.2 0.0 0.0 0.2 0.1 0.0 0.0 0.0 0.0 0.0 0.0 0.0 0.0 0.0 0.0 0.0 0.1
40.4 24.3 17.4 7.4 3.7 1.2 0.4 0.3 0.4 0.2 0.0 0.3 0.3 0.0 0.0 1.1 2.4 1.4 0.0 0.0 0.0 0.0 0.0 0.0 0.0 0.0 0.0 0.0 0.0 0.6 0.8 0.9 0.9 1.1 0.2 1.7 1.5 1.9 1.5 1.2 0.7 0.3 0.0 0.0 0.2 0.2 0.1 0.0 0.0 0.0 0.0 0.0 0.0 0.4
28.9 15.2 6.0 1.4 0.4 0.4 0.2 0.1 0.0 0.4 0.5 0.6 0.1 0.2 0.1 2.5 0.3 0.0 0.0 0.0 0.0 0.0 0.0 0.0 0.0 0.0 0.0 0.0 0.0 0.0 0.7 0.9 0.8 0.4 0.2 1.2 1.1 0.9 0.5 1.3 1.1 0.8 0.6 1.1 0.9 0.7 0.6 0.4 0.2 0.1 0.3 0.2 0.2 0.2
8.6 2.7 0.7 0.6 0.4 0.2 0.3 0.2 0.4 0.2 0.7 0.2 0.9 1.3 2.1 1.4 0.4 0.0 0.0 0.0 0.0 0.0 0.0 0.0 0.0 0.0 0.0 0.0 0.0 0.4 0.6 0.8 0.8 0.5 1.2 1.3 1.1 1.0 0.9 1.1 2.2 2.5 1.9 1.6 1.1 1.4 1.5 1.1 0.9 1.1 0.9 0.5 0.6 0.5
1.4 0.2 0.0 0.1 0.2 0.1 0.4 0.3 0.4 0.2 0.1 0.0 0.1 0.2 0.0 0.0 0.0 0.0 0.0 0.0 0.0 0.0 0.0 0.0 0.0 0.0 0.0 0.0 0.0 0.4 0.5 0.8 1.1 1.0 0.8 0.8 1.0 1.2 1.4 2.6 3.3 4.1 4.0 3.7 3.1 2.3 1.7 1.8 2.5 2.3 2.0 2.0 1.7 1.7
0.3 0.0 0.0 0.0 0.4 0.4 0.1 0.1 0.0 0.2 0.2 0.0 0.0 0.3 0.1 0.0 0.1 0.0 0.0 0.1 0.0 0.0 0.0 0.0 0.0 0.0 0.0 0.0 0.0 0.6 0.4 0.4 0.9 0.9 0.9 0.8 0.9 1.2 2.3 2.8 3.6 4.1 4.5 4.0 4.9 5.6 5.2 4.9 5.4 5.1 4.3 3.8 3.5 2.9
0.0 0.0 0.0 0.1 0.1 0.3 0.4 0.2 0.1 0.0 0.1 0.1 0.2 0.2 0.2 0.2 0.1 0.1 0.1 0.0 0.0 0.0 0.0 0.0 0.0 0.1 0.2 0.3 0.5 0.7 0.6 0.7 0.7 1.3 1.4 1.7 1.6 2.2 2.0 3.3 3.5 4.2 4.7 4.7 4.3 4.1 3.7 3.2 2.8 2.6 2.9 2.6 2.6 2.2
0.0 0.0 0.0 0.3 0.5 1.1 1.0 0.5 0.2 0.0 0.1 0.1 0.1 0.0 0.1 0.0 0.0 0.0 0.0 0.0 0.0 0.0 0.0 0.0 0.2 0.4 0.5 0.7 0.9 1.1 1.7 1.7 1.1 1.8 1.7 1.8 2.1 1.8 2.9 3.3 4.1 4.3 4.7 4.6 4.1 3.7 3.4 3.2 3.6 3.4 3.6 3.7 3.5 3.0
1.2 0.6 0.5 0.3 1.4 1.3 1.1 0.6 0.7 0.5 0.5 0.3 0.1 0.1 0.0 0.0 0.0 0.0 0.0 0.0 0.0 0.1 0.0 0.4 0.5 0.7 1.2 1.5 1.4 2.1 2.3 2.0 2.9 3.1 3.5 3.4 3.1 3.2 4.0 3.9 4.3 4.2 4.1 4.1 4.4 4.6 4.7 4.5 4.1 3.8 3.6 3.4 3.3 3.4

GFSWCAN_prec_snow_117.txt.gz
Snowfall_Accumulation
0.0 0.0 0.0 0.0 0.0 0.0 0.0 0.0 0.0 0.0 0.0 0.0 0.0 0.0 0.0 0.0 0.0 0.0 0.0 0.0 0.0 0.0 0.0 0.0 0.0 0.0 0.0 0.0 0.0 0.0 0.0 0.0 0.0 0.7 0.0 0.0 0.1 0.0 0.0 0.0 0.0 0.0 0.2 0.2 0.6 0.5 0.0 0.0 0.0 0.0 0.0 0.0 0.0 0.0
0.0 0.0 0.0 0.0 0.0 0.0 0.0 0.0 0.0 0.0 0.0 0.0 0.0 0.0 0.0 0.0 0.0 0.0 0.0 0.0 0.0 0.0 0.0 0.0 0.0 0.0 0.0 0.0 0.0 0.0 0.0 0.0 0.0 0.0 0.0 0.0 0.1 0.0 0.0 0.0 0.0 0.0 0.0 0.0 0.0 0.0 0.0 0.0 0.0 0.0 0.0 0.0 0.0 0.0
0.0 0.0 0.0 0.0 0.0 0.0 0.0 0.0 0.0 0.0 0.0 0.0 0.0 0.0 0.0 0.0 0.0 0.0 0.0 0.0 0.0 0.1 0.0 0.0 0.0 0.0 0.0 0.0 0.0 0.0 0.0 0.0 0.0 0.0 0.0 0.0 0.0 0.0 0.1 0.0 0.0 0.0 0.0 0.0 0.0 0.0 0.0 0.0 0.0 0.0 0.0 0.0 0.0 0.0
0.0 0.0 0.0 0.0 0.0 0.0 0.0 0.0 0.0 0.0 0.0 0.0 0.0 0.0 0.0 0.0 0.0 0.0 0.0 0.0 0.0 0.1 0.8 0.1 0.0 0.0 0.0 0.0 0.0 0.0 0.0 0.0 0.0 0.0 0.0 0.0 0.0 0.0 0.0 0.0 0.0 0.0 0.0 0.0 0.0 0.0 0.0 0.0 0.0 0.0 0.0 0.0 0.0 0.0
0.0 0.0 0.0 0.0 0.0 0.0 0.0 0.0 0.0 0.0 0.0 0.0 0.0 0.0 0.0 0.0 0.0 0.0 0.0 0.0 0.0 0.2 1.9 0.3 0.0 0.0 0.0 0.0 0.0 0.0 0.0 0.0 0.5 0.3 1.1 0.7 0.0 0.0 0.0 0.0 0.0 0.0 0.0 0.0 0.0 0.0 0.0 0.0 0.0 0.0 0.0 0.0 0.0 0.0
0.0 0.0 0.0 0.0 0.0 0.0 0.0 0.0 0.0 0.0 0.0 0.0 0.0 0.0 0.0 0.0 0.0 0.0 0.0 0.0 0.0 0.0 3.0 1.6 0.0 0.0 0.0 0.0 0.0 0.0 0.0 0.0 0.1 1.1 1.6 0.0 0.0 0.0 0.6 0.0 0.0 0.0 0.0 0.0 0.0 0.0 0.0 0.0 0.0 0.0 0.0 0.0 0.0 0.0
0.0 0.0 0.0 0.0 0.0 0.0 0.0 0.0 0.0 0.0 0.0 0.0 0.0 0.0 0.0 0.0 0.0 0.2 0.0 0.0 0.0 0.0 1.5 3.8 4.0 0.0 0.0 0.0 0.0 0.0 0.0 0.0 2.0 3.2 1.5 0.0 0.0 1.6 1.3 0.3 0.0 0.0 0.0 0.0 0.0 0.0 0.0 0.0 0.0 0.0 0.0 0.0 0.0 0.0
0.0 0.0 0.0 0.0 0.0 0.0 0.0 0.0 0.0 0.0 0.0 0.0 0.0 0.0 0.0 0.0 0.0 0.0 0.0 0.0 0.0 0.0 4.3 8.6 7.1 2.9 0.0 0.4 0.0 0.0 0.0 0.0 0.5 1.4 0.0 0.0 0.0 2.2 1.4 0.0 0.0 0.0 0.0 0.0 0.0 0.0 0.0 0.0 0.0 0.0 0.0 0.0 0.0 0.0
0.0 0.0 0.0 0.0 0.0 0.0 0.0 0.0 0.0 0.0 0.0 0.0 0.0 0.0 0.0 0.0 0.0 0.0 0.0 0.0 0.0 0.0 7.3 6.7 6.7 5.1 0.0 0.0 0.0 0.2 0.0 4.5 0.0 1.6 0.0 0.4 1.2 2.8 0.0 0.1 0.1 0.0 0.1 0.0 0.0 0.0 0.0 0.0 0.0 0.0 0.0 0.0 0.0 0.0
0.0 0.0 0.0 0.0 0.0 0.0 0.0 0.0 0.0 0.0 0.0 0.0 0.0 0.0 0.9 0.0 0.0 0.0 0.0 0.7 4.5 3.5 3.8 5.1 4.8 5.9 3.0 4.7 1.7 1.7 1.9 3.0 3.7 0.0 0.0 1.2 0.0 0.0 0.0 0.0 0.1 0.1 0.0 0.1 0.0 3.0 1.6 1.0 0.0 0.0 0.0 0.0 0.0 0.0
0.0 0.0 0.0 0.0 0.0 0.0 0.0 0.0 0.0 0.0 0.0 0.0 0.0 0.0 0.0 0.0 0.0 0.0 5.6 6.7 3.8 2.4 2.3 3.3 4.5 3.7 0.0 5.0 3.5 0.3 5.7 2.5 4.1 4.9 1.1 2.2 1.6 1.2 0.0 0.1 0.0 0.0 0.1 0.0 0.0 0.0 0.5 2.1 2.0 0.6 0.4 0.2 0.0 0.0
0.0 0.0 0.0 0.0 0.0 0.0 0.0 0.0 0.0 0.0 0.0 0.0 0.0 0.0 0.0 0.8 3.8 4.9 5.8 3.9 1.3 1.0 1.6 2.9 1.5 1.0 1.0 0.0 2.1 1.9 3.7 3.3 3.7 5.2 3.8 2.7 1.0 0.2 1.1 1.0 0.7 0.1 0.0 0.1 0.0 0.0 0.3 0.0 1.0 1.3 0.9 1.2 1.4 1.6
0.0 0.0 0.0 0.0 0.0 0.0 0.0 0.0 0.0 0.0 0.0 0.0 0.0 0.9 0.6 1.1 2.2 3.3 2.9 2.5 0.5 0.7 0.9 0.9 1.1 0.0 0.0 0.1 0.6 1.6 1.6 0.7 1.2 3.7 3.9 1.7 0.3 0.2 0.0 0.2 0.5 2.2 2.7 1.5 1.0 0.8 0.8 0.8 0.5 0.9 0.8 0.5 0.7 0.4
0.0 0.0 0.0 0.0 0.0 0.0 0.0 0.0 0.0 0.0 0.0 0.0 3.7 2.3 0.7 0.8 1.2 1.2 1.1 1.1 0.2 0.1 0.0 0.0 0.6 1.3 0.2 1.2 1.2 1.5 0.1 0.6 2.4 1.6 1.5 0.2 0.2 0.0 0.0 0.0 0.0 0.0 1.1 1.8 2.8 2.3 1.8 2.1 1.3 1.5 0.9 0.3 0.0 0.0
0.0 0.0 0.0 0.0 0.0 0.0 0.0 0.0 0.0 0.0 0.0 6.1 4.7 1.3 0.0 0.0 0.2 0.1 0.0 0.2 0.0 0.0 0.1 0.0 0.0 0.1 1.0 1.3 0.3 1.0 1.0 2.7 3.2 2.0 1.4 0.7 0.2 0.0 0.1 0.1 0.0 0.0 0.0 0.0 0.3 0.7 2.1 1.9 2.2 1.4 0.7 0.6 0.1 0.0
0.0 0.0 0.0 0.0 0.0 0.0 0.0 0.0 0.0 0.0 7.0 7.8 5.3 0.6 0.0 0.0 0.0 0.0 0.0 0.0 0.0 0.0 0.3 0.4 0.6 1.0 0.5 1.7 1.3 0.3 1.2 2.0 2.5 1.3 0.0 0.0 0.0 0.0 0.1 0.0 0.1 0.0 0.0 0.0 0.0 0.0 0.5 0.5 1.1 1.0 0.2 0.5 0.4 0.0
0.0 0.0 0.0 0.0 0.0 0.0 0.0 0.0 0.0 14.4 12.0 9.2 2.3 0.0 0.0 0.0 0.0 0.0 0.0 0.0 0.0 0.2 1.6 2.4 3.1 0.1 0.7 1.3 0.5 0.1 0.2 0.3 0.3 0.0 0.0 0.0 0.0 0.0 0.4 0.0 0.0 0.1 0.0 0.0 0.2 0.2 0.8 0.4 1.4 1.8 1.1 0.4 0.5 0.7
0.0 0.0 0.0 0.0 0.0 0.0 0.0 0.0 5.2 20.0 14.8 2.7 0.0 0.0 0.0 0.0 0.0 0.0 0.0 0.0 0.0 0.1 2.1 5.8 3.6 3.0 1.0 0.2 0.0 0.1 0.0 0.0 0.0 0.0 0.0 0.0 0.0 0.0 0.4 0.0 0.0 0.2 0.8 1.6 1.7 1.7 1.3 1.3 1.6 1.3 0.3 0.5 0.6 0.6
0.0 0.0 0.0 0.0 0.0 0.0 17.9 14.6 12.2 14.5 3.7 0.4 0.0 0.0 0.0 0.0 0.0 0.0 0.0 0.1 0.0 0.1 1.1 5.4 5.9 1.8 0.0 0.0 0.0 0.0 0.0 0.0 0.0 0.0 0.0 0.0 0.0 0.1 0.1 0.7 0.6 0.0 0.4 1.1 0.8 0.9 0.6 0.2 0.0 0.5 0.5 0.2 0.6 0.3
0.0 0.0 0.0 0.0 0.0 15.9 25.0 19.4 9.1 5.7 2.1 0.1 0.0 0.0 0.0 0.0 0.0 0.0 0.1 0.2 0.4 0.7 5.3 5.4 0.0 0.1 0.1 0.3 0.5 0.4 0.0 0.0 0.0 0.0 0.0 0.0 0.0 0.0 0.0 0.0 0.0 0.2 0.0 0.4 0.3 0.1 0.6 0.3 0.0 0.6 0.4 0.2 0.5 0.5
0.0 0.0 0.0 0.0 1.4 21.0 21.0 14.1 4.8 2.3 0.5 0.2 0.0 0.0 0.0 0.0 0.1 0.0 0.2 0.2 4.0 6.1 2.3 0.2 0.0 0.0 0.4 0.4 0.2 0.4 0.2 0.1 0.0 0.0 0.0 0.0 0.0 0.0 0.0 0.0 0.0 0.1 0.0 0.0 0.1 0.0 0.4 0.2 0.1 0.0 0.4 0.2 0.1 0.8
0.4 0.0 5.8 4.7 27.5 28.8 20.6 9.7 4.5 1.2 0.5 0.3 0.3 0.1 0.4 0.1 0.0 0.0 0.1 2.2 4.0 0.8 0.1 0.2 0.0 0.0 0.0 0.0 0.6 0.4 0.5 0.0 0.1 0.0 0.0 0.0 0.0 0.0 0.0 0.0 0.0 0.0 0.0 0.0 0.0 0.0 0.0 0.0 0.1 0.0 0.3 0.3 0.1 0.9
0.0 2.7 33.8 32.6 29.7 26.7 14.2 5.0 2.0 0.9 0.7 0.6 0.9 1.6 0.8 0.1 0.1 0.0 0.9 0.4 0.0 0.0 0.0 0.0 0.0 0.7 0.9 0.9 1.3 1.1 0.7 0.1 0.0 0.0 0.1 0.0 0.0 0.0 0.0 0.0 0.0 0.0 0.0 0.0 0.0 0.0 0.0 0.0 0.0 0.0 0.0 0.4 0.2 0.0
0.0 35.4 39.1 35.5 24.7 17.2 10.1 7.5 4.8 1.8 2.1 1.1 1.1 0.8 0.4 0.0 0.3 0.7 0.8 0.0 0.0 0.0 0.0 0.0 0.0 0.0 0.0 0.6 0.9 1.5 2.0 1.4 0.4 0.0 0.6 0.3 0.0 0.0 0.0 0.0 0.0 0.0 0.0 0.0 0.0 0.0 0.0 0.0 0.0 0.0 0.0 0.0 0.0 0.0
45.9 50.1 36.7 30.7 18.3 9.1 4.8 3.2 2.0 1.8 0.9 0.7 0.3 0.2 0.1 0.5 1.0 1.4 0.3 0.0 0.0 0.0 0.0 0.0 0.0 0.0 0.0 0.0 0.5 0.6 0.9 1.3 1.9 1.8 0.2 1.5 0.7 0.2 0.0 0.0 0.2 0.1 0.0 0.0 0.0 0.0 0.0 0.0 0.0 0.0 0.0 0.0 0.0 0.1
42.2 25.2 18.0 7.4 3.7 1.3 0.4 0.3 0.4 0.2 0.0 0.3 0.3 0.0 0.0 1.1 2.4 1.4 0.0 0.0 0.0 0.0 0.0 0.0 0.0 0.0 0.0 0.0 0.0 0.6 0.8 0.9 0.9 1.1 0.2 1.7 1.5 1.9 1.5 1.2 0.7 0.3 0.0 0.0 0.2 0.2 0.1 0.0 0.0 0.0 0.0 0.0 0.0 0.4
30.0 15.7 6.2 1.4 0.4 0.4 0.2 0.1 0.0 0.4 0.5 0.6 0.1 0.2 0.1 2.5 0.3 0.0 0.0 0.0 0.0 0.0 0.0 0.0 0.0 0.0 0.0 0.0 0.0 0.0 0.7 0.9 0.8 0.4 0.2 1.2 1.1 0.9 0.5 1.3 1.1 0.8 0.6 1.1 0.9 0.7 0.6 0.4 0.2 0.1 0.3 0.2 0.2 0.2
8.6 2.7 0.7 0.6 0.4 0.2 0.3 0.2 0.4 0.2 0.7 0.2 0.9 1.3 2.1 1.4 0.4 0.0 0.0 0.0 0.0 0.0 0.0 0.0 0.0 0.0 0.0 0.0 0.0 0.4 0.6 0.8 0.8 0.5 1.2 1.3 1.1 1.0 0.9 1.1 2.2 2.5 1.9 1.6 1.1 1.4 1.5 1.1 0.9 1.1 0.9 0.5 0.6 0.5
1.4 0.2 0.0 0.1 0.2 0.1 0.4 0.3 0.4 0.2 0.1 0.0 0.1 0.2 0.0 0.0 0.0 0.0 0.0 0.0 0.0 0.0 0.0 0.0 0.0 0.0 0.0 0.0 0.0 0.4 0.5 0.8 1.1 1.0 0.8 0.8 1.0 1.2 1.4 2.6 3.3 4.1 4.0 3.7 3.1 2.3 1.7 1.8 2.5 2.3 2.0 2.0 1.7 1.7
0.3 0.0 0.0 0.0 0.4 0.4 0.1 0.1 0.0 0.2 0.2 0.0 0.0 0.3 0.1 0.0 0.1 0.0 0.0 0.1 0.0 0.0 0.0 0.0 0.0 0.0 0.0 0.0 0.0 0.6 0.4 0.4 0.9 0.9 0.9 0.8 0.9 1.2 2.3 2.8 3.6 4.1 4.5 4.0 4.9 5.6 5.2 4.9 5.4 5.1 4.3 3.8 3.5 2.9
0.0 0.0 0.0 0.1 0.1 0.3 0.4 0.2 0.1 0.0 0.1 0.1 0.2 0.2 0.2 0.2 0.1 0.1 0.1 0.0 0.0 0.0 0.0 0.0 0.0 0.1 0.2 0.3 0.5 0.7 0.6 0.7 0.7 1.3 1.4 1.7 1.6 2.2 2.0 3.3 3.5 4.2 4.7 4.7 4.3 4.1 3.7 3.2 2.8 2.6 2.9 2.6 2.6 2.2
0.0 0.0 0.0 0.3 0.5 1.1 1.0 0.5 0.2 0.0 0.1 0.1 0.1 0.0 0.1 0.0 0.0 0.0 0.0 0.0 0.0 0.0 0.0 0.0 0.2 0.4 0.5 0.7 0.9 1.1 1.7 1.7 1.1 1.8 1.7 1.8 2.1 1.8 2.9 3.3 4.1 4.3 4.7 4.6 4.1 3.7 3.4 3.2 3.6 3.4 3.6 3.7 3.5 3.0
1.2 0.6 0.5 0.3 1.4 1.3 1.1 0.6 0.7 0.5 0.5 0.3 0.1 0.1 0.0 0.0 0.0 0.0 0.0 0.0 0.0 0.1 0.0 0.4 0.5 0.7 1.2 1.5 1.4 2.1 2.3 2.0 2.9 3.1 3.5 3.4 3.1 3.2 4.0 3.9 4.3 4.2 4.1 4.1 4.4 4.6 4.7 4.5 4.1 3.8 3.6 3.4 3.3 3.4

GFSWCAN_prec_snow_120.txt.gz
Snowfall_Accumulation
0.0 0.0 0.0 0.0 0.0 0.0 0.0 0.0 0.0 0.0 0.0 0.0 0.0 0.0 0.0 0.0 0.0 0.0 0.0 0.0 0.0 0.0 0.0 0.0 0.0 0.0 0.0 0.0 0.0 0.0 0.0 0.0 0.0 0.7 0.0 0.0 0.1 0.0 0.0 0.0 0.0 0.0 0.2 0.2 0.6 0.5 0.0 0.0 0.0 0.0 0.0 0.0 0.0 0.0
0.0 0.0 0.0 0.0 0.0 0.0 0.0 0.0 0.0 0.0 0.0 0.0 0.0 0.0 0.0 0.0 0.0 0.0 0.0 0.0 0.0 0.0 0.0 0.0 0.0 0.0 0.0 0.0 0.0 0.0 0.0 0.0 0.0 0.0 0.0 0.0 0.1 0.0 0.0 0.0 0.0 0.0 0.0 0.0 0.0 0.0 0.0 0.0 0.0 0.0 0.0 0.0 0.0 0.0
0.0 0.0 0.0 0.0 0.0 0.0 0.0 0.0 0.0 0.0 0.0 0.0 0.0 0.0 0.0 0.0 0.0 0.0 0.0 0.0 0.0 0.1 0.0 0.0 0.0 0.0 0.0 0.0 0.0 0.0 0.0 0.0 0.0 0.0 0.0 0.0 0.0 0.0 0.1 0.0 0.0 0.0 0.0 0.0 0.0 0.0 0.0 0.0 0.0 0.0 0.0 0.0 0.0 0.0
0.0 0.0 0.0 0.0 0.0 0.0 0.0 0.0 0.0 0.0 0.0 0.0 0.0 0.0 0.0 0.0 0.0 0.0 0.0 0.0 0.0 0.1 0.8 0.1 0.0 0.0 0.0 0.0 0.0 0.0 0.0 0.0 0.0 0.0 0.0 0.0 0.0 0.0 0.0 0.0 0.0 0.0 0.0 0.0 0.0 0.0 0.0 0.0 0.0 0.0 0.0 0.0 0.0 0.0
0.0 0.0 0.0 0.0 0.0 0.0 0.0 0.0 0.0 0.0 0.0 0.0 0.0 0.0 0.0 0.0 0.0 0.0 0.0 0.0 0.0 0.2 1.9 0.3 0.0 0.0 0.0 0.0 0.0 0.0 0.0 0.0 0.5 0.3 1.1 0.7 0.0 0.0 0.0 0.0 0.0 0.0 0.0 0.0 0.0 0.0 0.0 0.0 0.0 0.0 0.0 0.0 0.0 0.0
0.0 0.0 0.0 0.0 0.0 0.0 0.0 0.0 0.0 0.0 0.0 0.0 0.0 0.0 0.0 0.0 0.0 0.0 0.0 0.0 0.0 0.0 3.0 1.6 0.0 0.0 0.0 0.0 0.0 0.0 0.0 0.0 0.1 1.1 1.6 0.0 0.0 0.0 0.6 0.0 0.0 0.0 0.0 0.0 0.0 0.0 0.0 0.0 0.0 0.0 0.0 0.0 0.0 0.0
0.0 0.0 0.0 0.0 0.0 0.0 0.0 0.0 0.0 0.0 0.0 0.0 0.0 0.0 0.0 0.0 0.0 0.2 0.0 0.0 0.0 0.0 1.5 3.8 4.0 0.0 0.0 0.0 0.0 0.0 0.0 0.0 2.0 3.2 1.5 0.0 0.0 1.6 1.3 0.3 0.0 0.0 0.0 0.0 0.0 0.0 0.0 0.0 0.0 0.0 0.0 0.0 0.0 0.0
0.0 0.0 0.0 0.0 0.0 0.0 0.0 0.0 0.0 0.0 0.0 0.0 0.0 0.0 0.0 0.0 0.0 0.0 0.0 0.0 0.0 0.0 4.3 8.6 7.1 2.9 0.0 0.4 0.0 0.0 0.0 0.0 0.5 1.4 0.0 0.0 0.0 2.2 1.4 0.0 0.0 0.0 0.0 0.0 0.0 0.0 0.0 0.0 0.0 0.0 0.0 0.0 0.0 0.0
0.0 0.0 0.0 0.0 0.0 0.0 0.0 0.0 0.0 0.0 0.0 0.0 0.0 0.0 0.0 0.0 0.0 0.0 0.0 0.0 0.0 0.0 7.3 6.7 6.7 5.1 0.0 0.0 0.0 0.2 0.0 4.5 0.0 1.6 0.0 0.4 1.2 2.8 0.0 0.1 0.1 0.0 0.1 0.0 0.0 0.0 0.0 0.0 0.0 0.0 0.0 0.0 0.0 0.0
0.0 0.0 0.0 0.0 0.0 0.0 0.0 0.0 0.0 0.0 0.0 0.0 0.0 0.0 0.9 0.0 0.0 0.0 0.0 0.7 4.5 3.5 3.8 5.1 4.8 5.9 3.0 4.7 1.7 1.7 1.9 3.0 3.7 0.0 0.0 1.2 0.0 0.0 0.0 0.0 0.1 0.1 0.0 0.1 0.0 3.0 1.6 1.0 0.0 0.0 0.0 0.0 0.0 0.0
0.0 0.0 0.0 0.0 0.0 0.0 0.0 0.0 0.0 0.0 0.0 0.0 0.0 0.0 0.0 0.0 0.0 0.0 5.6 6.7 3.8 2.4 2.3 3.3 4.5 3.7 0.0 5.0 3.5 0.3 5.7 2.5 4.1 4.9 1.1 2.2 1.6 1.2 0.0 0.1 0.0 0.0 0.1 0.0 0.0 0.0 0.5 2.1 2.0 0.6 0.4 0.2 0.0 0.0
0.0 0.0 0.0 0.0 0.0 0.0 0.0 0.0 0.0 0.0 0.0 0.0 0.0 0.0 0.0 0.8 3.8 4.9 5.8 3.9 1.3 1.0 1.6 2.9 1.5 1.0 1.0 0.0 2.1 1.9 3.7 3.3 3.7 5.2 3.8 2.7 1.0 0.2 1.1 1.0 0.7 0.1 0.0 0.1 0.0 0.0 0.3 0.0 1.0 1.3 0.9 1.2 1.4 1.6
0.0 0.0 0.0 0.0 0.0 0.0 0.0 0.0 0.0 0.0 0.0 0.0 0.0 0.9 0.6 1.1 2.2 3.3 2.9 2.5 0.5 0.7 0.9 0.9 1.1 0.0 0.0 0.1 0.6 1.6 1.6 0.7 1.2 3.7 3.9 1.7 0.3 0.2 0.0 0.2 0.5 2.2 2.7 1.5 1.0 0.8 0.8 0.8 0.5 0.9 0.8 0.5 0.7 0.4
0.0 0.0 0.0 0.0 0.0 0.0 0.0 0.0 0.0 0.0 0.0 0.0 3.7 2.3 0.7 0.8 1.2 1.2 1.1 1.1 0.2 0.1 0.0 0.0 0.6 1.3 0.2 1.2 1.2 1.5 0.1 0.6 2.4 1.6 1.5 0.2 0.2 0.0 0.0 0.0 0.0 0.0 1.1 1.8 2.8 2.3 1.8 2.1 1.3 1.5 0.9 0.3 0.0 0.0
0.0 0.0 0.0 0.0 0.0 0.0 0.0 0.0 0.0 0.0 0.0 6.1 4.7 1.3 0.0 0.0 0.2 0.1 0.0 0.2 0.0 0.0 0.1 0.0 0.0 0.1 1.0 1.3 0.3 1.0 1.0 2.7 3.2 2.0 1.4 0.7 0.2 0.0 0.1 0.1 0.0 0.0 0.0 0.0 0.3 0.7 2.1 1.9 2.2 1.4 0.7 0.6 0.1 0.0
0.0 0.0 0.0 0.0 0.0 0.0 0.0 0.0 0.0 0.0 7.0 7.8 5.3 0.6 0.0 0.0 0.0 0.0 0.0 0.0 0.0 0.0 0.3 0.4 0.6 1.0 0.5 1.7 1.3 0.3 1.2 2.0 2.5 1.3 0.0 0.0 0.0 0.0 0.1 0.0 0.1 0.0 0.0 0.0 0.0 0.0 0.5 0.5 1.1 1.0 0.2 0.5 0.4 0.0
0.0 0.0 0.0 0.0 0.0 0.0 0.0 0.0 0.0 14.4 12.0 9.2 2.3 0.0 0.0 0.0 0.0 0.0 0.0 0.0 0.0 0.2 1.7 2.4 3.1 0.1 0.7 1.3 0.5 0.1 0.2 0.3 0.3 0.0 0.0 0.0 0.0 0.0 0.4 0.0 0.0 0.1 0.0 0.0 0.2 0.2 0.8 0.4 1.4 1.8 1.1 0.4 0.5 0.7
0.0 0.0 0.0 0.0 0.0 0.0 0.0 0.0 5.2 20.0 14.8 2.7 0.0 0.0 0.0 0.0 0.0 0.0 0.0 0.0 0.0 0.1 2.1 5.8 3.6 3.0 1.0 0.2 0.0 0.1 0.0 0.0 0.0 0.0 0.0 0.0 0.0 0.0 0.4 0.0 0.0 0.2 0.8 1.6 1.7 1.7 1.3 1.3 1.6 1.3 0.3 0.5 0.6 0.6
0.0 0.0 0.0 0.0 0.0 0.0 17.9 14.6 12.2 14.5 3.7 0.4 0.0 0.0 0.0 0.0 0.0 0.0 0.0 0.1 0.0 0.1 1.1 5.4 5.9 1.8 0.0 0.0 0.0 0.0 0.0 0.0 0.0 0.0 0.0 0.0 0.0 0.1 0.1 0.7 0.6 0.0 0.4 1.1 0.8 0.9 0.6 0.2 0.0 0.5 0.5 0.2 0.6 0.3
0.0 0.0 0.0 0.0 0.0 15.9 25.0 19.4 9.1 5.7 2.1 0.1 0.0 0.0 0.0 0.0 0.0 0.0 0.1 0.2 0.4 0.7 5.3 5.4 0.0 0.1 0.1 0.3 0.5 0.4 0.0 0.0 0.0 0.0 0.0 0.0 0.0 0.0 0.0 0.0 0.0 0.2 0.0 0.4 0.3 0.1 0.6 0.3 0.0 0.6 0.4 0.2 0.5 0.5
0.0 0.0 0.0 0.0 1.4 21.0 21.0 14.1 4.8 2.3 0.5 0.2 0.0 0.0 0.0 0.0 0.1 0.0 0.2 0.2 4.0 6.1 2.3 0.2 0.0 0.0 0.4 0.4 0.2 0.4 0.2 0.1 0.0 0.0 0.0 0.0 0.0 0.0 0.0 0.0 0.0 0.1 0.0 0.0 0.1 0.0 0.4 0.2 0.1 0.0 0.4 0.2 0.1 0.8
0.4 0.0 5.8 4.7 27.5 28.8 20.6 9.7 4.5 1.2 0.5 0.3 0.3 0.1 0.4 0.1 0.0 0.0 0.1 2.2 4.0 0.8 0.1 0.2 0.0 0.0 0.0 0.0 0.6 0.4 0.5 0.0 0.1 0.0 0.0 0.0 0.0 0.0 0.0 0.0 0.0 0.0 0.0 0.0 0.0 0.0 0.0 0.0 0.1 0.0 0.3 0.3 0.1 0.9
0.0 2.7 33.8 32.6 29.7 26.7 14.2 5.0 2.0 0.9 0.7 0.6 0.9 1.6 0.8 0.1 0.1 0.0 0.9 0.4 0.0 0.0 0.0 0.0 0.0 0.7 0.9 0.9 1.3 1.1 0.7 0.1 0.0 0.0 0.1 0.0 0.0 0.0 0.0 0.0 0.0 0.0 0.0 0.0 0.0 0.0 0.0 0.0 0.0 0.0 0.0 0.4 0.2 0.0
0.0 35.6 39.4 35.8 24.7 17.2 10.1 7.6 4.9 1.9 2.1 1.1 1.1 0.8 0.4 0.0 0.3 0.7 0.8 0.0 0.0 0.0 0.0 0.0 0.0 0.0 0.0 0.6 0.9 1.5 2.0 1.4 0.4 0.0 0.6 0.3 0.0 0.0 0.0 0.0 0.0 0.0 0.0 0.0 0.0 0.0 0.0 0.0 0.0 0.0 0.0 0.0 0.0 0.0
47.4 52.0 38.0 31.7 18.5 9.1 4.8 3.3 2.1 1.8 0.9 0.8 0.3 0.2 0.1 0.5 1.0 1.4 0.3 0.0 0.0 0.0 0.0 0.0 0.0 0.0 0.0 0.0 0.5 0.6 0.9 1.3 1.9 1.8 0.2 1.5 0.7 0.2 0.0 0.0 0.2 0.1 0.0 0.0 0.0 0.0 0.0 0.0 0.0 0.0 0.0 0.0 0.0 0.1
44.2 26.7 18.6 7.5 3.7 1.3 0.4 0.3 0.4 0.2 0.0 0.3 0.3 0.0 0.0 1.1 2.4 1.4 0.0 0.0 0.0 0.0 0.0 0.0 0.0 0.0 0.0 0.0 0.0 0.6 0.8 0.9 0.9 1.1 0.2 1.7 1.5 1.9 1.5 1.2 0.7 0.3 0.0 0.0 0.2 0.2 0.1 0.0 0.0 0.0 0.0 0.0 0.0 0.4
32.3 17.2 6.9 1.4 0.4 0.4 0.2 0.1 0.0 0.4 0.5 0.6 0.1 0.2 0.1 2.5 0.3 0.0 0.0 0.0 0.0 0.0 0.0 0.0 0.0 0.0 0.0 0.0 0.0 0.0 0.7 0.9 0.8 0.4 0.2 1.2 1.1 0.9 0.5 1.3 1.1 0.8 0.6 1.1 0.9 0.7 0.6 0.4 0.2 0.1 0.3 0.2 0.2 0.2
9.6 3.0 0.7 0.6 0.4 0.2 0.3 0.2 0.4 0.2 0.7 0.2 0.9 1.3 2.1 1.4 0.4 0.0 0.0 0.0 0.0 0.0 0.0 0.0 0.0 0.0 0.0 0.0 0.0 0.4 0.6 0.8 0.8 0.5 1.2 1.3 1.1 1.0 0.9 1.1 2.2 2.5 1.9 1.6 1.1 1.4 1.5 1.1 0.9 1.1 0.9 0.5 0.6 0.5
1.6 0.2 0.0 0.1 0.2 0.1 0.4 0.3 0.4 0.2 0.1 0.0 0.1 0.2 0.0 0.0 0.0 0.0 0.0 0.0 0.0 0.0 0.0 0.0 0.0 0.0 0.0 0.0 0.0 0.4 0.5 0.8 1.1 1.0 0.8 0.8 1.0 1.2 1.4 2.6 3.3 4.1 4.0 3.7 3.1 2.3 1.7 1.8 2.5 2.3 2.0 2.0 1.7 1.7
0.3 0.0 0.0 0.0 0.4 0.4 0.1 0.1 0.0 0.2 0.2 0.0 0.0 0.3 0.1 0.0 0.1 0.0 0.0 0.1 0.0 0.0 0.0 0.0 0.0 0.0 0.0 0.0 0.0 0.6 0.4 0.4 0.9 0.9 0.9 0.8 0.9 1.2 2.3 2.8 3.6 4.1 4.5 4.0 4.9 5.6 5.2 4.9 5.4 5.1 4.3 3.8 3.5 2.9
0.0 0.0 0.0 0.1 0.1 0.3 0.4 0.2 0.1 0.0 0.1 0.1 0.2 0.2 0.2 0.2 0.1 0.1 0.1 0.0 0.0 0.0 0.0 0.0 0.0 0.1 0.2 0.3 0.5 0.7 0.6 0.7 0.7 1.3 1.4 1.7 1.6 2.2 2.0 3.3 3.5 4.2 4.7 4.7 4.3 4.1 3.7 3.2 2.8 2.6 2.9 2.6 2.6 2.2
0.0 0.0 0.0 0.3 0.5 1.1 1.0 0.5 0.2 0.0 0.1 0.1 0.1 0.0 0.1 0.0 0.0 0.0 0.0 0.0 0.0 0.0 0.0 0.0 0.2 0.4 0.5 0.7 0.9 1.1 1.7 1.7 1.1 1.8 1.7 1.8 2.1 1.8 2.9 3.3 4.1 4.3 4.7 4.6 4.1 3.7 3.4 3.2 3.6 3.4 3.6 3.7 3.5 3.0
1.2 0.6 0.5 0.3 1.4 1.3 1.1 0.6 0.7 0.5 0.5 0.3 0.1 0.1 0.0 0.0 0.0 0.0 0.0 0.0 0.0 0.1 0.0 0.4 0.5 0.7 1.2 1.5 1.4 2.1 2.3 2.0 2.9 3.1 3.5 3.4 3.1 3.2 4.0 3.9 4.3 4.2 4.1 4.1 4.4 4.6 4.7 4.5 4.1 3.8 3.6 3.4 3.3 3.4

GFSWCAN_prec_snow_126.txt.gz
Snowfall_Accumulation
0.0 0.0 0.0 0.0 0.0 0.0 0.0 0.0 0.0 0.0 0.0 0.0 0.0 0.0 0.0 0.0 0.0 0.0 0.0 0.0 0.0 0.0 0.0 0.0 0.0 0.0 0.0 0.0 0.0 0.0 0.0 0.0 0.0 0.7 0.0 0.0 0.1 0.0 0.0 0.0 0.0 0.0 0.2 0.2 0.6 0.5 0.0 0.0 0.0 0.0 0.0 0.0 0.0 0.0
0.0 0.0 0.0 0.0 0.0 0.0 0.0 0.0 0.0 0.0 0.0 0.0 0.0 0.0 0.0 0.0 0.0 0.0 0.0 0.0 0.0 0.0 0.0 0.0 0.0 0.0 0.0 0.0 0.0 0.0 0.0 0.0 0.0 0.0 0.0 0.0 0.1 0.0 0.0 0.0 0.0 0.0 0.0 0.0 0.0 0.0 0.0 0.0 0.0 0.0 0.0 0.0 0.0 0.0
0.0 0.0 0.0 0.0 0.0 0.0 0.0 0.0 0.0 0.0 0.0 0.0 0.0 0.0 0.0 0.0 0.0 0.0 0.0 0.0 0.0 0.1 0.0 0.0 0.0 0.0 0.0 0.0 0.0 0.0 0.0 0.0 0.0 0.0 0.0 0.0 0.0 0.0 0.1 0.0 0.0 0.0 0.0 0.0 0.0 0.0 0.0 0.0 0.0 0.0 0.0 0.0 0.0 0.0
0.0 0.0 0.0 0.0 0.0 0.0 0.0 0.0 0.0 0.0 0.0 0.0 0.0 0.0 0.0 0.0 0.0 0.0 0.0 0.0 0.0 0.1 0.8 0.1 0.0 0.0 0.0 0.0 0.0 0.0 0.0 0.0 0.0 0.0 0.0 0.0 0.0 0.0 0.0 0.0 0.0 0.0 0.0 0.0 0.0 0.0 0.0 0.0 0.0 0.0 0.0 0.0 0.0 0.0
0.0 0.0 0.0 0.0 0.0 0.0 0.0 0.0 0.0 0.0 0.0 0.0 0.0 0.0 0.0 0.0 0.0 0.0 0.0 0.0 0.0 0.2 1.9 0.3 0.0 0.0 0.0 0.0 0.0 0.0 0.0 0.0 0.5 0.3 1.1 0.7 0.0 0.0 0.0 0.0 0.0 0.0 0.0 0.0 0.0 0.0 0.0 0.0 0.0 0.0 0.0 0.0 0.0 0.0
0.0 0.0 0.0 0.0 0.0 0.0 0.0 0.0 0.0 0.0 0.0 0.0 0.0 0.0 0.0 0.0 0.0 0.0 0.0 0.0 0.0 0.0 3.0 1.6 0.0 0.0 0.0 0.0 0.0 0.0 0.0 0.0 0.1 1.1 1.6 0.0 0.0 0.0 0.6 0.0 0.0 0.0 0.0 0.0 0.0 0.0 0.0 0.0 0.0 0.0 0.0 0.0 0.0 0.0
0.0 0.0 0.0 0.0 0.0 0.0 0.0 0.0 0.0 0.0 0.0 0.0 0.0 0.0 0.0 0.0 0.0 0.2 0.0 0.0 0.0 0.0 1.5 3.8 4.0 0.0 0.0 0.0 0.0 0.0 0.0 0.0 2.0 3.2 1.5 0.0 0.0 1.6 1.3 0.3 0.0 0.0 0.0 0.0 0.0 0.0 0.0 0.0 0.0 0.0 0.0 0.0 0.0 0.0
0.0 0.0 0.0 0.0 0.0 0.0 0.0 0.0 0.0 0.0 0.0 0.0 0.0 0.0 0.0 0.0 0.0 0.0 0.0 0.0 0.0 0.0 4.3 8.6 7.1 2.9 0.0 0.4 0.0 0.0 0.0 0.0 0.5 1.4 0.0 0.0 0.0 2.2 1.4 0.0 0.0 0.0 0.0 0.0 0.0 0.0 0.0 0.0 0.0 0.0 0.0 0.0 0.0 0.0
0.0 0.0 0.0 0.0 0.0 0.0 0.0 0.0 0.0 0.0 0.0 0.0 0.0 0.0 0.0 0.0 0.0 0.0 0.0 0.0 0.0 0.0 7.3 6.7 6.7 5.1 0.0 0.0 0.0 0.2 0.0 4.5 0.0 1.6 0.0 0.4 1.2 2.8 0.0 0.1 0.1 0.0 0.1 0.0 0.0 0.0 0.0 0.0 0.0 0.0 0.0 0.0 0.0 0.0
0.0 0.0 0.0 0.0 0.0 0.0 0.0 0.0 0.0 0.0 0.0 0.0 0.0 0.0 0.9 0.0 0.0 0.0 0.0 0.7 4.5 3.5 3.8 5.1 4.8 5.9 3.0 4.7 1.7 1.7 1.9 3.0 3.7 0.0 0.0 1.2 0.0 0.0 0.0 0.0 0.1 0.1 0.0 0.1 0.0 3.0 1.6 1.0 0.0 0.0 0.0 0.0 0.0 0.0
0.0 0.0 0.0 0.0 0.0 0.0 0.0 0.0 0.0 0.0 0.0 0.0 0.0 0.0 0.0 0.0 0.0 0.0 5.6 6.7 3.8 2.4 2.3 3.3 4.5 3.7 0.0 5.0 3.5 0.3 5.7 2.5 4.1 4.9 1.1 2.2 1.6 1.2 0.0 0.1 0.0 0.0 0.1 0.0 0.0 0.0 0.5 2.1 2.0 0.6 0.4 0.2 0.0 0.0
0.0 0.0 0.0 0.0 0.0 0.0 0.0 0.0 0.0 0.0 0.0 0.0 0.0 0.0 0.0 0.8 3.8 4.9 5.8 3.9 1.3 1.0 1.6 2.9 1.5 1.0 1.0 0.0 2.1 1.9 3.7 3.3 3.7 5.2 3.8 2.7 1.0 0.2 1.1 1.0 0.7 0.1 0.0 0.1 0.0 0.0 0.3 0.0 1.0 1.3 0.9 1.2 1.4 1.6
0.0 0.0 0.0 0.0 0.0 0.0 0.0 0.0 0.0 0.0 0.0 0.0 0.0 0.9 1.0 1.4 2.4 3.3 2.9 2.5 0.5 0.7 0.9 0.9 1.1 0.0 0.0 0.1 0.6 1.6 1.6 0.7 1.2 3.7 3.9 1.7 0.3 0.2 0.0 0.2 0.5 2.2 2.7 1.5 1.0 0.8 0.8 0.8 0.5 0.9 0.8 0.5 0.7 0.4
0.0 0.0 0.0 0.0 0.0 0.0 0.0 0.0 0.0 0.0 0.0 2.2 4.9 3.2 1.2 1.2 1.2 1.2 1.1 1.1 0.2 0.1 0.0 0.0 0.6 1.3 0.2 1.2 1.2 1.5 0.1 0.6 2.4 1.6 1.5 0.2 0.2 0.0 0.0 0.0 0.0 0.0 1.1 1.8 2.8 2.3 1.8 2.1 1.3 1.5 0.9 0.3 0.0 0.0
0.0 0.0 0.0 0.0 0.0 0.0 0.0 0.0 0.0 0.0 0.0 8.0 5.8 2.1 0.2 0.0 0.2 0.1 0.0 0.2 0.0 0.0 0.1 0.0 0.0 0.1 1.0 1.3 0.3 1.0 1.0 2.8 3.2 2.0 1.4 0.7 0.2 0.0 0.1 0.1 0.0 0.0 0.0 0.0 0.3 0.7 2.1 1.9 2.2 1.4 0.7 0.6 0.1 0.0
0.0 0.0 0.0 0.0 0.0 0.0 0.0 0.0 0.0 0.0 8.6 9.1 6.3 1.1 0.0 0.0 0.0 0.0 0.0 0.0 0.0 0.0 0.3 0.4 0.6 1.0 0.5 1.7 1.4 0.3 1.2 2.0 2.5 1.3 0.0 0.0 0.0 0.0 0.1 0.0 0.1 0.0 0.0 0.0 0.0 0.0 0.5 0.5 1.1 1.0 0.2 0.5 0.4 0.0
0.0 0.0 0.0 0.0 0.0 0.0 0.0 0.0 0.0 15.7 12.9 9.9 2.7 0.1 0.0 0.0 0.0 0.0 0.0 0.0 0.0 0.5 1.9 2.5 3.2 0.1 0.7 1.4 0.6 0.1 0.2 0.3 0.3 0.0 0.0 0.0 0.0 0.0 0.4 0.0 0.0 0.1 0.0 0.0 0.2 0.2 0.8 0.4 1.4 1.8 1.1 0.4 0.5 0.7
0.0 0.0 0.0 0.0 0.0 0.0 1.7 1.1 5.8 20.3 15.1 2.9 0.2 0.2 0.1 0.0 0.0 0.0 0.0 0.0 0.0 0.1 2.2 5.8 3.6 3.0 1.0 0.2 0.0 0.1 0.0 0.0 0.0 0.0 0.0 0.0 0.0 0.0 0.4 0.0 0.0 0.2 0.8 1.6 1.7 1.7 1.3 1.3 1.6 1.3 0.3 0.5 0.6 0.6
0.0 0.0 0.0 0.0 0.0 0.5 18.5 15.2 12.3 14.6 3.8 0.6 0.2 0.1 0.0 0.0 0.0 0.0 0.0 0.1 0.0 0.1 1.1 5.4 5.9 1.8 0.0 0.0 0.0 0.0 0.0 0.0 0.0 0.0 0.0 0.0 0.0 0.1 0.1 0.7 0.6 0.0 0.4 1.1 0.8 0.9 0.6 0.2 0.0 0.5 0.5 0.2 0.6 0.3
0.0 0.0 0.0 0.0 0.0 16.0 25.1 19.6 9.2 5.8 2.1 0.1 0.0 0.0 0.0 0.0 0.0 0.0 0.1 0.2 0.4 0.7 5.3 5.4 0.0 0.1 0.1 0.3 0.5 0.4 0.0 0.0 0.0 0.0 0.0 0.0 0.0 0.0 0.0 0.0 0.0 0.2 0.0 0.4 0.3 0.1 0.6 0.3 0.0 0.6 0.4 0.2 0.5 0.5
0.0 0.0 0.0 0.0 1.4 21.0 21.0 14.1 4.9 2.3 0.5 0.2 0.0 0.0 0.0 0.0 0.1 0.0 0.2 0.2 4.0 6.1 2.3 0.2 0.0 0.0 0.4 0.4 0.2 0.4 0.2 0.1 0.0 0.0 0.0 0.0 0.0 0.0 0.0 0.0 0.0 0.1 0.0 0.0 0.1 0.0 0.4 0.2 0.1 0.0 0.4 0.2 0.1 0.8
0.4 0.0 5.8 4.7 27.5 28.8 20.6 9.7 4.5 1.2 0.5 0.3 0.3 0.1 0.4 0.1 0.0 0.0 0.1 2.2 4.0 0.8 0.1 0.2 0.0 0.0 0.0 0.0 0.6 0.4 0.5 0.0 0.1 0.0 0.0 0.0 0.0 0.0 0.0 0.0 0.0 0.0 0.0 0.0 0.0 0.0 0.0 0.0 0.1 0.0 0.3 0.3 0.1 0.9
0.0 2.7 33.8 32.6 29.7 26.7 14.2 5.0 2.0 0.9 0.7 0.6 0.9 1.6 0.8 0.1 0.1 0.0 0.9 0.4 0.0 0.0 0.0 0.0 0.0 0.7 0.9 0.9 1.3 1.1 0.7 0.1 0.0 0.0 0.1 0.0 0.0 0.0 0.0 0.0 0.0 0.0 0.0 0.0 0.0 0.0 0.0 0.0 0.0 0.0 0.0 0.4 0.2 0.0
0.0 35.6 39.4 35.8 24.7 17.2 10.2 7.6 4.9 1.9 2.2 1.2 1.1 0.8 0.4 0.0 0.3 0.7 0.8 0.0 0.0 0.0 0.0 0.0 0.0 0.0 0.0 0.6 0.9 1.5 2.0 1.4 0.4 0.0 0.6 0.3 0.0 0.0 0.0 0.0 0.0 0.0 0.0 0.0 0.0 0.0 0.0 0.0 0.0 0.0 0.0 0.0 0.0 0.0
48.3 53.2 38.5 31.7 18.5 9.1 4.8 3.3 2.1 1.9 0.9 0.8 0.3 0.2 0.1 0.5 1.0 1.4 0.3 0.0 0.0 0.0 0.0 0.0 0.0 0.0 0.0 0.0 0.5 0.6 0.9 1.3 1.9 1.8 0.2 1.5 0.7 0.2 0.0 0.0 0.2 0.1 0.0 0.0 0.0 0.0 0.0 0.0 0.0 0.0 0.0 0.0 0.0 0.1
46.2 27.8 18.9 7.5 3.7 1.3 0.4 0.3 0.4 0.2 0.0 0.3 0.3 0.0 0.0 1.1 2.4 1.4 0.0 0.0 0.0 0.0 0.0 0.0 0.0 0.0 0.0 0.0 0.0 0.6 0.8 0.9 0.9 1.1 0.2 1.7 1.5 1.9 1.5 1.2 0.7 0.3 0.0 0.0 0.2 0.2 0.1 0.0 0.0 0.0 0.0 0.0 0.0 0.4
36.1 19.4 7.8 1.4 0.4 0.4 0.2 0.1 0.0 0.4 0.5 0.6 0.1 0.2 0.1 2.5 0.3 0.0 0.0 0.0 0.0 0.0 0.0 0.0 0.0 0.0 0.0 0.0 0.0 0.0 0.7 0.9 0.8 0.4 0.2 1.2 1.1 0.9 0.5 1.3 1.1 0.8 0.6 1.1 0.9 0.7 0.6 0.4 0.2 0.1 0.3 0.2 0.2 0.2
13.1 4.1 0.7 0.6 0.4 0.2 0.3 0.2 0.4 0.2 0.7 0.2 0.9 1.3 2.1 1.4 0.4 0.0 0.0 0.0 0.0 0.0 0.0 0.0 0.0 0.0 0.0 0.0 0.0 0.4 0.6 0.8 0.8 0.5 1.2 1.3 1.1 1.0 0.9 1.1 2.2 2.5 1.9 1.6 1.1 1.4 1.5 1.1 0.9 1.1 0.9 0.5 0.6 0.5
2.4 0.5 0.0 0.2 0.2 0.1 0.4 0.3 0.4 0.2 0.1 0.0 0.1 0.2 0.0 0.0 0.0 0.0 0.0 0.0 0.0 0.0 0.0 0.0 0.0 0.0 0.0 0.0 0.0 0.4 0.5 0.8 1.1 1.0 0.8 0.8 1.0 1.2 1.4 2.6 3.3 4.1 4.0 3.7 3.1 2.3 1.7 1.8 2.5 2.3 2.0 2.0 1.7 1.7
0.3 0.0 0.0 0.0 0.5 0.5 0.1 0.1 0.0 0.2 0.2 0.0 0.0 0.3 0.1 0.0 0.1 0.0 0.0 0.1 0.0 0.0 0.0 0.0 0.0 0.0 0.0 0.0 0.0 0.6 0.4 0.4 0.9 0.9 0.9 0.8 0.9 1.2 2.3 2.8 3.6 4.1 4.5 4.0 4.9 5.6 5.2 4.9 5.4 5.1 4.3 3.8 3.5 2.9
0.0 0.0 0.1 0.1 0.2 0.3 0.4 0.2 0.1 0.0 0.1 0.1 0.2 0.2 0.2 0.2 0.1 0.1 0.1 0.0 0.0 0.0 0.0 0.0 0.0 0.1 0.2 0.3 0.5 0.7 0.6 0.7 0.7 1.3 1.4 1.7 1.6 2.2 2.0 3.3 3.5 4.3 4.9 5.1 4.5 4.1 3.8 3.3 2.9 2.7 2.9 2.6 2.6 2.2
0.0 0.0 0.0 0.3 0.5 1.1 1.0 0.5 0.2 0.0 0.1 0.1 0.1 0.0 0.1 0.0 0.0 0.0 0.0 0.0 0.0 0.0 0.0 0.0 0.2 0.4 0.5 0.7 0.9 1.1 1.7 1.7 1.1 1.8 1.7 1.8 2.1 1.8 2.9 3.3 4.3 4.4 4.8 4.8 4.3 3.7 3.5 3.3 3.7 3.5 3.6 3.7 3.5 3.0
1.3 0.6 0.5 0.3 1.4 1.3 1.1 0.6 0.7 0.5 0.5 0.3 0.1 0.1 0.0 0.0 0.0 0.0 0.0 0.0 0.0 0.1 0.0 0.4 0.5 0.7 1.2 1.5 1.4 2.1 2.3 2.0 2.9 3.1 3.5 3.4 3.1 3.2 4.0 3.9 4.5 4.3 4.1 4.1 4.4 4.7 4.7 4.5 4.1 3.8 3.6 3.4 3.3 3.4

GFSWCAN_prec_snow_129.txt.gz
Snowfall_Accumulation
0.0 0.0 0.0 0.0 0.0 0.0 0.0 0.0 0.0 0.0 0.0 0.0 0.0 0.0 0.0 0.0 0.0 0.0 0.0 0.0 0.0 0.0 0.0 0.0 0.0 0.0 0.0 0.0 0.0 0.0 0.0 0.0 0.0 0.7 0.0 0.0 0.1 0.0 0.0 0.0 0.0 0.0 0.2 0.2 0.6 0.5 0.0 0.0 0.0 0.0 0.0 0.0 0.0 0.0
0.0 0.0 0.0 0.0 0.0 0.0 0.0 0.0 0.0 0.0 0.0 0.0 0.0 0.0 0.0 0.0 0.0 0.0 0.0 0.0 0.0 0.0 0.0 0.0 0.0 0.0 0.0 0.0 0.0 0.0 0.0 0.0 0.0 0.0 0.0 0.0 0.1 0.0 0.0 0.0 0.0 0.0 0.0 0.0 0.0 0.0 0.0 0.0 0.0 0.0 0.0 0.0 0.0 0.0
0.0 0.0 0.0 0.0 0.0 0.0 0.0 0.0 0.0 0.0 0.0 0.0 0.0 0.0 0.0 0.0 0.0 0.0 0.0 0.0 0.0 0.1 0.0 0.0 0.0 0.0 0.0 0.0 0.0 0.0 0.0 0.0 0.0 0.0 0.0 0.0 0.0 0.0 0.1 0.0 0.0 0.0 0.0 0.0 0.0 0.0 0.0 0.0 0.0 0.0 0.0 0.0 0.0 0.0
0.0 0.0 0.0 0.0 0.0 0.0 0.0 0.0 0.0 0.0 0.0 0.0 0.0 0.0 0.0 0.0 0.0 0.0 0.0 0.0 0.0 0.1 0.8 0.1 0.0 0.0 0.0 0.0 0.0 0.0 0.0 0.0 0.0 0.0 0.0 0.0 0.0 0.0 0.0 0.0 0.0 0.0 0.0 0.0 0.0 0.0 0.0 0.0 0.0 0.0 0.0 0.0 0.0 0.0
0.0 0.0 0.0 0.0 0.0 0.0 0.0 0.0 0.0 0.0 0.0 0.0 0.0 0.0 0.0 0.0 0.0 0.0 0.0 0.0 0.0 0.2 1.9 0.3 0.0 0.0 0.0 0.0 0.0 0.0 0.0 0.0 0.5 0.3 1.1 0.7 0.0 0.0 0.0 0.0 0.0 0.0 0.0 0.0 0.0 0.0 0.0 0.0 0.0 0.0 0.0 0.0 0.0 0.0
0.0 0.0 0.0 0.0 0.0 0.0 0.0 0.0 0.0 0.0 0.0 0.0 0.0 0.0 0.0 0.0 0.0 0.0 0.0 0.0 0.0 0.0 3.0 1.6 0.0 0.0 0.0 0.0 0.0 0.0 0.0 0.0 0.1 1.1 1.6 0.0 0.0 0.0 0.6 0.0 0.0 0.0 0.0 0.0 0.0 0.0 0.0 0.0 0.0 0.0 0.0 0.0 0.0 0.0
0.0 0.0 0.0 0.0 0.0 0.0 0.0 0.0 0.0 0.0 0.0 0.0 0.0 0.0 0.0 0.0 0.0 0.2 0.0 0.0 0.0 0.0 1.5 3.8 4.0 0.0 0.0 0.0 0.0 0.0 0.0 0.0 2.0 3.2 1.5 0.0 0.0 1.6 1.3 0.3 0.0 0.0 0.0 0.0 0.0 0.0 0.0 0.0 0.0 0.0 0.0 0.0 0.0 0.0
0.0 0.0 0.0 0.0 0.0 0.0 0.0 0.0 0.0 0.0 0.0 0.0 0.0 0.0 0.0 0.0 0.0 0.0 0.0 0.0 0.0 0.0 4.3 8.6 7.1 2.9 0.0 0.4 0.0 0.0 0.0 0.0 0.5 1.4 0.0 0.0 0.0 2.2 1.4 0.0 0.0 0.0 0.0 0.0 0.0 0.0 0.0 0.0 0.0 0.0 0.0 0.0 0.0 0.0
0.0 0.0 0.0 0.0 0.0 0.0 0.0 0.0 0.0 0.0 0.0 0.0 0.0 0.0 0.0 0.0 0.0 0.0 0.0 0.0 0.0 0.0 7.3 6.7 6.7 5.1 0.0 0.0 0.0 0.2 0.0 4.5 0.0 1.6 0.0 0.4 1.2 2.8 0.0 0.1 0.1 0.0 0.1 0.0 0.0 0.0 0.0 0.0 0.0 0.0 0.0 0.0 0.0 0.0
0.0 0.0 0.0 0.0 0.0 0.0 0.0 0.0 0.0 0.0 0.0 0.0 0.0 0.0 0.9 0.0 0.0 0.0 0.0 0.7 4.5 3.5 3.8 5.1 4.8 5.9 3.0 4.7 1.7 1.7 1.9 3.0 3.7 0.0 0.0 1.2 0.0 0.0 0.0 0.0 0.1 0.1 0.0 0.1 0.0 3.0 1.6 1.0 0.0 0.0 0.0 0.0 0.0 0.0
0.0 0.0 0.0 0.0 0.0 0.0 0.0 0.0 0.0 0.0 0.0 0.0 0.0 0.0 0.0 0.0 0.0 0.0 5.6 6.7 3.8 2.4 2.3 3.3 4.5 3.7 0.0 5.0 3.5 0.3 5.7 2.5 4.1 4.9 1.1 2.2 1.6 1.2 0.0 0.1 0.0 0.0 0.1 0.0 0.0 0.0 0.5 2.1 2.0 0.6 0.4 0.2 0.0 0.0
0.0 0.0 0.0 0.0 0.0 0.0 0.0 0.0 0.0 0.0 0.0 0.0 0.0 0.0 0.0 0.8 4.2 5.0 5.9 3.9 1.3 1.0 1.6 2.9 1.5 1.0 1.0 0.0 2.1 1.9 3.7 3.3 3.7 5.2 3.8 2.7 1.0 0.2 1.1 1.0 0.7 0.1 0.0 0.1 0.0 0.0 0.3 0.0 1.0 1.3 0.9 1.2 1.4 1.6
0.0 0.0 0.0 0.0 0.0 0.0 0.0 0.0 0.0 0.0 0.0 0.0 0.0 1.8 2.3 3.1 3.6 3.8 2.9 2.5 0.5 0.7 0.9 0.9 1.2 0.0 0.0 0.1 0.6 1.6 1.6 0.7 1.2 3.7 3.9 1.7 0.3 0.2 0.0 0.2 0.5 2.2 2.7 1.5 1.0 0.8 0.8 0.8 0.5 0.9 0.8 0.5 0.7 0.4
0.0 0.0 0.0 0.0 0.0 0.0 0.0 0.0 0.0 0.0 0.0 2.2 7.1 4.9 2.2 2.0 1.2 1.2 1.1 1.1 0.2 0.1 0.0 0.0 0.6 1.3 0.2 1.2 1.2 1.5 0.1 0.6 2.4 1.7 1.5 0.2 0.2 0.0 0.0 0.0 0.0 0.0 1.1 1.8 2.8 2.3 1.8 2.1 1.3 1.5 0.9 0.3 0.0 0.0
0.0 0.0 0.0 0.0 0.0 0.0 0.0 0.0 0.0 0.0 0.0 11.3 8.0 3.2 0.8 0.0 0.2 0.1 0.0 0.2 0.0 0.0 0.1 0.0 0.0 0.1 1.0 1.3 0.3 1.0 1.0 2.8 3.2 2.0 1.4 0.7 0.2 0.0 0.1 0.1 0.0 0.0 0.0 0.0 0.3 0.7 2.1 1.9 2.2 1.4 0.7 0.6 0.1 0.0
0.0 0.0 0.0 0.0 0.0 0.0 0.0 0.0 0.0 0.0 12.0 11.8 7.8 1.8 0.0 0.0 0.0 0.0 0.0 0.0 0.0 0.0 0.3 0.4 0.6 1.0 0.5 1.7 1.4 0.3 1.2 2.0 2.5 1.3 0.0 0.0 0.0 0.0 0.1 0.0 0.1 0.0 0.0 0.0 0.0 0.0 0.5 0.5 1.1 1.0 0.2 0.5 0.4 0.0
0.0 0.0 0.0 0.0 0.0 0.0 0.0 0.0 0.0 18.5 15.8 12.1 3.6 0.1 0.0 0.0 0.0 0.0 0.0 0.0 0.0 0.5 1.9 2.6 3.2 0.1 0.7 1.4 0.6 0.1 0.2 0.3 0.3 0.0 0.0 0.0 0.0 0.0 0.4 0.0 0.0 0.1 0.0 0.0 0.2 0.2 0.8 0.4 1.4 1.8 1.1 0.4 0.5 0.7
0.0 0.0 0.0 0.0 0.0 0.0 1.7 4.4 8.7 22.7 16.7 3.6 0.4 0.2 0.1 0.0 0.0 0.0 0.0 0.0 0.0 0.2 2.2 5.9 3.6 3.0 1.0 0.2 0.0 0.1 0.0 0.0 0.0 0.0 0.0 0.0 0.0 0.0 0.4 0.0 0.0 0.2 0.8 1.6 1.7 1.7 1.3 1.3 1.6 1.3 0.3 0.5 0.6 0.6
0.0 0.0 0.0 0.0 0.0 2.6 21.3 17.8 13.6 15.3 4.2 0.7 0.3 0.1 0.0 0.2 0.0 0.0 0.0 0.1 0.1 0.1 1.1 5.4 5.9 1.8 0.0 0.0 0.0 0.0 0.0 0.0 0.0 0.0 0.0 0.0 0.0 0.1 0.1 0.7 0.6 0.0 0.4 1.1 0.8 0.9 0.6 0.2 0.0 0.5 0.5 0.2 0.6 0.3
0.0 0.0 0.0 0.0 0.0 17.3 26.7 21.2 9.9 5.8 2.4 0.3 0.5 0.8 0.4 0.1 0.1 0.0 0.1 0.3 0.4 0.7 5.3 5.4 0.0 0.1 0.1 0.3 0.5 0.4 0.0 0.0 0.0 0.0 0.0 0.0 0.0 0.0 0.0 0.0 0.0 0.2 0.0 0.4 0.3 0.1 0.6 0.3 0.0 0.6 0.4 0.2 0.5 0.5
0.0 0.0 0.0 0.0 2.2 21.7 21.9 14.8 5.4 2.9 0.8 0.4 0.5 0.4 0.1 0.0 0.1 0.0 0.2 0.2 4.0 6.1 2.3 0.2 0.0 0.0 0.4 0.4 0.2 0.4 0.2 0.1 0.0 0.0 0.0 0.0 0.0 0.0 0.0 0.0 0.0 0.1 0.0 0.0 0.1 0.0 0.4 0.2 0.1 0.0 0.4 0.2 0.1 0.8
0.4 0.0 5.9 4.7 27.8 29.1 21.0 9.9 4.7 1.4 0.6 0.4 0.3 0.1 0.4 0.1 0.0 0.0 0.1 2.2 4.0 0.8 0.1 0.2 0.0 0.0 0.0 0.0 0.6 0.4 0.5 0.0 0.1 0.0 0.0 0.0 0.0 0.0 0.0 0.0 0.0 0.0 0.0 0.0 0.0 0.0 0.0 0.0 0.1 0.0 0.3 0.3 0.1 0.9
0.0 2.7 33.8 32.6 29.8 26.9 14.4 5.1 2.0 0.9 0.8 0.6 0.9 1.6 0.8 0.1 0.1 0.0 0.9 0.4 0.0 0.0 0.0 0.0 0.0 0.7 0.9 0.9 1.3 1.1 0.7 0.1 0.0 0.0 0.1 0.0 0.0 0.0 0.0 0.0 0.0 0.0 0.0 0.0 0.0 0.0 0.0 0.0 0.0 0.0 0.0 0.4 0.2 0.0
0.0 35.6 39.4 35.8 24.7 17.3 10.3 7.7 4.9 1.9 2.2 1.2 1.1 0.8 0.4 0.0 0.3 0.7 0.8 0.0 0.0 0.0 0.0 0.0 0.0 0.0 0.0 0.6 0.9 1.5 2.0 1.4 0.4 0.0 0.6 0.3 0.0 0.0 0.0 0.0 0.0 0.0 0.0 0.0 0.0 0.0 0.0 0.0 0.0 0.0 0.0 0.0 0.0 0.0
48.3 53.2 38.5 31.7 18.5 9.1 4.8 3.3 2.1 1.9 0.9 0.8 0.3 0.2 0.1 0.5 1.0 1.4 0.3 0.0 0.0 0.0 0.0 0.0 0.0 0.0 0.0 0.0 0.5 0.6 0.9 1.3 1.9 1.8 0.2 1.5 0.7 0.2 0.0 0.0 0.2 0.1 0.0 0.0 0.0 0.0 0.0 0.0 0.0 0.0 0.0 0.0 0.0 0.1
46.2 27.8 18.9 7.5 3.7 1.3 0.4 0.3 0.4 0.2 0.0 0.3 0.3 0.0 0.0 1.1 2.4 1.4 0.0 0.0 0.0 0.0 0.0 0.0 0.0 0.0 0.0 0.0 0.0 0.6 0.8 0.9 0.9 1.1 0.2 1.7 1.5 1.9 1.5 1.2 0.7 0.3 0.0 0.0 0.2 0.2 0.1 0.0 0.0 0.0 0.0 0.0 0.0 0.4
36.1 19.4 7.9 1.4 0.4 0.4 0.2 0.1 0.0 0.4 0.5 0.6 0.1 0.2 0.1 2.5 0.3 0.0 0.0 0.0 0.0 0.0 0.0 0.0 0.0 0.0 0.0 0.0 0.0 0.0 0.7 0.9 0.8 0.4 0.2 1.2 1.1 0.9 0.5 1.3 1.1 0.8 0.6 1.1 0.9 0.7 0.6 0.4 0.2 0.1 0.3 0.2 0.2 0.2
13.1 4.1 0.7 0.6 0.4 0.2 0.3 0.2 0.4 0.2 0.7 0.2 0.9 1.3 2.1 1.4 0.4 0.0 0.0 0.0 0.0 0.0 0.0 0.0 0.0 0.0 0.0 0.0 0.0 0.4 0.6 0.8 0.8 0.5 1.2 1.3 1.1 1.0 0.9 1.1 2.2 2.5 1.9 1.6 1.1 1.4 1.5 1.1 1.0 1.2 0.9 0.5 0.6 0.5
2.6 0.5 0.0 0.2 0.2 0.1 0.4 0.3 0.4 0.2 0.1 0.0 0.1 0.2 0.0 0.0 0.0 0.0 0.0 0.0 0.0 0.0 0.0 0.0 0.0 0.0 0.0 0.0 0.0 0.4 0.5 0.8 1.1 1.0 0.8 0.8 1.0 1.2 1.4 2.6 3.3 4.1 4.0 3.7 3.1 2.3 1.7 1.8 2.9 2.8 2.3 2.1 1.7 1.7
0.4 0.0 0.0 0.0 0.5 0.5 0.1 0.1 0.0 0.2 0.2 0.0 0.0 0.3 0.1 0.0 0.1 0.0 0.0 0.1 0.0 0.0 0.0 0.0 0.0 0.0 0.0 0.0 0.0 0.6 0.4 0.4 0.9 0.9 0.9 0.8 0.9 1.2 2.3 2.8 3.6 4.1 4.5 4.0 4.9 5.6 5.2 4.9 5.4 5.1 4.5 4.0 3.7 3.1
0.0 0.0 0.1 0.1 0.2 0.3 0.4 0.2 0.1 0.0 0.1 0.1 0.2 0.2 0.2 0.2 0.1 0.1 0.1 0.0 0.0 0.0 0.0 0.0 0.0 0.1 0.2 0.3 0.5 0.7 0.6 0.7 0.7 1.3 1.4 1.7 1.6 2.2 2.0 3.3 3.5 4.3 4.9 5.1 4.5 4.4 4.0 3.5 3.1 2.9 3.0 2.7 2.6 2.3
0.0 0.0 0.0 0.3 0.5 1.1 1.0 0.5 0.2 0.0 0.1 0.1 0.1 0.0 0.1 0.0 0.0 0.0 0.0 0.0 0.0 0.0 0.0 0.0 0.2 0.4 0.5 0.7 0.9 1.1 1.7 1.7 1.1 1.8 1.7 1.8 2.1 1.8 2.9 3.3 4.3 4.5 4.8 4.8 4.3 3.7 3.7 3.6 4.0 3.6 3.7 3.8 3.5 3.1
1.3 0.6 0.5 0.3 1.4 1.3 1.1 0.6 0.7 0.5 0.5 0.3 0.1 0.1 0.0 0.0 0.0 0.0 0.0 0.0 0.0 0.1 0.0 0.4 0.5 0.7 1.2 1.5 1.4 2.1 2.3 2.0 2.9 3.1 3.5 3.4 3.1 3.2 4.0 4.2 4.6 4.4 4.1 4.1 4.4 4.7 4.7 4.5 4.1 3.8 3.7 3.5 3.4 3.4

GFSWCAN_prec_snow_132.txt.gz
Snowfall_Accumulation
0.0 0.0 0.0 0.0 0.0 0.0 0.0 0.0 0.0 0.0 0.0 0.0 0.0 0.0 0.0 0.0 0.0 0.0 0.0 0.0 0.0 0.0 0.0 0.0 0.0 0.0 0.0 0.0 0.0 0.0 0.0 0.0 0.0 0.7 0.0 0.0 0.1 0.0 0.0 0.0 0.0 0.0 0.2 0.2 0.6 0.5 0.0 0.0 0.0 0.0 0.0 0.0 0.0 0.0
0.0 0.0 0.0 0.0 0.0 0.0 0.0 0.0 0.0 0.0 0.0 0.0 0.0 0.0 0.0 0.0 0.0 0.0 0.0 0.0 0.0 0.0 0.0 0.0 0.0 0.0 0.0 0.0 0.0 0.0 0.0 0.0 0.0 0.0 0.0 0.0 0.1 0.0 0.0 0.0 0.0 0.0 0.0 0.0 0.0 0.0 0.0 0.0 0.0 0.0 0.0 0.0 0.0 0.0
0.0 0.0 0.0 0.0 0.0 0.0 0.0 0.0 0.0 0.0 0.0 0.0 0.0 0.0 0.0 0.0 0.0 0.0 0.0 0.0 0.0 0.1 0.0 0.0 0.0 0.0 0.0 0.0 0.0 0.0 0.0 0.0 0.0 0.0 0.0 0.0 0.0 0.0 0.1 0.0 0.0 0.0 0.0 0.0 0.0 0.0 0.0 0.0 0.0 0.0 0.0 0.0 0.0 0.0
0.0 0.0 0.0 0.0 0.0 0.0 0.0 0.0 0.0 0.0 0.0 0.0 0.0 0.0 0.0 0.0 0.0 0.0 0.0 0.0 0.0 0.1 0.8 0.1 0.0 0.0 0.0 0.0 0.0 0.0 0.0 0.0 0.0 0.0 0.0 0.0 0.0 0.0 0.0 0.0 0.0 0.0 0.0 0.0 0.0 0.0 0.0 0.0 0.0 0.0 0.0 0.0 0.0 0.0
0.0 0.0 0.0 0.0 0.0 0.0 0.0 0.0 0.0 0.0 0.0 0.0 0.0 0.0 0.0 0.0 0.0 0.0 0.0 0.0 0.0 0.2 1.9 0.3 0.0 0.0 0.0 0.0 0.0 0.0 0.0 0.0 0.5 0.3 1.1 0.7 0.0 0.0 0.0 0.0 0.0 0.0 0.0 0.0 0.0 0.0 0.0 0.0 0.0 0.0 0.0 0.0 0.0 0.0
0.0 0.0 0.0 0.0 0.0 0.0 0.0 0.0 0.0 0.0 0.0 0.0 0.0 0.0 0.0 0.0 0.0 0.0 0.0 0.0 0.0 0.0 3.0 1.6 0.0 0.0 0.0 0.0 0.0 0.0 0.0 0.0 0.1 1.1 1.6 0.0 0.0 0.0 0.6 0.0 0.0 0.0 0.0 0.0 0.0 0.0 0.0 0.0 0.0 0.0 0.0 0.0 0.0 0.0
0.0 0.0 0.0 0.0 0.0 0.0 0.0 0.0 0.0 0.0 0.0 0.0 0.0 0.0 0.0 0.0 0.0 0.2 0.0 0.0 0.0 0.0 1.5 3.8 4.0 0.0 0.0 0.0 0.0 0.0 0.0 0.0 2.0 3.2 1.5 0.0 0.0 1.6 1.3 0.3 0.0 0.0 0.0 0.0 0.0 0.0 0.0 0.0 0.0 0.0 0.0 0.0 0.0 0.0
0.0 0.0 0.0 0.0 0.0 0.0 0.0 0.0 0.0 0.0 0.0 0.0 0.0 0.0 0.0 0.0 0.0 0.0 0.0 0.0 0.0 0.0 4.3 8.6 7.1 2.9 0.0 0.4 0.0 0.0 0.0 0.0 0.5 1.4 0.0 0.0 0.0 2.2 1.4 0.0 0.0 0.0 0.0 0.0 0.0 0.0 0.0 0.0 0.0 0.0 0.0 0.0 0.0 0.0
0.0 0.0 0.0 0.0 0.0 0.0 0.0 0.0 0.0 0.0 0.0 0.0 0.0 0.0 0.0 0.0 0.0 0.0 0.0 0.0 0.0 0.0 7.3 6.7 6.7 5.1 0.0 0.0 0.0 0.2 0.0 4.5 0.0 1.6 0.0 0.4 1.2 2.8 0.0 0.1 0.1 0.0 0.1 0.0 0.0 0.0 0.0 0.0 0.0 0.0 0.0 0.0 0.0 0.0
0.0 0.0 0.0 0.0 0.0 0.0 0.0 0.0 0.0 0.0 0.0 0.0 0.0 0.0 0.9 0.0 0.0 0.0 0.0 0.7 4.5 3.5 3.8 5.1 4.8 5.9 3.0 4.7 1.7 1.7 1.9 3.0 3.7 0.0 0.0 1.2 0.0 0.0 0.0 0.0 0.1 0.1 0.0 0.1 0.0 3.0 1.6 1.0 0.0 0.0 0.0 0.0 0.0 0.0
0.0 0.0 0.0 0.0 0.0 0.0 0.0 0.0 0.0 0.0 0.0 0.0 0.0 0.0 0.0 0.0 0.0 0.0 5.6 6.7 3.8 2.4 2.3 3.3 4.5 3.7 0.0 5.0 3.5 0.3 5.7 2.5 4.1 4.9 1.1 2.2 1.6 1.2 0.0 0.1 0.0 0.0 0.1 0.0 0.0 0.0 0.5 2.1 2.0 0.6 0.4 0.2 0.0 0.0
0.0 0.0 0.0 0.0 0.0 0.0 0.0 0.0 0.0 0.0 0.0 0.0 0.0 0.0 0.0 0.8 4.7 5.3 6.0 3.9 1.3 1.0 1.6 2.9 1.5 1.0 1.0 0.0 2.1 1.9 3.7 3.3 3.7 5.2 3.8 2.7 1.0 0.2 1.1 1.0 0.7 0.1 0.0 0.1 0.0 0.0 0.3 0.0 1.0 1.3 0.9 1.2 1.4 1.6
0.0 0.0 0.0 0.0 0.0 0.0 0.0 0.0 0.0 0.0 0.0 0.0 0.0 3.8 4.0 5.2 4.9 4.3 2.9 2.5 0.5 0.7 0.9 0.9 1.2 0.0 0.0 0.1 0.6 1.6 1.6 0.7 1.2 3.7 3.9 1.7 0.3 0.2 0.0 0.2 0.5 2.2 2.7 1.5 1.0 0.8 0.8 0.8 0.5 0.9 0.8 0.5 0.7 0.4
0.0 0.0 0.0 0.0 0.0 0.0 0.0 0.0 0.0 0.0 0.0 2.2 10.7 7.8 3.8 3.1 1.2 1.2 1.1 1.1 0.2 0.1 0.0 0.0 0.6 1.3 0.2 1.2 1.2 1.6 0.1 0.6 2.4 1.7 1.5 0.2 0.2 0.0 0.0 0.0 0.0 0.0 1.1 1.8 2.8 2.3 1.8 2.1 1.3 1.5 0.9 0.3 0.0 0.0
0.0 0.0 0.0 0.0 0.0 0.0 0.0 0.0 0.0 0.0 0.0 14.8 11.5 5.0 1.5 0.0 0.2 0.1 0.0 0.2 0.0 0.0 0.1 0.0 0.0 0.1 1.0 1.7 0.5 1.2 1.0 2.8 3.2 2.0 1.4 0.7 0.2 0.0 0.1 0.1 0.0 0.0 0.0 0.0 0.3 0.7 2.1 1.9 2.2 1.4 0.7 0.6 0.1 0.0
0.0 0.0 0.0 0.0 0.0 0.0 0.0 0.0 0.0 0.0 12.0 15.2 10.1 2.9 0.0 0.0 0.0 0.0 0.0 0.0 0.0 0.0 0.3 0.4 0.6 1.4 0.9 2.0 1.5 0.3 1.2 2.0 2.5 1.3 0.0 0.0 0.0 0.0 0.1 0.0 0.1 0.0 0.0 0.0 0.0 0.0 0.5 0.5 1.1 1.0 0.2 0.5 0.4 0.0
0.0 0.0 0.0 0.0 0.0 0.0 0.0 0.0 0.0 23.7 20.4 16.0 5.3 0.1 0.0 0.0 0.0 0.0 0.0 0.0 0.0 0.5 1.9 2.6 3.5 0.1 1.0 1.6 0.7 0.1 0.2 0.3 0.3 0.0 0.0 0.0 0.0 0.0 0.4 0.0 0.0 0.1 0.0 0.0 0.2 0.2 0.8 0.4 1.4 1.8 1.1 0.4 0.5 0.7
0.0 0.0 0.0 0.0 0.0 0.0 1.7 4.4 13.5 27.1 20.2 5.7 1.0 0.2 0.1 0.0 0.0 0.0 0.0 0.0 0.0 0.2 2.2 5.9 3.6 3.2 1.2 0.2 0.0 0.1 0.0 0.0 0.0 0.0 0.0 0.0 0.0 0.0 0.4 0.0 0.0 0.2 0.8 1.6 1.7 1.7 1.3 1.3 1.6 1.3 0.3 0.5 0.6 0.6
0.0 0.0 0.0 0.0 0.0 2.6 26.5 23.1 17.4 17.7 5.4 1.1 0.4 0.1 0.0 0.2 0.0 0.0 0.0 0.1 0.1 0.1 1.1 5.7 6.0 1.8 0.0 0.0 0.0 0.0 0.0 0.0 0.0 0.0 0.0 0.0 0.0 0.1 0.1 0.7 0.6 0.0 0.4 1.1 0.8 0.9 0.6 0.2 0.0 0.5 0.5 0.2 0.6 0.3
0.0 0.0 0.0 0.0 0.0 20.2 29.6 23.9 11.3 6.3 2.7 0.6 0.8 1.1 0.4 0.1 0.1 0.0 0.1 0.3 1.0 1.3 5.6 5.5 0.0 0.1 0.1 0.3 0.5 0.4 0.0 0.0 0.0 0.0 0.0 0.0 0.0 0.0 0.0 0.0 0.0 0.2 0.0 0.4 0.3 0.1 0.6 0.3 0.0 0.6 0.4 0.2 0.5 0.5
0.0 6.3 6.3 0.0 5.9 24.3 23.8 15.9 6.1 3.4 1.2 0.8 1.3 0.4 0.7 0.6 0.7 0.8 1.0 0.9 4.5 6.3 2.3 0.2 0.0 0.0 0.4 0.4 0.2 0.4 0.2 0.1 0.0 0.0 0.0 0.0 0.0 0.0 0.0 0.0 0.0 0.1 0.0 0.0 0.1 0.0 0.4 0.2 0.1 0.0 0.4 0.2 0.1 0.8
4.2 3.6 9.6 8.0 30.7 31.3 22.4 10.9 5.3 2.0 1.0 1.1 1.1 0.5 1.0 0.6 0.4 0.4 0.5 2.3 4.0 0.8 0.1 0.2 0.0 0.0 0.0 0.0 0.6 0.4 0.5 0.0 0.1 0.0 0.0 0.0 0.0 0.0 0.0 0.0 0.0 0.0 0.0 0.0 0.0 0.0 0.0 0.0 0.1 0.0 0.3 0.3 0.1 0.9
0.0 4.1 35.8 34.8 32.1 28.8 16.1 6.1 2.7 1.7 1.6 1.5 1.4 2.0 1.1 0.3 0.2 0.1 0.9 0.4 0.0 0.0 0.0 0.0 0.0 0.7 0.9 0.9 1.3 1.1 0.7 0.1 0.0 0.0 0.1 0.0 0.0 0.0 0.0 0.0 0.0 0.0 0.0 0.0 0.0 0.0 0.0 0.0 0.0 0.0 0.0 0.4 0.2 0.0
0.0 35.8 40.0 36.7 25.7 18.4 11.0 8.2 5.4 2.4 2.9 1.7 1.4 1.0 0.4 0.0 0.3 0.7 0.8 0.0 0.0 0.0 0.0 0.0 0.0 0.0 0.0 0.6 0.9 1.5 2.0 1.4 0.4 0.0 0.6 0.3 0.0 0.0 0.0 0.0 0.0 0.0 0.0 0.0 0.0 0.0 0.0 0.0 0.0 0.0 0.0 0.0 0.0 0.0
48.3 53.3 38.5 31.9 18.7 9.3 5.0 3.4 2.2 1.9 1.1 0.9 0.3 0.2 0.1 0.5 1.0 1.4 0.3 0.0 0.0 0.0 0.0 0.0 0.0 0.0 0.0 0.0 0.5 0.6 0.9 1.3 1.9 1.8 0.2 1.5 0.7 0.2 0.0 0.0 0.2 0.1 0.0 0.0 0.0 0.0 0.0 0.0 0.0 0.0 0.0 0.0 0.0 0.1
46.2 27.8 19.0 7.6 3.8 1.3 0.4 0.3 0.4 0.2 0.0 0.3 0.3 0.0 0.0 1.1 2.4 1.4 0.0 0.0 0.0 0.0 0.0 0.0 0.0 0.0 0.0 0.0 0.0 0.6 0.8 0.9 0.9 1.1 0.2 1.7 1.5 1.9 1.5 1.2 0.7 0.3 0.0 0.0 0.2 0.2 0.1 0.0 0.0 0.0 0.0 0.0 0.0 0.4
36.1 19.4 7.9 1.4 0.4 0.4 0.2 0.1 0.0 0.4 0.5 0.6 0.1 0.2 0.1 2.5 0.3 0.0 0.0 0.0 0.0 0.0 0.0 0.0 0.0 0.0 0.0 0.0 0.0 0.0 0.7 0.9 0.8 0.4 0.2 1.2 1.1 0.9 0.5 1.3 1.1 0.8 0.6 1.1 0.9 0.7 0.6 0.4 0.2 0.1 0.3 0.2 0.2 0.2
13.1 4.1 0.7 0.6 0.4 0.2 0.3 0.2 0.4 0.2 0.7 0.2 0.9 1.3 2.1 1.4 0.4 0.0 0.0 0.0 0.0 0.0 0.0 0.0 0.0 0.0 0.0 0.0 0.0 0.4 0.6 0.8 0.8 0.5 1.2 1.3 1.1 1.0 0.9 1.1 2.2 2.5 1.9 1.6 1.1 1.4 1.5 1.1 1.0 1.2 0.9 0.6 0.6 0.5
2.6 0.5 0.0 0.2 0.2 0.1 0.4 0.3 0.4 0.2 0.1 0.0 0.1 0.2 0.0 0.0 0.0 0.0 0.0 0.0 0.0 0.0 0.0 0.0 0.0 0.0 0.0 0.0 0.0 0.4 0.5 0.8 1.1 1.0 0.8 0.8 1.0 1.2 1.4 2.6 3.3 4.1 4.0 3.7 3.1 2.3 1.7 1.8 2.9 3.2 2.8 2.5 1.9 1.9
0.5 0.0 0.0 0.0 0.5 0.5 0.1 0.1 0.0 0.2 0.2 0.0 0.0 0.3 0.1 0.0 0.1 0.0 0.0 0.1 0.0 0.0 0.0 0.0 0.0 0.0 0.0 0.0 0.0 0.6 0.4 0.4 0.9 0.9 0.9 0.8 0.9 1.2 2.3 2.8 3.6 4.1 4.5 4.0 4.9 5.6 5.2 4.9 5.4 5.1 4.5 4.0 3.7 3.1
0.0 0.0 0.1 0.1 0.2 0.3 0.4 0.2 0.1 0.0 0.1 0.1 0.2 0.2 0.2 0.2 0.1 0.1 0.1 0.0 0.0 0.0 0.0 0.0 0.0 0.1 0.2 0.3 0.5 0.7 0.6 0.7 0.7 1.3 1.4 1.7 1.6 2.2 2.0 3.3 3.5 4.3 4.9 5.1 4.5 4.4 4.1 3.6 3.2 2.9 3.0 2.8 2.6 2.4
0.0 0.0 0.0 0.3 0.5 1.1 1.0 0.5 0.2 0.0 0.1 0.1 0.1 0.0 0.1 0.0 0.0 0.0 0.0 0.0 0.0 0.0 0.0 0.0 0.2 0.4 0.5 0.7 0.9 1.1 1.7 1.7 1.1 1.8 1.7 1.8 2.1 1.8 2.9 3.3 4.3 4.5 4.8 5.1 4.6 4.0 3.8 3.7 4.1 3.7 3.8 3.9 3.5 3.2
1.3 0.7 0.5 0.3 1.4 1.3 1.1 0.6 0.7 0.5 0.5 0.3 0.1 0.1 0.0 0.0 0.0 0.0 0.0 0.0 0.0 0.1 0.0 0.4 0.5 0.7 1.2 1.5 1.4 2.1 2.3 2.0 2.9 3.1 3.5 3.4 3.1 3.2 4.0 4.2 5.1 4.8 4.5 4.4 4.6 4.7 4.8 4.7 4.3 3.9 3.7 3.5 3.5 3.5

GFSWCAN_prec_snow_135.txt.gz
Snowfall_Accumulation
0.0 0.0 0.0 0.0 0.0 0.0 0.0 0.0 0.0 0.0 0.0 0.0 0.0 0.0 0.0 0.0 0.0 0.0 0.0 0.0 0.0 0.0 0.0 0.0 0.0 0.0 0.0 0.0 0.0 0.0 0.0 0.0 0.0 0.7 0.0 0.0 0.1 0.0 0.0 0.0 0.0 0.0 0.2 0.2 0.6 0.5 0.0 0.0 0.0 0.0 0.0 0.0 0.0 0.0
0.0 0.0 0.0 0.0 0.0 0.0 0.0 0.0 0.0 0.0 0.0 0.0 0.0 0.0 0.0 0.0 0.0 0.0 0.0 0.0 0.0 0.0 0.0 0.0 0.0 0.0 0.0 0.0 0.0 0.0 0.0 0.0 0.0 0.0 0.0 0.0 0.1 0.0 0.0 0.0 0.0 0.0 0.0 0.0 0.0 0.0 0.0 0.0 0.0 0.0 0.0 0.0 0.0 0.0
0.0 0.0 0.0 0.0 0.0 0.0 0.0 0.0 0.0 0.0 0.0 0.0 0.0 0.0 0.0 0.0 0.0 0.0 0.0 0.0 0.0 0.1 0.0 0.0 0.0 0.0 0.0 0.0 0.0 0.0 0.0 0.0 0.0 0.0 0.0 0.0 0.0 0.0 0.1 0.0 0.0 0.0 0.0 0.0 0.0 0.0 0.0 0.0 0.0 0.0 0.0 0.0 0.0 0.0
0.0 0.0 0.0 0.0 0.0 0.0 0.0 0.0 0.0 0.0 0.0 0.0 0.0 0.0 0.0 0.0 0.0 0.0 0.0 0.0 0.0 0.1 0.8 0.1 0.0 0.0 0.0 0.0 0.0 0.0 0.0 0.0 0.0 0.0 0.0 0.0 0.0 0.0 0.0 0.0 0.0 0.0 0.0 0.0 0.0 0.0 0.0 0.0 0.0 0.0 0.0 0.0 0.0 0.0
0.0 0.0 0.0 0.0 0.0 0.0 0.0 0.0 0.0 0.0 0.0 0.0 0.0 0.0 0.0 0.0 0.0 0.0 0.0 0.0 0.0 0.2 1.9 0.3 0.0 0.0 0.0 0.0 0.0 0.0 0.0 0.0 0.5 0.3 1.1 0.7 0.0 0.0 0.0 0.0 0.0 0.0 0.0 0.0 0.0 0.0 0.0 0.0 0.0 0.0 0.0 0.0 0.0 0.0
0.0 0.0 0.0 0.0 0.0 0.0 0.0 0.0 0.0 0.0 0.0 0.0 0.0 0.0 0.0 0.0 0.0 0.0 0.0 0.0 0.0 0.0 3.0 1.6 0.0 0.0 0.0 0.0 0.0 0.0 0.0 0.0 0.1 1.1 1.6 0.0 0.0 0.0 0.6 0.0 0.0 0.0 0.0 0.0 0.0 0.0 0.0 0.0 0.0 0.0 0.0 0.0 0.0 0.0
0.0 0.0 0.0 0.0 0.0 0.0 0.0 0.0 0.0 0.0 0.0 0.0 0.0 0.0 0.0 0.0 0.0 0.2 0.0 0.0 0.0 0.0 1.5 3.8 4.0 0.0 0.0 0.0 0.0 0.0 0.0 0.0 2.0 3.2 1.5 0.0 0.0 1.6 1.3 0.3 0.0 0.0 0.0 0.0 0.0 0.0 0.0 0.0 0.0 0.0 0.0 0.0 0.0 0.0
0.0 0.0 0.0 0.0 0.0 0.0 0.0 0.0 0.0 0.0 0.0 0.0 0.0 0.0 0.0 0.0 0.0 0.0 0.0 0.0 0.0 0.0 4.3 8.6 7.1 2.9 0.0 0.4 0.0 0.0 0.0 0.0 0.5 1.4 0.0 0.0 0.0 2.2 1.4 0.0 0.0 0.0 0.0 0.0 0.0 0.0 0.0 0.0 0.0 0.0 0.0 0.0 0.0 0.0
0.0 0.0 0.0 0.0 0.0 0.0 0.0 0.0 0.0 0.0 0.0 0.0 0.0 0.0 0.0 0.0 0.0 0.0 0.0 0.0 0.0 0.0 7.3 6.7 6.7 5.1 0.0 0.0 0.0 0.2 0.0 4.5 0.0 1.6 0.0 0.4 1.2 2.8 0.0 0.1 0.1 0.0 0.1 0.0 0.0 0.0 0.0 0.0 0.0 0.0 0.0 0.0 0.0 0.0
0.0 0.0 0.0 0.0 0.0 0.0 0.0 0.0 0.0 0.0 0.0 0.0 0.0 0.0 0.9 0.0 0.0 0.0 0.0 0.7 4.5 3.5 3.8 5.1 4.8 5.9 3.0 4.7 1.7 1.7 1.9 3.0 3.7 0.0 0.0 1.2 0.0 0.0 0.0 0.0 0.1 0.1 0.0 0.1 0.0 3.0 1.6 1.0 0.0 0.0 0.0 0.0 0.0 0.0
0.0 0.0 0.0 0.0 0.0 0.0 0.0 0.0 0.0 0.0 0.0 0.0 0.0 0.0 0.0 0.0 0.0 0.0 5.6 6.7 3.8 2.4 2.3 3.3 4.5 3.7 0.0 5.0 3.5 0.3 5.7 2.5 4.1 4.9 1.1 2.2 1.6 1.2 0.0 0.1 0.0 0.0 0.1 0.0 0.0 0.0 0.5 2.1 2.0 0.6 0.4 0.2 0.0 0.0
0.0 0.0 0.0 0.0 0.0 0.0 0.0 0.0 0.0 0.0 0.0 0.0 0.0 0.0 0.0 0.8 5.8 6.3 6.4 3.9 1.3 1.0 1.6 2.9 1.5 1.0 1.0 0.0 2.1 1.9 3.7 3.3 3.7 5.2 3.8 2.7 1.0 0.2 1.1 1.0 0.7 0.1 0.0 0.1 0.0 0.0 0.3 0.0 1.0 1.3 0.9 1.2 1.4 1.6
0.0 0.0 0.0 0.0 0.0 0.0 0.0 0.0 0.0 0.0 0.0 0.0 0.0 6.1 6.3 7.5 6.3 4.8 3.0 2.5 0.5 0.7 0.9 0.9 1.2 0.0 0.0 0.1 0.6 1.6 1.6 0.7 1.2 3.7 3.9 1.7 0.3 0.2 0.0 0.2 0.5 2.2 2.7 1.5 1.0 0.8 0.8 0.8 0.5 0.9 0.8 0.5 0.7 0.4
0.0 0.0 0.0 0.0 0.0 0.0 0.0 0.0 0.0 0.0 0.0 2.2 13.7 10.7 5.6 4.5 1.2 1.2 1.1 1.1 0.2 0.1 0.0 0.0 0.6 1.3 0.2 1.2 1.2 1.6 0.1 0.6 2.4 1.7 1.5 0.2 0.2 0.0 0.0 0.0 0.0 0.0 1.1 1.8 2.8 2.3 1.8 2.1 1.3 1.5 0.9 0.3 0.0 0.0
0.0 0.0 0.0 0.0 0.0 0.0 0.0 0.0 0.0 0.0 0.0 18.6 15.0 7.1 2.2 0.0 0.2 0.1 0.0 0.2 0.0 0.0 0.1 0.0 0.0 0.1 1.0 1.7 0.5 1.2 1.0 2.8 3.2 2.0 1.4 0.7 0.2 0.0 0.1 0.1 0.0 0.0 0.0 0.0 0.3 0.7 2.1 1.9 2.2 1.4 0.7 0.6 0.1 0.0
0.0 0.0 0.0 0.0 0.0 0.0 0.0 0.0 0.0 0.0 16.5 19.3 13.0 3.8 0.0 0.0 0.0 0.0 0.0 0.0 0.0 0.0 0.3 0.4 0.6 1.4 0.9 2.0 1.5 0.3 1.2 2.0 2.5 1.3 0.0 0.0 0.0 0.0 0.1 0.0 0.1 0.0 0.0 0.0 0.0 0.0 0.5 0.5 1.1 1.0 0.2 0.5 0.4 0.0
0.0 0.0 0.0 0.0 0.0 0.0 0.0 0.0 0.0 27.2 24.9 20.3 7.9 0.6 0.0 0.0 0.0 0.0 0.0 0.0 0.0 0.5 1.9 2.6 3.5 0.1 1.0 1.6 0.7 0.1 0.2 0.3 0.3 0.0 0.0 0.0 0.0 0.0 0.4 0.0 0.0 0.1 0.0 0.0 0.2 0.2 0.8 0.4 1.4 1.8 1.1 0.4 0.5 0.7
0.0 0.0 0.0 0.0 0.0 0.0 1.7 4.4 13.5 30.1 23.7 8.3 2.0 0.2 0.1 0.0 0.0 0.0 0.0 0.0 0.0 0.2 2.2 5.9 3.6 3.2 1.2 0.2 0.0 0.1 0.0 0.0 0.0 0.0 0.0 0.0 0.0 0.0 0.4 0.0 0.0 0.2 0.8 1.6 1.7 1.7 1.3 1.3 1.6 1.3 0.3 0.5 0.6 0.6
0.0 0.0 0.0 0.0 0.0 2.6 28.1 25.8 19.9 20.5 5.4 1.1 0.4 0.1 0.0 0.2 0.0 0.0 0.0 0.1 0.1 0.1 1.1 5.7 6.0 1.8 0.0 0.0 0.0 0.0 0.0 0.0 0.0 0.0 0.0 0.0 0.0 0.1 0.1 0.7 0.6 0.0 0.4 1.1 0.8 0.9 0.6 0.2 0.0 0.5 0.5 0.2 0.6 0.3
0.0 0.0 0.0 0.0 0.0 20.6 30.8 26.1 13.2 7.6 2.7 0.6 1.0 1.2 0.4 0.1 0.1 0.0 0.1 0.3 1.0 1.3 5.6 5.5 0.0 0.1 0.1 0.3 0.5 0.4 0.0 0.0 0.0 0.0 0.0 0.0 0.0 0.0 0.0 0.0 0.0 0.2 0.0 0.4 0.3 0.1 0.6 0.3 0.0 0.6 0.4 0.2 0.5 0.5
3.8 12.8 6.3 0.0 6.7 25.0 24.7 17.0 7.0 4.0 1.2 1.4 1.7 0.5 1.1 1.0 0.7 1.3 1.5 1.4 5.0 6.9 2.5 0.2 0.0 0.0 0.4 0.4 0.2 0.4 0.2 0.1 0.0 0.0 0.0 0.0 0.0 0.0 0.0 0.0 0.0 0.1 0.0 0.0 0.1 0.0 0.4 0.2 0.1 0.0 0.4 0.2 0.1 0.8
9.5 8.9 13.9 10.6 32.3 32.7 22.4 10.9 5.3 2.7 1.6 1.9 1.8 1.2 1.9 1.7 1.6 1.6 1.5 3.3 4.6 0.9 0.1 0.2 0.0 0.0 0.0 0.0 0.6 0.4 0.5 0.0 0.1 0.0 0.0 0.0 0.0 0.0 0.0 0.0 0.0 0.0 0.0 0.0 0.0 0.0 0.0 0.0 0.1 0.0 0.3 0.3 0.1 0.9
3.4 8.5 39.5 38.4 34.8 30.2 17.4 7.3 2.7 2.7 2.6 2.4 2.1 2.6 2.1 1.5 1.4 1.1 1.7 0.9 0.1 0.0 0.0 0.0 0.0 0.7 0.9 0.9 1.3 1.1 0.7 0.1 0.0 0.0 0.1 0.0 0.0 0.0 0.0 0.0 0.0 0.0 0.0 0.0 0.0 0.0 0.0 0.0 0.0 0.0 0.0 0.4 0.2 0.0
0.0 37.8 42.3 39.1 27.9 20.0 12.4 9.3 6.4 3.4 4.0 2.7 2.2 1.8 1.3 0.9 1.1 1.1 1.0 0.0 0.0 0.0 0.0 0.0 0.0 0.0 0.0 0.6 0.9 1.5 2.0 1.4 0.4 0.0 0.6 0.3 0.0 0.0 0.0 0.0 0.0 0.0 0.0 0.0 0.0 0.0 0.0 0.0 0.0 0.0 0.0 0.0 0.0 0.0
48.4 53.9 39.3 33.0 20.1 10.4 6.1 4.7 3.4 3.0 2.3 1.9 1.2 1.1 0.9 1.0 1.4 1.6 0.5 0.1 0.0 0.0 0.0 0.0 0.0 0.0 0.0 0.0 0.5 0.6 0.9 1.3 1.9 1.8 0.2 1.5 0.7 0.2 0.0 0.0 0.2 0.1 0.0 0.0 0.0 0.0 0.0 0.0 0.0 0.0 0.0 0.0 0.0 0.1
46.4 28.1 19.3 8.1 4.4 1.6 0.9 1.0 1.3 1.1 0.7 1.0 0.9 0.6 0.3 1.3 2.6 1.5 0.1 0.0 0.0 0.0 0.0 0.0 0.0 0.0 0.0 0.0 0.0 0.6 0.8 0.9 0.9 1.1 0.2 1.7 1.5 1.9 1.5 1.2 0.7 0.3 0.0 0.0 0.2 0.2 0.1 0.0 0.0 0.0 0.0 0.0 0.0 0.4
36.2 19.5 7.9 1.4 0.4 0.4 0.2 0.1 0.1 0.4 0.5 0.7 0.1 0.2 0.1 2.5 0.3 0.0 0.0 0.0 0.0 0.0 0.0 0.0 0.0 0.0 0.0 0.0 0.0 0.0 0.7 0.9 0.8 0.4 0.2 1.2 1.1 0.9 0.5 1.3 1.1 0.8 0.6 1.1 0.9 0.7 0.6 0.4 0.2 0.1 0.3 0.2 0.2 0.2
13.1 4.1 0.7 0.6 0.4 0.2 0.3 0.2 0.4 0.2 0.7 0.2 0.9 1.3 2.1 1.4 0.4 0.0 0.0 0.0 0.0 0.0 0.0 0.0 0.0 0.0 0.0 0.0 0.0 0.4 0.6 0.8 0.8 0.5 1.2 1.3 1.1 1.0 0.9 1.1 2.2 2.5 1.9 1.6 1.1 1.4 1.5 1.1 1.0 1.2 0.9 0.6 0.6 0.5
2.6 0.5 0.0 0.2 0.2 0.1 0.4 0.3 0.4 0.2 0.1 0.0 0.1 0.2 0.0 0.0 0.0 0.0 0.0 0.0 0.0 0.0 0.0 0.0 0.0 0.0 0.0 0.0 0.0 0.4 0.5 0.8 1.1 1.0 0.8 0.8 1.0 1.2 1.4 2.6 3.3 4.1 4.0 3.7 3.1 2.3 1.7 1.8 2.9 3.2 2.8 2.5 2.3 2.2
0.5 0.0 0.0 0.0 0.5 0.5 0.1 0.1 0.0 0.2 0.2 0.0 0.0 0.3 0.1 0.0 0.1 0.0 0.0 0.1 0.0 0.0 0.0 0.0 0.0 0.0 0.0 0.0 0.0 0.6 0.4 0.4 0.9 0.9 0.9 0.8 0.9 1.2 2.3 2.8 3.6 4.1 4.5 4.0 4.9 5.6 5.2 4.9 5.4 5.1 4.7 4.2 3.7 3.1
0.0 0.0 0.1 0.1 0.2 0.3 0.4 0.2 0.1 0.0 0.1 0.1 0.2 0.2 0.2 0.2 0.1 0.1 0.1 0.0 0.0 0.0 0.0 0.0 0.0 0.1 0.2 0.3 0.5 0.7 0.6 0.7 0.7 1.3 1.4 1.7 1.6 2.2 2.0 3.3 3.5 4.3 4.9 5.1 4.5 4.4 4.1 3.8 3.5 3.2 3.1 2.8 2.6 2.4
0.0 0.1 0.0 0.3 0.5 1.1 1.0 0.5 0.2 0.0 0.1 0.1 0.1 0.0 0.1 0.0 0.0 0.0 0.0 0.0 0.0 0.0 0.0 0.0 0.2 0.4 0.5 0.7 0.9 1.1 1.7 1.7 1.1 1.8 1.7 1.8 2.1 1.8 2.9 3.3 4.3 4.5 4.8 5.1 4.7 4.2 4.1 3.9 4.2 3.8 3.8 3.9 3.5 3.2
1.3 0.7 0.5 0.3 1.4 1.3 1.1 0.6 0.7 0.5 0.5 0.3 0.1 0.1 0.0 0.0 0.0 0.0 0.0 0.0 0.0 0.1 0.0 0.4 0.5 0.7 1.2 1.5 1.4 2.1 2.3 2.0 2.9 3.1 3.5 3.4 3.1 3.2 4.0 4.2 5.1 4.8 4.5 4.5 4.6 4.8 4.9 4.7 4.3 3.9 3.7 3.6 3.5 3.5

GFSWCAN_prec_snow_138.txt.gz
Snowfall_Accumulation
0.0 0.0 0.0 0.0 0.0 0.0 0.0 0.0 0.0 0.0 0.0 0.0 0.0 0.0 0.0 0.0 0.0 0.0 0.0 0.0 0.0 0.0 0.0 0.0 0.0 0.0 0.0 0.0 0.0 0.0 0.0 0.0 0.0 0.7 0.0 0.0 0.1 0.0 0.0 0.0 0.0 0.0 0.2 0.2 0.6 0.5 0.0 0.0 0.0 0.0 0.0 0.0 0.0 0.0
0.0 0.0 0.0 0.0 0.0 0.0 0.0 0.0 0.0 0.0 0.0 0.0 0.0 0.0 0.0 0.0 0.0 0.0 0.0 0.0 0.0 0.0 0.0 0.0 0.0 0.0 0.0 0.0 0.0 0.0 0.0 0.0 0.0 0.0 0.0 0.0 0.1 0.0 0.0 0.0 0.0 0.0 0.0 0.0 0.0 0.0 0.0 0.0 0.0 0.0 0.0 0.0 0.0 0.0
0.0 0.0 0.0 0.0 0.0 0.0 0.0 0.0 0.0 0.0 0.0 0.0 0.0 0.0 0.0 0.0 0.0 0.0 0.0 0.0 0.0 0.1 0.0 0.0 0.0 0.0 0.0 0.0 0.0 0.0 0.0 0.0 0.0 0.0 0.0 0.0 0.0 0.0 0.1 0.0 0.0 0.0 0.0 0.0 0.0 0.0 0.0 0.0 0.0 0.0 0.0 0.0 0.0 0.0
0.0 0.0 0.0 0.0 0.0 0.0 0.0 0.0 0.0 0.0 0.0 0.0 0.0 0.0 0.0 0.0 0.0 0.0 0.0 0.0 0.0 0.1 0.8 0.1 0.0 0.0 0.0 0.0 0.0 0.0 0.0 0.0 0.0 0.0 0.0 0.0 0.0 0.0 0.0 0.0 0.0 0.0 0.0 0.0 0.0 0.0 0.0 0.0 0.0 0.0 0.0 0.0 0.0 0.0
0.0 0.0 0.0 0.0 0.0 0.0 0.0 0.0 0.0 0.0 0.0 0.0 0.0 0.0 0.0 0.0 0.0 0.0 0.0 0.0 0.0 0.2 1.9 0.3 0.0 0.0 0.0 0.0 0.0 0.0 0.0 0.0 0.5 0.3 1.1 0.7 0.0 0.0 0.0 0.0 0.0 0.0 0.0 0.0 0.0 0.0 0.0 0.0 0.0 0.0 0.0 0.0 0.0 0.0
0.0 0.0 0.0 0.0 0.0 0.0 0.0 0.0 0.0 0.0 0.0 0.0 0.0 0.0 0.0 0.0 0.0 0.0 0.0 0.0 0.0 0.0 3.0 1.6 0.0 0.0 0.0 0.0 0.0 0.0 0.0 0.0 0.1 1.1 1.6 0.0 0.0 0.0 0.6 0.0 0.0 0.0 0.0 0.0 0.0 0.0 0.0 0.0 0.0 0.0 0.0 0.0 0.0 0.0
0.0 0.0 0.0 0.0 0.0 0.0 0.0 0.0 0.0 0.0 0.0 0.0 0.0 0.0 0.0 0.0 0.0 0.2 0.0 0.0 0.0 0.0 1.5 3.8 4.0 0.0 0.0 0.0 0.0 0.0 0.0 0.0 2.0 3.2 1.5 0.0 0.0 1.6 1.3 0.3 0.0 0.0 0.0 0.0 0.0 0.0 0.0 0.0 0.0 0.0 0.0 0.0 0.0 0.0
0.0 0.0 0.0 0.0 0.0 0.0 0.0 0.0 0.0 0.0 0.0 0.0 0.0 0.0 0.0 0.0 0.0 0.0 0.0 0.0 0.0 0.0 4.3 8.6 7.1 2.9 0.0 0.4 0.0 0.0 0.0 0.0 0.5 1.4 0.0 0.0 0.0 2.2 1.4 0.0 0.0 0.0 0.0 0.0 0.0 0.0 0.0 0.0 0.0 0.0 0.0 0.0 0.0 0.0
0.0 0.0 0.0 0.0 0.0 0.0 0.0 0.0 0.0 0.0 0.0 0.0 0.0 0.0 0.0 0.0 0.0 0.0 0.0 0.0 0.0 0.0 7.3 6.7 6.7 5.1 0.0 0.0 0.0 0.2 0.0 4.5 0.0 1.6 0.0 0.4 1.2 2.8 0.0 0.1 0.1 0.0 0.1 0.0 0.0 0.0 0.0 0.0 0.0 0.0 0.0 0.0 0.0 0.0
0.0 0.0 0.0 0.0 0.0 0.0 0.0 0.0 0.0 0.0 0.0 0.0 0.0 0.0 0.9 0.0 0.0 0.0 0.0 0.7 4.5 3.5 3.8 5.1 4.8 5.9 3.0 4.7 1.7 1.7 1.9 3.0 3.7 0.0 0.0 1.2 0.0 0.0 0.0 0.0 0.1 0.1 0.0 0.1 0.0 3.0 1.6 1.0 0.0 0.0 0.0 0.0 0.0 0.0
0.0 0.0 0.0 0.0 0.0 0.0 0.0 0.0 0.0 0.0 0.0 0.0 0.0 0.0 0.0 0.0 0.0 0.0 5.6 6.7 3.8 2.4 2.3 3.3 4.5 3.7 0.0 5.0 3.5 0.3 5.7 2.5 4.1 4.9 1.1 2.2 1.6 1.2 0.0 0.1 0.0 0.0 0.1 0.0 0.0 0.0 0.5 2.1 2.0 0.6 0.4 0.2 0.0 0.0
0.0 0.0 0.0 0.0 0.0 0.0 0.0 0.0 0.0 0.0 0.0 0.0 0.0 0.0 0.0 0.8 6.5 6.9 6.8 3.9 1.3 1.0 1.6 2.9 1.5 1.0 1.0 0.0 2.1 1.9 3.7 3.3 3.7 5.2 3.8 2.7 1.0 0.2 1.1 1.0 0.7 0.1 0.0 0.1 0.0 0.0 0.3 0.0 1.0 1.3 0.9 1.2 1.4 1.6
0.0 0.0 0.0 0.0 0.0 0.0 0.0 0.0 0.0 0.0 0.0 0.0 0.0 8.7 8.7 9.6 7.5 5.2 3.1 2.6 0.5 0.7 0.9 0.9 1.2 0.0 0.0 0.1 0.6 1.6 1.6 0.7 1.2 3.7 3.9 1.7 0.3 0.2 0.0 0.2 0.5 2.2 2.7 1.5 1.0 0.8 0.8 0.8 0.5 0.9 0.8 0.5 0.7 0.4
0.0 0.0 0.0 0.0 0.0 0.0 0.0 0.0 0.0 0.0 0.0 2.2 17.5 14.7 8.0 6.0 1.2 1.2 1.1 1.1 0.2 0.1 0.0 0.0 0.6 1.3 0.2 1.2 1.2 1.6 0.1 0.6 2.4 1.7 1.5 0.2 0.2 0.0 0.0 0.0 0.0 0.0 1.1 1.8 2.8 2.3 1.8 2.1 1.3 1.5 0.9 0.3 0.0 0.0
0.0 0.0 0.0 0.0 0.0 0.0 0.0 0.0 0.0 0.0 0.0 20.5 17.9 9.3 3.3 0.0 0.2 0.1 0.0 0.2 0.0 0.0 0.1 0.0 0.0 0.1 1.0 1.7 0.5 1.2 1.0 2.8 3.2 2.0 1.4 0.7 0.2 0.0 0.1 0.1 0.0 0.0 0.0 0.0 0.3 0.7 2.1 1.9 2.2 1.4 0.7 0.6 0.1 0.0
0.0 0.0 0.0 0.0 0.0 0.0 0.0 0.0 0.0 0.0 16.5 20.9 15.0 4.8 0.0 0.0 0.0 0.0 0.0 0.0 0.0 0.0 0.3 0.4 0.6 1.4 0.9 2.0 1.5 0.3 1.2 2.0 2.5 1.3 0.0 0.0 0.0 0.0 0.1 0.0 0.1 0.0 0.0 0.0 0.0 0.0 0.5 0.5 1.1 1.0 0.2 0.5 0.4 0.0
0.0 0.0 0.0 0.0 0.0 0.0 0.0 0.0 0.0 27.6 25.4 21.2 7.9 0.6 0.0 0.0 0.0 0.0 0.0 0.0 0.0 0.5 1.9 2.6 3.5 0.1 1.0 1.6 0.7 0.1 0.2 0.3 0.3 0.0 0.0 0.0 0.0 0.0 0.4 0.0 0.0 0.1 0.0 0.0 0.2 0.2 0.8 0.4 1.4 1.8 1.1 0.4 0.5 0.7
0.0 0.0 0.0 0.0 0.0 0.0 1.7 4.4 14.3 30.9 24.2 8.3 2.0 0.2 0.1 0.0 0.0 0.0 0.0 0.0 0.0 0.2 2.2 5.9 3.6 3.2 1.2 0.2 0.0 0.1 0.0 0.0 0.0 0.0 0.0 0.0 0.0 0.0 0.4 0.0 0.0 0.2 0.8 1.6 1.7 1.7 1.3 1.3 1.6 1.3 0.3 0.5 0.6 0.6
0.0 0.0 0.0 0.0 0.0 3.1 29.1 26.9 19.9 21.2 5.4 1.1 0.4 0.1 0.0 0.2 0.0 0.0 0.0 0.1 0.1 0.1 1.1 5.7 6.0 1.8 0.0 0.0 0.0 0.0 0.0 0.0 0.0 0.0 0.0 0.0 0.0 0.1 0.1 0.7 0.6 0.0 0.4 1.1 0.8 0.9 0.6 0.2 0.0 0.5 0.5 0.2 0.6 0.3
0.0 0.0 0.0 0.0 0.0 22.5 32.6 27.6 14.1 7.6 2.7 0.6 1.0 1.2 0.4 0.1 0.1 0.0 0.1 0.3 1.0 1.3 5.6 5.5 0.0 0.1 0.1 0.3 0.5 0.4 0.0 0.0 0.0 0.0 0.0 0.0 0.0 0.0 0.0 0.0 0.0 0.2 0.0 0.4 0.3 0.1 0.6 0.3 0.0 0.6 0.4 0.2 0.5 0.5
3.8 12.8 6.3 0.0 6.7 27.4 26.0 17.7 7.6 4.0 1.2 1.4 1.7 0.5 1.1 1.0 0.7 1.3 1.6 1.6 5.5 7.4 2.9 0.2 0.0 0.0 0.4 0.4 0.2 0.4 0.2 0.1 0.0 0.0 0.0 0.0 0.0 0.0 0.0 0.0 0.0 0.1 0.0 0.0 0.1 0.0 0.4 0.2 0.1 0.0 0.4 0.2 0.1 0.8
11.0 11.8 18.6 14.7 34.9 34.6 23.4 11.5 5.4 3.0 1.6 2.0 2.2 1.2 1.9 2.5 2.3 2.4 2.2 4.2 5.2 1.1 0.1 0.2 0.0 0.0 0.0 0.0 0.6 0.4 0.5 0.0 0.1 0.0 0.0 0.0 0.0 0.0 0.0 0.0 0.0 0.0 0.0 0.0 0.0 0.0 0.0 0.0 0.1 0.0 0.3 0.3 0.1 0.9
5.3 11.9 42.8 41.7 37.2 31.4 18.4 8.0 3.1 3.0 2.8 2.8 2.4 3.0 2.8 2.3 2.2 1.9 2.9 1.9 0.6 0.0 0.0 0.0 0.0 0.7 0.9 1.0 1.3 1.1 0.7 0.1 0.0 0.0 0.1 0.0 0.0 0.0 0.0 0.0 0.0 0.0 0.0 0.0 0.0 0.0 0.0 0.0 0.0 0.0 0.0 0.4 0.2 0.0
1.6 40.1 44.8 41.1 29.3 20.9 13.1 9.9 6.9 3.7 4.5 3.3 2.7 2.1 1.6 0.9 1.9 2.1 1.8 0.3 0.0 0.0 0.0 0.0 0.0 0.0 0.1 0.7 0.9 1.5 2.0 1.4 0.4 0.0 0.6 0.3 0.0 0.0 0.0 0.0 0.0 0.0 0.0 0.0 0.0 0.0 0.0 0.0 0.0 0.0 0.0 0.0 0.0 0.0
49.2 54.9 40.3 34.0 20.9 11.1 6.5 5.0 3.7 3.0 2.5 2.2 1.2 1.6 1.2 1.3 1.9 2.2 0.8 0.2 0.0 0.0 0.6 0.8 0.4 0.1 0.1 0.0 0.5 0.6 0.9 1.3 1.9 1.8 0.2 1.5 0.7 0.2 0.0 0.0 0.2 0.1 0.0 0.0 0.0 0.0 0.0 0.0 0.0 0.0 0.0 0.0 0.0 0.1
46.9 28.7 19.8 8.6 4.8 1.9 1.3 1.3 1.3 1.1 0.7 1.3 0.9 0.6 0.3 2.1 3.3 2.0 0.1 0.0 0.0 0.0 0.3 0.3 0.1 0.0 0.0 0.0 0.0 0.6 0.8 0.9 0.9 1.1 0.2 1.7 1.5 1.9 1.5 1.2 0.7 0.3 0.0 0.0 0.2 0.2 0.1 0.0 0.0 0.0 0.0 0.0 0.0 0.4
36.6 20.2 8.3 1.6 0.5 0.4 0.2 0.5 0.6 1.0 1.3 1.4 0.7 0.7 0.7 3.3 1.0 0.5 0.4 0.3 0.2 0.1 0.0 0.0 0.0 0.0 0.0 0.0 0.0 0.0 0.7 0.9 0.8 0.4 0.2 1.2 1.1 0.9 0.5 1.3 1.1 0.8 0.6 1.1 0.9 0.7 0.6 0.4 0.2 0.1 0.3 0.2 0.2 0.2
13.1 4.1 0.8 0.7 0.4 0.2 0.3 0.3 0.4 0.3 0.8 0.4 1.1 1.6 2.4 1.7 0.6 0.1 0.0 0.0 0.0 0.0 0.0 0.0 0.0 0.0 0.0 0.0 0.0 0.4 0.6 0.8 0.8 0.5 1.2 1.3 1.1 1.0 0.9 1.1 2.2 2.5 1.9 1.6 1.1 1.4 1.5 1.1 1.0 1.2 0.9 0.6 0.6 0.5
2.6 0.5 0.0 0.2 0.2 0.1 0.4 0.3 0.4 0.2 0.1 0.0 0.2 0.2 0.1 0.0 0.0 0.0 0.0 0.0 0.0 0.0 0.0 0.0 0.0 0.0 0.0 0.0 0.0 0.4 0.5 0.8 1.1 1.0 0.8 0.8 1.0 1.2 1.4 2.6 3.3 4.1 4.0 3.7 3.1 2.3 1.7 1.8 2.9 3.2 2.8 2.7 2.6 2.5
0.5 0.0 0.0 0.0 0.5 0.5 0.1 0.1 0.0 0.2 0.2 0.0 0.0 0.3 0.1 0.0 0.1 0.0 0.0 0.1 0.0 0.0 0.0 0.0 0.0 0.0 0.0 0.0 0.0 0.6 0.4 0.4 0.9 0.9 0.9 0.8 0.9 1.2 2.3 2.8 3.6 4.1 4.5 4.0 4.9 5.6 5.2 4.9 5.4 5.1 4.7 4.2 3.7 3.1
0.0 0.0 0.1 0.1 0.2 0.3 0.4 0.2 0.1 0.0 0.1 0.1 0.2 0.2 0.2 0.2 0.1 0.1 0.1 0.0 0.0 0.0 0.0 0.0 0.0 0.1 0.2 0.3 0.5 0.7 0.6 0.7 0.7 1.3 1.4 1.7 1.6 2.2 2.0 3.3 3.5 4.3 4.9 5.1 4.5 4.4 4.1 3.8 3.5 3.2 3.1 2.8 2.6 2.4
0.0 0.1 0.0 0.3 0.5 1.1 1.0 0.5 0.2 0.0 0.1 0.1 0.1 0.0 0.1 0.0 0.0 0.0 0.0 0.0 0.0 0.0 0.0 0.0 0.2 0.4 0.5 0.7 0.9 1.1 1.7 1.7 1.1 1.8 1.7 1.8 2.1 1.8 2.9 3.3 4.3 4.5 4.8 5.1 4.7 4.2 4.1 4.0 4.3 3.8 3.8 3.9 3.5 3.2
1.3 0.7 0.5 0.3 1.4 1.3 1.1 0.6 0.7 0.5 0.5 0.3 0.1 0.1 0.0 0.0 0.0 0.0 0.0 0.0 0.0 0.1 0.0 0.4 0.5 0.7 1.2 1.5 1.4 2.1 2.3 2.0 2.9 3.1 3.5 3.4 3.1 3.2 4.0 4.2 5.1 4.8 4.5 4.5 4.6 4.8 4.9 4.8 4.4 3.9 3.7 3.6 3.5 3.5

GFSWCAN_prec_snow_141.txt.gz
Snowfall_Accumulation
0.0 0.0 0.0 0.0 0.0 0.0 0.0 0.0 0.0 0.0 0.0 0.0 0.0 0.0 0.0 0.0 0.0 0.0 0.0 0.0 0.0 0.0 0.0 0.0 0.0 0.0 0.0 0.0 0.0 0.0 0.0 0.0 0.0 0.7 0.0 0.0 0.1 0.0 0.0 0.0 0.0 0.0 0.2 0.2 0.6 0.5 0.0 0.0 0.0 0.0 0.0 0.0 0.0 0.0
0.0 0.0 0.0 0.0 0.0 0.0 0.0 0.0 0.0 0.0 0.0 0.0 0.0 0.0 0.0 0.0 0.0 0.0 0.0 0.0 0.0 0.0 0.0 0.0 0.0 0.0 0.0 0.0 0.0 0.0 0.0 0.0 0.0 0.0 0.0 0.0 0.1 0.0 0.0 0.0 0.0 0.0 0.0 0.0 0.0 0.0 0.0 0.0 0.0 0.0 0.0 0.0 0.0 0.0
0.0 0.0 0.0 0.0 0.0 0.0 0.0 0.0 0.0 0.0 0.0 0.0 0.0 0.0 0.0 0.0 0.0 0.0 0.0 0.0 0.0 0.1 0.0 0.0 0.0 0.0 0.0 0.0 0.0 0.0 0.0 0.0 0.0 0.0 0.0 0.0 0.0 0.0 0.1 0.0 0.0 0.0 0.0 0.0 0.0 0.0 0.0 0.0 0.0 0.0 0.0 0.0 0.0 0.0
0.0 0.0 0.0 0.0 0.0 0.0 0.0 0.0 0.0 0.0 0.0 0.0 0.0 0.0 0.0 0.0 0.0 0.0 0.0 0.0 0.0 0.1 0.8 0.1 0.0 0.0 0.0 0.0 0.0 0.0 0.0 0.0 0.0 0.0 0.0 0.0 0.0 0.0 0.0 0.0 0.0 0.0 0.0 0.0 0.0 0.0 0.0 0.0 0.0 0.0 0.0 0.0 0.0 0.0
0.0 0.0 0.0 0.0 0.0 0.0 0.0 0.0 0.0 0.0 0.0 0.0 0.0 0.0 0.0 0.0 0.0 0.0 0.0 0.0 0.0 0.2 1.9 0.3 0.0 0.0 0.0 0.0 0.0 0.0 0.0 0.0 0.5 0.3 1.1 0.7 0.0 0.0 0.0 0.0 0.0 0.0 0.0 0.0 0.0 0.0 0.0 0.0 0.0 0.0 0.0 0.0 0.0 0.0
0.0 0.0 0.0 0.0 0.0 0.0 0.0 0.0 0.0 0.0 0.0 0.0 0.0 0.0 0.0 0.0 0.0 0.0 0.0 0.0 0.0 0.0 3.0 1.6 0.0 0.0 0.0 0.0 0.0 0.0 0.0 0.0 0.1 1.1 1.6 0.0 0.0 0.0 0.6 0.0 0.0 0.0 0.0 0.0 0.0 0.0 0.0 0.0 0.0 0.0 0.0 0.0 0.0 0.0
0.0 0.0 0.0 0.0 0.0 0.0 0.0 0.0 0.0 0.0 0.0 0.0 0.0 0.0 0.0 0.0 0.0 0.2 0.0 0.0 0.0 0.0 1.5 3.8 4.0 0.0 0.0 0.0 0.0 0.0 0.0 0.0 2.0 3.2 1.5 0.0 0.0 1.6 1.3 0.3 0.0 0.0 0.0 0.0 0.0 0.0 0.0 0.0 0.0 0.0 0.0 0.0 0.0 0.0
0.0 0.0 0.0 0.0 0.0 0.0 0.0 0.0 0.0 0.0 0.0 0.0 0.0 0.0 0.0 0.0 0.0 0.0 0.0 0.0 0.0 0.0 4.3 8.6 7.1 2.9 0.0 0.4 0.0 0.0 0.0 0.0 0.5 1.4 0.0 0.0 0.0 2.2 1.4 0.0 0.0 0.0 0.0 0.0 0.0 0.0 0.0 0.0 0.0 0.0 0.0 0.0 0.0 0.0
0.0 0.0 0.0 0.0 0.0 0.0 0.0 0.0 0.0 0.0 0.0 0.0 0.0 0.0 0.0 0.0 0.0 0.0 0.0 0.0 0.0 0.0 7.3 6.7 6.7 5.1 0.0 0.0 0.0 0.2 0.0 4.5 0.0 1.6 0.0 0.4 1.2 2.8 0.0 0.1 0.1 0.0 0.1 0.0 0.0 0.0 0.0 0.0 0.0 0.0 0.0 0.0 0.0 0.0
0.0 0.0 0.0 0.0 0.0 0.0 0.0 0.0 0.0 0.0 0.0 0.0 0.0 0.0 0.9 0.0 0.0 0.0 0.0 0.7 4.5 3.5 3.8 5.1 4.8 5.9 3.0 4.7 1.7 1.7 1.9 3.0 3.7 0.0 0.0 1.2 0.0 0.0 0.0 0.0 0.1 0.1 0.0 0.1 0.0 3.0 1.6 1.0 0.0 0.0 0.0 0.0 0.0 0.0
0.0 0.0 0.0 0.0 0.0 0.0 0.0 0.0 0.0 0.0 0.0 0.0 0.0 0.0 0.0 0.0 0.0 0.0 5.6 6.7 3.8 2.4 2.3 3.3 4.5 3.7 0.0 5.0 3.5 0.3 5.7 2.5 4.1 4.9 1.1 2.2 1.6 1.2 0.0 0.1 0.0 0.0 0.1 0.0 0.0 0.0 0.5 2.1 2.0 0.6 0.4 0.2 0.0 0.0
0.0 0.0 0.0 0.0 0.0 0.0 0.0 0.0 0.0 0.0 0.0 0.0 0.0 0.0 0.0 0.8 7.4 7.9 7.3 4.0 1.3 1.0 1.6 2.9 1.5 1.0 1.0 0.0 2.1 1.9 3.7 3.3 3.7 5.2 3.8 2.7 1.0 0.2 1.1 1.0 0.7 0.1 0.0 0.1 0.0 0.0 0.3 0.0 1.0 1.3 0.9 1.2 1.4 1.6
0.0 0.0 0.0 0.0 0.0 0.0 0.0 0.0 0.0 0.0 0.0 0.0 0.0 12.2 11.7 12.4 8.9 5.9 3.3 2.6 0.5 0.7 0.9 0.9 1.2 0.0 0.0 0.1 0.6 1.6 1.6 0.7 1.2 3.8 3.9 1.7 0.3 0.2 0.0 0.2 0.5 2.2 2.7 1.5 1.0 0.8 0.8 0.8 0.5 0.9 0.8 0.5 0.7 0.4
0.0 0.0 0.0 0.0 0.0 0.0 0.0 0.0 0.0 0.0 0.0 3.4 20.5 17.9 10.8 8.1 1.6 1.2 1.1 1.1 0.2 0.1 0.0 0.0 0.6 1.3 0.2 1.2 1.2 1.6 0.1 0.6 2.5 1.7 1.5 0.2 0.2 0.0 0.0 0.0 0.0 0.0 1.1 1.8 2.8 2.3 1.8 2.1 1.3 1.5 0.9 0.3 0.0 0.0
0.0 0.0 0.0 0.0 0.0 0.0 0.0 0.0 0.0 0.0 0.0 21.2 19.2 11.3 4.8 0.2 0.2 0.1 0.0 0.2 0.0 0.0 0.1 0.0 0.0 0.1 1.0 1.7 0.5 1.2 1.0 2.8 3.2 2.0 1.4 0.7 0.2 0.0 0.1 0.1 0.0 0.0 0.0 0.0 0.3 0.7 2.1 1.9 2.2 1.4 0.7 0.6 0.1 0.0
0.0 0.0 0.0 0.0 0.0 0.0 0.0 0.0 0.0 0.0 16.5 21.5 15.0 4.8 0.0 0.0 0.0 0.0 0.0 0.0 0.0 0.0 0.3 0.4 0.6 1.4 0.9 2.0 1.5 0.3 1.2 2.0 2.5 1.3 0.0 0.0 0.0 0.0 0.1 0.0 0.1 0.0 0.0 0.0 0.0 0.0 0.5 0.5 1.1 1.0 0.2 0.5 0.4 0.0
0.0 0.0 0.0 0.0 0.0 0.0 0.0 0.0 0.0 27.8 25.6 21.4 7.9 0.6 0.0 0.0 0.0 0.0 0.0 0.0 0.0 0.5 1.9 2.6 3.5 0.1 1.0 1.6 0.7 0.1 0.2 0.3 0.3 0.0 0.0 0.0 0.0 0.0 0.4 0.0 0.0 0.1 0.0 0.0 0.2 0.2 0.8 0.4 1.4 1.8 1.1 0.4 0.5 0.7
0.0 0.0 0.0 0.0 0.0 0.0 1.7 4.4 15.2 31.5 24.5 8.3 2.0 0.2 0.1 0.0 0.0 0.0 0.0 0.0 0.0 0.2 2.2 5.9 3.6 3.2 1.2 0.2 0.0 0.1 0.0 0.0 0.0 0.0 0.0 0.0 0.0 0.0 0.4 0.0 0.0 0.2 0.8 1.6 1.7 1.7 1.3 1.3 1.6 1.3 0.3 0.5 0.6 0.6
0.0 0.0 0.0 0.0 0.0 3.2 29.5 27.3 19.9 21.6 5.4 1.1 0.4 0.1 0.0 0.2 0.0 0.0 0.0 0.1 0.2 0.2 1.2 5.8 6.0 1.8 0.0 0.0 0.0 0.0 0.0 0.0 0.0 0.0 0.0 0.0 0.0 0.1 0.1 0.7 0.6 0.0 0.4 1.1 0.8 0.9 0.6 0.2 0.0 0.5 0.5 0.2 0.6 0.3
0.0 0.0 0.0 0.0 0.0 22.5 33.0 28.2 14.5 7.6 2.7 0.6 1.0 1.2 0.4 0.1 0.1 0.0 0.1 0.3 1.0 1.3 7.1 6.8 0.2 0.1 0.1 0.3 0.5 0.4 0.0 0.0 0.0 0.0 0.0 0.0 0.0 0.0 0.0 0.0 0.0 0.2 0.0 0.4 0.3 0.1 0.6 0.3 0.0 0.6 0.4 0.2 0.5 0.5
3.8 12.8 6.3 0.0 6.7 27.4 26.0 17.7 7.9 4.0 1.2 1.4 1.7 0.5 1.1 1.0 0.7 1.3 1.6 1.6 5.5 7.4 2.9 0.2 0.0 0.0 0.4 0.4 0.2 0.4 0.2 0.1 0.0 0.0 0.0 0.0 0.0 0.0 0.0 0.0 0.0 0.1 0.0 0.0 0.1 0.0 0.4 0.2 0.1 0.0 0.4 0.2 0.1 0.8
11.0 11.8 18.6 14.7 37.4 37.2 24.6 11.5 5.4 3.0 1.7 2.0 2.2 1.2 1.9 2.5 2.3 2.4 2.2 4.3 5.2 1.1 0.1 0.2 0.0 0.0 0.0 0.0 0.6 0.4 0.5 0.0 0.1 0.0 0.0 0.0 0.0 0.0 0.0 0.0 0.0 0.0 0.0 0.0 0.0 0.0 0.0 0.0 0.1 0.0 0.3 0.3 0.1 0.9
6.0 13.1 44.3 43.2 38.8 32.6 18.4 8.0 3.3 3.2 2.8 3.1 2.7 3.2 2.9 2.3 2.2 1.9 3.1 1.9 0.6 0.0 0.0 0.0 0.0 0.7 0.9 1.0 1.3 1.1 0.7 0.1 0.0 0.0 0.1 0.0 0.0 0.0 0.0 0.0 0.0 0.0 0.0 0.0 0.0 0.0 0.0 0.0 0.0 0.0 0.0 0.4 0.2 0.0
2.9 41.8 46.3 42.1 29.9 21.4 13.7 10.7 7.5 4.3 5.1 3.8 3.2 2.3 1.7 0.9 2.0 2.4 2.0 0.3 0.0 0.0 0.0 0.0 0.0 0.0 0.1 0.7 0.9 1.5 2.0 1.4 0.4 0.0 0.6 0.3 0.0 0.0 0.0 0.0 0.0 0.0 0.0 0.0 0.0 0.0 0.0 0.0 0.0 0.0 0.0 0.0 0.0 0.0
50.5 56.3 41.6 34.9 21.4 11.4 6.8 5.3 4.0 3.3 2.7 2.3 1.3 1.6 1.3 1.4 2.0 2.3 0.8 0.2 0.0 0.0 0.6 0.8 0.4 0.1 0.1 0.0 0.5 0.6 0.9 1.3 2.0 1.8 0.2 1.5 0.7 0.2 0.0 0.0 0.2 0.1 0.0 0.0 0.0 0.0 0.0 0.0 0.0 0.0 0.0 0.0 0.0 0.1
47.7 29.5 20.5 9.2 5.3 2.2 1.4 1.3 1.3 1.1 0.7 1.3 0.9 0.6 0.3 2.2 3.4 2.1 0.1 0.0 0.0 0.0 0.3 0.3 0.1 0.0 0.0 0.0 0.0 0.8 0.8 0.9 0.9 1.1 0.2 1.7 1.5 1.9 1.5 1.2 0.7 0.3 0.0 0.0 0.2 0.2 0.1 0.0 0.0 0.0 0.0 0.0 0.0 0.4
37.2 20.8 8.8 2.1 1.1 0.9 0.5 0.7 0.8 1.2 1.7 1.9 1.2 1.1 0.9 3.7 1.3 0.5 0.4 0.3 0.2 0.1 0.0 0.0 0.0 0.5 0.2 0.1 0.0 0.0 0.7 0.9 0.8 0.4 0.2 1.2 1.1 0.9 0.5 1.3 1.1 0.8 0.6 1.1 0.9 0.7 0.6 0.4 0.2 0.1 0.3 0.2 0.2 0.2
13.5 4.7 1.6 1.6 1.4 0.9 1.0 0.8 0.9 0.8 1.3 0.8 1.4 1.9 2.7 1.8 0.6 0.1 0.0 0.0 0.0 0.1 0.2 0.3 0.1 0.0 0.0 0.0 0.0 0.4 0.6 0.8 0.8 0.5 1.2 1.3 1.1 1.0 0.9 1.1 2.2 2.5 1.9 1.6 1.1 1.4 1.5 1.1 1.0 1.2 0.9 0.6 0.6 0.5
2.6 0.5 0.1 0.3 0.4 0.3 0.6 0.4 0.5 0.2 0.1 0.1 0.2 0.2 0.1 0.0 0.0 0.0 0.0 0.0 0.0 0.0 0.0 0.0 0.0 0.0 0.0 0.0 0.0 0.4 0.5 0.8 1.1 1.0 0.8 0.8 1.0 1.2 1.4 2.6 3.3 4.1 4.0 3.7 3.1 2.3 1.7 1.8 2.9 3.2 2.8 2.7 2.6 2.5
0.5 0.0 0.0 0.0 0.5 0.5 0.1 0.1 0.1 0.2 0.2 0.0 0.0 0.3 0.1 0.0 0.1 0.0 0.0 0.1 0.0 0.0 0.0 0.0 0.0 0.0 0.0 0.0 0.0 0.6 0.4 0.4 0.9 0.9 0.9 0.8 0.9 1.2 2.3 2.8 3.6 4.1 4.5 4.0 4.9 5.6 5.2 4.9 5.4 5.1 4.7 4.2 3.7 3.1
0.0 0.0 0.1 0.1 0.2 0.3 0.4 0.2 0.1 0.0 0.1 0.1 0.2 0.2 0.2 0.2 0.1 0.1 0.1 0.0 0.0 0.0 0.0 0.0 0.0 0.1 0.2 0.3 0.5 0.7 0.6 0.7 0.7 1.3 1.4 1.7 1.6 2.2 2.0 3.3 3.5 4.3 4.9 5.1 4.5 4.4 4.1 3.8 3.5 3.2 3.1 2.8 2.6 2.4
0.0 0.1 0.0 0.3 0.5 1.1 1.0 0.5 0.2 0.0 0.1 0.1 0.1 0.0 0.1 0.0 0.0 0.0 0.0 0.0 0.0 0.0 0.0 0.0 0.2 0.4 0.5 0.7 0.9 1.1 1.7 1.7 1.1 1.8 1.7 1.8 2.1 1.8 2.9 3.3 4.3 4.5 4.8 5.1 4.7 4.2 4.1 4.0 4.3 3.9 3.9 3.9 3.5 3.2
1.3 0.7 0.5 0.3 1.4 1.3 1.1 0.6 0.7 0.5 0.5 0.3 0.1 0.1 0.0 0.0 0.0 0.0 0.0 0.0 0.0 0.1 0.0 0.4 0.5 0.7 1.2 1.5 1.4 2.1 2.3 2.0 2.9 3.1 3.5 3.4 3.1 3.2 4.0 4.2 5.1 4.8 4.5 4.5 4.6 4.8 5.0 4.9 4.5 4.0 3.8 3.6 3.5 3.5

GFSWCAN_prec_snow_144.txt.gz
Snowfall_Accumulation
0.0 0.0 0.0 0.0 0.0 0.0 0.0 0.0 0.0 0.0 0.0 0.0 0.0 0.0 0.0 0.0 0.0 0.0 0.0 0.0 0.0 0.0 0.0 0.0 0.0 0.0 0.0 0.0 0.0 0.0 0.0 0.0 0.0 0.7 0.0 0.0 0.1 0.0 0.0 0.0 0.0 0.0 0.2 0.2 0.6 0.5 0.0 0.0 0.0 0.0 0.0 0.0 0.0 0.0
0.0 0.0 0.0 0.0 0.0 0.0 0.0 0.0 0.0 0.0 0.0 0.0 0.0 0.0 0.0 0.0 0.0 0.0 0.0 0.0 0.0 0.0 0.0 0.0 0.0 0.0 0.0 0.0 0.0 0.0 0.0 0.0 0.0 0.0 0.0 0.0 0.1 0.0 0.0 0.0 0.0 0.0 0.0 0.0 0.0 0.0 0.0 0.0 0.0 0.0 0.0 0.0 0.0 0.0
0.0 0.0 0.0 0.0 0.0 0.0 0.0 0.0 0.0 0.0 0.0 0.0 0.0 0.0 0.0 0.0 0.0 0.0 0.0 0.0 0.0 0.1 0.0 0.0 0.0 0.0 0.0 0.0 0.0 0.0 0.0 0.0 0.0 0.0 0.0 0.0 0.0 0.0 0.1 0.0 0.0 0.0 0.0 0.0 0.0 0.0 0.0 0.0 0.0 0.0 0.0 0.0 0.0 0.0
0.0 0.0 0.0 0.0 0.0 0.0 0.0 0.0 0.0 0.0 0.0 0.0 0.0 0.0 0.0 0.0 0.0 0.0 0.0 0.0 0.0 0.1 0.8 0.1 0.0 0.0 0.0 0.0 0.0 0.0 0.0 0.0 0.0 0.0 0.0 0.0 0.0 0.0 0.0 0.0 0.0 0.0 0.0 0.0 0.0 0.0 0.0 0.0 0.0 0.0 0.0 0.0 0.0 0.0
0.0 0.0 0.0 0.0 0.0 0.0 0.0 0.0 0.0 0.0 0.0 0.0 0.0 0.0 0.0 0.0 0.0 0.0 0.0 0.0 0.0 0.2 1.9 0.3 0.0 0.0 0.0 0.0 0.0 0.0 0.0 0.0 0.5 0.3 1.1 0.7 0.0 0.0 0.0 0.0 0.0 0.0 0.0 0.0 0.0 0.0 0.0 0.0 0.0 0.0 0.0 0.0 0.0 0.0
0.0 0.0 0.0 0.0 0.0 0.0 0.0 0.0 0.0 0.0 0.0 0.0 0.0 0.0 0.0 0.0 0.0 0.0 0.0 0.0 0.0 0.0 3.0 1.6 0.0 0.0 0.0 0.0 0.0 0.0 0.0 0.0 0.1 1.1 1.6 0.0 0.0 0.0 0.6 0.0 0.0 0.0 0.0 0.0 0.0 0.0 0.0 0.0 0.0 0.0 0.0 0.0 0.0 0.0
0.0 0.0 0.0 0.0 0.0 0.0 0.0 0.0 0.0 0.0 0.0 0.0 0.0 0.0 0.0 0.0 0.0 0.2 0.0 0.0 0.0 0.0 1.5 3.8 4.0 0.0 0.0 0.0 0.0 0.0 0.0 0.0 2.0 3.2 1.5 0.0 0.0 1.6 1.3 0.3 0.0 0.0 0.0 0.0 0.0 0.0 0.0 0.0 0.0 0.0 0.0 0.0 0.0 0.0
0.0 0.0 0.0 0.0 0.0 0.0 0.0 0.0 0.0 0.0 0.0 0.0 0.0 0.0 0.0 0.0 0.0 0.0 0.0 0.0 0.0 0.0 4.3 8.6 7.1 2.9 0.0 0.4 0.0 0.0 0.0 0.0 0.5 1.4 0.0 0.0 0.0 2.2 1.4 0.0 0.0 0.0 0.0 0.0 0.0 0.0 0.0 0.0 0.0 0.0 0.0 0.0 0.0 0.0
0.0 0.0 0.0 0.0 0.0 0.0 0.0 0.0 0.0 0.0 0.0 0.0 0.0 0.0 0.0 0.0 0.0 0.0 0.0 0.0 0.0 0.0 7.3 6.7 6.7 5.1 0.0 0.0 0.0 0.2 0.0 4.5 0.0 1.6 0.0 0.4 1.2 2.8 0.0 0.1 0.1 0.0 0.1 0.0 0.0 0.0 0.0 0.0 0.0 0.0 0.0 0.0 0.0 0.0
0.0 0.0 0.0 0.0 0.0 0.0 0.0 0.0 0.0 0.0 0.0 0.0 0.0 0.0 0.9 0.0 0.0 0.0 0.0 0.7 4.5 3.5 3.8 5.1 4.8 5.9 3.0 4.7 1.7 1.7 1.9 3.0 3.7 0.0 0.0 1.2 0.0 0.0 0.0 0.0 0.1 0.1 0.0 0.1 0.0 3.0 1.6 1.0 0.0 0.0 0.0 0.0 0.0 0.0
0.0 0.0 0.0 0.0 0.0 0.0 0.0 0.0 0.0 0.0 0.0 0.0 0.0 0.0 0.0 0.0 0.0 0.0 5.6 6.7 3.8 2.5 2.3 3.3 4.5 3.7 0.0 5.0 3.5 0.3 5.7 2.5 4.1 4.9 1.1 2.2 1.6 1.2 0.0 0.1 0.0 0.0 0.1 0.0 0.0 0.0 0.5 2.1 2.0 0.6 0.4 0.2 0.0 0.0
0.0 0.0 0.0 0.0 0.0 0.0 0.0 0.0 0.0 0.0 0.0 0.0 0.0 0.0 0.0 0.8 8.8 9.2 7.9 4.1 1.3 1.0 1.6 2.9 1.5 1.0 1.0 0.0 2.1 1.9 3.7 3.3 3.7 5.2 3.8 2.7 1.0 0.2 1.1 1.0 0.7 0.1 0.0 0.1 0.0 0.0 0.3 0.0 1.0 1.3 0.9 1.2 1.4 1.6
0.0 0.0 0.0 0.0 0.0 0.0 0.0 0.0 0.0 0.0 0.0 0.0 2.0 14.8 14.5 15.1 10.4 6.5 3.5 2.7 0.5 0.7 0.9 0.9 1.2 0.0 0.0 0.1 0.6 1.6 1.6 0.7 1.2 3.8 3.9 1.7 0.3 0.2 0.0 0.2 0.5 2.2 2.7 1.5 1.0 0.8 0.8 0.8 0.5 0.9 0.8 0.5 0.7 0.4
0.0 0.0 0.0 0.0 0.0 0.0 0.0 0.0 0.0 0.0 0.0 3.7 22.1 19.9 12.6 9.9 1.9 1.2 1.1 1.1 0.2 0.1 0.0 0.0 0.6 1.3 0.2 1.2 1.2 1.6 0.1 0.6 2.5 1.7 1.5 0.2 0.2 0.0 0.0 0.0 0.0 0.0 1.1 1.8 2.8 2.3 1.8 2.1 1.3 1.5 0.9 0.3 0.0 0.0
0.0 0.0 0.0 0.0 0.0 0.0 0.0 0.0 0.0 0.0 0.0 22.0 19.2 12.5 5.8 0.2 0.2 0.1 0.0 0.2 0.0 0.0 0.1 0.0 0.0 0.1 1.0 1.7 0.5 1.2 1.0 2.8 3.2 2.0 1.4 0.7 0.2 0.0 0.1 0.1 0.0 0.0 0.0 0.0 0.3 0.7 2.1 1.9 2.2 1.4 0.7 0.6 0.1 0.0
0.0 0.0 0.0 0.0 0.0 0.0 0.0 0.0 0.0 0.0 16.5 21.7 15.4 5.1 0.0 0.0 0.0 0.0 0.0 0.0 0.0 0.0 0.3 0.4 0.6 1.4 0.9 2.0 1.5 0.3 1.2 2.0 2.5 1.3 0.0 0.0 0.0 0.0 0.1 0.0 0.1 0.0 0.0 0.0 0.0 0.0 0.5 0.5 1.1 1.0 0.2 0.5 0.4 0.0
0.0 0.0 0.0 0.0 0.0 0.0 0.0 0.0 0.0 27.8 25.6 21.4 7.9 0.6 0.0 0.0 0.0 0.0 0.0 0.0 0.0 0.5 1.9 2.6 3.5 0.1 1.0 1.6 0.7 0.1 0.2 0.3 0.3 0.0 0.0 0.0 0.0 0.0 0.4 0.0 0.0 0.1 0.0 0.0 0.2 0.2 0.8 0.4 1.4 1.8 1.1 0.4 0.5 0.7
0.0 0.0 0.0 0.0 0.0 0.0 1.7 4.4 15.8 31.5 24.6 8.3 2.0 0.2 0.1 0.0 0.0 0.0 0.0 0.0 0.1 0.3 2.4 6.0 3.6 3.2 1.2 0.2 0.0 0.1 0.0 0.0 0.0 0.0 0.0 0.0 0.0 0.0 0.4 0.0 0.0 0.2 0.8 1.6 1.7 1.7 1.3 1.3 1.6 1.3 0.3 0.5 0.6 0.6
0.0 0.0 0.0 0.0 0.0 3.6 29.8 27.5 19.9 21.8 5.4 1.1 0.4 0.1 0.0 0.2 0.0 0.0 0.0 0.1 0.2 0.2 2.2 7.2 7.2 2.2 0.0 0.0 0.0 0.0 0.0 0.0 0.0 0.0 0.0 0.0 0.0 0.1 0.1 0.7 0.6 0.0 0.4 1.1 0.8 0.9 0.6 0.2 0.0 0.5 0.5 0.2 0.6 0.3
0.0 0.0 0.0 0.0 0.0 23.4 33.6 28.5 14.5 7.6 2.7 0.6 1.0 1.2 0.4 0.1 0.1 0.0 0.1 0.3 1.0 1.3 7.6 7.8 0.2 0.1 0.1 0.3 0.5 0.4 0.0 0.0 0.0 0.0 0.0 0.0 0.0 0.0 0.0 0.0 0.0 0.2 0.0 0.4 0.3 0.1 0.6 0.3 0.0 0.6 0.4 0.2 0.5 0.5
3.8 12.8 6.3 0.0 6.7 28.7 26.3 17.7 8.0 4.0 1.2 1.4 1.7 0.5 1.1 1.0 0.7 1.3 1.6 1.6 5.5 7.4 2.9 0.2 0.0 0.0 0.4 0.4 0.2 0.4 0.2 0.1 0.0 0.0 0.0 0.0 0.0 0.0 0.0 0.0 0.0 0.1 0.0 0.0 0.1 0.0 0.4 0.2 0.1 0.0 0.4 0.2 0.1 0.8
12.2 11.8 18.6 14.7 40.6 38.7 25.1 11.5 5.4 3.0 1.8 2.0 2.2 1.2 1.9 2.5 2.3 2.4 2.2 4.3 5.3 1.1 0.1 0.2 0.0 0.0 0.0 0.0 0.6 0.4 0.5 0.0 0.1 0.0 0.0 0.0 0.0 0.0 0.0 0.0 0.0 0.0 0.0 0.0 0.0 0.0 0.0 0.0 0.1 0.0 0.3 0.3 0.1 0.9
6.7 13.6 44.9 44.1 40.2 33.8 18.9 8.1 3.4 3.3 2.8 3.1 2.7 3.2 2.9 2.3 2.2 1.9 3.3 1.9 0.6 0.0 0.0 0.0 0.0 0.7 0.9 1.0 1.3 1.1 0.7 0.1 0.0 0.0 0.1 0.0 0.0 0.0 0.0 0.0 0.0 0.0 0.0 0.0 0.0 0.0 0.0 0.0 0.0 0.0 0.0 0.4 0.2 0.0
2.9 42.2 46.8 42.1 30.2 21.7 14.0 10.9 7.7 4.5 5.3 4.0 3.3 2.3 1.7 0.9 2.0 2.5 2.1 0.3 0.0 0.0 0.0 0.0 0.0 0.0 0.1 0.7 0.9 1.5 2.0 1.4 0.4 0.0 0.6 0.3 0.0 0.0 0.0 0.0 0.0 0.0 0.0 0.0 0.0 0.0 0.0 0.0 0.0 0.0 0.0 0.0 0.0 0.0
51.1 56.8 42.2 35.4 21.7 11.6 6.8 5.3 4.0 3.4 2.8 2.3 1.3 1.6 1.3 1.4 2.0 2.5 0.8 0.2 0.0 0.0 0.6 0.8 0.4 0.1 0.1 0.0 0.5 0.6 0.9 1.3 2.0 1.8 0.2 1.5 0.7 0.2 0.0 0.0 0.2 0.1 0.0 0.0 0.0 0.0 0.0 0.0 0.0 0.0 0.0 0.0 0.0 0.1
48.2 29.9 20.8 9.2 5.4 2.2 1.4 1.3 1.3 1.1 0.7 1.3 0.9 0.6 0.3 2.2 3.5 2.1 0.1 0.0 0.0 0.0 0.3 0.3 0.1 0.0 0.0 0.0 0.0 0.8 0.8 0.9 0.9 1.1 0.2 1.7 1.5 1.9 1.5 1.2 0.7 0.3 0.0 0.0 0.2 0.2 0.1 0.0 0.0 0.0 0.0 0.0 0.0 0.4
37.6 21.1 8.8 2.1 1.2 1.1 0.8 0.9 0.9 1.3 1.7 1.9 1.2 1.1 1.2 3.9 1.3 0.5 0.4 0.3 0.2 0.1 0.0 0.0 0.0 0.5 0.2 0.1 0.0 0.0 0.7 0.9 0.8 0.4 0.2 1.3 1.1 0.9 0.5 1.3 1.1 0.8 0.6 1.1 0.9 0.7 0.6 0.4 0.2 0.1 0.3 0.2 0.2 0.2
13.9 5.2 2.1 2.1 1.9 1.4 1.5 1.2 1.3 1.3 1.7 1.1 1.6 1.9 2.7 2.0 0.6 0.1 0.0 0.0 0.0 0.1 0.2 0.3 0.1 0.0 0.8 0.8 0.4 0.6 0.7 0.8 0.8 0.6 1.2 1.3 1.1 1.0 0.9 1.1 2.2 2.5 1.9 1.6 1.1 1.4 1.5 1.1 1.0 1.2 0.9 0.6 0.6 0.5
3.0 1.0 0.6 1.0 1.0 0.9 1.1 0.8 1.0 0.6 0.3 0.3 0.3 0.3 0.1 0.0 0.0 0.0 0.0 0.0 0.0 0.2 0.3 0.5 0.5 0.3 0.1 0.0 0.0 0.4 0.5 0.8 1.1 1.0 0.8 0.8 1.0 1.2 1.4 2.6 3.3 4.1 4.0 3.7 3.1 2.3 1.7 1.8 2.9 3.2 2.8 2.7 2.6 2.5
0.5 0.1 0.0 0.0 0.6 0.8 0.4 0.4 0.4 0.4 0.3 0.0 0.0 0.3 0.1 0.0 0.1 0.0 0.0 0.1 0.0 0.0 0.0 0.0 0.0 0.0 0.0 0.0 0.0 0.6 0.4 0.4 0.9 0.9 0.9 0.8 0.9 1.2 2.3 2.8 3.6 4.1 4.5 4.0 4.9 5.6 5.2 4.9 5.4 5.1 4.7 4.2 3.7 3.1
0.0 0.0 0.1 0.1 0.2 0.3 0.4 0.2 0.1 0.0 0.1 0.1 0.2 0.2 0.2 0.2 0.1 0.1 0.1 0.0 0.0 0.0 0.0 0.0 0.0 0.1 0.2 0.3 0.5 0.7 0.6 0.7 0.7 1.3 1.4 1.7 1.6 2.2 2.0 3.3 3.5 4.3 4.9 5.1 4.5 4.4 4.1 3.8 3.5 3.2 3.1 2.8 2.6 2.4
0.0 0.1 0.0 0.3 0.5 1.1 1.0 0.5 0.2 0.0 0.1 0.1 0.1 0.0 0.1 0.0 0.0 0.0 0.0 0.0 0.0 0.0 0.0 0.0 0.2 0.4 0.5 0.7 0.9 1.1 1.7 1.7 1.1 1.8 1.7 1.8 2.1 1.8 2.9 3.3 4.3 4.5 4.8 5.1 4.7 4.2 4.1 4.0 4.3 3.9 3.9 3.9 3.5 3.2
1.3 0.7 0.5 0.3 1.4 1.3 1.1 0.6 0.7 0.5 0.5 0.3 0.1 0.1 0.0 0.0 0.0 0.0 0.0 0.0 0.0 0.1 0.0 0.4 0.5 0.7 1.2 1.5 1.4 2.1 2.3 2.0 2.9 3.1 3.5 3.4 3.1 3.2 4.0 4.2 5.1 4.8 4.5 4.5 4.6 4.8 5.0 4.9 4.5 4.0 3.8 3.6 3.5 3.5

GFSWCAN_prec_snow_147.txt.gz
Snowfall_Accumulation
0.0 0.0 0.0 0.0 0.0 0.0 0.0 0.0 0.0 0.0 0.0 0.0 0.0 0.0 0.0 0.0 0.0 0.0 0.0 0.0 0.0 0.0 0.0 0.0 0.0 0.0 0.0 0.0 0.0 0.0 0.0 0.0 0.0 0.7 0.0 0.0 0.1 0.0 0.0 0.0 0.0 0.0 0.2 0.2 0.6 0.5 0.0 0.0 0.0 0.0 0.0 0.0 0.0 0.0
0.0 0.0 0.0 0.0 0.0 0.0 0.0 0.0 0.0 0.0 0.0 0.0 0.0 0.0 0.0 0.0 0.0 0.0 0.0 0.0 0.0 0.0 0.0 0.0 0.0 0.0 0.0 0.0 0.0 0.0 0.0 0.0 0.0 0.0 0.0 0.0 0.1 0.0 0.0 0.0 0.0 0.0 0.0 0.0 0.0 0.0 0.0 0.0 0.0 0.0 0.0 0.0 0.0 0.0
0.0 0.0 0.0 0.0 0.0 0.0 0.0 0.0 0.0 0.0 0.0 0.0 0.0 0.0 0.0 0.0 0.0 0.0 0.0 0.0 0.0 0.1 0.0 0.0 0.0 0.0 0.0 0.0 0.0 0.0 0.0 0.0 0.0 0.0 0.0 0.0 0.0 0.0 0.1 0.0 0.0 0.0 0.0 0.0 0.0 0.0 0.0 0.0 0.0 0.0 0.0 0.0 0.0 0.0
0.0 0.0 0.0 0.0 0.0 0.0 0.0 0.0 0.0 0.0 0.0 0.0 0.0 0.0 0.0 0.0 0.0 0.0 0.0 0.0 0.0 0.1 0.8 0.1 0.0 0.0 0.0 0.0 0.0 0.0 0.0 0.0 0.0 0.0 0.0 0.0 0.0 0.0 0.0 0.0 0.0 0.0 0.0 0.0 0.0 0.0 0.0 0.0 0.0 0.0 0.0 0.0 0.0 0.0
0.0 0.0 0.0 0.0 0.0 0.0 0.0 0.0 0.0 0.0 0.0 0.0 0.0 0.0 0.0 0.0 0.0 0.0 0.0 0.0 0.0 0.2 1.9 0.3 0.0 0.0 0.0 0.0 0.0 0.0 0.0 0.0 0.5 0.3 1.1 0.7 0.0 0.0 0.0 0.0 0.0 0.0 0.0 0.0 0.0 0.0 0.0 0.0 0.0 0.0 0.0 0.0 0.0 0.0
0.0 0.0 0.0 0.0 0.0 0.0 0.0 0.0 0.0 0.0 0.0 0.0 0.0 0.0 0.0 0.0 0.0 0.0 0.0 0.0 0.0 0.0 3.0 1.6 0.0 0.0 0.0 0.0 0.0 0.0 0.0 0.0 0.1 1.1 1.6 0.0 0.0 0.0 0.6 0.0 0.0 0.0 0.0 0.0 0.0 0.0 0.0 0.0 0.0 0.0 0.0 0.0 0.0 0.0
0.0 0.0 0.0 0.0 0.0 0.0 0.0 0.0 0.0 0.0 0.0 0.0 0.0 0.0 0.0 0.0 0.0 0.2 0.0 0.0 0.0 0.0 1.5 3.8 4.0 0.0 0.0 0.0 0.0 0.0 0.0 0.0 2.0 3.2 1.5 0.0 0.0 1.6 1.3 0.3 0.0 0.0 0.0 0.0 0.0 0.0 0.0 0.0 0.0 0.0 0.0 0.0 0.0 0.0
0.0 0.0 0.0 0.0 0.0 0.0 0.0 0.0 0.0 0.0 0.0 0.0 0.0 0.0 0.0 0.0 0.0 0.0 0.0 0.0 0.0 0.0 4.3 8.6 7.1 2.9 0.0 0.4 0.0 0.0 0.0 0.0 0.5 1.4 0.0 0.0 0.0 2.2 1.4 0.0 0.0 0.0 0.0 0.0 0.0 0.0 0.0 0.0 0.0 0.0 0.0 0.0 0.0 0.0
0.0 0.0 0.0 0.0 0.0 0.0 0.0 0.0 0.0 0.0 0.0 0.0 0.0 0.0 0.0 0.0 0.0 0.0 0.0 0.0 0.0 0.0 7.3 6.7 6.7 5.1 0.0 0.0 0.0 0.2 0.0 4.5 0.0 1.6 0.0 0.4 1.2 2.8 0.0 0.1 0.1 0.0 0.1 0.0 0.0 0.0 0.0 0.0 0.0 0.0 0.0 0.0 0.0 0.0
0.0 0.0 0.0 0.0 0.0 0.0 0.0 0.0 0.0 0.0 0.0 0.0 0.0 0.0 0.9 0.0 0.0 0.0 0.0 0.7 4.5 3.5 3.8 5.1 4.8 5.9 3.0 4.7 1.7 1.7 1.9 3.0 3.7 0.0 0.0 1.2 0.0 0.0 0.0 0.0 0.1 0.1 0.0 0.1 0.0 3.0 1.6 1.0 0.0 0.0 0.0 0.0 0.0 0.0
0.0 0.0 0.0 0.0 0.0 0.0 0.0 0.0 0.0 0.0 0.0 0.0 0.0 0.0 0.0 0.0 0.0 0.0 5.6 6.7 3.9 2.5 2.3 3.3 4.5 3.7 0.0 5.0 3.5 0.3 5.7 2.5 4.1 4.9 1.1 2.2 1.6 1.2 0.0 0.1 0.0 0.0 0.1 0.0 0.0 0.0 0.5 2.1 2.0 0.6 0.4 0.2 0.0 0.0
0.0 0.0 0.0 0.0 0.0 0.0 0.0 0.0 0.0 0.0 0.0 0.0 0.0 0.0 0.0 0.8 10.3 10.8 8.9 4.3 1.4 1.0 1.6 2.9 1.5 1.0 1.0 0.0 2.1 1.9 3.7 3.3 3.7 5.2 3.8 2.7 1.0 0.2 1.1 1.0 0.7 0.1 0.0 0.1 0.0 0.0 0.3 0.0 1.0 1.3 0.9 1.2 1.4 1.6
0.0 0.0 0.0 0.0 0.0 0.0 0.0 0.0 0.0 0.0 0.0 0.0 2.0 16.7 16.7 17.2 11.9 7.3 3.8 2.8 0.5 0.7 0.9 0.9 1.2 0.0 0.0 0.1 0.6 1.6 1.6 0.7 1.2 3.8 3.9 1.7 0.3 0.2 0.0 0.2 0.5 2.2 2.7 1.5 1.0 0.8 0.8 0.8 0.5 0.9 0.8 0.5 0.7 0.4
0.0 0.0 0.0 0.0 0.0 0.0 0.0 0.0 0.0 0.0 0.0 3.7 22.8 21.3 13.7 11.1 2.2 1.2 1.1 1.1 0.2 0.1 0.0 0.0 0.6 1.3 0.2 1.2 1.2 1.6 0.1 0.6 2.5 1.7 1.5 0.2 0.2 0.0 0.0 0.0 0.0 0.0 1.1 1.8 2.8 2.3 1.8 2.1 1.3 1.5 0.9 0.3 0.0 0.0
0.0 0.0 0.0 0.0 0.0 0.0 0.0 0.0 0.0 0.0 0.0 22.0 19.3 12.9 6.3 0.2 0.2 0.1 0.0 0.2 0.0 0.0 0.1 0.0 0.0 0.1 1.0 1.7 0.5 1.2 1.1 2.8 3.2 2.0 1.4 0.7 0.2 0.0 0.1 0.1 0.0 0.0 0.0 0.0 0.3 0.7 2.1 1.9 2.2 1.4 0.7 0.6 0.1 0.0
0.0 0.0 0.0 0.0 0.0 0.0 0.0 0.0 0.0 0.0 16.5 22.0 15.6 5.1 0.0 0.0 0.0 0.0 0.0 0.0 0.0 0.0 0.3 0.4 0.6 1.4 0.9 2.0 1.5 0.3 1.2 2.0 2.5 1.3 0.0 0.0 0.0 0.0 0.1 0.0 0.1 0.0 0.0 0.0 0.0 0.0 0.5 0.5 1.1 1.0 0.2 0.5 0.4 0.0
0.0 0.0 0.0 0.0 0.0 0.0 0.0 0.0 0.0 27.8 25.6 21.4 7.9 0.6 0.0 0.0 0.0 0.0 0.0 0.3 0.2 0.7 2.1 2.7 3.5 0.1 1.0 1.6 0.7 0.1 0.2 0.3 0.3 0.0 0.0 0.0 0.0 0.0 0.4 0.0 0.0 0.1 0.0 0.0 0.2 0.2 0.8 0.4 1.4 1.8 1.1 0.4 0.5 0.7
0.0 0.0 0.0 0.0 0.0 0.0 1.7 4.4 16.0 31.5 24.6 8.3 2.0 0.2 0.1 0.0 0.0 0.1 0.1 0.1 0.6 1.6 3.8 7.5 4.4 3.2 1.2 0.2 0.0 0.1 0.0 0.0 0.0 0.0 0.0 0.0 0.0 0.0 0.4 0.0 0.0 0.2 0.8 1.6 1.7 1.7 1.3 1.3 1.6 1.3 0.3 0.5 0.6 0.6
0.0 0.0 0.0 0.0 0.0 3.6 31.2 28.7 20.1 21.9 5.4 1.1 0.4 0.1 0.0 0.2 0.0 0.0 0.0 0.1 0.2 0.2 3.3 9.1 9.1 3.2 0.1 0.0 0.0 0.0 0.0 0.0 0.0 0.0 0.0 0.0 0.0 0.1 0.1 0.7 0.6 0.0 0.4 1.1 0.8 0.9 0.6 0.2 0.0 0.5 0.5 0.2 0.6 0.3
0.0 0.0 0.0 0.0 0.0 23.7 34.3 29.3 14.7 7.6 2.7 0.6 1.0 1.2 0.4 0.1 0.1 0.0 0.1 0.3 1.0 1.3 7.8 8.1 0.2 0.1 0.1 0.3 0.5 0.4 0.0 0.0 0.0 0.0 0.0 0.0 0.0 0.0 0.0 0.0 0.0 0.2 0.0 0.4 0.3 0.1 0.6 0.3 0.0 0.6 0.4 0.2 0.5 0.5
3.8 12.8 6.3 0.0 7.2 28.7 26.3 18.2 8.3 4.0 1.2 1.4 1.7 0.5 1.1 1.0 0.7 1.3 1.6 1.6 5.5 7.4 2.9 0.2 0.0 0.0 0.4 0.4 0.2 0.4 0.2 0.1 0.0 0.0 0.0 0.0 0.0 0.0 0.0 0.0 0.0 0.1 0.0 0.0 0.1 0.0 0.4 0.2 0.1 0.0 0.4 0.2 0.1 0.8
12.2 11.8 18.6 14.7 41.5 39.6 25.8 11.5 5.6 3.1 1.8 2.0 2.2 1.2 1.9 2.5 2.3 2.4 2.2 4.3 5.3 1.1 0.1 0.2 0.0 0.0 0.0 0.0 0.6 0.4 0.5 0.0 0.1 0.0 0.0 0.0 0.0 0.0 0.0 0.0 0.0 0.0 0.0 0.0 0.0 0.0 0.0 0.0 0.1 0.0 0.3 0.3 0.1 0.9
6.7 13.6 44.9 44.7 41.0 34.9 19.8 8.1 3.4 3.4 2.9 3.1 2.7 3.2 2.9 2.3 2.2 1.9 3.3 1.9 0.6 0.0 0.0 0.0 0.0 0.7 0.9 1.0 1.3 1.1 0.7 0.1 0.0 0.0 0.1 0.0 0.0 0.0 0.0 0.0 0.0 0.0 0.0 0.0 0.0 0.0 0.0 0.0 0.0 0.0 0.0 0.4 0.2 0.0
2.9 43.6 48.1 42.1 30.2 22.1 14.2 11.2 8.0 4.6 5.3 4.0 3.3 2.3 1.7 0.9 2.0 2.6 2.1 0.3 0.0 0.0 0.0 0.0 0.0 0.0 0.1 0.7 0.9 1.5 2.0 1.4 0.4 0.0 0.6 0.3 0.0 0.0 0.0 0.0 0.0 0.0 0.0 0.0 0.0 0.0 0.0 0.0 0.0 0.0 0.0 0.0 0.0 0.0
51.6 57.2 42.4 35.7 21.9 11.8 6.8 5.3 4.0 3.4 2.8 2.3 1.3 1.6 1.3 1.4 2.0 2.5 0.8 0.2 0.0 0.0 0.6 0.8 0.4 0.1 0.1 0.0 0.5 0.6 0.9 1.3 2.0 1.8 0.2 1.5 0.7 0.2 0.0 0.0 0.2 0.1 0.0 0.0 0.0 0.0 0.0 0.0 0.0 0.0 0.0 0.0 0.0 0.1
48.4 30.0 20.8 9.2 5.4 2.2 1.4 1.3 1.3 1.1 0.7 1.3 0.9 0.6 0.3 2.2 3.5 2.1 0.1 0.0 0.0 0.0 0.3 0.3 0.1 0.0 0.0 0.0 0.0 0.8 0.8 0.9 0.9 1.1 0.2 1.7 1.5 1.9 1.5 1.2 0.7 0.3 0.0 0.0 0.2 0.2 0.1 0.0 0.0 0.0 0.0 0.0 0.0 0.4
37.6 21.1 8.8 2.1 1.3 1.1 0.9 1.0 1.0 1.3 1.7 1.9 1.2 1.1 1.3 4.1 1.3 0.5 0.4 0.3 0.2 0.1 0.0 0.0 0.0 0.5 0.2 0.1 0.0 0.0 0.7 0.9 0.8 0.4 0.2 1.3 1.1 0.9 0.5 1.3 1.1 0.8 0.6 1.1 0.9 0.7 0.6 0.4 0.2 0.1 0.3 0.2 0.2 0.2
14.1 5.4 2.2 2.2 2.0 1.6 1.8 1.5 1.5 1.3 1.8 1.2 1.7 1.9 2.8 2.0 0.6 0.1 0.0 0.0 0.0 0.1 0.3 0.4 0.1 0.0 0.8 0.8 0.4 0.6 1.4 1.3 1.1 0.6 1.2 1.4 1.2 1.0 0.9 1.1 2.2 2.5 1.9 1.6 1.1 1.4 1.5 1.1 1.0 1.2 0.9 0.6 0.6 0.5
3.3 1.3 0.9 1.2 1.2 1.0 1.3 1.0 1.1 0.7 0.4 0.5 0.6 0.4 0.2 0.0 0.0 0.0 0.0 0.0 0.0 0.2 0.7 0.8 0.8 0.8 0.5 0.4 0.3 0.6 0.6 0.8 1.2 1.1 0.8 0.8 1.0 1.2 1.4 2.6 3.3 4.1 4.0 3.7 3.1 2.3 1.7 1.8 2.9 3.2 2.8 2.7 2.6 2.5
0.6 0.2 0.2 0.3 0.9 1.0 0.7 0.7 0.7 0.7 0.6 0.3 0.2 0.4 0.1 0.0 0.1 0.0 0.0 0.1 0.0 0.0 0.0 0.0 0.0 0.0 0.0 0.0 0.0 0.6 0.4 0.4 0.9 0.9 0.9 0.8 0.9 1.2 2.3 2.8 3.6 4.1 4.5 4.0 4.9 5.6 5.2 4.9 5.4 5.1 4.7 4.2 3.7 3.1
0.0 0.0 0.1 0.1 0.2 0.3 0.4 0.2 0.1 0.0 0.3 0.2 0.2 0.3 0.2 0.2 0.1 0.1 0.1 0.0 0.0 0.0 0.0 0.0 0.0 0.1 0.2 0.3 0.5 0.7 0.6 0.7 0.7 1.3 1.4 1.7 1.6 2.2 2.0 3.3 3.5 4.3 4.9 5.1 4.5 4.4 4.1 3.8 3.5 3.2 3.1 2.8 2.6 2.4
0.0 0.1 0.0 0.3 0.5 1.1 1.0 0.5 0.2 0.0 0.1 0.1 0.1 0.0 0.1 0.0 0.0 0.0 0.0 0.0 0.0 0.0 0.0 0.0 0.2 0.4 0.5 0.7 0.9 1.1 1.7 1.7 1.1 1.8 1.7 1.8 2.1 1.8 2.9 3.3 4.3 4.5 4.8 5.1 4.7 4.2 4.1 4.0 4.3 3.9 3.9 3.9 3.5 3.2
1.3 0.7 0.5 0.3 1.4 1.3 1.1 0.6 0.7 0.5 0.5 0.3 0.1 0.1 0.0 0.0 0.0 0.0 0.0 0.0 0.0 0.1 0.0 0.4 0.5 0.7 1.2 1.5 1.4 2.1 2.3 2.0 2.9 3.1 3.5 3.4 3.1 3.2 4.0 4.2 5.1 4.8 4.5 4.5 4.6 4.8 5.0 4.9 4.5 4.0 3.8 3.6 3.5 3.5